<?xml version="1.0" encoding="UTF-8" standalone="no" ?>
<gpx xmlns="http://www.topografix.com/GPX/1/1" xmlns:xsi="http://www.w3.org/2001/XMLSchema-instance" xsi:schemaLocation="http://www.topografix.com/GPX/1/1 http://www.topografix.com/GPX/1/1/gpx.xsd" version="1.1" creator="VisuGPX - https://www.visugpx.com">
  <metadata>
    <name>Trabsbaronnie jour 2</name>
    <desc><![CDATA[Transbaronnie 2014 jour 2]]></desc>
  </metadata>
  <trk>
    <name><![CDATA[Transbaronnie 2]]></name>
    <trkseg>
      <trkpt lat="44.4842" lon="5.38125">
        <ele>548.20001220703</ele>
        <time>2014-05-04T06:18:25.000Z</time>
      </trkpt>
      <trkpt lat="44.48407" lon="5.38124">
        <ele>548.20001220703</ele>
        <time>2014-05-04T06:18:27.000Z</time>
      </trkpt>
      <trkpt lat="44.48387" lon="5.38124">
        <ele>548.20001220703</ele>
        <time>2014-05-04T06:18:30.000Z</time>
      </trkpt>
      <trkpt lat="44.4831" lon="5.3816">
        <ele>546.20001220703</ele>
        <time>2014-05-04T06:18:43.000Z</time>
      </trkpt>
      <trkpt lat="44.4825" lon="5.38193">
        <ele>545.20001220703</ele>
        <time>2014-05-04T06:18:54.000Z</time>
      </trkpt>
      <trkpt lat="44.48217" lon="5.3817">
        <ele>545.20001220703</ele>
        <time>2014-05-04T06:19:02.000Z</time>
      </trkpt>
      <trkpt lat="44.48213" lon="5.38165">
        <ele>545.20001220703</ele>
        <time>2014-05-04T06:19:03.000Z</time>
      </trkpt>
      <trkpt lat="44.48192" lon="5.38139">
        <ele>545.20001220703</ele>
        <time>2014-05-04T06:19:10.000Z</time>
      </trkpt>
      <trkpt lat="44.48174" lon="5.38151">
        <ele>547.20001220703</ele>
        <time>2014-05-04T06:19:17.000Z</time>
      </trkpt>
      <trkpt lat="44.48155" lon="5.38131">
        <ele>547.40002441406</ele>
        <time>2014-05-04T06:19:26.000Z</time>
      </trkpt>
      <trkpt lat="44.48152" lon="5.38125">
        <ele>547.40002441406</ele>
        <time>2014-05-04T06:19:28.000Z</time>
      </trkpt>
      <trkpt lat="44.48145" lon="5.38112">
        <ele>547.40002441406</ele>
        <time>2014-05-04T06:19:32.000Z</time>
      </trkpt>
      <trkpt lat="44.48121" lon="5.38073">
        <ele>547.40002441406</ele>
        <time>2014-05-04T06:19:40.000Z</time>
      </trkpt>
      <trkpt lat="44.48116" lon="5.38061">
        <ele>547.40002441406</ele>
        <time>2014-05-04T06:19:42.000Z</time>
      </trkpt>
      <trkpt lat="44.48108" lon="5.38038">
        <ele>545.40002441406</ele>
        <time>2014-05-04T06:19:46.000Z</time>
      </trkpt>
      <trkpt lat="44.481" lon="5.38019">
        <ele>544.59997558594</ele>
        <time>2014-05-04T06:19:49.000Z</time>
      </trkpt>
      <trkpt lat="44.4807" lon="5.37967">
        <ele>544</ele>
        <time>2014-05-04T06:19:58.000Z</time>
      </trkpt>
      <trkpt lat="44.48036" lon="5.37957">
        <ele>546.20001220703</ele>
        <time>2014-05-04T06:20:07.000Z</time>
      </trkpt>
      <trkpt lat="44.48034" lon="5.37959">
        <ele>546.59997558594</ele>
        <time>2014-05-04T06:20:08.000Z</time>
      </trkpt>
      <trkpt lat="44.4803" lon="5.3797">
        <ele>548</ele>
        <time>2014-05-04T06:20:11.000Z</time>
      </trkpt>
      <trkpt lat="44.48029" lon="5.37982">
        <ele>549.79998779297</ele>
        <time>2014-05-04T06:20:15.000Z</time>
      </trkpt>
      <trkpt lat="44.48029" lon="5.38008">
        <ele>552.79998779297</ele>
        <time>2014-05-04T06:20:26.000Z</time>
      </trkpt>
      <trkpt lat="44.48034" lon="5.38031">
        <ele>555.79998779297</ele>
        <time>2014-05-04T06:20:39.000Z</time>
      </trkpt>
      <trkpt lat="44.48039" lon="5.38043">
        <ele>558</ele>
        <time>2014-05-04T06:20:47.000Z</time>
      </trkpt>
      <trkpt lat="44.48056" lon="5.38048">
        <ele>561.20001220703</ele>
        <time>2014-05-04T06:21:00.000Z</time>
      </trkpt>
      <trkpt lat="44.48069" lon="5.38056">
        <ele>563.20001220703</ele>
        <time>2014-05-04T06:21:11.000Z</time>
      </trkpt>
      <trkpt lat="44.48059" lon="5.38076">
        <ele>566.40002441406</ele>
        <time>2014-05-04T06:21:25.000Z</time>
      </trkpt>
      <trkpt lat="44.48057" lon="5.38077">
        <ele>566.79998779297</ele>
        <time>2014-05-04T06:21:27.000Z</time>
      </trkpt>
      <trkpt lat="44.48054" lon="5.38082">
        <ele>567.79998779297</ele>
        <time>2014-05-04T06:21:31.000Z</time>
      </trkpt>
      <trkpt lat="44.4805" lon="5.38108">
        <ele>571.20001220703</ele>
        <time>2014-05-04T06:21:47.000Z</time>
      </trkpt>
      <trkpt lat="44.48057" lon="5.38127">
        <ele>574</ele>
        <time>2014-05-04T06:22:01.000Z</time>
      </trkpt>
      <trkpt lat="44.48057" lon="5.38129">
        <ele>574.40002441406</ele>
        <time>2014-05-04T06:22:02.000Z</time>
      </trkpt>
      <trkpt lat="44.48058" lon="5.38133">
        <ele>574.79998779297</ele>
        <time>2014-05-04T06:22:05.000Z</time>
      </trkpt>
      <trkpt lat="44.48061" lon="5.38138">
        <ele>576</ele>
        <time>2014-05-04T06:22:10.000Z</time>
      </trkpt>
      <trkpt lat="44.48069" lon="5.38145">
        <ele>577.79998779297</ele>
        <time>2014-05-04T06:22:18.000Z</time>
      </trkpt>
      <trkpt lat="44.4809" lon="5.38153">
        <ele>581</ele>
        <time>2014-05-04T06:22:34.000Z</time>
      </trkpt>
      <trkpt lat="44.48104" lon="5.3817">
        <ele>584</ele>
        <time>2014-05-04T06:22:48.000Z</time>
      </trkpt>
      <trkpt lat="44.48101" lon="5.38195">
        <ele>586.79998779297</ele>
        <time>2014-05-04T06:23:02.000Z</time>
      </trkpt>
      <trkpt lat="44.48092" lon="5.38228">
        <ele>589.79998779297</ele>
        <time>2014-05-04T06:23:20.000Z</time>
      </trkpt>
      <trkpt lat="44.48092" lon="5.38234">
        <ele>590.59997558594</ele>
        <time>2014-05-04T06:23:23.000Z</time>
      </trkpt>
      <trkpt lat="44.48096" lon="5.38255">
        <ele>592.79998779297</ele>
        <time>2014-05-04T06:23:35.000Z</time>
      </trkpt>
      <trkpt lat="44.48098" lon="5.38281">
        <ele>596.20001220703</ele>
        <time>2014-05-04T06:23:49.000Z</time>
      </trkpt>
      <trkpt lat="44.48093" lon="5.38318">
        <ele>599</ele>
        <time>2014-05-04T06:24:05.000Z</time>
      </trkpt>
      <trkpt lat="44.48088" lon="5.38347">
        <ele>602</ele>
        <time>2014-05-04T06:24:20.000Z</time>
      </trkpt>
      <trkpt lat="44.48099" lon="5.38373">
        <ele>604.40002441406</ele>
        <time>2014-05-04T06:24:34.000Z</time>
      </trkpt>
      <trkpt lat="44.48109" lon="5.38394">
        <ele>606.20001220703</ele>
        <time>2014-05-04T06:24:45.000Z</time>
      </trkpt>
      <trkpt lat="44.4812" lon="5.38427">
        <ele>608.59997558594</ele>
        <time>2014-05-04T06:25:00.000Z</time>
      </trkpt>
      <trkpt lat="44.48141" lon="5.38478">
        <ele>610.40002441406</ele>
        <time>2014-05-04T06:25:18.000Z</time>
      </trkpt>
      <trkpt lat="44.48162" lon="5.38531">
        <ele>610.40002441406</ele>
        <time>2014-05-04T06:25:31.000Z</time>
      </trkpt>
      <trkpt lat="44.48165" lon="5.38535">
        <ele>610.40002441406</ele>
        <time>2014-05-04T06:25:32.000Z</time>
      </trkpt>
      <trkpt lat="44.4818" lon="5.38549">
        <ele>610.40002441406</ele>
        <time>2014-05-04T06:25:36.000Z</time>
      </trkpt>
      <trkpt lat="44.48212" lon="5.3858">
        <ele>610.40002441406</ele>
        <time>2014-05-04T06:25:46.000Z</time>
      </trkpt>
      <trkpt lat="44.48221" lon="5.38589">
        <ele>610.40002441406</ele>
        <time>2014-05-04T06:25:48.000Z</time>
      </trkpt>
      <trkpt lat="44.48238" lon="5.38618">
        <ele>605</ele>
        <time>2014-05-04T06:25:52.000Z</time>
      </trkpt>
      <trkpt lat="44.48254" lon="5.38658">
        <ele>601.20001220703</ele>
        <time>2014-05-04T06:25:56.000Z</time>
      </trkpt>
      <trkpt lat="44.48258" lon="5.38666">
        <ele>600.20001220703</ele>
        <time>2014-05-04T06:25:57.000Z</time>
      </trkpt>
      <trkpt lat="44.48256" lon="5.3871">
        <ele>595.59997558594</ele>
        <time>2014-05-04T06:26:02.000Z</time>
      </trkpt>
      <trkpt lat="44.48257" lon="5.3874">
        <ele>592.20001220703</ele>
        <time>2014-05-04T06:26:05.000Z</time>
      </trkpt>
      <trkpt lat="44.4826" lon="5.38756">
        <ele>591.79998779297</ele>
        <time>2014-05-04T06:26:07.000Z</time>
      </trkpt>
      <trkpt lat="44.4825" lon="5.38814">
        <ele>591.40002441406</ele>
        <time>2014-05-04T06:26:14.000Z</time>
      </trkpt>
      <trkpt lat="44.48222" lon="5.38858">
        <ele>586</ele>
        <time>2014-05-04T06:26:20.000Z</time>
      </trkpt>
      <trkpt lat="44.48207" lon="5.38883">
        <ele>582.59997558594</ele>
        <time>2014-05-04T06:26:23.000Z</time>
      </trkpt>
      <trkpt lat="44.48201" lon="5.38907">
        <ele>579.40002441406</ele>
        <time>2014-05-04T06:26:25.000Z</time>
      </trkpt>
      <trkpt lat="44.48201" lon="5.38919">
        <ele>578</ele>
        <time>2014-05-04T06:26:26.000Z</time>
      </trkpt>
      <trkpt lat="44.48199" lon="5.38956">
        <ele>575.59997558594</ele>
        <time>2014-05-04T06:26:29.000Z</time>
      </trkpt>
      <trkpt lat="44.48195" lon="5.38981">
        <ele>573.59997558594</ele>
        <time>2014-05-04T06:26:31.000Z</time>
      </trkpt>
      <trkpt lat="44.48191" lon="5.39035">
        <ele>568.79998779297</ele>
        <time>2014-05-04T06:26:35.000Z</time>
      </trkpt>
      <trkpt lat="44.48172" lon="5.39089">
        <ele>569</ele>
        <time>2014-05-04T06:26:41.000Z</time>
      </trkpt>
      <trkpt lat="44.48163" lon="5.39132">
        <ele>572.20001220703</ele>
        <time>2014-05-04T06:26:48.000Z</time>
      </trkpt>
      <trkpt lat="44.48159" lon="5.39146">
        <ele>572.59997558594</ele>
        <time>2014-05-04T06:26:51.000Z</time>
      </trkpt>
      <trkpt lat="44.4815" lon="5.39159">
        <ele>573.40002441406</ele>
        <time>2014-05-04T06:26:54.000Z</time>
      </trkpt>
      <trkpt lat="44.48139" lon="5.39168">
        <ele>573.40002441406</ele>
        <time>2014-05-04T06:26:57.000Z</time>
      </trkpt>
      <trkpt lat="44.48119" lon="5.39189">
        <ele>574</ele>
        <time>2014-05-04T06:27:03.000Z</time>
      </trkpt>
      <trkpt lat="44.48108" lon="5.39222">
        <ele>575.20001220703</ele>
        <time>2014-05-04T06:27:09.000Z</time>
      </trkpt>
      <trkpt lat="44.48098" lon="5.39243">
        <ele>575.20001220703</ele>
        <time>2014-05-04T06:27:13.000Z</time>
      </trkpt>
      <trkpt lat="44.48076" lon="5.39254">
        <ele>575.20001220703</ele>
        <time>2014-05-04T06:27:18.000Z</time>
      </trkpt>
      <trkpt lat="44.48059" lon="5.3925">
        <ele>576</ele>
        <time>2014-05-04T06:27:28.000Z</time>
      </trkpt>
      <trkpt lat="44.48057" lon="5.3925">
        <ele>576</ele>
        <time>2014-05-04T06:27:54.000Z</time>
      </trkpt>
      <trkpt lat="44.48036" lon="5.39255">
        <ele>576</ele>
        <time>2014-05-04T06:28:02.000Z</time>
      </trkpt>
      <trkpt lat="44.48029" lon="5.39277">
        <ele>576</ele>
        <time>2014-05-04T06:28:06.000Z</time>
      </trkpt>
      <trkpt lat="44.4803" lon="5.393">
        <ele>576</ele>
        <time>2014-05-04T06:28:09.000Z</time>
      </trkpt>
      <trkpt lat="44.48031" lon="5.39315">
        <ele>576</ele>
        <time>2014-05-04T06:28:11.000Z</time>
      </trkpt>
      <trkpt lat="44.48021" lon="5.39354">
        <ele>576</ele>
        <time>2014-05-04T06:28:17.000Z</time>
      </trkpt>
      <trkpt lat="44.47983" lon="5.39403">
        <ele>577.20001220703</ele>
        <time>2014-05-04T06:28:29.000Z</time>
      </trkpt>
      <trkpt lat="44.47979" lon="5.39408">
        <ele>577.79998779297</ele>
        <time>2014-05-04T06:28:32.000Z</time>
      </trkpt>
      <trkpt lat="44.47964" lon="5.39444">
        <ele>581</ele>
        <time>2014-05-04T06:28:47.000Z</time>
      </trkpt>
      <trkpt lat="44.47948" lon="5.39472">
        <ele>584</ele>
        <time>2014-05-04T06:28:59.000Z</time>
      </trkpt>
      <trkpt lat="44.47946" lon="5.39504">
        <ele>587</ele>
        <time>2014-05-04T06:29:12.000Z</time>
      </trkpt>
      <trkpt lat="44.47933" lon="5.39542">
        <ele>589.59997558594</ele>
        <time>2014-05-04T06:29:27.000Z</time>
      </trkpt>
      <trkpt lat="44.47921" lon="5.39586">
        <ele>592.79998779297</ele>
        <time>2014-05-04T06:29:41.000Z</time>
      </trkpt>
      <trkpt lat="44.47903" lon="5.39595">
        <ele>594.40002441406</ele>
        <time>2014-05-04T06:29:52.000Z</time>
      </trkpt>
      <trkpt lat="44.47895" lon="5.39587">
        <ele>595.59997558594</ele>
        <time>2014-05-04T06:29:57.000Z</time>
      </trkpt>
      <trkpt lat="44.47877" lon="5.39557">
        <ele>598.20001220703</ele>
        <time>2014-05-04T06:30:11.000Z</time>
      </trkpt>
      <trkpt lat="44.4785" lon="5.39527">
        <ele>601.20001220703</ele>
        <time>2014-05-04T06:30:28.000Z</time>
      </trkpt>
      <trkpt lat="44.47833" lon="5.39507">
        <ele>604.40002441406</ele>
        <time>2014-05-04T06:30:41.000Z</time>
      </trkpt>
      <trkpt lat="44.47839" lon="5.39486">
        <ele>606.20001220703</ele>
        <time>2014-05-04T06:30:52.000Z</time>
      </trkpt>
      <trkpt lat="44.47839" lon="5.39486">
        <ele>606.20001220703</ele>
        <time>2014-05-04T06:31:11.000Z</time>
      </trkpt>
      <trkpt lat="44.47835" lon="5.39512">
        <ele>606.20001220703</ele>
        <time>2014-05-04T06:31:20.000Z</time>
      </trkpt>
      <trkpt lat="44.47837" lon="5.39514">
        <ele>606.20001220703</ele>
        <time>2014-05-04T06:31:21.000Z</time>
      </trkpt>
      <trkpt lat="44.47857" lon="5.39539">
        <ele>601.79998779297</ele>
        <time>2014-05-04T06:31:28.000Z</time>
      </trkpt>
      <trkpt lat="44.47869" lon="5.39552">
        <ele>600.59997558594</ele>
        <time>2014-05-04T06:31:31.000Z</time>
      </trkpt>
      <trkpt lat="44.47882" lon="5.39561">
        <ele>599.20001220703</ele>
        <time>2014-05-04T06:31:34.000Z</time>
      </trkpt>
      <trkpt lat="44.47892" lon="5.39573">
        <ele>598.59997558594</ele>
        <time>2014-05-04T06:31:37.000Z</time>
      </trkpt>
      <trkpt lat="44.47896" lon="5.39583">
        <ele>598.20001220703</ele>
        <time>2014-05-04T06:31:40.000Z</time>
      </trkpt>
      <trkpt lat="44.47887" lon="5.39606">
        <ele>596.40002441406</ele>
        <time>2014-05-04T06:31:47.000Z</time>
      </trkpt>
      <trkpt lat="44.47868" lon="5.3962">
        <ele>598.40002441406</ele>
        <time>2014-05-04T06:31:57.000Z</time>
      </trkpt>
      <trkpt lat="44.47846" lon="5.39635">
        <ele>599.59997558594</ele>
        <time>2014-05-04T06:32:10.000Z</time>
      </trkpt>
      <trkpt lat="44.47825" lon="5.39664">
        <ele>602.59997558594</ele>
        <time>2014-05-04T06:32:23.000Z</time>
      </trkpt>
      <trkpt lat="44.47805" lon="5.39692">
        <ele>605.79998779297</ele>
        <time>2014-05-04T06:32:36.000Z</time>
      </trkpt>
      <trkpt lat="44.47781" lon="5.39713">
        <ele>608.79998779297</ele>
        <time>2014-05-04T06:32:49.000Z</time>
      </trkpt>
      <trkpt lat="44.47751" lon="5.39713">
        <ele>610.59997558594</ele>
        <time>2014-05-04T06:33:02.000Z</time>
      </trkpt>
      <trkpt lat="44.47746" lon="5.39716">
        <ele>611.40002441406</ele>
        <time>2014-05-04T06:33:04.000Z</time>
      </trkpt>
      <trkpt lat="44.47721" lon="5.39735">
        <ele>613.20001220703</ele>
        <time>2014-05-04T06:33:15.000Z</time>
      </trkpt>
      <trkpt lat="44.47682" lon="5.39766">
        <ele>615</ele>
        <time>2014-05-04T06:33:30.000Z</time>
      </trkpt>
      <trkpt lat="44.47675" lon="5.39772">
        <ele>615</ele>
        <time>2014-05-04T06:33:32.000Z</time>
      </trkpt>
      <trkpt lat="44.47664" lon="5.39822">
        <ele>615</ele>
        <time>2014-05-04T06:33:40.000Z</time>
      </trkpt>
      <trkpt lat="44.47663" lon="5.39828">
        <ele>615</ele>
        <time>2014-05-04T06:33:41.000Z</time>
      </trkpt>
      <trkpt lat="44.47646" lon="5.39871">
        <ele>615</ele>
        <time>2014-05-04T06:33:50.000Z</time>
      </trkpt>
      <trkpt lat="44.47627" lon="5.39888">
        <ele>615</ele>
        <time>2014-05-04T06:33:55.000Z</time>
      </trkpt>
      <trkpt lat="44.47591" lon="5.39923">
        <ele>615</ele>
        <time>2014-05-04T06:34:06.000Z</time>
      </trkpt>
      <trkpt lat="44.47577" lon="5.39965">
        <ele>615.79998779297</ele>
        <time>2014-05-04T06:34:18.000Z</time>
      </trkpt>
      <trkpt lat="44.47575" lon="5.39977">
        <ele>617.20001220703</ele>
        <time>2014-05-04T06:34:22.000Z</time>
      </trkpt>
      <trkpt lat="44.47562" lon="5.4001">
        <ele>618.59997558594</ele>
        <time>2014-05-04T06:34:32.000Z</time>
      </trkpt>
      <trkpt lat="44.47535" lon="5.40056">
        <ele>619</ele>
        <time>2014-05-04T06:34:43.000Z</time>
      </trkpt>
      <trkpt lat="44.47528" lon="5.40066">
        <ele>619</ele>
        <time>2014-05-04T06:34:45.000Z</time>
      </trkpt>
      <trkpt lat="44.47517" lon="5.40091">
        <ele>619</ele>
        <time>2014-05-04T06:34:50.000Z</time>
      </trkpt>
      <trkpt lat="44.47515" lon="5.40115">
        <ele>619</ele>
        <time>2014-05-04T06:34:54.000Z</time>
      </trkpt>
      <trkpt lat="44.4751" lon="5.4017">
        <ele>619</ele>
        <time>2014-05-04T06:35:04.000Z</time>
      </trkpt>
      <trkpt lat="44.47499" lon="5.40211">
        <ele>619</ele>
        <time>2014-05-04T06:35:11.000Z</time>
      </trkpt>
      <trkpt lat="44.47497" lon="5.40223">
        <ele>619</ele>
        <time>2014-05-04T06:35:13.000Z</time>
      </trkpt>
      <trkpt lat="44.47494" lon="5.40234">
        <ele>619</ele>
        <time>2014-05-04T06:35:15.000Z</time>
      </trkpt>
      <trkpt lat="44.47477" lon="5.40291">
        <ele>619.79998779297</ele>
        <time>2014-05-04T06:35:27.000Z</time>
      </trkpt>
      <trkpt lat="44.47472" lon="5.40305">
        <ele>620</ele>
        <time>2014-05-04T06:35:30.000Z</time>
      </trkpt>
      <trkpt lat="44.47469" lon="5.40319">
        <ele>620.59997558594</ele>
        <time>2014-05-04T06:35:32.000Z</time>
      </trkpt>
      <trkpt lat="44.47459" lon="5.40356">
        <ele>622.59997558594</ele>
        <time>2014-05-04T06:35:40.000Z</time>
      </trkpt>
      <trkpt lat="44.4742" lon="5.40386">
        <ele>622.79998779297</ele>
        <time>2014-05-04T06:35:51.000Z</time>
      </trkpt>
      <trkpt lat="44.47416" lon="5.40393">
        <ele>622.79998779297</ele>
        <time>2014-05-04T06:35:53.000Z</time>
      </trkpt>
      <trkpt lat="44.47414" lon="5.40455">
        <ele>622.79998779297</ele>
        <time>2014-05-04T06:36:05.000Z</time>
      </trkpt>
      <trkpt lat="44.47415" lon="5.40458">
        <ele>622.79998779297</ele>
        <time>2014-05-04T06:36:06.000Z</time>
      </trkpt>
      <trkpt lat="44.47407" lon="5.40471">
        <ele>622.79998779297</ele>
        <time>2014-05-04T06:36:12.000Z</time>
      </trkpt>
      <trkpt lat="44.47387" lon="5.40494">
        <ele>619.59997558594</ele>
        <time>2014-05-04T06:36:17.000Z</time>
      </trkpt>
      <trkpt lat="44.47379" lon="5.40506">
        <ele>619</ele>
        <time>2014-05-04T06:36:19.000Z</time>
      </trkpt>
      <trkpt lat="44.47366" lon="5.40551">
        <ele>617</ele>
        <time>2014-05-04T06:36:25.000Z</time>
      </trkpt>
      <trkpt lat="44.47354" lon="5.40611">
        <ele>613.79998779297</ele>
        <time>2014-05-04T06:36:32.000Z</time>
      </trkpt>
      <trkpt lat="44.47349" lon="5.4063">
        <ele>611.40002441406</ele>
        <time>2014-05-04T06:36:34.000Z</time>
      </trkpt>
      <trkpt lat="44.47342" lon="5.40644">
        <ele>610.59997558594</ele>
        <time>2014-05-04T06:36:36.000Z</time>
      </trkpt>
      <trkpt lat="44.47325" lon="5.40653">
        <ele>607.40002441406</ele>
        <time>2014-05-04T06:36:39.000Z</time>
      </trkpt>
      <trkpt lat="44.47305" lon="5.40657">
        <ele>603.59997558594</ele>
        <time>2014-05-04T06:36:42.000Z</time>
      </trkpt>
      <trkpt lat="44.47291" lon="5.40668">
        <ele>600.79998779297</ele>
        <time>2014-05-04T06:36:45.000Z</time>
      </trkpt>
      <trkpt lat="44.47274" lon="5.40675">
        <ele>598.40002441406</ele>
        <time>2014-05-04T06:36:48.000Z</time>
      </trkpt>
      <trkpt lat="44.47258" lon="5.40686">
        <ele>595.59997558594</ele>
        <time>2014-05-04T06:36:51.000Z</time>
      </trkpt>
      <trkpt lat="44.47225" lon="5.40705">
        <ele>593.20001220703</ele>
        <time>2014-05-04T06:36:58.000Z</time>
      </trkpt>
      <trkpt lat="44.47234" lon="5.40725">
        <ele>591.79998779297</ele>
        <time>2014-05-04T06:37:01.000Z</time>
      </trkpt>
      <trkpt lat="44.47248" lon="5.40746">
        <ele>588.79998779297</ele>
        <time>2014-05-04T06:37:05.000Z</time>
      </trkpt>
      <trkpt lat="44.47274" lon="5.40759">
        <ele>586.20001220703</ele>
        <time>2014-05-04T06:37:10.000Z</time>
      </trkpt>
      <trkpt lat="44.47309" lon="5.40775">
        <ele>583.40002441406</ele>
        <time>2014-05-04T06:37:18.000Z</time>
      </trkpt>
      <trkpt lat="44.47315" lon="5.40776">
        <ele>582.79998779297</ele>
        <time>2014-05-04T06:37:19.000Z</time>
      </trkpt>
      <trkpt lat="44.47343" lon="5.40825">
        <ele>579</ele>
        <time>2014-05-04T06:37:26.000Z</time>
      </trkpt>
      <trkpt lat="44.4734" lon="5.40843">
        <ele>577.40002441406</ele>
        <time>2014-05-04T06:37:28.000Z</time>
      </trkpt>
      <trkpt lat="44.47331" lon="5.4087">
        <ele>575.79998779297</ele>
        <time>2014-05-04T06:37:31.000Z</time>
      </trkpt>
      <trkpt lat="44.47328" lon="5.40879">
        <ele>575.59997558594</ele>
        <time>2014-05-04T06:37:32.000Z</time>
      </trkpt>
      <trkpt lat="44.47298" lon="5.40931">
        <ele>575.40002441406</ele>
        <time>2014-05-04T06:37:40.000Z</time>
      </trkpt>
      <trkpt lat="44.47277" lon="5.41005">
        <ele>575.40002441406</ele>
        <time>2014-05-04T06:37:50.000Z</time>
      </trkpt>
      <trkpt lat="44.47274" lon="5.41019">
        <ele>575.40002441406</ele>
        <time>2014-05-04T06:37:52.000Z</time>
      </trkpt>
      <trkpt lat="44.47263" lon="5.41052">
        <ele>577.40002441406</ele>
        <time>2014-05-04T06:37:57.000Z</time>
      </trkpt>
      <trkpt lat="44.47234" lon="5.41144">
        <ele>578.59997558594</ele>
        <time>2014-05-04T06:38:11.000Z</time>
      </trkpt>
      <trkpt lat="44.47209" lon="5.41254">
        <ele>579.59997558594</ele>
        <time>2014-05-04T06:38:28.000Z</time>
      </trkpt>
      <trkpt lat="44.47207" lon="5.41273">
        <ele>579.59997558594</ele>
        <time>2014-05-04T06:38:31.000Z</time>
      </trkpt>
      <trkpt lat="44.47203" lon="5.41291">
        <ele>580</ele>
        <time>2014-05-04T06:38:34.000Z</time>
      </trkpt>
      <trkpt lat="44.47182" lon="5.41334">
        <ele>583</ele>
        <time>2014-05-04T06:38:47.000Z</time>
      </trkpt>
      <trkpt lat="44.47168" lon="5.41353">
        <ele>585</ele>
        <time>2014-05-04T06:38:56.000Z</time>
      </trkpt>
      <trkpt lat="44.47167" lon="5.41358">
        <ele>585.59997558594</ele>
        <time>2014-05-04T06:38:58.000Z</time>
      </trkpt>
      <trkpt lat="44.47169" lon="5.41362">
        <ele>586.40002441406</ele>
        <time>2014-05-04T06:39:00.000Z</time>
      </trkpt>
      <trkpt lat="44.47171" lon="5.41373">
        <ele>587.59997558594</ele>
        <time>2014-05-04T06:39:05.000Z</time>
      </trkpt>
      <trkpt lat="44.47167" lon="5.41387">
        <ele>589</ele>
        <time>2014-05-04T06:39:12.000Z</time>
      </trkpt>
      <trkpt lat="44.47161" lon="5.41395">
        <ele>589.59997558594</ele>
        <time>2014-05-04T06:39:17.000Z</time>
      </trkpt>
      <trkpt lat="44.47154" lon="5.41405">
        <ele>590.79998779297</ele>
        <time>2014-05-04T06:39:23.000Z</time>
      </trkpt>
      <trkpt lat="44.47133" lon="5.41424">
        <ele>593</ele>
        <time>2014-05-04T06:39:36.000Z</time>
      </trkpt>
      <trkpt lat="44.47108" lon="5.41429">
        <ele>595.40002441406</ele>
        <time>2014-05-04T06:39:51.000Z</time>
      </trkpt>
      <trkpt lat="44.47077" lon="5.41434">
        <ele>598.59997558594</ele>
        <time>2014-05-04T06:40:08.000Z</time>
      </trkpt>
      <trkpt lat="44.4705" lon="5.41454">
        <ele>601.40002441406</ele>
        <time>2014-05-04T06:40:25.000Z</time>
      </trkpt>
      <trkpt lat="44.47037" lon="5.41463">
        <ele>603.59997558594</ele>
        <time>2014-05-04T06:40:41.000Z</time>
      </trkpt>
      <trkpt lat="44.47037" lon="5.41464">
        <ele>604</ele>
        <time>2014-05-04T06:41:00.000Z</time>
      </trkpt>
      <trkpt lat="44.47037" lon="5.41464">
        <ele>604</ele>
        <time>2014-05-04T06:41:21.000Z</time>
      </trkpt>
      <trkpt lat="44.47024" lon="5.41478">
        <ele>605</ele>
        <time>2014-05-04T06:41:33.000Z</time>
      </trkpt>
      <trkpt lat="44.46995" lon="5.41503">
        <ele>607</ele>
        <time>2014-05-04T06:41:47.000Z</time>
      </trkpt>
      <trkpt lat="44.46963" lon="5.41522">
        <ele>610.20001220703</ele>
        <time>2014-05-04T06:42:01.000Z</time>
      </trkpt>
      <trkpt lat="44.46937" lon="5.41549">
        <ele>612</ele>
        <time>2014-05-04T06:42:12.000Z</time>
      </trkpt>
      <trkpt lat="44.46916" lon="5.41573">
        <ele>612.79998779297</ele>
        <time>2014-05-04T06:42:23.000Z</time>
      </trkpt>
      <trkpt lat="44.469" lon="5.41588">
        <ele>615.20001220703</ele>
        <time>2014-05-04T06:42:36.000Z</time>
      </trkpt>
      <trkpt lat="44.46879" lon="5.41617">
        <ele>617.59997558594</ele>
        <time>2014-05-04T06:42:50.000Z</time>
      </trkpt>
      <trkpt lat="44.4686" lon="5.41644">
        <ele>619.40002441406</ele>
        <time>2014-05-04T06:43:03.000Z</time>
      </trkpt>
      <trkpt lat="44.46838" lon="5.4167">
        <ele>621.20001220703</ele>
        <time>2014-05-04T06:43:16.000Z</time>
      </trkpt>
      <trkpt lat="44.4682" lon="5.41704">
        <ele>623</ele>
        <time>2014-05-04T06:43:26.000Z</time>
      </trkpt>
      <trkpt lat="44.4679" lon="5.41753">
        <ele>623</ele>
        <time>2014-05-04T06:43:35.000Z</time>
      </trkpt>
      <trkpt lat="44.46781" lon="5.41782">
        <ele>623</ele>
        <time>2014-05-04T06:43:39.000Z</time>
      </trkpt>
      <trkpt lat="44.46771" lon="5.4181">
        <ele>621.20001220703</ele>
        <time>2014-05-04T06:43:43.000Z</time>
      </trkpt>
      <trkpt lat="44.46767" lon="5.41816">
        <ele>621</ele>
        <time>2014-05-04T06:43:44.000Z</time>
      </trkpt>
      <trkpt lat="44.46758" lon="5.41829">
        <ele>620.79998779297</ele>
        <time>2014-05-04T06:43:46.000Z</time>
      </trkpt>
      <trkpt lat="44.46739" lon="5.41881">
        <ele>620.59997558594</ele>
        <time>2014-05-04T06:43:54.000Z</time>
      </trkpt>
      <trkpt lat="44.46729" lon="5.41933">
        <ele>622.40002441406</ele>
        <time>2014-05-04T06:44:02.000Z</time>
      </trkpt>
      <trkpt lat="44.46696" lon="5.41948">
        <ele>618.79998779297</ele>
        <time>2014-05-04T06:44:09.000Z</time>
      </trkpt>
      <trkpt lat="44.46672" lon="5.41947">
        <ele>614.79998779297</ele>
        <time>2014-05-04T06:44:12.000Z</time>
      </trkpt>
      <trkpt lat="44.46664" lon="5.41947">
        <ele>613</ele>
        <time>2014-05-04T06:44:13.000Z</time>
      </trkpt>
      <trkpt lat="44.4664" lon="5.41948">
        <ele>609.20001220703</ele>
        <time>2014-05-04T06:44:16.000Z</time>
      </trkpt>
      <trkpt lat="44.46606" lon="5.41938">
        <ele>605</ele>
        <time>2014-05-04T06:44:21.000Z</time>
      </trkpt>
      <trkpt lat="44.46594" lon="5.4193">
        <ele>604.20001220703</ele>
        <time>2014-05-04T06:44:23.000Z</time>
      </trkpt>
      <trkpt lat="44.46562" lon="5.41919">
        <ele>606</ele>
        <time>2014-05-04T06:44:29.000Z</time>
      </trkpt>
      <trkpt lat="44.46539" lon="5.41916">
        <ele>604.79998779297</ele>
        <time>2014-05-04T06:44:33.000Z</time>
      </trkpt>
      <trkpt lat="44.46528" lon="5.41914">
        <ele>604.20001220703</ele>
        <time>2014-05-04T06:44:35.000Z</time>
      </trkpt>
      <trkpt lat="44.46504" lon="5.41909">
        <ele>607</ele>
        <time>2014-05-04T06:44:42.000Z</time>
      </trkpt>
      <trkpt lat="44.46485" lon="5.41923">
        <ele>607.40002441406</ele>
        <time>2014-05-04T06:44:51.000Z</time>
      </trkpt>
      <trkpt lat="44.4648" lon="5.4193">
        <ele>607.40002441406</ele>
        <time>2014-05-04T06:44:55.000Z</time>
      </trkpt>
      <trkpt lat="44.46459" lon="5.41934">
        <ele>608.59997558594</ele>
        <time>2014-05-04T06:45:08.000Z</time>
      </trkpt>
      <trkpt lat="44.46426" lon="5.41936">
        <ele>612</ele>
        <time>2014-05-04T06:45:23.000Z</time>
      </trkpt>
      <trkpt lat="44.46395" lon="5.41933">
        <ele>613.40002441406</ele>
        <time>2014-05-04T06:45:35.000Z</time>
      </trkpt>
      <trkpt lat="44.46364" lon="5.41923">
        <ele>616.20001220703</ele>
        <time>2014-05-04T06:45:50.000Z</time>
      </trkpt>
      <trkpt lat="44.46345" lon="5.4192">
        <ele>618.40002441406</ele>
        <time>2014-05-04T06:45:58.000Z</time>
      </trkpt>
      <trkpt lat="44.46315" lon="5.41916">
        <ele>619.79998779297</ele>
        <time>2014-05-04T06:46:13.000Z</time>
      </trkpt>
      <trkpt lat="44.46309" lon="5.41915">
        <ele>620.79998779297</ele>
        <time>2014-05-04T06:46:17.000Z</time>
      </trkpt>
      <trkpt lat="44.46294" lon="5.41901">
        <ele>623.40002441406</ele>
        <time>2014-05-04T06:46:30.000Z</time>
      </trkpt>
      <trkpt lat="44.4627" lon="5.41884">
        <ele>626.40002441406</ele>
        <time>2014-05-04T06:46:44.000Z</time>
      </trkpt>
      <trkpt lat="44.46249" lon="5.41846">
        <ele>627.20001220703</ele>
        <time>2014-05-04T06:46:56.000Z</time>
      </trkpt>
      <trkpt lat="44.46246" lon="5.41844">
        <ele>627.20001220703</ele>
        <time>2014-05-04T06:46:57.000Z</time>
      </trkpt>
      <trkpt lat="44.46214" lon="5.4184">
        <ele>627.40002441406</ele>
        <time>2014-05-04T06:47:09.000Z</time>
      </trkpt>
      <trkpt lat="44.46193" lon="5.41821">
        <ele>628.79998779297</ele>
        <time>2014-05-04T06:47:22.000Z</time>
      </trkpt>
      <trkpt lat="44.46177" lon="5.41808">
        <ele>631.79998779297</ele>
        <time>2014-05-04T06:47:33.000Z</time>
      </trkpt>
      <trkpt lat="44.46147" lon="5.41786">
        <ele>632.20001220703</ele>
        <time>2014-05-04T06:47:44.000Z</time>
      </trkpt>
      <trkpt lat="44.46118" lon="5.41779">
        <ele>633.40002441406</ele>
        <time>2014-05-04T06:47:55.000Z</time>
      </trkpt>
      <trkpt lat="44.4609" lon="5.41774">
        <ele>636</ele>
        <time>2014-05-04T06:48:09.000Z</time>
      </trkpt>
      <trkpt lat="44.46068" lon="5.41755">
        <ele>639.40002441406</ele>
        <time>2014-05-04T06:48:24.000Z</time>
      </trkpt>
      <trkpt lat="44.46044" lon="5.41722">
        <ele>641.79998779297</ele>
        <time>2014-05-04T06:48:42.000Z</time>
      </trkpt>
      <trkpt lat="44.46034" lon="5.41711">
        <ele>642.79998779297</ele>
        <time>2014-05-04T06:48:49.000Z</time>
      </trkpt>
      <trkpt lat="44.46001" lon="5.41684">
        <ele>645.40002441406</ele>
        <time>2014-05-04T06:49:08.000Z</time>
      </trkpt>
      <trkpt lat="44.4597" lon="5.41668">
        <ele>647.59997558594</ele>
        <time>2014-05-04T06:49:23.000Z</time>
      </trkpt>
      <trkpt lat="44.45946" lon="5.41654">
        <ele>650.79998779297</ele>
        <time>2014-05-04T06:49:36.000Z</time>
      </trkpt>
      <trkpt lat="44.45912" lon="5.41645">
        <ele>652.79998779297</ele>
        <time>2014-05-04T06:49:50.000Z</time>
      </trkpt>
      <trkpt lat="44.45884" lon="5.41615">
        <ele>655.40002441406</ele>
        <time>2014-05-04T06:50:04.000Z</time>
      </trkpt>
      <trkpt lat="44.45873" lon="5.41612">
        <ele>655.40002441406</ele>
        <time>2014-05-04T06:50:09.000Z</time>
      </trkpt>
      <trkpt lat="44.45872" lon="5.41601">
        <ele>655.40002441406</ele>
        <time>2014-05-04T06:50:21.000Z</time>
      </trkpt>
      <trkpt lat="44.45865" lon="5.41591">
        <ele>656.59997558594</ele>
        <time>2014-05-04T06:50:30.000Z</time>
      </trkpt>
      <trkpt lat="44.45855" lon="5.41575">
        <ele>659.40002441406</ele>
        <time>2014-05-04T06:50:43.000Z</time>
      </trkpt>
      <trkpt lat="44.45843" lon="5.41566">
        <ele>662.40002441406</ele>
        <time>2014-05-04T06:50:56.000Z</time>
      </trkpt>
      <trkpt lat="44.45842" lon="5.41566">
        <ele>662.59997558594</ele>
        <time>2014-05-04T06:50:57.000Z</time>
      </trkpt>
      <trkpt lat="44.45828" lon="5.41568">
        <ele>664.40002441406</ele>
        <time>2014-05-04T06:51:09.000Z</time>
      </trkpt>
      <trkpt lat="44.45803" lon="5.4158">
        <ele>665.79998779297</ele>
        <time>2014-05-04T06:51:20.000Z</time>
      </trkpt>
      <trkpt lat="44.45794" lon="5.41588">
        <ele>668.20001220703</ele>
        <time>2014-05-04T06:51:27.000Z</time>
      </trkpt>
      <trkpt lat="44.45781" lon="5.41609">
        <ele>671.40002441406</ele>
        <time>2014-05-04T06:51:41.000Z</time>
      </trkpt>
      <trkpt lat="44.45776" lon="5.41625">
        <ele>674.59997558594</ele>
        <time>2014-05-04T06:51:53.000Z</time>
      </trkpt>
      <trkpt lat="44.45765" lon="5.41634">
        <ele>677.40002441406</ele>
        <time>2014-05-04T06:52:06.000Z</time>
      </trkpt>
      <trkpt lat="44.45754" lon="5.41633">
        <ele>679.20001220703</ele>
        <time>2014-05-04T06:52:14.000Z</time>
      </trkpt>
      <trkpt lat="44.45745" lon="5.41634">
        <ele>680.79998779297</ele>
        <time>2014-05-04T06:52:20.000Z</time>
      </trkpt>
      <trkpt lat="44.45734" lon="5.41637">
        <ele>682.59997558594</ele>
        <time>2014-05-04T06:52:29.000Z</time>
      </trkpt>
      <trkpt lat="44.45723" lon="5.41642">
        <ele>685</ele>
        <time>2014-05-04T06:52:37.000Z</time>
      </trkpt>
      <trkpt lat="44.45707" lon="5.4165">
        <ele>688.40002441406</ele>
        <time>2014-05-04T06:52:49.000Z</time>
      </trkpt>
      <trkpt lat="44.45693" lon="5.41652">
        <ele>691.79998779297</ele>
        <time>2014-05-04T06:52:59.000Z</time>
      </trkpt>
      <trkpt lat="44.45683" lon="5.41652">
        <ele>694.40002441406</ele>
        <time>2014-05-04T06:53:07.000Z</time>
      </trkpt>
      <trkpt lat="44.45667" lon="5.41657">
        <ele>697.59997558594</ele>
        <time>2014-05-04T06:53:19.000Z</time>
      </trkpt>
      <trkpt lat="44.45653" lon="5.41663">
        <ele>700.59997558594</ele>
        <time>2014-05-04T06:53:30.000Z</time>
      </trkpt>
      <trkpt lat="44.45641" lon="5.4167">
        <ele>702.79998779297</ele>
        <time>2014-05-04T06:53:40.000Z</time>
      </trkpt>
      <trkpt lat="44.45624" lon="5.41684">
        <ele>706.20001220703</ele>
        <time>2014-05-04T06:53:53.000Z</time>
      </trkpt>
      <trkpt lat="44.45599" lon="5.41702">
        <ele>708.40002441406</ele>
        <time>2014-05-04T06:54:08.000Z</time>
      </trkpt>
      <trkpt lat="44.45572" lon="5.41711">
        <ele>711.79998779297</ele>
        <time>2014-05-04T06:54:24.000Z</time>
      </trkpt>
      <trkpt lat="44.45553" lon="5.41702">
        <ele>714.40002441406</ele>
        <time>2014-05-04T06:54:36.000Z</time>
      </trkpt>
      <trkpt lat="44.45533" lon="5.41696">
        <ele>717.40002441406</ele>
        <time>2014-05-04T06:54:48.000Z</time>
      </trkpt>
      <trkpt lat="44.45511" lon="5.41702">
        <ele>719</ele>
        <time>2014-05-04T06:55:01.000Z</time>
      </trkpt>
      <trkpt lat="44.45487" lon="5.41705">
        <ele>720</ele>
        <time>2014-05-04T06:55:13.000Z</time>
      </trkpt>
      <trkpt lat="44.45468" lon="5.41674">
        <ele>721.40002441406</ele>
        <time>2014-05-04T06:55:27.000Z</time>
      </trkpt>
      <trkpt lat="44.45452" lon="5.41661">
        <ele>724</ele>
        <time>2014-05-04T06:55:40.000Z</time>
      </trkpt>
      <trkpt lat="44.45448" lon="5.41667">
        <ele>725.20001220703</ele>
        <time>2014-05-04T06:55:43.000Z</time>
      </trkpt>
      <trkpt lat="44.45448" lon="5.41669">
        <ele>725.79998779297</ele>
        <time>2014-05-04T06:55:44.000Z</time>
      </trkpt>
      <trkpt lat="44.45445" lon="5.41679">
        <ele>726.40002441406</ele>
        <time>2014-05-04T06:55:48.000Z</time>
      </trkpt>
      <trkpt lat="44.45447" lon="5.41712">
        <ele>728.20001220703</ele>
        <time>2014-05-04T06:56:02.000Z</time>
      </trkpt>
      <trkpt lat="44.45443" lon="5.4174">
        <ele>731.20001220703</ele>
        <time>2014-05-04T06:56:16.000Z</time>
      </trkpt>
      <trkpt lat="44.45425" lon="5.41751">
        <ele>733.79998779297</ele>
        <time>2014-05-04T06:56:30.000Z</time>
      </trkpt>
      <trkpt lat="44.45415" lon="5.4173">
        <ele>737</ele>
        <time>2014-05-04T06:56:41.000Z</time>
      </trkpt>
      <trkpt lat="44.45397" lon="5.41707">
        <ele>739.59997558594</ele>
        <time>2014-05-04T06:56:57.000Z</time>
      </trkpt>
      <trkpt lat="44.45379" lon="5.41699">
        <ele>742.79998779297</ele>
        <time>2014-05-04T06:57:12.000Z</time>
      </trkpt>
      <trkpt lat="44.45359" lon="5.41687">
        <ele>746.20001220703</ele>
        <time>2014-05-04T06:57:28.000Z</time>
      </trkpt>
      <trkpt lat="44.45347" lon="5.41673">
        <ele>749.40002441406</ele>
        <time>2014-05-04T06:57:38.000Z</time>
      </trkpt>
      <trkpt lat="44.45322" lon="5.41647">
        <ele>752.59997558594</ele>
        <time>2014-05-04T06:57:57.000Z</time>
      </trkpt>
      <trkpt lat="44.45314" lon="5.41641">
        <ele>753.40002441406</ele>
        <time>2014-05-04T06:58:03.000Z</time>
      </trkpt>
      <trkpt lat="44.45308" lon="5.41634">
        <ele>754.40002441406</ele>
        <time>2014-05-04T06:58:08.000Z</time>
      </trkpt>
      <trkpt lat="44.45289" lon="5.41609">
        <ele>757.79998779297</ele>
        <time>2014-05-04T06:58:27.000Z</time>
      </trkpt>
      <trkpt lat="44.45278" lon="5.41595">
        <ele>760.79998779297</ele>
        <time>2014-05-04T06:58:37.000Z</time>
      </trkpt>
      <trkpt lat="44.45262" lon="5.41577">
        <ele>763.79998779297</ele>
        <time>2014-05-04T06:58:51.000Z</time>
      </trkpt>
      <trkpt lat="44.45252" lon="5.41561">
        <ele>766.79998779297</ele>
        <time>2014-05-04T06:59:01.000Z</time>
      </trkpt>
      <trkpt lat="44.45244" lon="5.41553">
        <ele>769</ele>
        <time>2014-05-04T06:59:08.000Z</time>
      </trkpt>
      <trkpt lat="44.4523" lon="5.4155">
        <ele>772.20001220703</ele>
        <time>2014-05-04T06:59:18.000Z</time>
      </trkpt>
      <trkpt lat="44.45214" lon="5.41549">
        <ele>774.20001220703</ele>
        <time>2014-05-04T06:59:30.000Z</time>
      </trkpt>
      <trkpt lat="44.45199" lon="5.41544">
        <ele>777.40002441406</ele>
        <time>2014-05-04T06:59:42.000Z</time>
      </trkpt>
      <trkpt lat="44.45188" lon="5.41544">
        <ele>779</ele>
        <time>2014-05-04T06:59:51.000Z</time>
      </trkpt>
      <trkpt lat="44.45174" lon="5.4154">
        <ele>780.40002441406</ele>
        <time>2014-05-04T07:00:01.000Z</time>
      </trkpt>
      <trkpt lat="44.45156" lon="5.41533">
        <ele>784.20001220703</ele>
        <time>2014-05-04T07:00:14.000Z</time>
      </trkpt>
      <trkpt lat="44.45129" lon="5.41519">
        <ele>786.40002441406</ele>
        <time>2014-05-04T07:00:30.000Z</time>
      </trkpt>
      <trkpt lat="44.45101" lon="5.41503">
        <ele>789.59997558594</ele>
        <time>2014-05-04T07:00:48.000Z</time>
      </trkpt>
      <trkpt lat="44.45073" lon="5.41478">
        <ele>792.40002441406</ele>
        <time>2014-05-04T07:01:06.000Z</time>
      </trkpt>
      <trkpt lat="44.45038" lon="5.41459">
        <ele>795.20001220703</ele>
        <time>2014-05-04T07:01:25.000Z</time>
      </trkpt>
      <trkpt lat="44.45015" lon="5.41441">
        <ele>798.20001220703</ele>
        <time>2014-05-04T07:01:40.000Z</time>
      </trkpt>
      <trkpt lat="44.44999" lon="5.4142">
        <ele>801.40002441406</ele>
        <time>2014-05-04T07:01:53.000Z</time>
      </trkpt>
      <trkpt lat="44.44981" lon="5.41398">
        <ele>804.40002441406</ele>
        <time>2014-05-04T07:02:07.000Z</time>
      </trkpt>
      <trkpt lat="44.44965" lon="5.41378">
        <ele>807.20001220703</ele>
        <time>2014-05-04T07:02:20.000Z</time>
      </trkpt>
      <trkpt lat="44.44946" lon="5.41353">
        <ele>810.20001220703</ele>
        <time>2014-05-04T07:02:34.000Z</time>
      </trkpt>
      <trkpt lat="44.44931" lon="5.41324">
        <ele>813.40002441406</ele>
        <time>2014-05-04T07:02:49.000Z</time>
      </trkpt>
      <trkpt lat="44.44921" lon="5.41288">
        <ele>815</ele>
        <time>2014-05-04T07:03:05.000Z</time>
      </trkpt>
      <trkpt lat="44.4491" lon="5.41249">
        <ele>815</ele>
        <time>2014-05-04T07:03:16.000Z</time>
      </trkpt>
      <trkpt lat="44.449" lon="5.41178">
        <ele>812</ele>
        <time>2014-05-04T07:03:24.000Z</time>
      </trkpt>
      <trkpt lat="44.44905" lon="5.41101">
        <ele>809.40002441406</ele>
        <time>2014-05-04T07:03:32.000Z</time>
      </trkpt>
      <trkpt lat="44.44905" lon="5.4107">
        <ele>807.79998779297</ele>
        <time>2014-05-04T07:03:35.000Z</time>
      </trkpt>
      <trkpt lat="44.44899" lon="5.41051">
        <ele>807.20001220703</ele>
        <time>2014-05-04T07:03:37.000Z</time>
      </trkpt>
      <trkpt lat="44.44893" lon="5.41034">
        <ele>806.79998779297</ele>
        <time>2014-05-04T07:03:39.000Z</time>
      </trkpt>
      <trkpt lat="44.44876" lon="5.41011">
        <ele>806.79998779297</ele>
        <time>2014-05-04T07:03:43.000Z</time>
      </trkpt>
      <trkpt lat="44.44848" lon="5.40992">
        <ele>809.59997558594</ele>
        <time>2014-05-04T07:03:50.000Z</time>
      </trkpt>
      <trkpt lat="44.44813" lon="5.40946">
        <ele>807.40002441406</ele>
        <time>2014-05-04T07:03:58.000Z</time>
      </trkpt>
      <trkpt lat="44.44804" lon="5.40929">
        <ele>806.59997558594</ele>
        <time>2014-05-04T07:04:00.000Z</time>
      </trkpt>
      <trkpt lat="44.44786" lon="5.40881">
        <ele>805</ele>
        <time>2014-05-04T07:04:05.000Z</time>
      </trkpt>
      <trkpt lat="44.44746" lon="5.40847">
        <ele>803.59997558594</ele>
        <time>2014-05-04T07:04:11.000Z</time>
      </trkpt>
      <trkpt lat="44.44722" lon="5.4084">
        <ele>802.20001220703</ele>
        <time>2014-05-04T07:04:14.000Z</time>
      </trkpt>
      <trkpt lat="44.44693" lon="5.40817">
        <ele>799.59997558594</ele>
        <time>2014-05-04T07:04:18.000Z</time>
      </trkpt>
      <trkpt lat="44.44669" lon="5.40733">
        <ele>798.20001220703</ele>
        <time>2014-05-04T07:04:27.000Z</time>
      </trkpt>
      <trkpt lat="44.44694" lon="5.40712">
        <ele>796.40002441406</ele>
        <time>2014-05-04T07:04:31.000Z</time>
      </trkpt>
      <trkpt lat="44.44726" lon="5.40692">
        <ele>795.20001220703</ele>
        <time>2014-05-04T07:04:35.000Z</time>
      </trkpt>
      <trkpt lat="44.44754" lon="5.40659">
        <ele>793</ele>
        <time>2014-05-04T07:04:39.000Z</time>
      </trkpt>
      <trkpt lat="44.44773" lon="5.40611">
        <ele>788.40002441406</ele>
        <time>2014-05-04T07:04:43.000Z</time>
      </trkpt>
      <trkpt lat="44.44774" lon="5.40584">
        <ele>787.20001220703</ele>
        <time>2014-05-04T07:04:45.000Z</time>
      </trkpt>
      <trkpt lat="44.44774" lon="5.4055">
        <ele>785.59997558594</ele>
        <time>2014-05-04T07:04:48.000Z</time>
      </trkpt>
      <trkpt lat="44.44793" lon="5.40487">
        <ele>780.59997558594</ele>
        <time>2014-05-04T07:04:55.000Z</time>
      </trkpt>
      <trkpt lat="44.44796" lon="5.40476">
        <ele>779.79998779297</ele>
        <time>2014-05-04T07:04:56.000Z</time>
      </trkpt>
      <trkpt lat="44.44808" lon="5.4044">
        <ele>775</ele>
        <time>2014-05-04T07:04:59.000Z</time>
      </trkpt>
      <trkpt lat="44.44811" lon="5.40375">
        <ele>770.79998779297</ele>
        <time>2014-05-04T07:05:04.000Z</time>
      </trkpt>
      <trkpt lat="44.4482" lon="5.403">
        <ele>767.40002441406</ele>
        <time>2014-05-04T07:05:09.000Z</time>
      </trkpt>
      <trkpt lat="44.44831" lon="5.40247">
        <ele>764</ele>
        <time>2014-05-04T07:05:13.000Z</time>
      </trkpt>
      <trkpt lat="44.44833" lon="5.40231">
        <ele>763.20001220703</ele>
        <time>2014-05-04T07:05:15.000Z</time>
      </trkpt>
      <trkpt lat="44.44833" lon="5.40225">
        <ele>763.59997558594</ele>
        <time>2014-05-04T07:05:16.000Z</time>
      </trkpt>
      <trkpt lat="44.44829" lon="5.40208">
        <ele>765.20001220703</ele>
        <time>2014-05-04T07:05:19.000Z</time>
      </trkpt>
      <trkpt lat="44.44822" lon="5.40197">
        <ele>765.40002441406</ele>
        <time>2014-05-04T07:05:21.000Z</time>
      </trkpt>
      <trkpt lat="44.44816" lon="5.40183">
        <ele>765.40002441406</ele>
        <time>2014-05-04T07:05:23.000Z</time>
      </trkpt>
      <trkpt lat="44.44809" lon="5.40144">
        <ele>759.79998779297</ele>
        <time>2014-05-04T07:05:27.000Z</time>
      </trkpt>
      <trkpt lat="44.44811" lon="5.40113">
        <ele>758.20001220703</ele>
        <time>2014-05-04T07:05:30.000Z</time>
      </trkpt>
      <trkpt lat="44.44818" lon="5.40084">
        <ele>757.59997558594</ele>
        <time>2014-05-04T07:05:33.000Z</time>
      </trkpt>
      <trkpt lat="44.44846" lon="5.40029">
        <ele>753.59997558594</ele>
        <time>2014-05-04T07:05:39.000Z</time>
      </trkpt>
      <trkpt lat="44.44864" lon="5.39986">
        <ele>749.79998779297</ele>
        <time>2014-05-04T07:05:43.000Z</time>
      </trkpt>
      <trkpt lat="44.44866" lon="5.39944">
        <ele>747.79998779297</ele>
        <time>2014-05-04T07:05:47.000Z</time>
      </trkpt>
      <trkpt lat="44.4486" lon="5.39907">
        <ele>746.20001220703</ele>
        <time>2014-05-04T07:05:50.000Z</time>
      </trkpt>
      <trkpt lat="44.44846" lon="5.39864">
        <ele>746</ele>
        <time>2014-05-04T07:05:54.000Z</time>
      </trkpt>
      <trkpt lat="44.44841" lon="5.39826">
        <ele>748</ele>
        <time>2014-05-04T07:05:58.000Z</time>
      </trkpt>
      <trkpt lat="44.44853" lon="5.39721">
        <ele>746.79998779297</ele>
        <time>2014-05-04T07:06:10.000Z</time>
      </trkpt>
      <trkpt lat="44.44861" lon="5.39665">
        <ele>741</ele>
        <time>2014-05-04T07:06:15.000Z</time>
      </trkpt>
      <trkpt lat="44.44862" lon="5.39631">
        <ele>738.79998779297</ele>
        <time>2014-05-04T07:06:18.000Z</time>
      </trkpt>
      <trkpt lat="44.44853" lon="5.39595">
        <ele>741.40002441406</ele>
        <time>2014-05-04T07:06:22.000Z</time>
      </trkpt>
      <trkpt lat="44.4486" lon="5.39548">
        <ele>739.59997558594</ele>
        <time>2014-05-04T07:06:29.000Z</time>
      </trkpt>
      <trkpt lat="44.44866" lon="5.39542">
        <ele>738.59997558594</ele>
        <time>2014-05-04T07:06:31.000Z</time>
      </trkpt>
      <trkpt lat="44.44868" lon="5.39539">
        <ele>738.20001220703</ele>
        <time>2014-05-04T07:06:32.000Z</time>
      </trkpt>
      <trkpt lat="44.44857" lon="5.39516">
        <ele>737.40002441406</ele>
        <time>2014-05-04T07:06:39.000Z</time>
      </trkpt>
      <trkpt lat="44.44817" lon="5.39501">
        <ele>736.59997558594</ele>
        <time>2014-05-04T07:06:49.000Z</time>
      </trkpt>
      <trkpt lat="44.44809" lon="5.39494">
        <ele>735.79998779297</ele>
        <time>2014-05-04T07:06:51.000Z</time>
      </trkpt>
      <trkpt lat="44.44805" lon="5.39461">
        <ele>732.59997558594</ele>
        <time>2014-05-04T07:06:55.000Z</time>
      </trkpt>
      <trkpt lat="44.44806" lon="5.39418">
        <ele>728.79998779297</ele>
        <time>2014-05-04T07:06:59.000Z</time>
      </trkpt>
      <trkpt lat="44.44801" lon="5.3937">
        <ele>724.79998779297</ele>
        <time>2014-05-04T07:07:03.000Z</time>
      </trkpt>
      <trkpt lat="44.44801" lon="5.39334">
        <ele>722.59997558594</ele>
        <time>2014-05-04T07:07:06.000Z</time>
      </trkpt>
      <trkpt lat="44.448" lon="5.39312">
        <ele>721.79998779297</ele>
        <time>2014-05-04T07:07:08.000Z</time>
      </trkpt>
      <trkpt lat="44.44796" lon="5.39262">
        <ele>720.79998779297</ele>
        <time>2014-05-04T07:07:13.000Z</time>
      </trkpt>
      <trkpt lat="44.44799" lon="5.39223">
        <ele>719.20001220703</ele>
        <time>2014-05-04T07:07:18.000Z</time>
      </trkpt>
      <trkpt lat="44.4479" lon="5.39198">
        <ele>716.20001220703</ele>
        <time>2014-05-04T07:07:23.000Z</time>
      </trkpt>
      <trkpt lat="44.44775" lon="5.39181">
        <ele>711.20001220703</ele>
        <time>2014-05-04T07:07:27.000Z</time>
      </trkpt>
      <trkpt lat="44.44761" lon="5.39166">
        <ele>707.20001220703</ele>
        <time>2014-05-04T07:07:30.000Z</time>
      </trkpt>
      <trkpt lat="44.44748" lon="5.39152">
        <ele>702.79998779297</ele>
        <time>2014-05-04T07:07:33.000Z</time>
      </trkpt>
      <trkpt lat="44.44744" lon="5.39148">
        <ele>701.40002441406</ele>
        <time>2014-05-04T07:07:34.000Z</time>
      </trkpt>
      <trkpt lat="44.44723" lon="5.39142">
        <ele>696.40002441406</ele>
        <time>2014-05-04T07:07:38.000Z</time>
      </trkpt>
      <trkpt lat="44.44704" lon="5.39152">
        <ele>692.40002441406</ele>
        <time>2014-05-04T07:07:41.000Z</time>
      </trkpt>
      <trkpt lat="44.44692" lon="5.39157">
        <ele>689.20001220703</ele>
        <time>2014-05-04T07:07:43.000Z</time>
      </trkpt>
      <trkpt lat="44.4468" lon="5.39152">
        <ele>687.40002441406</ele>
        <time>2014-05-04T07:07:45.000Z</time>
      </trkpt>
      <trkpt lat="44.44664" lon="5.39139">
        <ele>683.20001220703</ele>
        <time>2014-05-04T07:07:48.000Z</time>
      </trkpt>
      <trkpt lat="44.44647" lon="5.39126">
        <ele>679.20001220703</ele>
        <time>2014-05-04T07:07:51.000Z</time>
      </trkpt>
      <trkpt lat="44.44627" lon="5.39107">
        <ele>675.79998779297</ele>
        <time>2014-05-04T07:07:55.000Z</time>
      </trkpt>
      <trkpt lat="44.44617" lon="5.39099">
        <ele>672.59997558594</ele>
        <time>2014-05-04T07:07:57.000Z</time>
      </trkpt>
      <trkpt lat="44.44597" lon="5.39084">
        <ele>669</ele>
        <time>2014-05-04T07:08:01.000Z</time>
      </trkpt>
      <trkpt lat="44.44591" lon="5.3908">
        <ele>668</ele>
        <time>2014-05-04T07:08:02.000Z</time>
      </trkpt>
      <trkpt lat="44.44573" lon="5.39033">
        <ele>664.40002441406</ele>
        <time>2014-05-04T07:08:09.000Z</time>
      </trkpt>
      <trkpt lat="44.4457" lon="5.39">
        <ele>660.20001220703</ele>
        <time>2014-05-04T07:08:15.000Z</time>
      </trkpt>
      <trkpt lat="44.4457" lon="5.38997">
        <ele>660</ele>
        <time>2014-05-04T07:08:16.000Z</time>
      </trkpt>
      <trkpt lat="44.44559" lon="5.38997">
        <ele>657.79998779297</ele>
        <time>2014-05-04T07:08:21.000Z</time>
      </trkpt>
      <trkpt lat="44.44543" lon="5.39009">
        <ele>654.79998779297</ele>
        <time>2014-05-04T07:08:29.000Z</time>
      </trkpt>
      <trkpt lat="44.4454" lon="5.39006">
        <ele>654</ele>
        <time>2014-05-04T07:08:31.000Z</time>
      </trkpt>
      <trkpt lat="44.44539" lon="5.38996">
        <ele>651.79998779297</ele>
        <time>2014-05-04T07:08:40.000Z</time>
      </trkpt>
      <trkpt lat="44.44539" lon="5.38996">
        <ele>651.79998779297</ele>
        <time>2014-05-04T07:08:54.000Z</time>
      </trkpt>
      <trkpt lat="44.44547" lon="5.38982">
        <ele>649.40002441406</ele>
        <time>2014-05-04T07:08:59.000Z</time>
      </trkpt>
      <trkpt lat="44.44529" lon="5.38982">
        <ele>645.59997558594</ele>
        <time>2014-05-04T07:09:06.000Z</time>
      </trkpt>
      <trkpt lat="44.44515" lon="5.38973">
        <ele>642.20001220703</ele>
        <time>2014-05-04T07:09:10.000Z</time>
      </trkpt>
      <trkpt lat="44.4452" lon="5.38953">
        <ele>639</ele>
        <time>2014-05-04T07:09:13.000Z</time>
      </trkpt>
      <trkpt lat="44.44523" lon="5.38946">
        <ele>637</ele>
        <time>2014-05-04T07:09:14.000Z</time>
      </trkpt>
      <trkpt lat="44.44525" lon="5.38914">
        <ele>633</ele>
        <time>2014-05-04T07:09:19.000Z</time>
      </trkpt>
      <trkpt lat="44.44516" lon="5.38889">
        <ele>626.59997558594</ele>
        <time>2014-05-04T07:09:24.000Z</time>
      </trkpt>
      <trkpt lat="44.44516" lon="5.38885">
        <ele>625.79998779297</ele>
        <time>2014-05-04T07:09:25.000Z</time>
      </trkpt>
      <trkpt lat="44.44524" lon="5.38867">
        <ele>621.59997558594</ele>
        <time>2014-05-04T07:09:29.000Z</time>
      </trkpt>
      <trkpt lat="44.44526" lon="5.38856">
        <ele>619.40002441406</ele>
        <time>2014-05-04T07:09:31.000Z</time>
      </trkpt>
      <trkpt lat="44.44533" lon="5.38834">
        <ele>616.59997558594</ele>
        <time>2014-05-04T07:09:34.000Z</time>
      </trkpt>
      <trkpt lat="44.44538" lon="5.38809">
        <ele>614.59997558594</ele>
        <time>2014-05-04T07:09:37.000Z</time>
      </trkpt>
      <trkpt lat="44.44525" lon="5.38772">
        <ele>610.59997558594</ele>
        <time>2014-05-04T07:09:42.000Z</time>
      </trkpt>
      <trkpt lat="44.44488" lon="5.38708">
        <ele>608.79998779297</ele>
        <time>2014-05-04T07:09:51.000Z</time>
      </trkpt>
      <trkpt lat="44.44479" lon="5.38696">
        <ele>611.79998779297</ele>
        <time>2014-05-04T07:09:55.000Z</time>
      </trkpt>
      <trkpt lat="44.44472" lon="5.38691">
        <ele>613.79998779297</ele>
        <time>2014-05-04T07:09:59.000Z</time>
      </trkpt>
      <trkpt lat="44.44457" lon="5.38689">
        <ele>616.79998779297</ele>
        <time>2014-05-04T07:10:08.000Z</time>
      </trkpt>
      <trkpt lat="44.44424" lon="5.38695">
        <ele>619.79998779297</ele>
        <time>2014-05-04T07:10:19.000Z</time>
      </trkpt>
      <trkpt lat="44.44419" lon="5.38696">
        <ele>619.20001220703</ele>
        <time>2014-05-04T07:10:20.000Z</time>
      </trkpt>
      <trkpt lat="44.4438" lon="5.38711">
        <ele>616</ele>
        <time>2014-05-04T07:10:26.000Z</time>
      </trkpt>
      <trkpt lat="44.4435" lon="5.38704">
        <ele>612.40002441406</ele>
        <time>2014-05-04T07:10:31.000Z</time>
      </trkpt>
      <trkpt lat="44.44339" lon="5.38693">
        <ele>610.79998779297</ele>
        <time>2014-05-04T07:10:33.000Z</time>
      </trkpt>
      <trkpt lat="44.44308" lon="5.38683">
        <ele>605.79998779297</ele>
        <time>2014-05-04T07:10:38.000Z</time>
      </trkpt>
      <trkpt lat="44.44292" lon="5.38684">
        <ele>602.79998779297</ele>
        <time>2014-05-04T07:10:40.000Z</time>
      </trkpt>
      <trkpt lat="44.44265" lon="5.38652">
        <ele>597.79998779297</ele>
        <time>2014-05-04T07:10:47.000Z</time>
      </trkpt>
      <trkpt lat="44.44272" lon="5.38625">
        <ele>595.40002441406</ele>
        <time>2014-05-04T07:10:50.000Z</time>
      </trkpt>
      <trkpt lat="44.44286" lon="5.38591">
        <ele>589.20001220703</ele>
        <time>2014-05-04T07:10:53.000Z</time>
      </trkpt>
      <trkpt lat="44.44291" lon="5.38579">
        <ele>586.79998779297</ele>
        <time>2014-05-04T07:10:54.000Z</time>
      </trkpt>
      <trkpt lat="44.44281" lon="5.38528">
        <ele>582.20001220703</ele>
        <time>2014-05-04T07:10:59.000Z</time>
      </trkpt>
      <trkpt lat="44.44273" lon="5.3852">
        <ele>581.20001220703</ele>
        <time>2014-05-04T07:11:00.000Z</time>
      </trkpt>
      <trkpt lat="44.44247" lon="5.38493">
        <ele>575.20001220703</ele>
        <time>2014-05-04T07:11:03.000Z</time>
      </trkpt>
      <trkpt lat="44.44225" lon="5.38474">
        <ele>569.59997558594</ele>
        <time>2014-05-04T07:11:05.000Z</time>
      </trkpt>
      <trkpt lat="44.44203" lon="5.38455">
        <ele>562.40002441406</ele>
        <time>2014-05-04T07:11:07.000Z</time>
      </trkpt>
      <trkpt lat="44.44192" lon="5.38446">
        <ele>559.40002441406</ele>
        <time>2014-05-04T07:11:08.000Z</time>
      </trkpt>
      <trkpt lat="44.44182" lon="5.38438">
        <ele>556.20001220703</ele>
        <time>2014-05-04T07:11:09.000Z</time>
      </trkpt>
      <trkpt lat="44.44173" lon="5.3843">
        <ele>553.20001220703</ele>
        <time>2014-05-04T07:11:10.000Z</time>
      </trkpt>
      <trkpt lat="44.44145" lon="5.38383">
        <ele>546.59997558594</ele>
        <time>2014-05-04T07:11:14.000Z</time>
      </trkpt>
      <trkpt lat="44.44137" lon="5.38338">
        <ele>543.20001220703</ele>
        <time>2014-05-04T07:11:17.000Z</time>
      </trkpt>
      <trkpt lat="44.44136" lon="5.38295">
        <ele>542.59997558594</ele>
        <time>2014-05-04T07:11:22.000Z</time>
      </trkpt>
      <trkpt lat="44.44133" lon="5.38298">
        <ele>544.20001220703</ele>
        <time>2014-05-04T07:11:25.000Z</time>
      </trkpt>
      <trkpt lat="44.44132" lon="5.38304">
        <ele>544.40002441406</ele>
        <time>2014-05-04T07:11:26.000Z</time>
      </trkpt>
      <trkpt lat="44.44127" lon="5.38361">
        <ele>541.40002441406</ele>
        <time>2014-05-04T07:11:32.000Z</time>
      </trkpt>
      <trkpt lat="44.44129" lon="5.38406">
        <ele>536.40002441406</ele>
        <time>2014-05-04T07:11:36.000Z</time>
      </trkpt>
      <trkpt lat="44.44121" lon="5.38437">
        <ele>535.59997558594</ele>
        <time>2014-05-04T07:11:41.000Z</time>
      </trkpt>
      <trkpt lat="44.44121" lon="5.38436">
        <ele>535.59997558594</ele>
        <time>2014-05-04T07:11:42.000Z</time>
      </trkpt>
      <trkpt lat="44.44129" lon="5.38409">
        <ele>535.59997558594</ele>
        <time>2014-05-04T07:11:50.000Z</time>
      </trkpt>
      <trkpt lat="44.44122" lon="5.3841">
        <ele>535.59997558594</ele>
        <time>2014-05-04T07:11:53.000Z</time>
      </trkpt>
      <trkpt lat="44.44107" lon="5.38422">
        <ele>535.59997558594</ele>
        <time>2014-05-04T07:11:58.000Z</time>
      </trkpt>
      <trkpt lat="44.44097" lon="5.38412">
        <ele>535.59997558594</ele>
        <time>2014-05-04T07:12:02.000Z</time>
      </trkpt>
      <trkpt lat="44.44081" lon="5.38374">
        <ele>533.20001220703</ele>
        <time>2014-05-04T07:12:09.000Z</time>
      </trkpt>
      <trkpt lat="44.4407" lon="5.38319">
        <ele>531.20001220703</ele>
        <time>2014-05-04T07:12:17.000Z</time>
      </trkpt>
      <trkpt lat="44.44059" lon="5.38299">
        <ele>530.59997558594</ele>
        <time>2014-05-04T07:12:21.000Z</time>
      </trkpt>
      <trkpt lat="44.44045" lon="5.38287">
        <ele>532.59997558594</ele>
        <time>2014-05-04T07:12:26.000Z</time>
      </trkpt>
      <trkpt lat="44.44031" lon="5.38275">
        <ele>533.79998779297</ele>
        <time>2014-05-04T07:12:31.000Z</time>
      </trkpt>
      <trkpt lat="44.44026" lon="5.38259">
        <ele>533.79998779297</ele>
        <time>2014-05-04T07:12:35.000Z</time>
      </trkpt>
      <trkpt lat="44.44024" lon="5.38241">
        <ele>533.79998779297</ele>
        <time>2014-05-04T07:12:39.000Z</time>
      </trkpt>
      <trkpt lat="44.4403" lon="5.38218">
        <ele>533.79998779297</ele>
        <time>2014-05-04T07:12:43.000Z</time>
      </trkpt>
      <trkpt lat="44.44038" lon="5.38173">
        <ele>537.20001220703</ele>
        <time>2014-05-04T07:12:54.000Z</time>
      </trkpt>
      <trkpt lat="44.44048" lon="5.38145">
        <ele>540.20001220703</ele>
        <time>2014-05-04T07:13:06.000Z</time>
      </trkpt>
      <trkpt lat="44.4405" lon="5.38135">
        <ele>540.59997558594</ele>
        <time>2014-05-04T07:13:10.000Z</time>
      </trkpt>
      <trkpt lat="44.4405" lon="5.38124">
        <ele>542.20001220703</ele>
        <time>2014-05-04T07:13:16.000Z</time>
      </trkpt>
      <trkpt lat="44.44053" lon="5.38099">
        <ele>545.40002441406</ele>
        <time>2014-05-04T07:13:28.000Z</time>
      </trkpt>
      <trkpt lat="44.44053" lon="5.38097">
        <ele>545.40002441406</ele>
        <time>2014-05-04T07:13:29.000Z</time>
      </trkpt>
      <trkpt lat="44.44059" lon="5.38076">
        <ele>547.79998779297</ele>
        <time>2014-05-04T07:13:39.000Z</time>
      </trkpt>
      <trkpt lat="44.4406" lon="5.38067">
        <ele>548.59997558594</ele>
        <time>2014-05-04T07:13:43.000Z</time>
      </trkpt>
      <trkpt lat="44.44047" lon="5.38032">
        <ele>552.20001220703</ele>
        <time>2014-05-04T07:13:59.000Z</time>
      </trkpt>
      <trkpt lat="44.44037" lon="5.38002">
        <ele>553.59997558594</ele>
        <time>2014-05-04T07:14:10.000Z</time>
      </trkpt>
      <trkpt lat="44.44026" lon="5.37953">
        <ele>553.79998779297</ele>
        <time>2014-05-04T07:14:22.000Z</time>
      </trkpt>
      <trkpt lat="44.44009" lon="5.37922">
        <ele>553.79998779297</ele>
        <time>2014-05-04T07:14:28.000Z</time>
      </trkpt>
      <trkpt lat="44.44004" lon="5.37893">
        <ele>553.79998779297</ele>
        <time>2014-05-04T07:14:33.000Z</time>
      </trkpt>
      <trkpt lat="44.44002" lon="5.37851">
        <ele>556.79998779297</ele>
        <time>2014-05-04T07:14:45.000Z</time>
      </trkpt>
      <trkpt lat="44.43981" lon="5.37802">
        <ele>559.79998779297</ele>
        <time>2014-05-04T07:14:57.000Z</time>
      </trkpt>
      <trkpt lat="44.43967" lon="5.37785">
        <ele>559.79998779297</ele>
        <time>2014-05-04T07:15:00.000Z</time>
      </trkpt>
      <trkpt lat="44.43956" lon="5.37766">
        <ele>557.79998779297</ele>
        <time>2014-05-04T07:15:03.000Z</time>
      </trkpt>
      <trkpt lat="44.43917" lon="5.37757">
        <ele>559.59997558594</ele>
        <time>2014-05-04T07:15:12.000Z</time>
      </trkpt>
      <trkpt lat="44.43912" lon="5.37759">
        <ele>559.79998779297</ele>
        <time>2014-05-04T07:15:13.000Z</time>
      </trkpt>
      <trkpt lat="44.439" lon="5.37762">
        <ele>559.79998779297</ele>
        <time>2014-05-04T07:15:15.000Z</time>
      </trkpt>
      <trkpt lat="44.43877" lon="5.37757">
        <ele>557.59997558594</ele>
        <time>2014-05-04T07:15:19.000Z</time>
      </trkpt>
      <trkpt lat="44.43866" lon="5.37745">
        <ele>556.79998779297</ele>
        <time>2014-05-04T07:15:22.000Z</time>
      </trkpt>
      <trkpt lat="44.43814" lon="5.37708">
        <ele>559.59997558594</ele>
        <time>2014-05-04T07:15:33.000Z</time>
      </trkpt>
      <trkpt lat="44.4377" lon="5.37698">
        <ele>562.59997558594</ele>
        <time>2014-05-04T07:15:44.000Z</time>
      </trkpt>
      <trkpt lat="44.43743" lon="5.37715">
        <ele>564</ele>
        <time>2014-05-04T07:15:55.000Z</time>
      </trkpt>
      <trkpt lat="44.43743" lon="5.37715">
        <ele>564.20001220703</ele>
        <time>2014-05-04T07:16:06.000Z</time>
      </trkpt>
      <trkpt lat="44.43756" lon="5.37704">
        <ele>564.20001220703</ele>
        <time>2014-05-04T07:16:13.000Z</time>
      </trkpt>
      <trkpt lat="44.43779" lon="5.37694">
        <ele>564.20001220703</ele>
        <time>2014-05-04T07:16:19.000Z</time>
      </trkpt>
      <trkpt lat="44.43799" lon="5.37698">
        <ele>561.40002441406</ele>
        <time>2014-05-04T07:16:23.000Z</time>
      </trkpt>
      <trkpt lat="44.43821" lon="5.37707">
        <ele>559.40002441406</ele>
        <time>2014-05-04T07:16:27.000Z</time>
      </trkpt>
      <trkpt lat="44.43823" lon="5.37707">
        <ele>559.20001220703</ele>
        <time>2014-05-04T07:16:28.000Z</time>
      </trkpt>
      <trkpt lat="44.43814" lon="5.37682">
        <ele>558.40002441406</ele>
        <time>2014-05-04T07:16:34.000Z</time>
      </trkpt>
      <trkpt lat="44.43799" lon="5.37632">
        <ele>554.20001220703</ele>
        <time>2014-05-04T07:16:39.000Z</time>
      </trkpt>
      <trkpt lat="44.43785" lon="5.37587">
        <ele>551.40002441406</ele>
        <time>2014-05-04T07:16:46.000Z</time>
      </trkpt>
      <trkpt lat="44.43784" lon="5.37586">
        <ele>551.40002441406</ele>
        <time>2014-05-04T07:16:48.000Z</time>
      </trkpt>
      <trkpt lat="44.43772" lon="5.37592">
        <ele>551.40002441406</ele>
        <time>2014-05-04T07:16:52.000Z</time>
      </trkpt>
      <trkpt lat="44.4376" lon="5.37597">
        <ele>550.79998779297</ele>
        <time>2014-05-04T07:16:55.000Z</time>
      </trkpt>
      <trkpt lat="44.4375" lon="5.37593">
        <ele>550.40002441406</ele>
        <time>2014-05-04T07:16:59.000Z</time>
      </trkpt>
      <trkpt lat="44.43733" lon="5.3757">
        <ele>546</ele>
        <time>2014-05-04T07:17:05.000Z</time>
      </trkpt>
      <trkpt lat="44.43727" lon="5.37561">
        <ele>544.40002441406</ele>
        <time>2014-05-04T07:17:08.000Z</time>
      </trkpt>
      <trkpt lat="44.43717" lon="5.37559">
        <ele>542.79998779297</ele>
        <time>2014-05-04T07:17:12.000Z</time>
      </trkpt>
      <trkpt lat="44.43693" lon="5.37578">
        <ele>539.40002441406</ele>
        <time>2014-05-04T07:17:22.000Z</time>
      </trkpt>
      <trkpt lat="44.43689" lon="5.37577">
        <ele>539.40002441406</ele>
        <time>2014-05-04T07:17:27.000Z</time>
      </trkpt>
      <trkpt lat="44.43681" lon="5.37577">
        <ele>539.40002441406</ele>
        <time>2014-05-04T07:17:34.000Z</time>
      </trkpt>
      <trkpt lat="44.43671" lon="5.37573">
        <ele>542.59997558594</ele>
        <time>2014-05-04T07:17:41.000Z</time>
      </trkpt>
      <trkpt lat="44.43662" lon="5.37561">
        <ele>545.20001220703</ele>
        <time>2014-05-04T07:17:50.000Z</time>
      </trkpt>
      <trkpt lat="44.43636" lon="5.37515">
        <ele>545</ele>
        <time>2014-05-04T07:18:03.000Z</time>
      </trkpt>
      <trkpt lat="44.4363" lon="5.37482">
        <ele>541.40002441406</ele>
        <time>2014-05-04T07:18:08.000Z</time>
      </trkpt>
      <trkpt lat="44.43623" lon="5.37463">
        <ele>538.20001220703</ele>
        <time>2014-05-04T07:18:12.000Z</time>
      </trkpt>
      <trkpt lat="44.43598" lon="5.37425">
        <ele>541</ele>
        <time>2014-05-04T07:18:23.000Z</time>
      </trkpt>
      <trkpt lat="44.43593" lon="5.37417">
        <ele>541.79998779297</ele>
        <time>2014-05-04T07:18:28.000Z</time>
      </trkpt>
      <trkpt lat="44.43586" lon="5.37418">
        <ele>542.79998779297</ele>
        <time>2014-05-04T07:18:35.000Z</time>
      </trkpt>
      <trkpt lat="44.43575" lon="5.37442">
        <ele>546.20001220703</ele>
        <time>2014-05-04T07:18:47.000Z</time>
      </trkpt>
      <trkpt lat="44.43561" lon="5.37465">
        <ele>549.20001220703</ele>
        <time>2014-05-04T07:19:01.000Z</time>
      </trkpt>
      <trkpt lat="44.43549" lon="5.37487">
        <ele>552.40002441406</ele>
        <time>2014-05-04T07:19:14.000Z</time>
      </trkpt>
      <trkpt lat="44.43534" lon="5.3752">
        <ele>555.59997558594</ele>
        <time>2014-05-04T07:19:29.000Z</time>
      </trkpt>
      <trkpt lat="44.43517" lon="5.37549">
        <ele>558.79998779297</ele>
        <time>2014-05-04T07:19:40.000Z</time>
      </trkpt>
      <trkpt lat="44.43498" lon="5.37572">
        <ele>561.79998779297</ele>
        <time>2014-05-04T07:19:51.000Z</time>
      </trkpt>
      <trkpt lat="44.43474" lon="5.37602">
        <ele>565.20001220703</ele>
        <time>2014-05-04T07:20:07.000Z</time>
      </trkpt>
      <trkpt lat="44.43459" lon="5.3762">
        <ele>568.20001220703</ele>
        <time>2014-05-04T07:20:18.000Z</time>
      </trkpt>
      <trkpt lat="44.43446" lon="5.37635">
        <ele>571.59997558594</ele>
        <time>2014-05-04T07:20:30.000Z</time>
      </trkpt>
      <trkpt lat="44.43432" lon="5.37641">
        <ele>574.59997558594</ele>
        <time>2014-05-04T07:20:40.000Z</time>
      </trkpt>
      <trkpt lat="44.43413" lon="5.37647">
        <ele>577.59997558594</ele>
        <time>2014-05-04T07:20:54.000Z</time>
      </trkpt>
      <trkpt lat="44.43396" lon="5.37645">
        <ele>580.79998779297</ele>
        <time>2014-05-04T07:21:05.000Z</time>
      </trkpt>
      <trkpt lat="44.43371" lon="5.37628">
        <ele>583.59997558594</ele>
        <time>2014-05-04T07:21:20.000Z</time>
      </trkpt>
      <trkpt lat="44.43347" lon="5.37637">
        <ele>586.59997558594</ele>
        <time>2014-05-04T07:21:32.000Z</time>
      </trkpt>
      <trkpt lat="44.43315" lon="5.37615">
        <ele>589</ele>
        <time>2014-05-04T07:21:45.000Z</time>
      </trkpt>
      <trkpt lat="44.43283" lon="5.37582">
        <ele>592.20001220703</ele>
        <time>2014-05-04T07:22:00.000Z</time>
      </trkpt>
      <trkpt lat="44.43267" lon="5.37572">
        <ele>593.79998779297</ele>
        <time>2014-05-04T07:22:10.000Z</time>
      </trkpt>
      <trkpt lat="44.43278" lon="5.37603">
        <ele>596.40002441406</ele>
        <time>2014-05-04T07:22:25.000Z</time>
      </trkpt>
      <trkpt lat="44.43287" lon="5.37628">
        <ele>599.40002441406</ele>
        <time>2014-05-04T07:22:36.000Z</time>
      </trkpt>
      <trkpt lat="44.43288" lon="5.37663">
        <ele>602.40002441406</ele>
        <time>2014-05-04T07:22:50.000Z</time>
      </trkpt>
      <trkpt lat="44.43297" lon="5.37699">
        <ele>605.40002441406</ele>
        <time>2014-05-04T07:23:06.000Z</time>
      </trkpt>
      <trkpt lat="44.43292" lon="5.3773">
        <ele>608.40002441406</ele>
        <time>2014-05-04T07:23:19.000Z</time>
      </trkpt>
      <trkpt lat="44.43283" lon="5.37757">
        <ele>611.40002441406</ele>
        <time>2014-05-04T07:23:31.000Z</time>
      </trkpt>
      <trkpt lat="44.43272" lon="5.37784">
        <ele>614.79998779297</ele>
        <time>2014-05-04T07:23:44.000Z</time>
      </trkpt>
      <trkpt lat="44.43263" lon="5.37809">
        <ele>617</ele>
        <time>2014-05-04T07:23:56.000Z</time>
      </trkpt>
      <trkpt lat="44.43255" lon="5.37836">
        <ele>620</ele>
        <time>2014-05-04T07:24:09.000Z</time>
      </trkpt>
      <trkpt lat="44.4325" lon="5.3786">
        <ele>622.59997558594</ele>
        <time>2014-05-04T07:24:17.000Z</time>
      </trkpt>
      <trkpt lat="44.43249" lon="5.37901">
        <ele>624.59997558594</ele>
        <time>2014-05-04T07:24:29.000Z</time>
      </trkpt>
      <trkpt lat="44.43239" lon="5.37944">
        <ele>627.59997558594</ele>
        <time>2014-05-04T07:24:43.000Z</time>
      </trkpt>
      <trkpt lat="44.43228" lon="5.3797">
        <ele>630.59997558594</ele>
        <time>2014-05-04T07:24:53.000Z</time>
      </trkpt>
      <trkpt lat="44.43221" lon="5.38006">
        <ele>634</ele>
        <time>2014-05-04T07:25:04.000Z</time>
      </trkpt>
      <trkpt lat="44.43216" lon="5.38038">
        <ele>637</ele>
        <time>2014-05-04T07:25:15.000Z</time>
      </trkpt>
      <trkpt lat="44.43201" lon="5.38069">
        <ele>639.59997558594</ele>
        <time>2014-05-04T07:25:28.000Z</time>
      </trkpt>
      <trkpt lat="44.43182" lon="5.38096">
        <ele>642.40002441406</ele>
        <time>2014-05-04T07:25:41.000Z</time>
      </trkpt>
      <trkpt lat="44.43164" lon="5.38116">
        <ele>645.40002441406</ele>
        <time>2014-05-04T07:25:53.000Z</time>
      </trkpt>
      <trkpt lat="44.4314" lon="5.38143">
        <ele>648.59997558594</ele>
        <time>2014-05-04T07:26:05.000Z</time>
      </trkpt>
      <trkpt lat="44.43115" lon="5.38165">
        <ele>651.59997558594</ele>
        <time>2014-05-04T07:26:17.000Z</time>
      </trkpt>
      <trkpt lat="44.43109" lon="5.38211">
        <ele>653.79998779297</ele>
        <time>2014-05-04T07:26:30.000Z</time>
      </trkpt>
      <trkpt lat="44.43102" lon="5.38269">
        <ele>655</ele>
        <time>2014-05-04T07:26:44.000Z</time>
      </trkpt>
      <trkpt lat="44.43083" lon="5.38325">
        <ele>657</ele>
        <time>2014-05-04T07:26:57.000Z</time>
      </trkpt>
      <trkpt lat="44.43078" lon="5.38339">
        <ele>658.79998779297</ele>
        <time>2014-05-04T07:27:01.000Z</time>
      </trkpt>
      <trkpt lat="44.43092" lon="5.38363">
        <ele>661.59997558594</ele>
        <time>2014-05-04T07:27:11.000Z</time>
      </trkpt>
      <trkpt lat="44.43121" lon="5.38373">
        <ele>663</ele>
        <time>2014-05-04T07:27:20.000Z</time>
      </trkpt>
      <trkpt lat="44.43112" lon="5.38389">
        <ele>665.59997558594</ele>
        <time>2014-05-04T07:27:27.000Z</time>
      </trkpt>
      <trkpt lat="44.43086" lon="5.38395">
        <ele>669</ele>
        <time>2014-05-04T07:27:39.000Z</time>
      </trkpt>
      <trkpt lat="44.43068" lon="5.38407">
        <ele>672.20001220703</ele>
        <time>2014-05-04T07:27:49.000Z</time>
      </trkpt>
      <trkpt lat="44.43043" lon="5.38424">
        <ele>675</ele>
        <time>2014-05-04T07:28:02.000Z</time>
      </trkpt>
      <trkpt lat="44.4304" lon="5.38428">
        <ele>675.59997558594</ele>
        <time>2014-05-04T07:28:04.000Z</time>
      </trkpt>
      <trkpt lat="44.43049" lon="5.3844">
        <ele>677.79998779297</ele>
        <time>2014-05-04T07:28:12.000Z</time>
      </trkpt>
      <trkpt lat="44.43076" lon="5.38443">
        <ele>681.40002441406</ele>
        <time>2014-05-04T07:28:26.000Z</time>
      </trkpt>
      <trkpt lat="44.43087" lon="5.38477">
        <ele>684.59997558594</ele>
        <time>2014-05-04T07:28:39.000Z</time>
      </trkpt>
      <trkpt lat="44.43089" lon="5.38513">
        <ele>688</ele>
        <time>2014-05-04T07:28:52.000Z</time>
      </trkpt>
      <trkpt lat="44.43088" lon="5.38554">
        <ele>691.20001220703</ele>
        <time>2014-05-04T07:29:06.000Z</time>
      </trkpt>
      <trkpt lat="44.4309" lon="5.38559">
        <ele>691.20001220703</ele>
        <time>2014-05-04T07:29:08.000Z</time>
      </trkpt>
      <trkpt lat="44.43109" lon="5.38566">
        <ele>693.20001220703</ele>
        <time>2014-05-04T07:29:16.000Z</time>
      </trkpt>
      <trkpt lat="44.43118" lon="5.38598">
        <ele>696.40002441406</ele>
        <time>2014-05-04T07:29:27.000Z</time>
      </trkpt>
      <trkpt lat="44.43118" lon="5.38624">
        <ele>698.79998779297</ele>
        <time>2014-05-04T07:29:38.000Z</time>
      </trkpt>
      <trkpt lat="44.43116" lon="5.38653">
        <ele>701.79998779297</ele>
        <time>2014-05-04T07:29:49.000Z</time>
      </trkpt>
      <trkpt lat="44.4311" lon="5.38688">
        <ele>705.20001220703</ele>
        <time>2014-05-04T07:30:03.000Z</time>
      </trkpt>
      <trkpt lat="44.43102" lon="5.38713">
        <ele>708.20001220703</ele>
        <time>2014-05-04T07:30:14.000Z</time>
      </trkpt>
      <trkpt lat="44.43079" lon="5.38732">
        <ele>711.20001220703</ele>
        <time>2014-05-04T07:30:28.000Z</time>
      </trkpt>
      <trkpt lat="44.43057" lon="5.38741">
        <ele>714.40002441406</ele>
        <time>2014-05-04T07:30:40.000Z</time>
      </trkpt>
      <trkpt lat="44.43042" lon="5.38761">
        <ele>716.40002441406</ele>
        <time>2014-05-04T07:30:51.000Z</time>
      </trkpt>
      <trkpt lat="44.43045" lon="5.38783">
        <ele>718.20001220703</ele>
        <time>2014-05-04T07:30:59.000Z</time>
      </trkpt>
      <trkpt lat="44.43028" lon="5.38802">
        <ele>721</ele>
        <time>2014-05-04T07:31:11.000Z</time>
      </trkpt>
      <trkpt lat="44.43009" lon="5.38818">
        <ele>724</ele>
        <time>2014-05-04T07:31:24.000Z</time>
      </trkpt>
      <trkpt lat="44.4299" lon="5.38845">
        <ele>725.79998779297</ele>
        <time>2014-05-04T07:31:37.000Z</time>
      </trkpt>
      <trkpt lat="44.42983" lon="5.38853">
        <ele>726.59997558594</ele>
        <time>2014-05-04T07:31:41.000Z</time>
      </trkpt>
      <trkpt lat="44.42989" lon="5.38875">
        <ele>729</ele>
        <time>2014-05-04T07:31:50.000Z</time>
      </trkpt>
      <trkpt lat="44.42999" lon="5.38901">
        <ele>732.40002441406</ele>
        <time>2014-05-04T07:32:03.000Z</time>
      </trkpt>
      <trkpt lat="44.42983" lon="5.38923">
        <ele>735.59997558594</ele>
        <time>2014-05-04T07:32:16.000Z</time>
      </trkpt>
      <trkpt lat="44.42972" lon="5.3894">
        <ele>738.79998779297</ele>
        <time>2014-05-04T07:32:26.000Z</time>
      </trkpt>
      <trkpt lat="44.42946" lon="5.38959">
        <ele>741.40002441406</ele>
        <time>2014-05-04T07:32:40.000Z</time>
      </trkpt>
      <trkpt lat="44.42932" lon="5.38979">
        <ele>744.59997558594</ele>
        <time>2014-05-04T07:32:50.000Z</time>
      </trkpt>
      <trkpt lat="44.42922" lon="5.38989">
        <ele>746.59997558594</ele>
        <time>2014-05-04T07:32:57.000Z</time>
      </trkpt>
      <trkpt lat="44.42899" lon="5.3901">
        <ele>749.79998779297</ele>
        <time>2014-05-04T07:33:12.000Z</time>
      </trkpt>
      <trkpt lat="44.42898" lon="5.39046">
        <ele>752.59997558594</ele>
        <time>2014-05-04T07:33:27.000Z</time>
      </trkpt>
      <trkpt lat="44.42889" lon="5.39074">
        <ele>755.59997558594</ele>
        <time>2014-05-04T07:33:39.000Z</time>
      </trkpt>
      <trkpt lat="44.42892" lon="5.39105">
        <ele>756.79998779297</ele>
        <time>2014-05-04T07:33:50.000Z</time>
      </trkpt>
      <trkpt lat="44.42878" lon="5.39115">
        <ele>758.40002441406</ele>
        <time>2014-05-04T07:34:00.000Z</time>
      </trkpt>
      <trkpt lat="44.42876" lon="5.39111">
        <ele>758.79998779297</ele>
        <time>2014-05-04T07:34:02.000Z</time>
      </trkpt>
      <trkpt lat="44.42872" lon="5.39076">
        <ele>762.59997558594</ele>
        <time>2014-05-04T07:34:16.000Z</time>
      </trkpt>
      <trkpt lat="44.42876" lon="5.39047">
        <ele>765.59997558594</ele>
        <time>2014-05-04T07:34:28.000Z</time>
      </trkpt>
      <trkpt lat="44.42866" lon="5.39012">
        <ele>768</ele>
        <time>2014-05-04T07:34:42.000Z</time>
      </trkpt>
      <trkpt lat="44.42865" lon="5.39009">
        <ele>768.40002441406</ele>
        <time>2014-05-04T07:34:43.000Z</time>
      </trkpt>
      <trkpt lat="44.42865" lon="5.38976">
        <ele>771.59997558594</ele>
        <time>2014-05-04T07:34:57.000Z</time>
      </trkpt>
      <trkpt lat="44.42882" lon="5.38949">
        <ele>774.79998779297</ele>
        <time>2014-05-04T07:35:11.000Z</time>
      </trkpt>
      <trkpt lat="44.42898" lon="5.38925">
        <ele>777.59997558594</ele>
        <time>2014-05-04T07:35:24.000Z</time>
      </trkpt>
      <trkpt lat="44.42911" lon="5.38894">
        <ele>780.79998779297</ele>
        <time>2014-05-04T07:35:38.000Z</time>
      </trkpt>
      <trkpt lat="44.4291" lon="5.3886">
        <ele>783.59997558594</ele>
        <time>2014-05-04T07:35:51.000Z</time>
      </trkpt>
      <trkpt lat="44.42904" lon="5.38825">
        <ele>786.79998779297</ele>
        <time>2014-05-04T07:36:04.000Z</time>
      </trkpt>
      <trkpt lat="44.42908" lon="5.38795">
        <ele>788.59997558594</ele>
        <time>2014-05-04T07:36:16.000Z</time>
      </trkpt>
      <trkpt lat="44.429" lon="5.38789">
        <ele>789.59997558594</ele>
        <time>2014-05-04T07:36:21.000Z</time>
      </trkpt>
      <trkpt lat="44.42886" lon="5.38816">
        <ele>792</ele>
        <time>2014-05-04T07:36:34.000Z</time>
      </trkpt>
      <trkpt lat="44.42882" lon="5.38865">
        <ele>794.59997558594</ele>
        <time>2014-05-04T07:36:50.000Z</time>
      </trkpt>
      <trkpt lat="44.42874" lon="5.38884">
        <ele>795.40002441406</ele>
        <time>2014-05-04T07:36:57.000Z</time>
      </trkpt>
      <trkpt lat="44.42867" lon="5.38859">
        <ele>797.40002441406</ele>
        <time>2014-05-04T07:37:07.000Z</time>
      </trkpt>
      <trkpt lat="44.4287" lon="5.38829">
        <ele>800</ele>
        <time>2014-05-04T07:37:17.000Z</time>
      </trkpt>
      <trkpt lat="44.4286" lon="5.38803">
        <ele>803</ele>
        <time>2014-05-04T07:37:30.000Z</time>
      </trkpt>
      <trkpt lat="44.4285" lon="5.38809">
        <ele>805</ele>
        <time>2014-05-04T07:37:37.000Z</time>
      </trkpt>
      <trkpt lat="44.42847" lon="5.38824">
        <ele>806</ele>
        <time>2014-05-04T07:37:43.000Z</time>
      </trkpt>
      <trkpt lat="44.42836" lon="5.38861">
        <ele>808.79998779297</ele>
        <time>2014-05-04T07:37:59.000Z</time>
      </trkpt>
      <trkpt lat="44.42826" lon="5.38887">
        <ele>812</ele>
        <time>2014-05-04T07:38:11.000Z</time>
      </trkpt>
      <trkpt lat="44.42817" lon="5.3891">
        <ele>814.40002441406</ele>
        <time>2014-05-04T07:38:21.000Z</time>
      </trkpt>
      <trkpt lat="44.42804" lon="5.38943">
        <ele>817.59997558594</ele>
        <time>2014-05-04T07:38:36.000Z</time>
      </trkpt>
      <trkpt lat="44.42794" lon="5.3898">
        <ele>820.40002441406</ele>
        <time>2014-05-04T07:38:51.000Z</time>
      </trkpt>
      <trkpt lat="44.42794" lon="5.39018">
        <ele>823.40002441406</ele>
        <time>2014-05-04T07:39:05.000Z</time>
      </trkpt>
      <trkpt lat="44.42785" lon="5.39043">
        <ele>825.40002441406</ele>
        <time>2014-05-04T07:39:16.000Z</time>
      </trkpt>
      <trkpt lat="44.42774" lon="5.39024">
        <ele>827.40002441406</ele>
        <time>2014-05-04T07:39:27.000Z</time>
      </trkpt>
      <trkpt lat="44.42778" lon="5.38987">
        <ele>830.79998779297</ele>
        <time>2014-05-04T07:39:42.000Z</time>
      </trkpt>
      <trkpt lat="44.42774" lon="5.38957">
        <ele>834</ele>
        <time>2014-05-04T07:39:53.000Z</time>
      </trkpt>
      <trkpt lat="44.42757" lon="5.38923">
        <ele>836.79998779297</ele>
        <time>2014-05-04T07:40:08.000Z</time>
      </trkpt>
      <trkpt lat="44.42747" lon="5.38892">
        <ele>839.59997558594</ele>
        <time>2014-05-04T07:40:21.000Z</time>
      </trkpt>
      <trkpt lat="44.42745" lon="5.38881">
        <ele>840.20001220703</ele>
        <time>2014-05-04T07:40:26.000Z</time>
      </trkpt>
      <trkpt lat="44.42737" lon="5.38889">
        <ele>841.59997558594</ele>
        <time>2014-05-04T07:40:34.000Z</time>
      </trkpt>
      <trkpt lat="44.42742" lon="5.38929">
        <ele>845</ele>
        <time>2014-05-04T07:40:50.000Z</time>
      </trkpt>
      <trkpt lat="44.42747" lon="5.38973">
        <ele>847.59997558594</ele>
        <time>2014-05-04T07:41:06.000Z</time>
      </trkpt>
      <trkpt lat="44.42734" lon="5.3897">
        <ele>849.20001220703</ele>
        <time>2014-05-04T07:41:15.000Z</time>
      </trkpt>
      <trkpt lat="44.4273" lon="5.38937">
        <ele>852.40002441406</ele>
        <time>2014-05-04T07:41:29.000Z</time>
      </trkpt>
      <trkpt lat="44.4272" lon="5.38907">
        <ele>855.20001220703</ele>
        <time>2014-05-04T07:41:42.000Z</time>
      </trkpt>
      <trkpt lat="44.42709" lon="5.38889">
        <ele>857.40002441406</ele>
        <time>2014-05-04T07:41:53.000Z</time>
      </trkpt>
      <trkpt lat="44.42704" lon="5.38903">
        <ele>858.40002441406</ele>
        <time>2014-05-04T07:41:59.000Z</time>
      </trkpt>
      <trkpt lat="44.42706" lon="5.38957">
        <ele>860.40002441406</ele>
        <time>2014-05-04T07:42:15.000Z</time>
      </trkpt>
      <trkpt lat="44.42706" lon="5.3899">
        <ele>863.20001220703</ele>
        <time>2014-05-04T07:42:29.000Z</time>
      </trkpt>
      <trkpt lat="44.42701" lon="5.39025">
        <ele>866.40002441406</ele>
        <time>2014-05-04T07:42:45.000Z</time>
      </trkpt>
      <trkpt lat="44.42683" lon="5.39041">
        <ele>869.20001220703</ele>
        <time>2014-05-04T07:42:58.000Z</time>
      </trkpt>
      <trkpt lat="44.42668" lon="5.39045">
        <ele>872</ele>
        <time>2014-05-04T07:43:08.000Z</time>
      </trkpt>
      <trkpt lat="44.42648" lon="5.39039">
        <ele>875</ele>
        <time>2014-05-04T07:43:21.000Z</time>
      </trkpt>
      <trkpt lat="44.42625" lon="5.39021">
        <ele>878.20001220703</ele>
        <time>2014-05-04T07:43:38.000Z</time>
      </trkpt>
      <trkpt lat="44.42612" lon="5.39018">
        <ele>879.79998779297</ele>
        <time>2014-05-04T07:43:47.000Z</time>
      </trkpt>
      <trkpt lat="44.42591" lon="5.3901">
        <ele>883</ele>
        <time>2014-05-04T07:44:02.000Z</time>
      </trkpt>
      <trkpt lat="44.42568" lon="5.39003">
        <ele>885.79998779297</ele>
        <time>2014-05-04T07:44:16.000Z</time>
      </trkpt>
      <trkpt lat="44.42547" lon="5.39005">
        <ele>887.79998779297</ele>
        <time>2014-05-04T07:44:29.000Z</time>
      </trkpt>
      <trkpt lat="44.42532" lon="5.3903">
        <ele>890</ele>
        <time>2014-05-04T07:44:42.000Z</time>
      </trkpt>
      <trkpt lat="44.42528" lon="5.39063">
        <ele>892.20001220703</ele>
        <time>2014-05-04T07:44:56.000Z</time>
      </trkpt>
      <trkpt lat="44.42531" lon="5.39094">
        <ele>895</ele>
        <time>2014-05-04T07:45:10.000Z</time>
      </trkpt>
      <trkpt lat="44.42537" lon="5.39125">
        <ele>898.20001220703</ele>
        <time>2014-05-04T07:45:25.000Z</time>
      </trkpt>
      <trkpt lat="44.42543" lon="5.39159">
        <ele>901.20001220703</ele>
        <time>2014-05-04T07:45:41.000Z</time>
      </trkpt>
      <trkpt lat="44.42553" lon="5.39192">
        <ele>904.20001220703</ele>
        <time>2014-05-04T07:45:56.000Z</time>
      </trkpt>
      <trkpt lat="44.42567" lon="5.39227">
        <ele>907</ele>
        <time>2014-05-04T07:46:12.000Z</time>
      </trkpt>
      <trkpt lat="44.42567" lon="5.39235">
        <ele>907.59997558594</ele>
        <time>2014-05-04T07:46:15.000Z</time>
      </trkpt>
      <trkpt lat="44.42555" lon="5.39231">
        <ele>908.59997558594</ele>
        <time>2014-05-04T07:46:25.000Z</time>
      </trkpt>
      <trkpt lat="44.42537" lon="5.39194">
        <ele>912</ele>
        <time>2014-05-04T07:46:42.000Z</time>
      </trkpt>
      <trkpt lat="44.42524" lon="5.39172">
        <ele>914.59997558594</ele>
        <time>2014-05-04T07:46:54.000Z</time>
      </trkpt>
      <trkpt lat="44.42509" lon="5.39147">
        <ele>917.20001220703</ele>
        <time>2014-05-04T07:47:06.000Z</time>
      </trkpt>
      <trkpt lat="44.42496" lon="5.39117">
        <ele>920.20001220703</ele>
        <time>2014-05-04T07:47:20.000Z</time>
      </trkpt>
      <trkpt lat="44.4248" lon="5.39084">
        <ele>923.20001220703</ele>
        <time>2014-05-04T07:47:35.000Z</time>
      </trkpt>
      <trkpt lat="44.42466" lon="5.39048">
        <ele>926.40002441406</ele>
        <time>2014-05-04T07:47:50.000Z</time>
      </trkpt>
      <trkpt lat="44.4246" lon="5.39023">
        <ele>928.79998779297</ele>
        <time>2014-05-04T07:48:01.000Z</time>
      </trkpt>
      <trkpt lat="44.42451" lon="5.39027">
        <ele>929.79998779297</ele>
        <time>2014-05-04T07:48:08.000Z</time>
      </trkpt>
      <trkpt lat="44.42459" lon="5.39065">
        <ele>931.79998779297</ele>
        <time>2014-05-04T07:48:23.000Z</time>
      </trkpt>
      <trkpt lat="44.42462" lon="5.39087">
        <ele>934.59997558594</ele>
        <time>2014-05-04T07:48:32.000Z</time>
      </trkpt>
      <trkpt lat="44.42466" lon="5.39119">
        <ele>936.59997558594</ele>
        <time>2014-05-04T07:48:48.000Z</time>
      </trkpt>
      <trkpt lat="44.4247" lon="5.3915">
        <ele>939.79998779297</ele>
        <time>2014-05-04T07:49:02.000Z</time>
      </trkpt>
      <trkpt lat="44.42473" lon="5.3918">
        <ele>943</ele>
        <time>2014-05-04T07:49:16.000Z</time>
      </trkpt>
      <trkpt lat="44.42472" lon="5.3921">
        <ele>945.79998779297</ele>
        <time>2014-05-04T07:49:30.000Z</time>
      </trkpt>
      <trkpt lat="44.42461" lon="5.39242">
        <ele>948.79998779297</ele>
        <time>2014-05-04T07:49:46.000Z</time>
      </trkpt>
      <trkpt lat="44.42448" lon="5.39269">
        <ele>951.79998779297</ele>
        <time>2014-05-04T07:49:58.000Z</time>
      </trkpt>
      <trkpt lat="44.4244" lon="5.39299">
        <ele>954.79998779297</ele>
        <time>2014-05-04T07:50:12.000Z</time>
      </trkpt>
      <trkpt lat="44.4244" lon="5.39326">
        <ele>957.79998779297</ele>
        <time>2014-05-04T07:50:24.000Z</time>
      </trkpt>
      <trkpt lat="44.4244" lon="5.39358">
        <ele>960.59997558594</ele>
        <time>2014-05-04T07:50:38.000Z</time>
      </trkpt>
      <trkpt lat="44.42437" lon="5.39389">
        <ele>963.79998779297</ele>
        <time>2014-05-04T07:50:51.000Z</time>
      </trkpt>
      <trkpt lat="44.42435" lon="5.39395">
        <ele>964.20001220703</ele>
        <time>2014-05-04T07:50:54.000Z</time>
      </trkpt>
      <trkpt lat="44.42422" lon="5.39393">
        <ele>966.40002441406</ele>
        <time>2014-05-04T07:51:06.000Z</time>
      </trkpt>
      <trkpt lat="44.42425" lon="5.39365">
        <ele>969</ele>
        <time>2014-05-04T07:51:18.000Z</time>
      </trkpt>
      <trkpt lat="44.42422" lon="5.39355">
        <ele>969.79998779297</ele>
        <time>2014-05-04T07:51:22.000Z</time>
      </trkpt>
      <trkpt lat="44.42414" lon="5.39333">
        <ele>971.20001220703</ele>
        <time>2014-05-04T07:51:32.000Z</time>
      </trkpt>
      <trkpt lat="44.42406" lon="5.39314">
        <ele>973.20001220703</ele>
        <time>2014-05-04T07:51:44.000Z</time>
      </trkpt>
      <trkpt lat="44.42399" lon="5.39284">
        <ele>976.40002441406</ele>
        <time>2014-05-04T07:51:59.000Z</time>
      </trkpt>
      <trkpt lat="44.42396" lon="5.39268">
        <ele>977.59997558594</ele>
        <time>2014-05-04T07:52:06.000Z</time>
      </trkpt>
      <trkpt lat="44.42388" lon="5.39236">
        <ele>980</ele>
        <time>2014-05-04T07:52:21.000Z</time>
      </trkpt>
      <trkpt lat="44.42388" lon="5.39203">
        <ele>982.59997558594</ele>
        <time>2014-05-04T07:52:35.000Z</time>
      </trkpt>
      <trkpt lat="44.42382" lon="5.39169">
        <ele>985.59997558594</ele>
        <time>2014-05-04T07:52:50.000Z</time>
      </trkpt>
      <trkpt lat="44.42374" lon="5.39141">
        <ele>987.59997558594</ele>
        <time>2014-05-04T07:53:03.000Z</time>
      </trkpt>
      <trkpt lat="44.42364" lon="5.39112">
        <ele>990.59997558594</ele>
        <time>2014-05-04T07:53:17.000Z</time>
      </trkpt>
      <trkpt lat="44.42352" lon="5.39081">
        <ele>993.20001220703</ele>
        <time>2014-05-04T07:53:31.000Z</time>
      </trkpt>
      <trkpt lat="44.42339" lon="5.39045">
        <ele>996.20001220703</ele>
        <time>2014-05-04T07:53:48.000Z</time>
      </trkpt>
      <trkpt lat="44.42332" lon="5.39026">
        <ele>998.20001220703</ele>
        <time>2014-05-04T07:53:57.000Z</time>
      </trkpt>
      <trkpt lat="44.42329" lon="5.39018">
        <ele>999</ele>
        <time>2014-05-04T07:54:01.000Z</time>
      </trkpt>
      <trkpt lat="44.42325" lon="5.39011">
        <ele>1000</ele>
        <time>2014-05-04T07:54:05.000Z</time>
      </trkpt>
      <trkpt lat="44.42315" lon="5.38981">
        <ele>1003.200012207</ele>
        <time>2014-05-04T07:54:20.000Z</time>
      </trkpt>
      <trkpt lat="44.42308" lon="5.38959">
        <ele>1006</ele>
        <time>2014-05-04T07:54:31.000Z</time>
      </trkpt>
      <trkpt lat="44.42296" lon="5.38926">
        <ele>1009</ele>
        <time>2014-05-04T07:54:47.000Z</time>
      </trkpt>
      <trkpt lat="44.42289" lon="5.38896">
        <ele>1012</ele>
        <time>2014-05-04T07:55:01.000Z</time>
      </trkpt>
      <trkpt lat="44.42288" lon="5.38878">
        <ele>1013.4000244141</ele>
        <time>2014-05-04T07:55:08.000Z</time>
      </trkpt>
      <trkpt lat="44.42283" lon="5.38874">
        <ele>1014.200012207</ele>
        <time>2014-05-04T07:55:13.000Z</time>
      </trkpt>
      <trkpt lat="44.4228" lon="5.38881">
        <ele>1014.799987793</ele>
        <time>2014-05-04T07:55:17.000Z</time>
      </trkpt>
      <trkpt lat="44.4228" lon="5.38919">
        <ele>1017.4000244141</ele>
        <time>2014-05-04T07:55:33.000Z</time>
      </trkpt>
      <trkpt lat="44.42284" lon="5.38956">
        <ele>1020.5999755859</ele>
        <time>2014-05-04T07:55:49.000Z</time>
      </trkpt>
      <trkpt lat="44.42286" lon="5.38989">
        <ele>1022.4000244141</ele>
        <time>2014-05-04T07:56:02.000Z</time>
      </trkpt>
      <trkpt lat="44.42286" lon="5.39012">
        <ele>1024.8000488281</ele>
        <time>2014-05-04T07:56:12.000Z</time>
      </trkpt>
      <trkpt lat="44.42284" lon="5.39047">
        <ele>1027</ele>
        <time>2014-05-04T07:56:27.000Z</time>
      </trkpt>
      <trkpt lat="44.42281" lon="5.39081">
        <ele>1030.1999511719</ele>
        <time>2014-05-04T07:56:43.000Z</time>
      </trkpt>
      <trkpt lat="44.42282" lon="5.39114">
        <ele>1032.8000488281</ele>
        <time>2014-05-04T07:56:58.000Z</time>
      </trkpt>
      <trkpt lat="44.42282" lon="5.39148">
        <ele>1036</ele>
        <time>2014-05-04T07:57:13.000Z</time>
      </trkpt>
      <trkpt lat="44.42282" lon="5.39178">
        <ele>1037.8000488281</ele>
        <time>2014-05-04T07:57:26.000Z</time>
      </trkpt>
      <trkpt lat="44.42275" lon="5.3918">
        <ele>1038.5999755859</ele>
        <time>2014-05-04T07:57:31.000Z</time>
      </trkpt>
      <trkpt lat="44.42269" lon="5.39153">
        <ele>1041</ele>
        <time>2014-05-04T07:57:43.000Z</time>
      </trkpt>
      <trkpt lat="44.42264" lon="5.39121">
        <ele>1043.5999755859</ele>
        <time>2014-05-04T07:57:56.000Z</time>
      </trkpt>
      <trkpt lat="44.42263" lon="5.39119">
        <ele>1044</ele>
        <time>2014-05-04T07:57:57.000Z</time>
      </trkpt>
      <trkpt lat="44.42261" lon="5.39107">
        <ele>1045.1999511719</ele>
        <time>2014-05-04T07:58:02.000Z</time>
      </trkpt>
      <trkpt lat="44.42259" lon="5.39088">
        <ele>1047.5999755859</ele>
        <time>2014-05-04T07:58:10.000Z</time>
      </trkpt>
      <trkpt lat="44.42248" lon="5.39058">
        <ele>1050.4000244141</ele>
        <time>2014-05-04T07:58:25.000Z</time>
      </trkpt>
      <trkpt lat="44.42241" lon="5.39033">
        <ele>1053.5999755859</ele>
        <time>2014-05-04T07:58:37.000Z</time>
      </trkpt>
      <trkpt lat="44.42233" lon="5.39004">
        <ele>1056.8000488281</ele>
        <time>2014-05-04T07:58:50.000Z</time>
      </trkpt>
      <trkpt lat="44.42223" lon="5.38976">
        <ele>1059.8000488281</ele>
        <time>2014-05-04T07:59:03.000Z</time>
      </trkpt>
      <trkpt lat="44.42214" lon="5.38952">
        <ele>1062.8000488281</ele>
        <time>2014-05-04T07:59:15.000Z</time>
      </trkpt>
      <trkpt lat="44.42205" lon="5.38928">
        <ele>1065.5999755859</ele>
        <time>2014-05-04T07:59:28.000Z</time>
      </trkpt>
      <trkpt lat="44.42195" lon="5.38899">
        <ele>1068.8000488281</ele>
        <time>2014-05-04T07:59:42.000Z</time>
      </trkpt>
      <trkpt lat="44.42185" lon="5.38874">
        <ele>1071.8000488281</ele>
        <time>2014-05-04T07:59:55.000Z</time>
      </trkpt>
      <trkpt lat="44.42175" lon="5.38842">
        <ele>1075</ele>
        <time>2014-05-04T08:00:11.000Z</time>
      </trkpt>
      <trkpt lat="44.42165" lon="5.38811">
        <ele>1077.8000488281</ele>
        <time>2014-05-04T08:00:25.000Z</time>
      </trkpt>
      <trkpt lat="44.42154" lon="5.38776">
        <ele>1080.8000488281</ele>
        <time>2014-05-04T08:00:39.000Z</time>
      </trkpt>
      <trkpt lat="44.42144" lon="5.38739">
        <ele>1083.4000244141</ele>
        <time>2014-05-04T08:00:53.000Z</time>
      </trkpt>
      <trkpt lat="44.42132" lon="5.38695">
        <ele>1086.4000244141</ele>
        <time>2014-05-04T08:01:09.000Z</time>
      </trkpt>
      <trkpt lat="44.42123" lon="5.38653">
        <ele>1089.1999511719</ele>
        <time>2014-05-04T08:01:24.000Z</time>
      </trkpt>
      <trkpt lat="44.42103" lon="5.38635">
        <ele>1091.8000488281</ele>
        <time>2014-05-04T08:01:37.000Z</time>
      </trkpt>
      <trkpt lat="44.42095" lon="5.38592">
        <ele>1089.5999755859</ele>
        <time>2014-05-04T08:01:48.000Z</time>
      </trkpt>
      <trkpt lat="44.42097" lon="5.38532">
        <ele>1086.4000244141</ele>
        <time>2014-05-04T08:01:57.000Z</time>
      </trkpt>
      <trkpt lat="44.42091" lon="5.38502">
        <ele>1083</ele>
        <time>2014-05-04T08:02:00.000Z</time>
      </trkpt>
      <trkpt lat="44.42089" lon="5.38491">
        <ele>1082</ele>
        <time>2014-05-04T08:02:01.000Z</time>
      </trkpt>
      <trkpt lat="44.42065" lon="5.38429">
        <ele>1075</ele>
        <time>2014-05-04T08:02:07.000Z</time>
      </trkpt>
      <trkpt lat="44.4205" lon="5.38394">
        <ele>1071.4000244141</ele>
        <time>2014-05-04T08:02:11.000Z</time>
      </trkpt>
      <trkpt lat="44.42037" lon="5.38355">
        <ele>1068</ele>
        <time>2014-05-04T08:02:15.000Z</time>
      </trkpt>
      <trkpt lat="44.42036" lon="5.38316">
        <ele>1064</ele>
        <time>2014-05-04T08:02:19.000Z</time>
      </trkpt>
      <trkpt lat="44.42024" lon="5.38305">
        <ele>1061.8000488281</ele>
        <time>2014-05-04T08:02:28.000Z</time>
      </trkpt>
      <trkpt lat="44.42007" lon="5.3834">
        <ele>1058.5999755859</ele>
        <time>2014-05-04T08:02:33.000Z</time>
      </trkpt>
      <trkpt lat="44.42001" lon="5.38368">
        <ele>1055</ele>
        <time>2014-05-04T08:02:36.000Z</time>
      </trkpt>
      <trkpt lat="44.42" lon="5.38379">
        <ele>1054.4000244141</ele>
        <time>2014-05-04T08:02:37.000Z</time>
      </trkpt>
      <trkpt lat="44.41998" lon="5.38434">
        <ele>1050.5999755859</ele>
        <time>2014-05-04T08:02:42.000Z</time>
      </trkpt>
      <trkpt lat="44.41975" lon="5.38475">
        <ele>1046.8000488281</ele>
        <time>2014-05-04T08:02:48.000Z</time>
      </trkpt>
      <trkpt lat="44.41948" lon="5.38468">
        <ele>1043.1999511719</ele>
        <time>2014-05-04T08:02:52.000Z</time>
      </trkpt>
      <trkpt lat="44.41927" lon="5.38453">
        <ele>1040.5999755859</ele>
        <time>2014-05-04T08:02:55.000Z</time>
      </trkpt>
      <trkpt lat="44.41905" lon="5.38445">
        <ele>1036.1999511719</ele>
        <time>2014-05-04T08:02:58.000Z</time>
      </trkpt>
      <trkpt lat="44.4189" lon="5.38444">
        <ele>1033.8000488281</ele>
        <time>2014-05-04T08:03:00.000Z</time>
      </trkpt>
      <trkpt lat="44.41862" lon="5.38435">
        <ele>1031.1999511719</ele>
        <time>2014-05-04T08:03:04.000Z</time>
      </trkpt>
      <trkpt lat="44.41836" lon="5.38427">
        <ele>1034.8000488281</ele>
        <time>2014-05-04T08:03:10.000Z</time>
      </trkpt>
      <trkpt lat="44.41804" lon="5.38416">
        <ele>1037.8000488281</ele>
        <time>2014-05-04T08:03:22.000Z</time>
      </trkpt>
      <trkpt lat="44.4177" lon="5.38424">
        <ele>1039.5999755859</ele>
        <time>2014-05-04T08:03:35.000Z</time>
      </trkpt>
      <trkpt lat="44.41706" lon="5.38426">
        <ele>1040.4000244141</ele>
        <time>2014-05-04T08:03:52.000Z</time>
      </trkpt>
      <trkpt lat="44.41669" lon="5.38396">
        <ele>1043.1999511719</ele>
        <time>2014-05-04T08:04:07.000Z</time>
      </trkpt>
      <trkpt lat="44.41662" lon="5.38389">
        <ele>1043.1999511719</ele>
        <time>2014-05-04T08:04:09.000Z</time>
      </trkpt>
      <trkpt lat="44.41623" lon="5.38366">
        <ele>1045.5999755859</ele>
        <time>2014-05-04T08:04:23.000Z</time>
      </trkpt>
      <trkpt lat="44.41572" lon="5.38364">
        <ele>1046.4000244141</ele>
        <time>2014-05-04T08:04:36.000Z</time>
      </trkpt>
      <trkpt lat="44.41539" lon="5.38364">
        <ele>1044.1999511719</ele>
        <time>2014-05-04T08:04:45.000Z</time>
      </trkpt>
      <trkpt lat="44.41539" lon="5.38374">
        <ele>1044.1999511719</ele>
        <time>2014-05-04T08:04:58.000Z</time>
      </trkpt>
      <trkpt lat="44.41537" lon="5.38377">
        <ele>1044.1999511719</ele>
        <time>2014-05-04T08:05:26.000Z</time>
      </trkpt>
      <trkpt lat="44.41539" lon="5.38377">
        <ele>1044.1999511719</ele>
        <time>2014-05-04T08:05:49.000Z</time>
      </trkpt>
      <trkpt lat="44.41537" lon="5.38377">
        <ele>1044.1999511719</ele>
        <time>2014-05-04T08:06:13.000Z</time>
      </trkpt>
      <trkpt lat="44.41538" lon="5.38377">
        <ele>1044.1999511719</ele>
        <time>2014-05-04T08:06:33.000Z</time>
      </trkpt>
      <trkpt lat="44.41537" lon="5.38378">
        <ele>1044.1999511719</ele>
        <time>2014-05-04T08:07:04.000Z</time>
      </trkpt>
      <trkpt lat="44.41539" lon="5.38376">
        <ele>1044.1999511719</ele>
        <time>2014-05-04T08:07:52.000Z</time>
      </trkpt>
      <trkpt lat="44.41536" lon="5.38378">
        <ele>1044.1999511719</ele>
        <time>2014-05-04T08:08:12.000Z</time>
      </trkpt>
      <trkpt lat="44.41535" lon="5.38377">
        <ele>1044.1999511719</ele>
        <time>2014-05-04T08:08:37.000Z</time>
      </trkpt>
      <trkpt lat="44.41535" lon="5.38376">
        <ele>1044.1999511719</ele>
        <time>2014-05-04T08:09:05.000Z</time>
      </trkpt>
      <trkpt lat="44.41535" lon="5.38374">
        <ele>1044.1999511719</ele>
        <time>2014-05-04T08:09:32.000Z</time>
      </trkpt>
      <trkpt lat="44.41533" lon="5.38374">
        <ele>1044.1999511719</ele>
        <time>2014-05-04T08:09:55.000Z</time>
      </trkpt>
      <trkpt lat="44.41533" lon="5.38375">
        <ele>1044.1999511719</ele>
        <time>2014-05-04T08:10:21.000Z</time>
      </trkpt>
      <trkpt lat="44.41538" lon="5.38373">
        <ele>1044.1999511719</ele>
        <time>2014-05-04T08:10:54.000Z</time>
      </trkpt>
      <trkpt lat="44.41534" lon="5.38371">
        <ele>1044.1999511719</ele>
        <time>2014-05-04T08:11:16.000Z</time>
      </trkpt>
      <trkpt lat="44.41534" lon="5.38369">
        <ele>1044.1999511719</ele>
        <time>2014-05-04T08:11:30.000Z</time>
      </trkpt>
      <trkpt lat="44.41527" lon="5.3837">
        <ele>1044.1999511719</ele>
        <time>2014-05-04T08:11:33.000Z</time>
      </trkpt>
      <trkpt lat="44.41489" lon="5.38367">
        <ele>1044.1999511719</ele>
        <time>2014-05-04T08:11:44.000Z</time>
      </trkpt>
      <trkpt lat="44.41478" lon="5.38362">
        <ele>1044.1999511719</ele>
        <time>2014-05-04T08:11:47.000Z</time>
      </trkpt>
      <trkpt lat="44.41445" lon="5.3836">
        <ele>1041.1999511719</ele>
        <time>2014-05-04T08:11:53.000Z</time>
      </trkpt>
      <trkpt lat="44.41396" lon="5.38362">
        <ele>1037.8000488281</ele>
        <time>2014-05-04T08:12:01.000Z</time>
      </trkpt>
      <trkpt lat="44.41389" lon="5.38362">
        <ele>1037.5999755859</ele>
        <time>2014-05-04T08:12:02.000Z</time>
      </trkpt>
      <trkpt lat="44.41383" lon="5.38362">
        <ele>1037.4000244141</ele>
        <time>2014-05-04T08:12:03.000Z</time>
      </trkpt>
      <trkpt lat="44.41364" lon="5.38363">
        <ele>1037.1999511719</ele>
        <time>2014-05-04T08:12:06.000Z</time>
      </trkpt>
      <trkpt lat="44.41345" lon="5.38371">
        <ele>1035.8000488281</ele>
        <time>2014-05-04T08:12:09.000Z</time>
      </trkpt>
      <trkpt lat="44.41328" lon="5.38387">
        <ele>1033.8000488281</ele>
        <time>2014-05-04T08:12:12.000Z</time>
      </trkpt>
      <trkpt lat="44.41323" lon="5.38394">
        <ele>1033</ele>
        <time>2014-05-04T08:12:13.000Z</time>
      </trkpt>
      <trkpt lat="44.41299" lon="5.38435">
        <ele>1029.1999511719</ele>
        <time>2014-05-04T08:12:18.000Z</time>
      </trkpt>
      <trkpt lat="44.41291" lon="5.38447">
        <ele>1028.1999511719</ele>
        <time>2014-05-04T08:12:20.000Z</time>
      </trkpt>
      <trkpt lat="44.41271" lon="5.38458">
        <ele>1028</ele>
        <time>2014-05-04T08:12:24.000Z</time>
      </trkpt>
      <trkpt lat="44.41256" lon="5.3846">
        <ele>1030</ele>
        <time>2014-05-04T08:12:32.000Z</time>
      </trkpt>
      <trkpt lat="44.41256" lon="5.3846">
        <ele>1030.1999511719</ele>
        <time>2014-05-04T08:12:38.000Z</time>
      </trkpt>
      <trkpt lat="44.41237" lon="5.38447">
        <ele>1026.4000244141</ele>
        <time>2014-05-04T08:12:45.000Z</time>
      </trkpt>
      <trkpt lat="44.4122" lon="5.38447">
        <ele>1022.799987793</ele>
        <time>2014-05-04T08:12:51.000Z</time>
      </trkpt>
      <trkpt lat="44.41216" lon="5.38454">
        <ele>1021.200012207</ele>
        <time>2014-05-04T08:12:54.000Z</time>
      </trkpt>
      <trkpt lat="44.4121" lon="5.38463">
        <ele>1022.799987793</ele>
        <time>2014-05-04T08:12:57.000Z</time>
      </trkpt>
      <trkpt lat="44.41183" lon="5.3847">
        <ele>1019.4000244141</ele>
        <time>2014-05-04T08:13:04.000Z</time>
      </trkpt>
      <trkpt lat="44.41168" lon="5.38472">
        <ele>1019.5999755859</ele>
        <time>2014-05-04T08:13:10.000Z</time>
      </trkpt>
      <trkpt lat="44.4116" lon="5.38475">
        <ele>1018.200012207</ele>
        <time>2014-05-04T08:13:13.000Z</time>
      </trkpt>
      <trkpt lat="44.41157" lon="5.38472">
        <ele>1017.200012207</ele>
        <time>2014-05-04T08:13:18.000Z</time>
      </trkpt>
      <trkpt lat="44.41168" lon="5.38464">
        <ele>1015.799987793</ele>
        <time>2014-05-04T08:13:23.000Z</time>
      </trkpt>
      <trkpt lat="44.41181" lon="5.38457">
        <ele>1014.200012207</ele>
        <time>2014-05-04T08:13:26.000Z</time>
      </trkpt>
      <trkpt lat="44.41198" lon="5.38443">
        <ele>1012.4000244141</ele>
        <time>2014-05-04T08:13:35.000Z</time>
      </trkpt>
      <trkpt lat="44.41214" lon="5.38426">
        <ele>1010.799987793</ele>
        <time>2014-05-04T08:13:49.000Z</time>
      </trkpt>
      <trkpt lat="44.4122" lon="5.38419">
        <ele>1010</ele>
        <time>2014-05-04T08:13:51.000Z</time>
      </trkpt>
      <trkpt lat="44.41223" lon="5.38415">
        <ele>1010</ele>
        <time>2014-05-04T08:13:52.000Z</time>
      </trkpt>
      <trkpt lat="44.4124" lon="5.38393">
        <ele>1007.200012207</ele>
        <time>2014-05-04T08:13:57.000Z</time>
      </trkpt>
      <trkpt lat="44.41255" lon="5.38333">
        <ele>1003.200012207</ele>
        <time>2014-05-04T08:14:06.000Z</time>
      </trkpt>
      <trkpt lat="44.41257" lon="5.38326">
        <ele>1002.799987793</ele>
        <time>2014-05-04T08:14:10.000Z</time>
      </trkpt>
      <trkpt lat="44.41234" lon="5.38349">
        <ele>1000.200012207</ele>
        <time>2014-05-04T08:14:20.000Z</time>
      </trkpt>
      <trkpt lat="44.41203" lon="5.38371">
        <ele>996.40002441406</ele>
        <time>2014-05-04T08:14:27.000Z</time>
      </trkpt>
      <trkpt lat="44.41199" lon="5.38374">
        <ele>995.79998779297</ele>
        <time>2014-05-04T08:14:28.000Z</time>
      </trkpt>
      <trkpt lat="44.41179" lon="5.38375">
        <ele>994.79998779297</ele>
        <time>2014-05-04T08:14:32.000Z</time>
      </trkpt>
      <trkpt lat="44.41163" lon="5.38374">
        <ele>993.40002441406</ele>
        <time>2014-05-04T08:14:35.000Z</time>
      </trkpt>
      <trkpt lat="44.41127" lon="5.38383">
        <ele>991.40002441406</ele>
        <time>2014-05-04T08:14:42.000Z</time>
      </trkpt>
      <trkpt lat="44.41116" lon="5.3839">
        <ele>990.59997558594</ele>
        <time>2014-05-04T08:14:45.000Z</time>
      </trkpt>
      <trkpt lat="44.41099" lon="5.384">
        <ele>989.59997558594</ele>
        <time>2014-05-04T08:14:48.000Z</time>
      </trkpt>
      <trkpt lat="44.41075" lon="5.38406">
        <ele>986.20001220703</ele>
        <time>2014-05-04T08:14:52.000Z</time>
      </trkpt>
      <trkpt lat="44.41058" lon="5.38409">
        <ele>984.40002441406</ele>
        <time>2014-05-04T08:14:55.000Z</time>
      </trkpt>
      <trkpt lat="44.41035" lon="5.38417">
        <ele>983.79998779297</ele>
        <time>2014-05-04T08:14:59.000Z</time>
      </trkpt>
      <trkpt lat="44.41006" lon="5.38433">
        <ele>981.79998779297</ele>
        <time>2014-05-04T08:15:06.000Z</time>
      </trkpt>
      <trkpt lat="44.41004" lon="5.38433">
        <ele>981.79998779297</ele>
        <time>2014-05-04T08:15:14.000Z</time>
      </trkpt>
      <trkpt lat="44.41019" lon="5.38422">
        <ele>980.40002441406</ele>
        <time>2014-05-04T08:15:20.000Z</time>
      </trkpt>
      <trkpt lat="44.41034" lon="5.38404">
        <ele>978.20001220703</ele>
        <time>2014-05-04T08:15:25.000Z</time>
      </trkpt>
      <trkpt lat="44.41046" lon="5.38394">
        <ele>977</ele>
        <time>2014-05-04T08:15:30.000Z</time>
      </trkpt>
      <trkpt lat="44.41055" lon="5.38376">
        <ele>975.20001220703</ele>
        <time>2014-05-04T08:15:38.000Z</time>
      </trkpt>
      <trkpt lat="44.41031" lon="5.38391">
        <ele>972.20001220703</ele>
        <time>2014-05-04T08:15:47.000Z</time>
      </trkpt>
      <trkpt lat="44.40991" lon="5.38413">
        <ele>968.79998779297</ele>
        <time>2014-05-04T08:15:56.000Z</time>
      </trkpt>
      <trkpt lat="44.40965" lon="5.38432">
        <ele>965.20001220703</ele>
        <time>2014-05-04T08:16:03.000Z</time>
      </trkpt>
      <trkpt lat="44.40958" lon="5.38437">
        <ele>964.59997558594</ele>
        <time>2014-05-04T08:16:05.000Z</time>
      </trkpt>
      <trkpt lat="44.40917" lon="5.38463">
        <ele>961.20001220703</ele>
        <time>2014-05-04T08:16:14.000Z</time>
      </trkpt>
      <trkpt lat="44.40901" lon="5.38475">
        <ele>959.59997558594</ele>
        <time>2014-05-04T08:16:17.000Z</time>
      </trkpt>
      <trkpt lat="44.40871" lon="5.38494">
        <ele>958.20001220703</ele>
        <time>2014-05-04T08:16:27.000Z</time>
      </trkpt>
      <trkpt lat="44.40867" lon="5.38496">
        <ele>957.79998779297</ele>
        <time>2014-05-04T08:16:29.000Z</time>
      </trkpt>
      <trkpt lat="44.40864" lon="5.38495">
        <ele>957</ele>
        <time>2014-05-04T08:16:35.000Z</time>
      </trkpt>
      <trkpt lat="44.40882" lon="5.38477">
        <ele>955</ele>
        <time>2014-05-04T08:16:45.000Z</time>
      </trkpt>
      <trkpt lat="44.40891" lon="5.38469">
        <ele>953.59997558594</ele>
        <time>2014-05-04T08:16:48.000Z</time>
      </trkpt>
      <trkpt lat="44.40899" lon="5.3846">
        <ele>953.20001220703</ele>
        <time>2014-05-04T08:16:51.000Z</time>
      </trkpt>
      <trkpt lat="44.40916" lon="5.38444">
        <ele>951.40002441406</ele>
        <time>2014-05-04T08:16:57.000Z</time>
      </trkpt>
      <trkpt lat="44.40935" lon="5.38412">
        <ele>950.40002441406</ele>
        <time>2014-05-04T08:17:05.000Z</time>
      </trkpt>
      <trkpt lat="44.40935" lon="5.3841">
        <ele>950.20001220703</ele>
        <time>2014-05-04T08:17:10.000Z</time>
      </trkpt>
      <trkpt lat="44.4092" lon="5.38422">
        <ele>947.40002441406</ele>
        <time>2014-05-04T08:17:18.000Z</time>
      </trkpt>
      <trkpt lat="44.409" lon="5.38434">
        <ele>944.20001220703</ele>
        <time>2014-05-04T08:17:24.000Z</time>
      </trkpt>
      <trkpt lat="44.40883" lon="5.38443">
        <ele>942.40002441406</ele>
        <time>2014-05-04T08:17:28.000Z</time>
      </trkpt>
      <trkpt lat="44.40856" lon="5.38458">
        <ele>941</ele>
        <time>2014-05-04T08:17:37.000Z</time>
      </trkpt>
      <trkpt lat="44.40837" lon="5.38485">
        <ele>938.79998779297</ele>
        <time>2014-05-04T08:17:47.000Z</time>
      </trkpt>
      <trkpt lat="44.40832" lon="5.38495">
        <ele>938</ele>
        <time>2014-05-04T08:17:51.000Z</time>
      </trkpt>
      <trkpt lat="44.40818" lon="5.38507">
        <ele>938</ele>
        <time>2014-05-04T08:18:02.000Z</time>
      </trkpt>
      <trkpt lat="44.40794" lon="5.38515">
        <ele>938</ele>
        <time>2014-05-04T08:18:18.000Z</time>
      </trkpt>
      <trkpt lat="44.40776" lon="5.38518">
        <ele>937.20001220703</ele>
        <time>2014-05-04T08:18:31.000Z</time>
      </trkpt>
      <trkpt lat="44.40767" lon="5.3852">
        <ele>937.20001220703</ele>
        <time>2014-05-04T08:18:39.000Z</time>
      </trkpt>
      <trkpt lat="44.40753" lon="5.38527">
        <ele>936.40002441406</ele>
        <time>2014-05-04T08:18:50.000Z</time>
      </trkpt>
      <trkpt lat="44.40749" lon="5.38522">
        <ele>936.40002441406</ele>
        <time>2014-05-04T08:18:54.000Z</time>
      </trkpt>
      <trkpt lat="44.40746" lon="5.38521">
        <ele>936</ele>
        <time>2014-05-04T08:18:56.000Z</time>
      </trkpt>
      <trkpt lat="44.40735" lon="5.38531">
        <ele>935.59997558594</ele>
        <time>2014-05-04T08:19:07.000Z</time>
      </trkpt>
      <trkpt lat="44.40712" lon="5.3853">
        <ele>935.59997558594</ele>
        <time>2014-05-04T08:19:22.000Z</time>
      </trkpt>
      <trkpt lat="44.40708" lon="5.38532">
        <ele>935.59997558594</ele>
        <time>2014-05-04T08:19:27.000Z</time>
      </trkpt>
      <trkpt lat="44.40698" lon="5.38538">
        <ele>934.79998779297</ele>
        <time>2014-05-04T08:19:33.000Z</time>
      </trkpt>
      <trkpt lat="44.4069" lon="5.38549">
        <ele>934.79998779297</ele>
        <time>2014-05-04T08:19:38.000Z</time>
      </trkpt>
      <trkpt lat="44.40683" lon="5.38595">
        <ele>934.79998779297</ele>
        <time>2014-05-04T08:19:49.000Z</time>
      </trkpt>
      <trkpt lat="44.40689" lon="5.3864">
        <ele>934.79998779297</ele>
        <time>2014-05-04T08:20:01.000Z</time>
      </trkpt>
      <trkpt lat="44.40695" lon="5.38693">
        <ele>934.79998779297</ele>
        <time>2014-05-04T08:20:12.000Z</time>
      </trkpt>
      <trkpt lat="44.40696" lon="5.38706">
        <ele>934.79998779297</ele>
        <time>2014-05-04T08:20:15.000Z</time>
      </trkpt>
      <trkpt lat="44.40694" lon="5.38752">
        <ele>934.79998779297</ele>
        <time>2014-05-04T08:20:27.000Z</time>
      </trkpt>
      <trkpt lat="44.40694" lon="5.388">
        <ele>933</ele>
        <time>2014-05-04T08:20:39.000Z</time>
      </trkpt>
      <trkpt lat="44.40694" lon="5.38812">
        <ele>932.20001220703</ele>
        <time>2014-05-04T08:20:41.000Z</time>
      </trkpt>
      <trkpt lat="44.40695" lon="5.38831">
        <ele>930.79998779297</ele>
        <time>2014-05-04T08:20:44.000Z</time>
      </trkpt>
      <trkpt lat="44.40693" lon="5.38852">
        <ele>930.40002441406</ele>
        <time>2014-05-04T08:20:47.000Z</time>
      </trkpt>
      <trkpt lat="44.40687" lon="5.38866">
        <ele>929.20001220703</ele>
        <time>2014-05-04T08:20:54.000Z</time>
      </trkpt>
      <trkpt lat="44.40687" lon="5.38862">
        <ele>928.59997558594</ele>
        <time>2014-05-04T08:20:55.000Z</time>
      </trkpt>
      <trkpt lat="44.40684" lon="5.38839">
        <ele>926.40002441406</ele>
        <time>2014-05-04T08:20:59.000Z</time>
      </trkpt>
      <trkpt lat="44.40676" lon="5.38809">
        <ele>924.20001220703</ele>
        <time>2014-05-04T08:21:04.000Z</time>
      </trkpt>
      <trkpt lat="44.40662" lon="5.38753">
        <ele>920</ele>
        <time>2014-05-04T08:21:11.000Z</time>
      </trkpt>
      <trkpt lat="44.40658" lon="5.38736">
        <ele>918.79998779297</ele>
        <time>2014-05-04T08:21:13.000Z</time>
      </trkpt>
      <trkpt lat="44.40648" lon="5.38687">
        <ele>915.40002441406</ele>
        <time>2014-05-04T08:21:19.000Z</time>
      </trkpt>
      <trkpt lat="44.40632" lon="5.38639">
        <ele>912.40002441406</ele>
        <time>2014-05-04T08:21:26.000Z</time>
      </trkpt>
      <trkpt lat="44.40624" lon="5.38613">
        <ele>909.40002441406</ele>
        <time>2014-05-04T08:21:30.000Z</time>
      </trkpt>
      <trkpt lat="44.40623" lon="5.38613">
        <ele>909.20001220703</ele>
        <time>2014-05-04T08:21:31.000Z</time>
      </trkpt>
      <trkpt lat="44.4062" lon="5.38659">
        <ele>906.59997558594</ele>
        <time>2014-05-04T08:21:38.000Z</time>
      </trkpt>
      <trkpt lat="44.40621" lon="5.38705">
        <ele>904</ele>
        <time>2014-05-04T08:21:43.000Z</time>
      </trkpt>
      <trkpt lat="44.40619" lon="5.38756">
        <ele>901</ele>
        <time>2014-05-04T08:21:48.000Z</time>
      </trkpt>
      <trkpt lat="44.40617" lon="5.38783">
        <ele>899.79998779297</ele>
        <time>2014-05-04T08:21:51.000Z</time>
      </trkpt>
      <trkpt lat="44.40614" lon="5.38804">
        <ele>898.79998779297</ele>
        <time>2014-05-04T08:21:54.000Z</time>
      </trkpt>
      <trkpt lat="44.40606" lon="5.38834">
        <ele>896.20001220703</ele>
        <time>2014-05-04T08:21:58.000Z</time>
      </trkpt>
      <trkpt lat="44.40602" lon="5.38845">
        <ele>895.40002441406</ele>
        <time>2014-05-04T08:22:00.000Z</time>
      </trkpt>
      <trkpt lat="44.406" lon="5.3886">
        <ele>895</ele>
        <time>2014-05-04T08:22:03.000Z</time>
      </trkpt>
      <trkpt lat="44.40597" lon="5.38872">
        <ele>894.20001220703</ele>
        <time>2014-05-04T08:22:05.000Z</time>
      </trkpt>
      <trkpt lat="44.40595" lon="5.3891">
        <ele>891.40002441406</ele>
        <time>2014-05-04T08:22:10.000Z</time>
      </trkpt>
      <trkpt lat="44.40595" lon="5.38962">
        <ele>887</ele>
        <time>2014-05-04T08:22:16.000Z</time>
      </trkpt>
      <trkpt lat="44.406" lon="5.38991">
        <ele>884</ele>
        <time>2014-05-04T08:22:21.000Z</time>
      </trkpt>
      <trkpt lat="44.40604" lon="5.39001">
        <ele>883.79998779297</ele>
        <time>2014-05-04T08:22:23.000Z</time>
      </trkpt>
      <trkpt lat="44.40611" lon="5.39035">
        <ele>882.59997558594</ele>
        <time>2014-05-04T08:22:28.000Z</time>
      </trkpt>
      <trkpt lat="44.40613" lon="5.39052">
        <ele>881.59997558594</ele>
        <time>2014-05-04T08:22:30.000Z</time>
      </trkpt>
      <trkpt lat="44.40612" lon="5.3907">
        <ele>879</ele>
        <time>2014-05-04T08:22:32.000Z</time>
      </trkpt>
      <trkpt lat="44.40612" lon="5.39092">
        <ele>877.40002441406</ele>
        <time>2014-05-04T08:22:41.000Z</time>
      </trkpt>
      <trkpt lat="44.40613" lon="5.39099">
        <ele>877.40002441406</ele>
        <time>2014-05-04T08:22:48.000Z</time>
      </trkpt>
      <trkpt lat="44.40623" lon="5.39141">
        <ele>874.40002441406</ele>
        <time>2014-05-04T08:22:58.000Z</time>
      </trkpt>
      <trkpt lat="44.40629" lon="5.39155">
        <ele>872.79998779297</ele>
        <time>2014-05-04T08:23:00.000Z</time>
      </trkpt>
      <trkpt lat="44.40641" lon="5.39187">
        <ele>870.79998779297</ele>
        <time>2014-05-04T08:23:04.000Z</time>
      </trkpt>
      <trkpt lat="44.40651" lon="5.39213">
        <ele>868.79998779297</ele>
        <time>2014-05-04T08:23:07.000Z</time>
      </trkpt>
      <trkpt lat="44.40656" lon="5.3923">
        <ele>868</ele>
        <time>2014-05-04T08:23:09.000Z</time>
      </trkpt>
      <trkpt lat="44.40665" lon="5.39255">
        <ele>866.20001220703</ele>
        <time>2014-05-04T08:23:12.000Z</time>
      </trkpt>
      <trkpt lat="44.40676" lon="5.39278">
        <ele>864.59997558594</ele>
        <time>2014-05-04T08:23:16.000Z</time>
      </trkpt>
      <trkpt lat="44.40674" lon="5.39279">
        <ele>864.40002441406</ele>
        <time>2014-05-04T08:23:21.000Z</time>
      </trkpt>
      <trkpt lat="44.4065" lon="5.39253">
        <ele>861.20001220703</ele>
        <time>2014-05-04T08:23:29.000Z</time>
      </trkpt>
      <trkpt lat="44.40642" lon="5.39244">
        <ele>860</ele>
        <time>2014-05-04T08:23:31.000Z</time>
      </trkpt>
      <trkpt lat="44.40633" lon="5.39232">
        <ele>859.40002441406</ele>
        <time>2014-05-04T08:23:33.000Z</time>
      </trkpt>
      <trkpt lat="44.40617" lon="5.39217">
        <ele>856.20001220703</ele>
        <time>2014-05-04T08:23:36.000Z</time>
      </trkpt>
      <trkpt lat="44.40608" lon="5.39207">
        <ele>855.40002441406</ele>
        <time>2014-05-04T08:23:38.000Z</time>
      </trkpt>
      <trkpt lat="44.40605" lon="5.39202">
        <ele>856</ele>
        <time>2014-05-04T08:23:39.000Z</time>
      </trkpt>
      <trkpt lat="44.40578" lon="5.39173">
        <ele>853.20001220703</ele>
        <time>2014-05-04T08:23:45.000Z</time>
      </trkpt>
      <trkpt lat="44.40569" lon="5.39161">
        <ele>852</ele>
        <time>2014-05-04T08:23:47.000Z</time>
      </trkpt>
      <trkpt lat="44.40553" lon="5.39127">
        <ele>848.79998779297</ele>
        <time>2014-05-04T08:23:54.000Z</time>
      </trkpt>
      <trkpt lat="44.40531" lon="5.39084">
        <ele>847.59997558594</ele>
        <time>2014-05-04T08:24:04.000Z</time>
      </trkpt>
      <trkpt lat="44.40512" lon="5.39062">
        <ele>845.40002441406</ele>
        <time>2014-05-04T08:24:09.000Z</time>
      </trkpt>
      <trkpt lat="44.40505" lon="5.39052">
        <ele>843.59997558594</ele>
        <time>2014-05-04T08:24:11.000Z</time>
      </trkpt>
      <trkpt lat="44.40497" lon="5.3903">
        <ele>841.20001220703</ele>
        <time>2014-05-04T08:24:15.000Z</time>
      </trkpt>
      <trkpt lat="44.40493" lon="5.39021">
        <ele>840.59997558594</ele>
        <time>2014-05-04T08:24:17.000Z</time>
      </trkpt>
      <trkpt lat="44.40473" lon="5.38987">
        <ele>839.59997558594</ele>
        <time>2014-05-04T08:24:26.000Z</time>
      </trkpt>
      <trkpt lat="44.40452" lon="5.38952">
        <ele>836.20001220703</ele>
        <time>2014-05-04T08:24:32.000Z</time>
      </trkpt>
      <trkpt lat="44.40449" lon="5.38948">
        <ele>836</ele>
        <time>2014-05-04T08:24:33.000Z</time>
      </trkpt>
      <trkpt lat="44.40444" lon="5.38939">
        <ele>835.79998779297</ele>
        <time>2014-05-04T08:24:35.000Z</time>
      </trkpt>
      <trkpt lat="44.40428" lon="5.38908">
        <ele>832.79998779297</ele>
        <time>2014-05-04T08:24:40.000Z</time>
      </trkpt>
      <trkpt lat="44.40419" lon="5.38894">
        <ele>832.40002441406</ele>
        <time>2014-05-04T08:24:43.000Z</time>
      </trkpt>
      <trkpt lat="44.40407" lon="5.38906">
        <ele>830</ele>
        <time>2014-05-04T08:24:50.000Z</time>
      </trkpt>
      <trkpt lat="44.40411" lon="5.38928">
        <ele>828</ele>
        <time>2014-05-04T08:24:53.000Z</time>
      </trkpt>
      <trkpt lat="44.40417" lon="5.38942">
        <ele>826.59997558594</ele>
        <time>2014-05-04T08:24:55.000Z</time>
      </trkpt>
      <trkpt lat="44.40424" lon="5.38977">
        <ele>824</ele>
        <time>2014-05-04T08:24:59.000Z</time>
      </trkpt>
      <trkpt lat="44.40433" lon="5.39019">
        <ele>822.59997558594</ele>
        <time>2014-05-04T08:25:04.000Z</time>
      </trkpt>
      <trkpt lat="44.40436" lon="5.39053">
        <ele>820.59997558594</ele>
        <time>2014-05-04T08:25:08.000Z</time>
      </trkpt>
      <trkpt lat="44.4044" lon="5.3908">
        <ele>818.20001220703</ele>
        <time>2014-05-04T08:25:11.000Z</time>
      </trkpt>
      <trkpt lat="44.40441" lon="5.39129">
        <ele>814.20001220703</ele>
        <time>2014-05-04T08:25:16.000Z</time>
      </trkpt>
      <trkpt lat="44.40441" lon="5.39138">
        <ele>813.79998779297</ele>
        <time>2014-05-04T08:25:17.000Z</time>
      </trkpt>
      <trkpt lat="44.40444" lon="5.39192">
        <ele>811.59997558594</ele>
        <time>2014-05-04T08:25:24.000Z</time>
      </trkpt>
      <trkpt lat="44.40444" lon="5.39197">
        <ele>811.40002441406</ele>
        <time>2014-05-04T08:25:25.000Z</time>
      </trkpt>
      <trkpt lat="44.40446" lon="5.39207">
        <ele>811.40002441406</ele>
        <time>2014-05-04T08:25:27.000Z</time>
      </trkpt>
      <trkpt lat="44.40451" lon="5.39246">
        <ele>808.79998779297</ele>
        <time>2014-05-04T08:25:35.000Z</time>
      </trkpt>
      <trkpt lat="44.40458" lon="5.3928">
        <ele>806.79998779297</ele>
        <time>2014-05-04T08:25:40.000Z</time>
      </trkpt>
      <trkpt lat="44.40474" lon="5.39312">
        <ele>804.20001220703</ele>
        <time>2014-05-04T08:25:45.000Z</time>
      </trkpt>
      <trkpt lat="44.40507" lon="5.39351">
        <ele>800.20001220703</ele>
        <time>2014-05-04T08:25:52.000Z</time>
      </trkpt>
      <trkpt lat="44.40509" lon="5.3936">
        <ele>800</ele>
        <time>2014-05-04T08:25:59.000Z</time>
      </trkpt>
      <trkpt lat="44.40494" lon="5.39351">
        <ele>799</ele>
        <time>2014-05-04T08:26:07.000Z</time>
      </trkpt>
      <trkpt lat="44.40479" lon="5.39345">
        <ele>797</ele>
        <time>2014-05-04T08:26:10.000Z</time>
      </trkpt>
      <trkpt lat="44.40454" lon="5.39326">
        <ele>794.59997558594</ele>
        <time>2014-05-04T08:26:15.000Z</time>
      </trkpt>
      <trkpt lat="44.40426" lon="5.39316">
        <ele>790.40002441406</ele>
        <time>2014-05-04T08:26:22.000Z</time>
      </trkpt>
      <trkpt lat="44.40414" lon="5.39319">
        <ele>788.79998779297</ele>
        <time>2014-05-04T08:26:25.000Z</time>
      </trkpt>
      <trkpt lat="44.40401" lon="5.39324">
        <ele>788.40002441406</ele>
        <time>2014-05-04T08:26:29.000Z</time>
      </trkpt>
      <trkpt lat="44.4039" lon="5.39327">
        <ele>788.40002441406</ele>
        <time>2014-05-04T08:26:32.000Z</time>
      </trkpt>
      <trkpt lat="44.40381" lon="5.39318">
        <ele>788.40002441406</ele>
        <time>2014-05-04T08:26:36.000Z</time>
      </trkpt>
      <trkpt lat="44.40375" lon="5.39308">
        <ele>787.79998779297</ele>
        <time>2014-05-04T08:26:40.000Z</time>
      </trkpt>
      <trkpt lat="44.40372" lon="5.39303">
        <ele>787.59997558594</ele>
        <time>2014-05-04T08:26:51.000Z</time>
      </trkpt>
      <trkpt lat="44.40367" lon="5.39293">
        <ele>787.59997558594</ele>
        <time>2014-05-04T08:27:10.000Z</time>
      </trkpt>
      <trkpt lat="44.40362" lon="5.39278">
        <ele>790.59997558594</ele>
        <time>2014-05-04T08:27:17.000Z</time>
      </trkpt>
      <trkpt lat="44.40354" lon="5.39252">
        <ele>793.79998779297</ele>
        <time>2014-05-04T08:27:29.000Z</time>
      </trkpt>
      <trkpt lat="44.40337" lon="5.39229">
        <ele>796.40002441406</ele>
        <time>2014-05-04T08:27:42.000Z</time>
      </trkpt>
      <trkpt lat="44.4032" lon="5.39206">
        <ele>798</ele>
        <time>2014-05-04T08:27:56.000Z</time>
      </trkpt>
      <trkpt lat="44.40303" lon="5.39181">
        <ele>799.59997558594</ele>
        <time>2014-05-04T08:28:07.000Z</time>
      </trkpt>
      <trkpt lat="44.40284" lon="5.39155">
        <ele>799.59997558594</ele>
        <time>2014-05-04T08:28:19.000Z</time>
      </trkpt>
      <trkpt lat="44.40255" lon="5.39115">
        <ele>800.40002441406</ele>
        <time>2014-05-04T08:28:33.000Z</time>
      </trkpt>
      <trkpt lat="44.4022" lon="5.39086">
        <ele>801.40002441406</ele>
        <time>2014-05-04T08:28:45.000Z</time>
      </trkpt>
      <trkpt lat="44.40206" lon="5.39065">
        <ele>801.40002441406</ele>
        <time>2014-05-04T08:28:51.000Z</time>
      </trkpt>
      <trkpt lat="44.40193" lon="5.39002">
        <ele>798.59997558594</ele>
        <time>2014-05-04T08:29:00.000Z</time>
      </trkpt>
      <trkpt lat="44.40192" lon="5.38953">
        <ele>798.20001220703</ele>
        <time>2014-05-04T08:29:09.000Z</time>
      </trkpt>
      <trkpt lat="44.40192" lon="5.38929">
        <ele>798.20001220703</ele>
        <time>2014-05-04T08:29:13.000Z</time>
      </trkpt>
      <trkpt lat="44.40182" lon="5.38891">
        <ele>801.20001220703</ele>
        <time>2014-05-04T08:29:21.000Z</time>
      </trkpt>
      <trkpt lat="44.40174" lon="5.38876">
        <ele>802.20001220703</ele>
        <time>2014-05-04T08:29:25.000Z</time>
      </trkpt>
      <trkpt lat="44.40167" lon="5.3887">
        <ele>802.40002441406</ele>
        <time>2014-05-04T08:29:27.000Z</time>
      </trkpt>
      <trkpt lat="44.40155" lon="5.38851">
        <ele>804.59997558594</ele>
        <time>2014-05-04T08:29:36.000Z</time>
      </trkpt>
      <trkpt lat="44.40138" lon="5.38817">
        <ele>806.20001220703</ele>
        <time>2014-05-04T08:29:51.000Z</time>
      </trkpt>
      <trkpt lat="44.40118" lon="5.38782">
        <ele>808.79998779297</ele>
        <time>2014-05-04T08:30:06.000Z</time>
      </trkpt>
      <trkpt lat="44.40101" lon="5.38754">
        <ele>812</ele>
        <time>2014-05-04T08:30:21.000Z</time>
      </trkpt>
      <trkpt lat="44.40091" lon="5.38738">
        <ele>815.20001220703</ele>
        <time>2014-05-04T08:30:33.000Z</time>
      </trkpt>
      <trkpt lat="44.4009" lon="5.38739">
        <ele>815.20001220703</ele>
        <time>2014-05-04T08:30:34.000Z</time>
      </trkpt>
      <trkpt lat="44.40089" lon="5.3875">
        <ele>816.20001220703</ele>
        <time>2014-05-04T08:30:39.000Z</time>
      </trkpt>
      <trkpt lat="44.4009" lon="5.38793">
        <ele>817.79998779297</ele>
        <time>2014-05-04T08:30:54.000Z</time>
      </trkpt>
      <trkpt lat="44.40086" lon="5.38828">
        <ele>819.40002441406</ele>
        <time>2014-05-04T08:31:07.000Z</time>
      </trkpt>
      <trkpt lat="44.40084" lon="5.38863">
        <ele>821</ele>
        <time>2014-05-04T08:31:22.000Z</time>
      </trkpt>
      <trkpt lat="44.4009" lon="5.38901">
        <ele>823.20001220703</ele>
        <time>2014-05-04T08:31:36.000Z</time>
      </trkpt>
      <trkpt lat="44.40095" lon="5.38956">
        <ele>825.40002441406</ele>
        <time>2014-05-04T08:31:54.000Z</time>
      </trkpt>
      <trkpt lat="44.40098" lon="5.38974">
        <ele>827.59997558594</ele>
        <time>2014-05-04T08:32:08.000Z</time>
      </trkpt>
      <trkpt lat="44.40098" lon="5.39003">
        <ele>829.20001220703</ele>
        <time>2014-05-04T08:32:21.000Z</time>
      </trkpt>
      <trkpt lat="44.40098" lon="5.39025">
        <ele>831.79998779297</ele>
        <time>2014-05-04T08:32:33.000Z</time>
      </trkpt>
      <trkpt lat="44.40098" lon="5.39036">
        <ele>833.40002441406</ele>
        <time>2014-05-04T08:32:40.000Z</time>
      </trkpt>
      <trkpt lat="44.40099" lon="5.39065">
        <ele>836.79998779297</ele>
        <time>2014-05-04T08:32:55.000Z</time>
      </trkpt>
      <trkpt lat="44.40098" lon="5.39095">
        <ele>839.40002441406</ele>
        <time>2014-05-04T08:33:11.000Z</time>
      </trkpt>
      <trkpt lat="44.40103" lon="5.39124">
        <ele>842.20001220703</ele>
        <time>2014-05-04T08:33:27.000Z</time>
      </trkpt>
      <trkpt lat="44.40103" lon="5.39129">
        <ele>843</ele>
        <time>2014-05-04T08:33:30.000Z</time>
      </trkpt>
      <trkpt lat="44.40109" lon="5.39151">
        <ele>845.40002441406</ele>
        <time>2014-05-04T08:33:44.000Z</time>
      </trkpt>
      <trkpt lat="44.4011" lon="5.39166">
        <ele>847</ele>
        <time>2014-05-04T08:33:52.000Z</time>
      </trkpt>
      <trkpt lat="44.40116" lon="5.39187">
        <ele>850.40002441406</ele>
        <time>2014-05-04T08:34:06.000Z</time>
      </trkpt>
      <trkpt lat="44.40116" lon="5.39189">
        <ele>850.59997558594</ele>
        <time>2014-05-04T08:34:07.000Z</time>
      </trkpt>
      <trkpt lat="44.40117" lon="5.39202">
        <ele>852</ele>
        <time>2014-05-04T08:34:15.000Z</time>
      </trkpt>
      <trkpt lat="44.40117" lon="5.39209">
        <ele>853</ele>
        <time>2014-05-04T08:34:19.000Z</time>
      </trkpt>
      <trkpt lat="44.40119" lon="5.39229">
        <ele>856.40002441406</ele>
        <time>2014-05-04T08:34:32.000Z</time>
      </trkpt>
      <trkpt lat="44.40121" lon="5.39232">
        <ele>856.79998779297</ele>
        <time>2014-05-04T08:34:35.000Z</time>
      </trkpt>
      <trkpt lat="44.40125" lon="5.39249">
        <ele>860</ele>
        <time>2014-05-04T08:34:48.000Z</time>
      </trkpt>
      <trkpt lat="44.40131" lon="5.39273">
        <ele>863.40002441406</ele>
        <time>2014-05-04T08:35:02.000Z</time>
      </trkpt>
      <trkpt lat="44.40131" lon="5.39293">
        <ele>864.79998779297</ele>
        <time>2014-05-04T08:35:14.000Z</time>
      </trkpt>
      <trkpt lat="44.4013" lon="5.393">
        <ele>866.40002441406</ele>
        <time>2014-05-04T08:35:25.000Z</time>
      </trkpt>
      <trkpt lat="44.40122" lon="5.39306">
        <ele>869.79998779297</ele>
        <time>2014-05-04T08:35:41.000Z</time>
      </trkpt>
      <trkpt lat="44.4011" lon="5.39307">
        <ele>872.79998779297</ele>
        <time>2014-05-04T08:35:56.000Z</time>
      </trkpt>
      <trkpt lat="44.40098" lon="5.39306">
        <ele>875.79998779297</ele>
        <time>2014-05-04T08:36:10.000Z</time>
      </trkpt>
      <trkpt lat="44.40086" lon="5.39301">
        <ele>878.79998779297</ele>
        <time>2014-05-04T08:36:25.000Z</time>
      </trkpt>
      <trkpt lat="44.40072" lon="5.39298">
        <ele>881.79998779297</ele>
        <time>2014-05-04T08:36:42.000Z</time>
      </trkpt>
      <trkpt lat="44.40062" lon="5.39304">
        <ele>885</ele>
        <time>2014-05-04T08:36:58.000Z</time>
      </trkpt>
      <trkpt lat="44.4005" lon="5.39308">
        <ele>888.20001220703</ele>
        <time>2014-05-04T08:37:14.000Z</time>
      </trkpt>
      <trkpt lat="44.40039" lon="5.3931">
        <ele>891.40002441406</ele>
        <time>2014-05-04T08:37:29.000Z</time>
      </trkpt>
      <trkpt lat="44.40026" lon="5.39313">
        <ele>894.79998779297</ele>
        <time>2014-05-04T08:37:44.000Z</time>
      </trkpt>
      <trkpt lat="44.40015" lon="5.39314">
        <ele>898</ele>
        <time>2014-05-04T08:37:59.000Z</time>
      </trkpt>
      <trkpt lat="44.40005" lon="5.39315">
        <ele>901.20001220703</ele>
        <time>2014-05-04T08:38:12.000Z</time>
      </trkpt>
      <trkpt lat="44.39999" lon="5.39315">
        <ele>901.79998779297</ele>
        <time>2014-05-04T08:38:19.000Z</time>
      </trkpt>
      <trkpt lat="44.39992" lon="5.39313">
        <ele>902.40002441406</ele>
        <time>2014-05-04T08:38:22.000Z</time>
      </trkpt>
      <trkpt lat="44.39983" lon="5.39312">
        <ele>902.40002441406</ele>
        <time>2014-05-04T08:38:26.000Z</time>
      </trkpt>
      <trkpt lat="44.39964" lon="5.39321">
        <ele>905.40002441406</ele>
        <time>2014-05-04T08:38:37.000Z</time>
      </trkpt>
      <trkpt lat="44.3995" lon="5.39327">
        <ele>908.59997558594</ele>
        <time>2014-05-04T08:38:47.000Z</time>
      </trkpt>
      <trkpt lat="44.39946" lon="5.39329">
        <ele>909.59997558594</ele>
        <time>2014-05-04T08:38:50.000Z</time>
      </trkpt>
      <trkpt lat="44.39931" lon="5.39328">
        <ele>912.40002441406</ele>
        <time>2014-05-04T08:38:59.000Z</time>
      </trkpt>
      <trkpt lat="44.39924" lon="5.39326">
        <ele>913.20001220703</ele>
        <time>2014-05-04T08:39:03.000Z</time>
      </trkpt>
      <trkpt lat="44.39893" lon="5.39321">
        <ele>913.20001220703</ele>
        <time>2014-05-04T08:39:15.000Z</time>
      </trkpt>
      <trkpt lat="44.39872" lon="5.39329">
        <ele>913.20001220703</ele>
        <time>2014-05-04T08:39:19.000Z</time>
      </trkpt>
      <trkpt lat="44.3985" lon="5.39338">
        <ele>913.20001220703</ele>
        <time>2014-05-04T08:39:24.000Z</time>
      </trkpt>
      <trkpt lat="44.3982" lon="5.39354">
        <ele>913.20001220703</ele>
        <time>2014-05-04T08:39:31.000Z</time>
      </trkpt>
      <trkpt lat="44.39785" lon="5.39368">
        <ele>913.20001220703</ele>
        <time>2014-05-04T08:39:38.000Z</time>
      </trkpt>
      <trkpt lat="44.3975" lon="5.39383">
        <ele>914.79998779297</ele>
        <time>2014-05-04T08:39:48.000Z</time>
      </trkpt>
      <trkpt lat="44.39731" lon="5.39393">
        <ele>917.59997558594</ele>
        <time>2014-05-04T08:40:01.000Z</time>
      </trkpt>
      <trkpt lat="44.39715" lon="5.39395">
        <ele>919.20001220703</ele>
        <time>2014-05-04T08:40:10.000Z</time>
      </trkpt>
      <trkpt lat="44.39687" lon="5.39394">
        <ele>920.79998779297</ele>
        <time>2014-05-04T08:40:21.000Z</time>
      </trkpt>
      <trkpt lat="44.39665" lon="5.39391">
        <ele>922.40002441406</ele>
        <time>2014-05-04T08:40:32.000Z</time>
      </trkpt>
      <trkpt lat="44.39639" lon="5.39391">
        <ele>925.40002441406</ele>
        <time>2014-05-04T08:40:44.000Z</time>
      </trkpt>
      <trkpt lat="44.39633" lon="5.39391">
        <ele>926.79998779297</ele>
        <time>2014-05-04T08:40:48.000Z</time>
      </trkpt>
      <trkpt lat="44.39621" lon="5.39394">
        <ele>928.20001220703</ele>
        <time>2014-05-04T08:40:55.000Z</time>
      </trkpt>
      <trkpt lat="44.39603" lon="5.39397">
        <ele>931.59997558594</ele>
        <time>2014-05-04T08:41:08.000Z</time>
      </trkpt>
      <trkpt lat="44.39602" lon="5.39397">
        <ele>931.79998779297</ele>
        <time>2014-05-04T08:41:09.000Z</time>
      </trkpt>
      <trkpt lat="44.39586" lon="5.394">
        <ele>935</ele>
        <time>2014-05-04T08:41:22.000Z</time>
      </trkpt>
      <trkpt lat="44.39578" lon="5.39403">
        <ele>936</ele>
        <time>2014-05-04T08:41:29.000Z</time>
      </trkpt>
      <trkpt lat="44.39564" lon="5.39427">
        <ele>938.59997558594</ele>
        <time>2014-05-04T08:41:42.000Z</time>
      </trkpt>
      <trkpt lat="44.3956" lon="5.39481">
        <ele>936.40002441406</ele>
        <time>2014-05-04T08:41:53.000Z</time>
      </trkpt>
      <trkpt lat="44.3956" lon="5.39506">
        <ele>934</ele>
        <time>2014-05-04T08:41:57.000Z</time>
      </trkpt>
      <trkpt lat="44.39558" lon="5.39512">
        <ele>933.79998779297</ele>
        <time>2014-05-04T08:41:58.000Z</time>
      </trkpt>
      <trkpt lat="44.39544" lon="5.39549">
        <ele>933.59997558594</ele>
        <time>2014-05-04T08:42:07.000Z</time>
      </trkpt>
      <trkpt lat="44.39538" lon="5.39566">
        <ele>933.59997558594</ele>
        <time>2014-05-04T08:42:11.000Z</time>
      </trkpt>
      <trkpt lat="44.39538" lon="5.39587">
        <ele>933</ele>
        <time>2014-05-04T08:42:14.000Z</time>
      </trkpt>
      <trkpt lat="44.39536" lon="5.39634">
        <ele>930.79998779297</ele>
        <time>2014-05-04T08:42:22.000Z</time>
      </trkpt>
      <trkpt lat="44.39533" lon="5.39671">
        <ele>930.59997558594</ele>
        <time>2014-05-04T08:42:29.000Z</time>
      </trkpt>
      <trkpt lat="44.39528" lon="5.39711">
        <ele>930</ele>
        <time>2014-05-04T08:42:36.000Z</time>
      </trkpt>
      <trkpt lat="44.39521" lon="5.39738">
        <ele>932</ele>
        <time>2014-05-04T08:42:46.000Z</time>
      </trkpt>
      <trkpt lat="44.39518" lon="5.3975">
        <ele>933</ele>
        <time>2014-05-04T08:42:49.000Z</time>
      </trkpt>
      <trkpt lat="44.39501" lon="5.39787">
        <ele>935.79998779297</ele>
        <time>2014-05-04T08:43:03.000Z</time>
      </trkpt>
      <trkpt lat="44.39498" lon="5.39791">
        <ele>935.79998779297</ele>
        <time>2014-05-04T08:43:04.000Z</time>
      </trkpt>
      <trkpt lat="44.39488" lon="5.39812">
        <ele>935.79998779297</ele>
        <time>2014-05-04T08:43:08.000Z</time>
      </trkpt>
      <trkpt lat="44.39474" lon="5.39832">
        <ele>932</ele>
        <time>2014-05-04T08:43:12.000Z</time>
      </trkpt>
      <trkpt lat="44.39464" lon="5.39848">
        <ele>929.20001220703</ele>
        <time>2014-05-04T08:43:15.000Z</time>
      </trkpt>
      <trkpt lat="44.39459" lon="5.39858">
        <ele>928.59997558594</ele>
        <time>2014-05-04T08:43:17.000Z</time>
      </trkpt>
      <trkpt lat="44.39455" lon="5.39866">
        <ele>928.40002441406</ele>
        <time>2014-05-04T08:43:19.000Z</time>
      </trkpt>
      <trkpt lat="44.3944" lon="5.39884">
        <ele>925</ele>
        <time>2014-05-04T08:43:23.000Z</time>
      </trkpt>
      <trkpt lat="44.3943" lon="5.399">
        <ele>922.79998779297</ele>
        <time>2014-05-04T08:43:26.000Z</time>
      </trkpt>
      <trkpt lat="44.39423" lon="5.39921">
        <ele>920.79998779297</ele>
        <time>2014-05-04T08:43:29.000Z</time>
      </trkpt>
      <trkpt lat="44.39414" lon="5.39941">
        <ele>916.59997558594</ele>
        <time>2014-05-04T08:43:32.000Z</time>
      </trkpt>
      <trkpt lat="44.39411" lon="5.39958">
        <ele>914.79998779297</ele>
        <time>2014-05-04T08:43:34.000Z</time>
      </trkpt>
      <trkpt lat="44.39405" lon="5.39997">
        <ele>913.79998779297</ele>
        <time>2014-05-04T08:43:38.000Z</time>
      </trkpt>
      <trkpt lat="44.39407" lon="5.40027">
        <ele>913.79998779297</ele>
        <time>2014-05-04T08:43:45.000Z</time>
      </trkpt>
      <trkpt lat="44.39399" lon="5.40045">
        <ele>913.79998779297</ele>
        <time>2014-05-04T08:43:49.000Z</time>
      </trkpt>
      <trkpt lat="44.39395" lon="5.40056">
        <ele>913.79998779297</ele>
        <time>2014-05-04T08:43:52.000Z</time>
      </trkpt>
      <trkpt lat="44.39384" lon="5.40081">
        <ele>913.79998779297</ele>
        <time>2014-05-04T08:43:57.000Z</time>
      </trkpt>
      <trkpt lat="44.39379" lon="5.40104">
        <ele>913.79998779297</ele>
        <time>2014-05-04T08:44:00.000Z</time>
      </trkpt>
      <trkpt lat="44.39372" lon="5.40135">
        <ele>913.79998779297</ele>
        <time>2014-05-04T08:44:04.000Z</time>
      </trkpt>
      <trkpt lat="44.39356" lon="5.4016">
        <ele>910.20001220703</ele>
        <time>2014-05-04T08:44:10.000Z</time>
      </trkpt>
      <trkpt lat="44.3933" lon="5.40178">
        <ele>903.59997558594</ele>
        <time>2014-05-04T08:44:15.000Z</time>
      </trkpt>
      <trkpt lat="44.39326" lon="5.40181">
        <ele>903</ele>
        <time>2014-05-04T08:44:16.000Z</time>
      </trkpt>
      <trkpt lat="44.39313" lon="5.40191">
        <ele>898.59997558594</ele>
        <time>2014-05-04T08:44:19.000Z</time>
      </trkpt>
      <trkpt lat="44.39304" lon="5.40196">
        <ele>896.40002441406</ele>
        <time>2014-05-04T08:44:21.000Z</time>
      </trkpt>
      <trkpt lat="44.39294" lon="5.40204">
        <ele>893.79998779297</ele>
        <time>2014-05-04T08:44:23.000Z</time>
      </trkpt>
      <trkpt lat="44.39275" lon="5.40216">
        <ele>890.20001220703</ele>
        <time>2014-05-04T08:44:27.000Z</time>
      </trkpt>
      <trkpt lat="44.39256" lon="5.40228">
        <ele>885.59997558594</ele>
        <time>2014-05-04T08:44:31.000Z</time>
      </trkpt>
      <trkpt lat="44.39246" lon="5.40233">
        <ele>883</ele>
        <time>2014-05-04T08:44:33.000Z</time>
      </trkpt>
      <trkpt lat="44.39226" lon="5.40248">
        <ele>878.20001220703</ele>
        <time>2014-05-04T08:44:37.000Z</time>
      </trkpt>
      <trkpt lat="44.39221" lon="5.40251">
        <ele>876.79998779297</ele>
        <time>2014-05-04T08:44:38.000Z</time>
      </trkpt>
      <trkpt lat="44.39206" lon="5.40264">
        <ele>874.20001220703</ele>
        <time>2014-05-04T08:44:41.000Z</time>
      </trkpt>
      <trkpt lat="44.39199" lon="5.40273">
        <ele>871.40002441406</ele>
        <time>2014-05-04T08:44:43.000Z</time>
      </trkpt>
      <trkpt lat="44.39187" lon="5.40297">
        <ele>865.20001220703</ele>
        <time>2014-05-04T08:44:48.000Z</time>
      </trkpt>
      <trkpt lat="44.39186" lon="5.40304">
        <ele>863.79998779297</ele>
        <time>2014-05-04T08:44:49.000Z</time>
      </trkpt>
      <trkpt lat="44.39182" lon="5.40323">
        <ele>859.40002441406</ele>
        <time>2014-05-04T08:44:52.000Z</time>
      </trkpt>
      <trkpt lat="44.39178" lon="5.40335">
        <ele>856.20001220703</ele>
        <time>2014-05-04T08:44:54.000Z</time>
      </trkpt>
      <trkpt lat="44.39165" lon="5.40354">
        <ele>851.79998779297</ele>
        <time>2014-05-04T08:44:58.000Z</time>
      </trkpt>
      <trkpt lat="44.39151" lon="5.40367">
        <ele>848.40002441406</ele>
        <time>2014-05-04T08:45:01.000Z</time>
      </trkpt>
      <trkpt lat="44.39149" lon="5.40371">
        <ele>847.59997558594</ele>
        <time>2014-05-04T08:45:03.000Z</time>
      </trkpt>
      <trkpt lat="44.39147" lon="5.40383">
        <ele>847.20001220703</ele>
        <time>2014-05-04T08:45:07.000Z</time>
      </trkpt>
      <trkpt lat="44.39145" lon="5.40401">
        <ele>845</ele>
        <time>2014-05-04T08:45:10.000Z</time>
      </trkpt>
      <trkpt lat="44.39142" lon="5.40414">
        <ele>842.40002441406</ele>
        <time>2014-05-04T08:45:12.000Z</time>
      </trkpt>
      <trkpt lat="44.39147" lon="5.40451">
        <ele>842</ele>
        <time>2014-05-04T08:45:17.000Z</time>
      </trkpt>
      <trkpt lat="44.39144" lon="5.40476">
        <ele>840.20001220703</ele>
        <time>2014-05-04T08:45:20.000Z</time>
      </trkpt>
      <trkpt lat="44.39137" lon="5.40487">
        <ele>839.79998779297</ele>
        <time>2014-05-04T08:45:22.000Z</time>
      </trkpt>
      <trkpt lat="44.39122" lon="5.40504">
        <ele>838.20001220703</ele>
        <time>2014-05-04T08:45:25.000Z</time>
      </trkpt>
      <trkpt lat="44.39106" lon="5.40525">
        <ele>834.59997558594</ele>
        <time>2014-05-04T08:45:28.000Z</time>
      </trkpt>
      <trkpt lat="44.391" lon="5.40532">
        <ele>834.20001220703</ele>
        <time>2014-05-04T08:45:29.000Z</time>
      </trkpt>
      <trkpt lat="44.39075" lon="5.40547">
        <ele>832.59997558594</ele>
        <time>2014-05-04T08:45:33.000Z</time>
      </trkpt>
      <trkpt lat="44.39045" lon="5.40563">
        <ele>828.20001220703</ele>
        <time>2014-05-04T08:45:38.000Z</time>
      </trkpt>
      <trkpt lat="44.39027" lon="5.40559">
        <ele>826.20001220703</ele>
        <time>2014-05-04T08:45:41.000Z</time>
      </trkpt>
      <trkpt lat="44.38992" lon="5.40557">
        <ele>824</ele>
        <time>2014-05-04T08:45:46.000Z</time>
      </trkpt>
      <trkpt lat="44.38949" lon="5.40571">
        <ele>821.20001220703</ele>
        <time>2014-05-04T08:45:53.000Z</time>
      </trkpt>
      <trkpt lat="44.38909" lon="5.40565">
        <ele>816</ele>
        <time>2014-05-04T08:45:58.000Z</time>
      </trkpt>
      <trkpt lat="44.38894" lon="5.40566">
        <ele>813.40002441406</ele>
        <time>2014-05-04T08:46:00.000Z</time>
      </trkpt>
      <trkpt lat="44.38843" lon="5.40571">
        <ele>808.79998779297</ele>
        <time>2014-05-04T08:46:06.000Z</time>
      </trkpt>
      <trkpt lat="44.38818" lon="5.40567">
        <ele>807.40002441406</ele>
        <time>2014-05-04T08:46:09.000Z</time>
      </trkpt>
      <trkpt lat="44.38783" lon="5.40563">
        <ele>803.79998779297</ele>
        <time>2014-05-04T08:46:15.000Z</time>
      </trkpt>
      <trkpt lat="44.38746" lon="5.40551">
        <ele>799.59997558594</ele>
        <time>2014-05-04T08:46:20.000Z</time>
      </trkpt>
      <trkpt lat="44.38697" lon="5.40551">
        <ele>796</ele>
        <time>2014-05-04T08:46:26.000Z</time>
      </trkpt>
      <trkpt lat="44.38681" lon="5.40553">
        <ele>793.79998779297</ele>
        <time>2014-05-04T08:46:28.000Z</time>
      </trkpt>
      <trkpt lat="44.38667" lon="5.40565">
        <ele>791.79998779297</ele>
        <time>2014-05-04T08:46:32.000Z</time>
      </trkpt>
      <trkpt lat="44.38678" lon="5.40598">
        <ele>789.20001220703</ele>
        <time>2014-05-04T08:46:36.000Z</time>
      </trkpt>
      <trkpt lat="44.38705" lon="5.40643">
        <ele>785</ele>
        <time>2014-05-04T08:46:41.000Z</time>
      </trkpt>
      <trkpt lat="44.38739" lon="5.4069">
        <ele>781.40002441406</ele>
        <time>2014-05-04T08:46:47.000Z</time>
      </trkpt>
      <trkpt lat="44.38744" lon="5.40697">
        <ele>781.20001220703</ele>
        <time>2014-05-04T08:46:48.000Z</time>
      </trkpt>
      <trkpt lat="44.38769" lon="5.40747">
        <ele>778</ele>
        <time>2014-05-04T08:46:54.000Z</time>
      </trkpt>
      <trkpt lat="44.3878" lon="5.40794">
        <ele>774</ele>
        <time>2014-05-04T08:46:59.000Z</time>
      </trkpt>
      <trkpt lat="44.38782" lon="5.40802">
        <ele>773.20001220703</ele>
        <time>2014-05-04T08:47:00.000Z</time>
      </trkpt>
      <trkpt lat="44.38777" lon="5.40828">
        <ele>769.40002441406</ele>
        <time>2014-05-04T08:47:05.000Z</time>
      </trkpt>
      <trkpt lat="44.38764" lon="5.40846">
        <ele>766</ele>
        <time>2014-05-04T08:47:11.000Z</time>
      </trkpt>
      <trkpt lat="44.38768" lon="5.40852">
        <ele>764.79998779297</ele>
        <time>2014-05-04T08:47:12.000Z</time>
      </trkpt>
      <trkpt lat="44.3877" lon="5.40888">
        <ele>759.20001220703</ele>
        <time>2014-05-04T08:47:19.000Z</time>
      </trkpt>
      <trkpt lat="44.3876" lon="5.40888">
        <ele>757</ele>
        <time>2014-05-04T08:47:21.000Z</time>
      </trkpt>
      <trkpt lat="44.38734" lon="5.409">
        <ele>751</ele>
        <time>2014-05-04T08:47:28.000Z</time>
      </trkpt>
      <trkpt lat="44.38746" lon="5.40929">
        <ele>747.79998779297</ele>
        <time>2014-05-04T08:47:33.000Z</time>
      </trkpt>
      <trkpt lat="44.38749" lon="5.40936">
        <ele>747.59997558594</ele>
        <time>2014-05-04T08:47:34.000Z</time>
      </trkpt>
      <trkpt lat="44.38754" lon="5.40969">
        <ele>746.40002441406</ele>
        <time>2014-05-04T08:47:39.000Z</time>
      </trkpt>
      <trkpt lat="44.38754" lon="5.41007">
        <ele>748.40002441406</ele>
        <time>2014-05-04T08:47:46.000Z</time>
      </trkpt>
      <trkpt lat="44.38762" lon="5.41045">
        <ele>749.40002441406</ele>
        <time>2014-05-04T08:47:53.000Z</time>
      </trkpt>
      <trkpt lat="44.3879" lon="5.41098">
        <ele>749.40002441406</ele>
        <time>2014-05-04T08:48:03.000Z</time>
      </trkpt>
      <trkpt lat="44.38791" lon="5.41117">
        <ele>750</ele>
        <time>2014-05-04T08:48:06.000Z</time>
      </trkpt>
      <trkpt lat="44.388" lon="5.41169">
        <ele>753.40002441406</ele>
        <time>2014-05-04T08:48:17.000Z</time>
      </trkpt>
      <trkpt lat="44.38795" lon="5.41193">
        <ele>753.79998779297</ele>
        <time>2014-05-04T08:48:22.000Z</time>
      </trkpt>
      <trkpt lat="44.38748" lon="5.41264">
        <ele>749.79998779297</ele>
        <time>2014-05-04T08:48:35.000Z</time>
      </trkpt>
      <trkpt lat="44.3872" lon="5.41295">
        <ele>746.20001220703</ele>
        <time>2014-05-04T08:48:39.000Z</time>
      </trkpt>
      <trkpt lat="44.38695" lon="5.41316">
        <ele>742</ele>
        <time>2014-05-04T08:48:42.000Z</time>
      </trkpt>
      <trkpt lat="44.38667" lon="5.41336">
        <ele>738.20001220703</ele>
        <time>2014-05-04T08:48:45.000Z</time>
      </trkpt>
      <trkpt lat="44.3864" lon="5.4136">
        <ele>734.79998779297</ele>
        <time>2014-05-04T08:48:48.000Z</time>
      </trkpt>
      <trkpt lat="44.38568" lon="5.41452">
        <ele>731.79998779297</ele>
        <time>2014-05-04T08:48:56.000Z</time>
      </trkpt>
      <trkpt lat="44.38539" lon="5.41488">
        <ele>728.79998779297</ele>
        <time>2014-05-04T08:48:59.000Z</time>
      </trkpt>
      <trkpt lat="44.3851" lon="5.41527">
        <ele>724.40002441406</ele>
        <time>2014-05-04T08:49:02.000Z</time>
      </trkpt>
      <trkpt lat="44.38479" lon="5.4156">
        <ele>717.59997558594</ele>
        <time>2014-05-04T08:49:05.000Z</time>
      </trkpt>
      <trkpt lat="44.3845" lon="5.41597">
        <ele>714.40002441406</ele>
        <time>2014-05-04T08:49:08.000Z</time>
      </trkpt>
      <trkpt lat="44.38433" lon="5.41621">
        <ele>712.20001220703</ele>
        <time>2014-05-04T08:49:10.000Z</time>
      </trkpt>
      <trkpt lat="44.38416" lon="5.41686">
        <ele>708</ele>
        <time>2014-05-04T08:49:15.000Z</time>
      </trkpt>
      <trkpt lat="44.38424" lon="5.4171">
        <ele>706</ele>
        <time>2014-05-04T08:49:17.000Z</time>
      </trkpt>
      <trkpt lat="44.3845" lon="5.41759">
        <ele>701.40002441406</ele>
        <time>2014-05-04T08:49:21.000Z</time>
      </trkpt>
      <trkpt lat="44.38478" lon="5.41807">
        <ele>697.79998779297</ele>
        <time>2014-05-04T08:49:25.000Z</time>
      </trkpt>
      <trkpt lat="44.385" lon="5.41845">
        <ele>694.40002441406</ele>
        <time>2014-05-04T08:49:28.000Z</time>
      </trkpt>
      <trkpt lat="44.38528" lon="5.41898">
        <ele>690.79998779297</ele>
        <time>2014-05-04T08:49:32.000Z</time>
      </trkpt>
      <trkpt lat="44.3855" lon="5.41938">
        <ele>686.20001220703</ele>
        <time>2014-05-04T08:49:35.000Z</time>
      </trkpt>
      <trkpt lat="44.38581" lon="5.4199">
        <ele>682.40002441406</ele>
        <time>2014-05-04T08:49:39.000Z</time>
      </trkpt>
      <trkpt lat="44.38601" lon="5.42027">
        <ele>680.79998779297</ele>
        <time>2014-05-04T08:49:42.000Z</time>
      </trkpt>
      <trkpt lat="44.38596" lon="5.42085">
        <ele>679</ele>
        <time>2014-05-04T08:49:47.000Z</time>
      </trkpt>
      <trkpt lat="44.3857" lon="5.42133">
        <ele>674.40002441406</ele>
        <time>2014-05-04T08:49:51.000Z</time>
      </trkpt>
      <trkpt lat="44.38557" lon="5.4216">
        <ele>671.20001220703</ele>
        <time>2014-05-04T08:49:53.000Z</time>
      </trkpt>
      <trkpt lat="44.38544" lon="5.42187">
        <ele>667.59997558594</ele>
        <time>2014-05-04T08:49:55.000Z</time>
      </trkpt>
      <trkpt lat="44.38539" lon="5.422">
        <ele>666.40002441406</ele>
        <time>2014-05-04T08:49:56.000Z</time>
      </trkpt>
      <trkpt lat="44.38527" lon="5.42278">
        <ele>662.40002441406</ele>
        <time>2014-05-04T08:50:01.000Z</time>
      </trkpt>
      <trkpt lat="44.38527" lon="5.4233">
        <ele>658.59997558594</ele>
        <time>2014-05-04T08:50:04.000Z</time>
      </trkpt>
      <trkpt lat="44.38531" lon="5.42382">
        <ele>655</ele>
        <time>2014-05-04T08:50:07.000Z</time>
      </trkpt>
      <trkpt lat="44.38533" lon="5.42435">
        <ele>651.59997558594</ele>
        <time>2014-05-04T08:50:10.000Z</time>
      </trkpt>
      <trkpt lat="44.38535" lon="5.42485">
        <ele>647.40002441406</ele>
        <time>2014-05-04T08:50:13.000Z</time>
      </trkpt>
      <trkpt lat="44.38539" lon="5.42513">
        <ele>646.59997558594</ele>
        <time>2014-05-04T08:50:15.000Z</time>
      </trkpt>
      <trkpt lat="44.38545" lon="5.42546">
        <ele>646.20001220703</ele>
        <time>2014-05-04T08:50:18.000Z</time>
      </trkpt>
      <trkpt lat="44.38524" lon="5.42552">
        <ele>645.79998779297</ele>
        <time>2014-05-04T08:50:23.000Z</time>
      </trkpt>
      <trkpt lat="44.38519" lon="5.42543">
        <ele>645</ele>
        <time>2014-05-04T08:50:24.000Z</time>
      </trkpt>
      <trkpt lat="44.38502" lon="5.42515">
        <ele>642.79998779297</ele>
        <time>2014-05-04T08:50:27.000Z</time>
      </trkpt>
      <trkpt lat="44.38469" lon="5.42454">
        <ele>641.40002441406</ele>
        <time>2014-05-04T08:50:33.000Z</time>
      </trkpt>
      <trkpt lat="44.3844" lon="5.42426">
        <ele>637.79998779297</ele>
        <time>2014-05-04T08:50:37.000Z</time>
      </trkpt>
      <trkpt lat="44.3842" lon="5.4239">
        <ele>635.40002441406</ele>
        <time>2014-05-04T08:50:41.000Z</time>
      </trkpt>
      <trkpt lat="44.38404" lon="5.42365">
        <ele>634</ele>
        <time>2014-05-04T08:50:47.000Z</time>
      </trkpt>
      <trkpt lat="44.38405" lon="5.42374">
        <ele>634.20001220703</ele>
        <time>2014-05-04T08:50:48.000Z</time>
      </trkpt>
      <trkpt lat="44.38409" lon="5.42395">
        <ele>633.40002441406</ele>
        <time>2014-05-04T08:50:50.000Z</time>
      </trkpt>
      <trkpt lat="44.38412" lon="5.42463">
        <ele>629.20001220703</ele>
        <time>2014-05-04T08:50:55.000Z</time>
      </trkpt>
      <trkpt lat="44.38415" lon="5.42509">
        <ele>627</ele>
        <time>2014-05-04T08:50:59.000Z</time>
      </trkpt>
      <trkpt lat="44.38396" lon="5.42524">
        <ele>624.20001220703</ele>
        <time>2014-05-04T08:51:05.000Z</time>
      </trkpt>
      <trkpt lat="44.38385" lon="5.42514">
        <ele>620.79998779297</ele>
        <time>2014-05-04T08:51:07.000Z</time>
      </trkpt>
      <trkpt lat="44.38377" lon="5.42485">
        <ele>616.79998779297</ele>
        <time>2014-05-04T08:51:10.000Z</time>
      </trkpt>
      <trkpt lat="44.38376" lon="5.42462">
        <ele>616</ele>
        <time>2014-05-04T08:51:12.000Z</time>
      </trkpt>
      <trkpt lat="44.38374" lon="5.42437">
        <ele>615</ele>
        <time>2014-05-04T08:51:14.000Z</time>
      </trkpt>
      <trkpt lat="44.38366" lon="5.42402">
        <ele>612.59997558594</ele>
        <time>2014-05-04T08:51:17.000Z</time>
      </trkpt>
      <trkpt lat="44.38352" lon="5.42399">
        <ele>611.79998779297</ele>
        <time>2014-05-04T08:51:22.000Z</time>
      </trkpt>
      <trkpt lat="44.38353" lon="5.42408">
        <ele>611.79998779297</ele>
        <time>2014-05-04T08:51:23.000Z</time>
      </trkpt>
      <trkpt lat="44.38354" lon="5.42471">
        <ele>608.20001220703</ele>
        <time>2014-05-04T08:51:29.000Z</time>
      </trkpt>
      <trkpt lat="44.38353" lon="5.42483">
        <ele>608</ele>
        <time>2014-05-04T08:51:30.000Z</time>
      </trkpt>
      <trkpt lat="44.38354" lon="5.42533">
        <ele>606</ele>
        <time>2014-05-04T08:51:34.000Z</time>
      </trkpt>
      <trkpt lat="44.38358" lon="5.42584">
        <ele>602.20001220703</ele>
        <time>2014-05-04T08:51:38.000Z</time>
      </trkpt>
      <trkpt lat="44.38362" lon="5.42649">
        <ele>598.40002441406</ele>
        <time>2014-05-04T08:51:43.000Z</time>
      </trkpt>
      <trkpt lat="44.38372" lon="5.42708">
        <ele>592.79998779297</ele>
        <time>2014-05-04T08:51:47.000Z</time>
      </trkpt>
      <trkpt lat="44.38382" lon="5.42772">
        <ele>588.79998779297</ele>
        <time>2014-05-04T08:51:51.000Z</time>
      </trkpt>
      <trkpt lat="44.38381" lon="5.42858">
        <ele>583.59997558594</ele>
        <time>2014-05-04T08:51:56.000Z</time>
      </trkpt>
      <trkpt lat="44.38383" lon="5.42912">
        <ele>580</ele>
        <time>2014-05-04T08:51:59.000Z</time>
      </trkpt>
      <trkpt lat="44.38389" lon="5.42966">
        <ele>576</ele>
        <time>2014-05-04T08:52:02.000Z</time>
      </trkpt>
      <trkpt lat="44.38393" lon="5.43001">
        <ele>573</ele>
        <time>2014-05-04T08:52:04.000Z</time>
      </trkpt>
      <trkpt lat="44.38395" lon="5.43019">
        <ele>571.79998779297</ele>
        <time>2014-05-04T08:52:05.000Z</time>
      </trkpt>
      <trkpt lat="44.38392" lon="5.43068">
        <ele>567</ele>
        <time>2014-05-04T08:52:08.000Z</time>
      </trkpt>
      <trkpt lat="44.38384" lon="5.43116">
        <ele>564.40002441406</ele>
        <time>2014-05-04T08:52:11.000Z</time>
      </trkpt>
      <trkpt lat="44.38387" lon="5.43167">
        <ele>563.59997558594</ele>
        <time>2014-05-04T08:52:17.000Z</time>
      </trkpt>
      <trkpt lat="44.38366" lon="5.43144">
        <ele>562.59997558594</ele>
        <time>2014-05-04T08:52:22.000Z</time>
      </trkpt>
      <trkpt lat="44.38366" lon="5.43125">
        <ele>561.59997558594</ele>
        <time>2014-05-04T08:52:24.000Z</time>
      </trkpt>
      <trkpt lat="44.38369" lon="5.43059">
        <ele>557.59997558594</ele>
        <time>2014-05-04T08:52:30.000Z</time>
      </trkpt>
      <trkpt lat="44.38362" lon="5.43013">
        <ele>554.59997558594</ele>
        <time>2014-05-04T08:52:34.000Z</time>
      </trkpt>
      <trkpt lat="44.38356" lon="5.42991">
        <ele>553.79998779297</ele>
        <time>2014-05-04T08:52:36.000Z</time>
      </trkpt>
      <trkpt lat="44.38349" lon="5.42971">
        <ele>552.79998779297</ele>
        <time>2014-05-04T08:52:38.000Z</time>
      </trkpt>
      <trkpt lat="44.38321" lon="5.42891">
        <ele>549.59997558594</ele>
        <time>2014-05-04T08:52:46.000Z</time>
      </trkpt>
      <trkpt lat="44.38316" lon="5.42867">
        <ele>548.40002441406</ele>
        <time>2014-05-04T08:52:48.000Z</time>
      </trkpt>
      <trkpt lat="44.38309" lon="5.42811">
        <ele>544.59997558594</ele>
        <time>2014-05-04T08:52:52.000Z</time>
      </trkpt>
      <trkpt lat="44.38291" lon="5.42735">
        <ele>544.20001220703</ele>
        <time>2014-05-04T08:52:58.000Z</time>
      </trkpt>
      <trkpt lat="44.38276" lon="5.42708">
        <ele>545.59997558594</ele>
        <time>2014-05-04T08:53:01.000Z</time>
      </trkpt>
      <trkpt lat="44.38257" lon="5.4269">
        <ele>546</ele>
        <time>2014-05-04T08:53:04.000Z</time>
      </trkpt>
      <trkpt lat="44.38244" lon="5.4268">
        <ele>546</ele>
        <time>2014-05-04T08:53:06.000Z</time>
      </trkpt>
      <trkpt lat="44.38223" lon="5.42666">
        <ele>543.40002441406</ele>
        <time>2014-05-04T08:53:09.000Z</time>
      </trkpt>
      <trkpt lat="44.38188" lon="5.42657">
        <ele>538.79998779297</ele>
        <time>2014-05-04T08:53:13.000Z</time>
      </trkpt>
      <trkpt lat="44.38142" lon="5.42644">
        <ele>535.79998779297</ele>
        <time>2014-05-04T08:53:18.000Z</time>
      </trkpt>
      <trkpt lat="44.38115" lon="5.42635">
        <ele>534</ele>
        <time>2014-05-04T08:53:21.000Z</time>
      </trkpt>
      <trkpt lat="44.3809" lon="5.42648">
        <ele>533.59997558594</ele>
        <time>2014-05-04T08:53:25.000Z</time>
      </trkpt>
      <trkpt lat="44.38039" lon="5.42727">
        <ele>536.79998779297</ele>
        <time>2014-05-04T08:53:36.000Z</time>
      </trkpt>
      <trkpt lat="44.38036" lon="5.42731">
        <ele>537.79998779297</ele>
        <time>2014-05-04T08:53:37.000Z</time>
      </trkpt>
      <trkpt lat="44.37999" lon="5.42741">
        <ele>536.40002441406</ele>
        <time>2014-05-04T08:53:44.000Z</time>
      </trkpt>
      <trkpt lat="44.37998" lon="5.42718">
        <ele>535.59997558594</ele>
        <time>2014-05-04T08:53:50.000Z</time>
      </trkpt>
      <trkpt lat="44.38011" lon="5.42695">
        <ele>535.59997558594</ele>
        <time>2014-05-04T08:53:55.000Z</time>
      </trkpt>
      <trkpt lat="44.38014" lon="5.42684">
        <ele>535.59997558594</ele>
        <time>2014-05-04T08:53:57.000Z</time>
      </trkpt>
      <trkpt lat="44.38015" lon="5.42655">
        <ele>535.59997558594</ele>
        <time>2014-05-04T08:54:02.000Z</time>
      </trkpt>
      <trkpt lat="44.37996" lon="5.42583">
        <ele>537.79998779297</ele>
        <time>2014-05-04T08:54:15.000Z</time>
      </trkpt>
      <trkpt lat="44.37982" lon="5.42583">
        <ele>538.59997558594</ele>
        <time>2014-05-04T08:54:19.000Z</time>
      </trkpt>
      <trkpt lat="44.37965" lon="5.42592">
        <ele>538.79998779297</ele>
        <time>2014-05-04T08:54:23.000Z</time>
      </trkpt>
      <trkpt lat="44.37935" lon="5.42599">
        <ele>538.79998779297</ele>
        <time>2014-05-04T08:54:29.000Z</time>
      </trkpt>
      <trkpt lat="44.37924" lon="5.42603">
        <ele>538.79998779297</ele>
        <time>2014-05-04T08:54:31.000Z</time>
      </trkpt>
      <trkpt lat="44.37892" lon="5.42647">
        <ele>538.79998779297</ele>
        <time>2014-05-04T08:54:40.000Z</time>
      </trkpt>
      <trkpt lat="44.37887" lon="5.42657">
        <ele>538.79998779297</ele>
        <time>2014-05-04T08:54:42.000Z</time>
      </trkpt>
      <trkpt lat="44.37876" lon="5.4267">
        <ele>539.59997558594</ele>
        <time>2014-05-04T08:54:48.000Z</time>
      </trkpt>
      <trkpt lat="44.37863" lon="5.42682">
        <ele>543</ele>
        <time>2014-05-04T08:55:00.000Z</time>
      </trkpt>
      <trkpt lat="44.37844" lon="5.42688">
        <ele>546.59997558594</ele>
        <time>2014-05-04T08:55:15.000Z</time>
      </trkpt>
      <trkpt lat="44.37828" lon="5.42694">
        <ele>549.40002441406</ele>
        <time>2014-05-04T08:55:35.000Z</time>
      </trkpt>
      <trkpt lat="44.37814" lon="5.42694">
        <ele>552.59997558594</ele>
        <time>2014-05-04T08:55:50.000Z</time>
      </trkpt>
      <trkpt lat="44.378" lon="5.42694">
        <ele>555.59997558594</ele>
        <time>2014-05-04T08:56:05.000Z</time>
      </trkpt>
      <trkpt lat="44.37789" lon="5.42692">
        <ele>558.79998779297</ele>
        <time>2014-05-04T08:56:20.000Z</time>
      </trkpt>
      <trkpt lat="44.37775" lon="5.42693">
        <ele>562</ele>
        <time>2014-05-04T08:56:35.000Z</time>
      </trkpt>
      <trkpt lat="44.37759" lon="5.42699">
        <ele>565.20001220703</ele>
        <time>2014-05-04T08:56:52.000Z</time>
      </trkpt>
      <trkpt lat="44.37748" lon="5.42708">
        <ele>568.40002441406</ele>
        <time>2014-05-04T08:57:07.000Z</time>
      </trkpt>
      <trkpt lat="44.37732" lon="5.42722">
        <ele>571.40002441406</ele>
        <time>2014-05-04T08:57:27.000Z</time>
      </trkpt>
      <trkpt lat="44.37723" lon="5.42723">
        <ele>573.20001220703</ele>
        <time>2014-05-04T08:57:35.000Z</time>
      </trkpt>
      <trkpt lat="44.3772" lon="5.42725">
        <ele>574.40002441406</ele>
        <time>2014-05-04T08:57:39.000Z</time>
      </trkpt>
      <trkpt lat="44.37715" lon="5.42726">
        <ele>575.59997558594</ele>
        <time>2014-05-04T08:57:43.000Z</time>
      </trkpt>
      <trkpt lat="44.377" lon="5.42726">
        <ele>578.20001220703</ele>
        <time>2014-05-04T08:57:55.000Z</time>
      </trkpt>
      <trkpt lat="44.37683" lon="5.4273">
        <ele>581</ele>
        <time>2014-05-04T08:58:09.000Z</time>
      </trkpt>
      <trkpt lat="44.37676" lon="5.4273">
        <ele>582.20001220703</ele>
        <time>2014-05-04T08:58:15.000Z</time>
      </trkpt>
      <trkpt lat="44.37661" lon="5.42736">
        <ele>584.79998779297</ele>
        <time>2014-05-04T08:58:27.000Z</time>
      </trkpt>
      <trkpt lat="44.37652" lon="5.42734">
        <ele>586.40002441406</ele>
        <time>2014-05-04T08:58:33.000Z</time>
      </trkpt>
      <trkpt lat="44.37632" lon="5.42733">
        <ele>589.59997558594</ele>
        <time>2014-05-04T08:58:48.000Z</time>
      </trkpt>
      <trkpt lat="44.37607" lon="5.42731">
        <ele>591</ele>
        <time>2014-05-04T08:59:02.000Z</time>
      </trkpt>
      <trkpt lat="44.37589" lon="5.42723">
        <ele>593.20001220703</ele>
        <time>2014-05-04T08:59:15.000Z</time>
      </trkpt>
      <trkpt lat="44.37563" lon="5.4269">
        <ele>596</ele>
        <time>2014-05-04T08:59:32.000Z</time>
      </trkpt>
      <trkpt lat="44.37545" lon="5.42654">
        <ele>597.79998779297</ele>
        <time>2014-05-04T08:59:47.000Z</time>
      </trkpt>
      <trkpt lat="44.37533" lon="5.42621">
        <ele>600.79998779297</ele>
        <time>2014-05-04T09:00:03.000Z</time>
      </trkpt>
      <trkpt lat="44.37519" lon="5.42581">
        <ele>603.40002441406</ele>
        <time>2014-05-04T09:00:20.000Z</time>
      </trkpt>
      <trkpt lat="44.37499" lon="5.42541">
        <ele>606.20001220703</ele>
        <time>2014-05-04T09:00:37.000Z</time>
      </trkpt>
      <trkpt lat="44.37484" lon="5.42509">
        <ele>609.59997558594</ele>
        <time>2014-05-04T09:00:52.000Z</time>
      </trkpt>
      <trkpt lat="44.37467" lon="5.4248">
        <ele>611.79998779297</ele>
        <time>2014-05-04T09:01:07.000Z</time>
      </trkpt>
      <trkpt lat="44.37454" lon="5.42448">
        <ele>615</ele>
        <time>2014-05-04T09:01:22.000Z</time>
      </trkpt>
      <trkpt lat="44.37437" lon="5.42416">
        <ele>618</ele>
        <time>2014-05-04T09:01:37.000Z</time>
      </trkpt>
      <trkpt lat="44.3742" lon="5.42376">
        <ele>621.20001220703</ele>
        <time>2014-05-04T09:01:53.000Z</time>
      </trkpt>
      <trkpt lat="44.37397" lon="5.42354">
        <ele>624</ele>
        <time>2014-05-04T09:02:09.000Z</time>
      </trkpt>
      <trkpt lat="44.37355" lon="5.42381">
        <ele>623.20001220703</ele>
        <time>2014-05-04T09:02:20.000Z</time>
      </trkpt>
      <trkpt lat="44.37304" lon="5.42409">
        <ele>622.40002441406</ele>
        <time>2014-05-04T09:02:32.000Z</time>
      </trkpt>
      <trkpt lat="44.37297" lon="5.42413">
        <ele>624.79998779297</ele>
        <time>2014-05-04T09:02:36.000Z</time>
      </trkpt>
      <trkpt lat="44.3729" lon="5.42417">
        <ele>625.79998779297</ele>
        <time>2014-05-04T09:02:42.000Z</time>
      </trkpt>
      <trkpt lat="44.37285" lon="5.42421">
        <ele>626.59997558594</ele>
        <time>2014-05-04T09:02:46.000Z</time>
      </trkpt>
      <trkpt lat="44.37264" lon="5.42431">
        <ele>630</ele>
        <time>2014-05-04T09:03:02.000Z</time>
      </trkpt>
      <trkpt lat="44.37241" lon="5.42435">
        <ele>632.20001220703</ele>
        <time>2014-05-04T09:03:15.000Z</time>
      </trkpt>
      <trkpt lat="44.37217" lon="5.42432">
        <ele>635.20001220703</ele>
        <time>2014-05-04T09:03:26.000Z</time>
      </trkpt>
      <trkpt lat="44.37195" lon="5.42429">
        <ele>638.40002441406</ele>
        <time>2014-05-04T09:03:37.000Z</time>
      </trkpt>
      <trkpt lat="44.37164" lon="5.42438">
        <ele>641.40002441406</ele>
        <time>2014-05-04T09:03:51.000Z</time>
      </trkpt>
      <trkpt lat="44.37127" lon="5.4244">
        <ele>642.40002441406</ele>
        <time>2014-05-04T09:04:04.000Z</time>
      </trkpt>
      <trkpt lat="44.37098" lon="5.42413">
        <ele>645</ele>
        <time>2014-05-04T09:04:19.000Z</time>
      </trkpt>
      <trkpt lat="44.37091" lon="5.4241">
        <ele>645</ele>
        <time>2014-05-04T09:04:23.000Z</time>
      </trkpt>
      <trkpt lat="44.37064" lon="5.42417">
        <ele>647.79998779297</ele>
        <time>2014-05-04T09:04:38.000Z</time>
      </trkpt>
      <trkpt lat="44.37039" lon="5.42427">
        <ele>650.59997558594</ele>
        <time>2014-05-04T09:04:55.000Z</time>
      </trkpt>
      <trkpt lat="44.37032" lon="5.4243">
        <ele>652</ele>
        <time>2014-05-04T09:05:00.000Z</time>
      </trkpt>
      <trkpt lat="44.37017" lon="5.42439">
        <ele>655.40002441406</ele>
        <time>2014-05-04T09:05:13.000Z</time>
      </trkpt>
      <trkpt lat="44.36999" lon="5.42453">
        <ele>658.20001220703</ele>
        <time>2014-05-04T09:05:26.000Z</time>
      </trkpt>
      <trkpt lat="44.36972" lon="5.42474">
        <ele>658.59997558594</ele>
        <time>2014-05-04T09:05:38.000Z</time>
      </trkpt>
      <trkpt lat="44.36957" lon="5.42491">
        <ele>660.79998779297</ele>
        <time>2014-05-04T09:05:51.000Z</time>
      </trkpt>
      <trkpt lat="44.3693" lon="5.4252">
        <ele>663.59997558594</ele>
        <time>2014-05-04T09:06:08.000Z</time>
      </trkpt>
      <trkpt lat="44.36889" lon="5.42552">
        <ele>665</ele>
        <time>2014-05-04T09:06:24.000Z</time>
      </trkpt>
      <trkpt lat="44.36858" lon="5.42604">
        <ele>666</ele>
        <time>2014-05-04T09:06:39.000Z</time>
      </trkpt>
      <trkpt lat="44.36843" lon="5.4263">
        <ele>667</ele>
        <time>2014-05-04T09:06:49.000Z</time>
      </trkpt>
      <trkpt lat="44.36824" lon="5.42663">
        <ele>669.79998779297</ele>
        <time>2014-05-04T09:07:03.000Z</time>
      </trkpt>
      <trkpt lat="44.36787" lon="5.42719">
        <ele>670</ele>
        <time>2014-05-04T09:07:16.000Z</time>
      </trkpt>
      <trkpt lat="44.3678" lon="5.4273">
        <ele>670</ele>
        <time>2014-05-04T09:07:18.000Z</time>
      </trkpt>
      <trkpt lat="44.36764" lon="5.42744">
        <ele>670</ele>
        <time>2014-05-04T09:07:23.000Z</time>
      </trkpt>
      <trkpt lat="44.36753" lon="5.42724">
        <ele>667.20001220703</ele>
        <time>2014-05-04T09:07:27.000Z</time>
      </trkpt>
      <trkpt lat="44.36748" lon="5.42682">
        <ele>663.59997558594</ele>
        <time>2014-05-04T09:07:31.000Z</time>
      </trkpt>
      <trkpt lat="44.36747" lon="5.42671">
        <ele>662</ele>
        <time>2014-05-04T09:07:32.000Z</time>
      </trkpt>
      <trkpt lat="44.3674" lon="5.42628">
        <ele>662.20001220703</ele>
        <time>2014-05-04T09:07:37.000Z</time>
      </trkpt>
      <trkpt lat="44.3674" lon="5.42608">
        <ele>663.59997558594</ele>
        <time>2014-05-04T09:07:40.000Z</time>
      </trkpt>
      <trkpt lat="44.36739" lon="5.42576">
        <ele>667</ele>
        <time>2014-05-04T09:07:48.000Z</time>
      </trkpt>
      <trkpt lat="44.36735" lon="5.42552">
        <ele>669.40002441406</ele>
        <time>2014-05-04T09:07:55.000Z</time>
      </trkpt>
      <trkpt lat="44.36723" lon="5.42503">
        <ele>670.59997558594</ele>
        <time>2014-05-04T09:08:07.000Z</time>
      </trkpt>
      <trkpt lat="44.36716" lon="5.42466">
        <ele>673</ele>
        <time>2014-05-04T09:08:21.000Z</time>
      </trkpt>
      <trkpt lat="44.36716" lon="5.42452">
        <ele>675</ele>
        <time>2014-05-04T09:08:29.000Z</time>
      </trkpt>
      <trkpt lat="44.36711" lon="5.42431">
        <ele>678.79998779297</ele>
        <time>2014-05-04T09:08:42.000Z</time>
      </trkpt>
      <trkpt lat="44.36703" lon="5.4241">
        <ele>679.40002441406</ele>
        <time>2014-05-04T09:08:52.000Z</time>
      </trkpt>
      <trkpt lat="44.36695" lon="5.42375">
        <ele>681.59997558594</ele>
        <time>2014-05-04T09:09:08.000Z</time>
      </trkpt>
      <trkpt lat="44.36696" lon="5.42372">
        <ele>682.20001220703</ele>
        <time>2014-05-04T09:09:10.000Z</time>
      </trkpt>
      <trkpt lat="44.36695" lon="5.42361">
        <ele>683.20001220703</ele>
        <time>2014-05-04T09:09:15.000Z</time>
      </trkpt>
      <trkpt lat="44.36692" lon="5.42353">
        <ele>684.20001220703</ele>
        <time>2014-05-04T09:09:19.000Z</time>
      </trkpt>
      <trkpt lat="44.36675" lon="5.42325">
        <ele>685.20001220703</ele>
        <time>2014-05-04T09:09:31.000Z</time>
      </trkpt>
      <trkpt lat="44.36673" lon="5.42318">
        <ele>685.20001220703</ele>
        <time>2014-05-04T09:09:33.000Z</time>
      </trkpt>
      <trkpt lat="44.36666" lon="5.42316">
        <ele>685.20001220703</ele>
        <time>2014-05-04T09:09:38.000Z</time>
      </trkpt>
      <trkpt lat="44.36664" lon="5.42324">
        <ele>685.20001220703</ele>
        <time>2014-05-04T09:09:42.000Z</time>
      </trkpt>
      <trkpt lat="44.36654" lon="5.4235">
        <ele>685.20001220703</ele>
        <time>2014-05-04T09:09:54.000Z</time>
      </trkpt>
      <trkpt lat="44.36639" lon="5.4238">
        <ele>685.20001220703</ele>
        <time>2014-05-04T09:10:07.000Z</time>
      </trkpt>
      <trkpt lat="44.36622" lon="5.42394">
        <ele>686.40002441406</ele>
        <time>2014-05-04T09:10:19.000Z</time>
      </trkpt>
      <trkpt lat="44.36613" lon="5.424">
        <ele>688.79998779297</ele>
        <time>2014-05-04T09:10:27.000Z</time>
      </trkpt>
      <trkpt lat="44.36595" lon="5.4242">
        <ele>691.59997558594</ele>
        <time>2014-05-04T09:10:42.000Z</time>
      </trkpt>
      <trkpt lat="44.36579" lon="5.42442">
        <ele>693.59997558594</ele>
        <time>2014-05-04T09:10:55.000Z</time>
      </trkpt>
      <trkpt lat="44.36568" lon="5.42452">
        <ele>695.40002441406</ele>
        <time>2014-05-04T09:11:07.000Z</time>
      </trkpt>
      <trkpt lat="44.36565" lon="5.42461">
        <ele>695.40002441406</ele>
        <time>2014-05-04T09:11:21.000Z</time>
      </trkpt>
      <trkpt lat="44.36541" lon="5.42497">
        <ele>697</ele>
        <time>2014-05-04T09:11:34.000Z</time>
      </trkpt>
      <trkpt lat="44.36534" lon="5.42508">
        <ele>697.20001220703</ele>
        <time>2014-05-04T09:11:36.000Z</time>
      </trkpt>
      <trkpt lat="44.36499" lon="5.42552">
        <ele>694.40002441406</ele>
        <time>2014-05-04T09:11:44.000Z</time>
      </trkpt>
      <trkpt lat="44.36483" lon="5.4257">
        <ele>693.40002441406</ele>
        <time>2014-05-04T09:11:47.000Z</time>
      </trkpt>
      <trkpt lat="44.36459" lon="5.42584">
        <ele>693</ele>
        <time>2014-05-04T09:11:51.000Z</time>
      </trkpt>
      <trkpt lat="44.36439" lon="5.42589">
        <ele>691</ele>
        <time>2014-05-04T09:11:54.000Z</time>
      </trkpt>
      <trkpt lat="44.36424" lon="5.42593">
        <ele>689.59997558594</ele>
        <time>2014-05-04T09:11:56.000Z</time>
      </trkpt>
      <trkpt lat="44.364" lon="5.42588">
        <ele>688.40002441406</ele>
        <time>2014-05-04T09:12:00.000Z</time>
      </trkpt>
      <trkpt lat="44.36382" lon="5.42575">
        <ele>691.20001220703</ele>
        <time>2014-05-04T09:12:05.000Z</time>
      </trkpt>
      <trkpt lat="44.36356" lon="5.42541">
        <ele>693</ele>
        <time>2014-05-04T09:12:15.000Z</time>
      </trkpt>
      <trkpt lat="44.36316" lon="5.42498">
        <ele>693.79998779297</ele>
        <time>2014-05-04T09:12:28.000Z</time>
      </trkpt>
      <trkpt lat="44.36305" lon="5.4248">
        <ele>694.79998779297</ele>
        <time>2014-05-04T09:12:33.000Z</time>
      </trkpt>
      <trkpt lat="44.36285" lon="5.42467">
        <ele>695.59997558594</ele>
        <time>2014-05-04T09:12:38.000Z</time>
      </trkpt>
      <trkpt lat="44.36267" lon="5.42464">
        <ele>695.59997558594</ele>
        <time>2014-05-04T09:12:43.000Z</time>
      </trkpt>
      <trkpt lat="44.36228" lon="5.4245">
        <ele>696.40002441406</ele>
        <time>2014-05-04T09:12:55.000Z</time>
      </trkpt>
      <trkpt lat="44.36188" lon="5.42427">
        <ele>698.59997558594</ele>
        <time>2014-05-04T09:13:08.000Z</time>
      </trkpt>
      <trkpt lat="44.36161" lon="5.42399">
        <ele>700</ele>
        <time>2014-05-04T09:13:17.000Z</time>
      </trkpt>
      <trkpt lat="44.36135" lon="5.42351">
        <ele>702.59997558594</ele>
        <time>2014-05-04T09:13:30.000Z</time>
      </trkpt>
      <trkpt lat="44.36121" lon="5.42309">
        <ele>703</ele>
        <time>2014-05-04T09:13:41.000Z</time>
      </trkpt>
      <trkpt lat="44.36116" lon="5.42226">
        <ele>704.59997558594</ele>
        <time>2014-05-04T09:13:58.000Z</time>
      </trkpt>
      <trkpt lat="44.36111" lon="5.42207">
        <ele>704.59997558594</ele>
        <time>2014-05-04T09:14:02.000Z</time>
      </trkpt>
      <trkpt lat="44.36101" lon="5.42211">
        <ele>705.20001220703</ele>
        <time>2014-05-04T09:14:06.000Z</time>
      </trkpt>
      <trkpt lat="44.36062" lon="5.4221">
        <ele>705.40002441406</ele>
        <time>2014-05-04T09:14:17.000Z</time>
      </trkpt>
      <trkpt lat="44.36018" lon="5.42172">
        <ele>706.20001220703</ele>
        <time>2014-05-04T09:14:32.000Z</time>
      </trkpt>
      <trkpt lat="44.35983" lon="5.42134">
        <ele>707</ele>
        <time>2014-05-04T09:14:44.000Z</time>
      </trkpt>
      <trkpt lat="44.35951" lon="5.42093">
        <ele>710.20001220703</ele>
        <time>2014-05-04T09:14:59.000Z</time>
      </trkpt>
      <trkpt lat="44.35922" lon="5.42052">
        <ele>712.79998779297</ele>
        <time>2014-05-04T09:15:14.000Z</time>
      </trkpt>
      <trkpt lat="44.35916" lon="5.42012">
        <ele>712.79998779297</ele>
        <time>2014-05-04T09:15:25.000Z</time>
      </trkpt>
      <trkpt lat="44.35903" lon="5.41945">
        <ele>714.40002441406</ele>
        <time>2014-05-04T09:15:40.000Z</time>
      </trkpt>
      <trkpt lat="44.35901" lon="5.4194">
        <ele>714.40002441406</ele>
        <time>2014-05-04T09:15:41.000Z</time>
      </trkpt>
      <trkpt lat="44.35886" lon="5.41912">
        <ele>712</ele>
        <time>2014-05-04T09:15:46.000Z</time>
      </trkpt>
      <trkpt lat="44.35877" lon="5.41911">
        <ele>711</ele>
        <time>2014-05-04T09:15:48.000Z</time>
      </trkpt>
      <trkpt lat="44.3586" lon="5.41912">
        <ele>710.20001220703</ele>
        <time>2014-05-04T09:15:53.000Z</time>
      </trkpt>
      <trkpt lat="44.35823" lon="5.41892">
        <ele>706.59997558594</ele>
        <time>2014-05-04T09:15:59.000Z</time>
      </trkpt>
      <trkpt lat="44.35806" lon="5.4188">
        <ele>702</ele>
        <time>2014-05-04T09:16:01.000Z</time>
      </trkpt>
      <trkpt lat="44.3578" lon="5.41864">
        <ele>698.40002441406</ele>
        <time>2014-05-04T09:16:04.000Z</time>
      </trkpt>
      <trkpt lat="44.35756" lon="5.41851">
        <ele>696.20001220703</ele>
        <time>2014-05-04T09:16:07.000Z</time>
      </trkpt>
      <trkpt lat="44.35744" lon="5.41842">
        <ele>696</ele>
        <time>2014-05-04T09:16:09.000Z</time>
      </trkpt>
      <trkpt lat="44.35731" lon="5.41836">
        <ele>697.79998779297</ele>
        <time>2014-05-04T09:16:12.000Z</time>
      </trkpt>
      <trkpt lat="44.35726" lon="5.41855">
        <ele>699.20001220703</ele>
        <time>2014-05-04T09:16:18.000Z</time>
      </trkpt>
      <trkpt lat="44.35727" lon="5.41859">
        <ele>699.20001220703</ele>
        <time>2014-05-04T09:16:19.000Z</time>
      </trkpt>
      <trkpt lat="44.35735" lon="5.41896">
        <ele>701.40002441406</ele>
        <time>2014-05-04T09:16:31.000Z</time>
      </trkpt>
      <trkpt lat="44.35741" lon="5.41928">
        <ele>703.59997558594</ele>
        <time>2014-05-04T09:16:44.000Z</time>
      </trkpt>
      <trkpt lat="44.35752" lon="5.41975">
        <ele>706.20001220703</ele>
        <time>2014-05-04T09:17:00.000Z</time>
      </trkpt>
      <trkpt lat="44.35757" lon="5.42026">
        <ele>707.20001220703</ele>
        <time>2014-05-04T09:17:12.000Z</time>
      </trkpt>
      <trkpt lat="44.35758" lon="5.42071">
        <ele>707.20001220703</ele>
        <time>2014-05-04T09:17:18.000Z</time>
      </trkpt>
      <trkpt lat="44.35744" lon="5.42111">
        <ele>705.20001220703</ele>
        <time>2014-05-04T09:17:24.000Z</time>
      </trkpt>
      <trkpt lat="44.35736" lon="5.42115">
        <ele>705</ele>
        <time>2014-05-04T09:17:26.000Z</time>
      </trkpt>
      <trkpt lat="44.35704" lon="5.42124">
        <ele>708</ele>
        <time>2014-05-04T09:17:38.000Z</time>
      </trkpt>
      <trkpt lat="44.35674" lon="5.42129">
        <ele>711</ele>
        <time>2014-05-04T09:17:52.000Z</time>
      </trkpt>
      <trkpt lat="44.35644" lon="5.42136">
        <ele>713.59997558594</ele>
        <time>2014-05-04T09:18:07.000Z</time>
      </trkpt>
      <trkpt lat="44.35621" lon="5.4214">
        <ele>715.79998779297</ele>
        <time>2014-05-04T09:18:20.000Z</time>
      </trkpt>
      <trkpt lat="44.35596" lon="5.42146">
        <ele>718</ele>
        <time>2014-05-04T09:18:34.000Z</time>
      </trkpt>
      <trkpt lat="44.3557" lon="5.42143">
        <ele>720.40002441406</ele>
        <time>2014-05-04T09:18:47.000Z</time>
      </trkpt>
      <trkpt lat="44.35546" lon="5.42119">
        <ele>723</ele>
        <time>2014-05-04T09:19:03.000Z</time>
      </trkpt>
      <trkpt lat="44.35524" lon="5.42114">
        <ele>725.59997558594</ele>
        <time>2014-05-04T09:19:15.000Z</time>
      </trkpt>
      <trkpt lat="44.35498" lon="5.42101">
        <ele>728.20001220703</ele>
        <time>2014-05-04T09:19:30.000Z</time>
      </trkpt>
      <trkpt lat="44.35474" lon="5.42089">
        <ele>730.79998779297</ele>
        <time>2014-05-04T09:19:45.000Z</time>
      </trkpt>
      <trkpt lat="44.3545" lon="5.42083">
        <ele>732.79998779297</ele>
        <time>2014-05-04T09:20:00.000Z</time>
      </trkpt>
      <trkpt lat="44.35432" lon="5.42056">
        <ele>735.40002441406</ele>
        <time>2014-05-04T09:20:15.000Z</time>
      </trkpt>
      <trkpt lat="44.35423" lon="5.42031">
        <ele>737.20001220703</ele>
        <time>2014-05-04T09:20:27.000Z</time>
      </trkpt>
      <trkpt lat="44.35412" lon="5.42012">
        <ele>740.40002441406</ele>
        <time>2014-05-04T09:20:40.000Z</time>
      </trkpt>
      <trkpt lat="44.35402" lon="5.42003">
        <ele>742</ele>
        <time>2014-05-04T09:20:49.000Z</time>
      </trkpt>
      <trkpt lat="44.35407" lon="5.41996">
        <ele>743</ele>
        <time>2014-05-04T09:20:55.000Z</time>
      </trkpt>
      <trkpt lat="44.35422" lon="5.42001">
        <ele>744.59997558594</ele>
        <time>2014-05-04T09:21:05.000Z</time>
      </trkpt>
      <trkpt lat="44.35445" lon="5.41991">
        <ele>745.59997558594</ele>
        <time>2014-05-04T09:21:19.000Z</time>
      </trkpt>
      <trkpt lat="44.35453" lon="5.41982">
        <ele>747.20001220703</ele>
        <time>2014-05-04T09:21:27.000Z</time>
      </trkpt>
      <trkpt lat="44.3547" lon="5.41964">
        <ele>750</ele>
        <time>2014-05-04T09:21:40.000Z</time>
      </trkpt>
      <trkpt lat="44.35492" lon="5.41941">
        <ele>753</ele>
        <time>2014-05-04T09:21:56.000Z</time>
      </trkpt>
      <trkpt lat="44.35512" lon="5.41919">
        <ele>755.40002441406</ele>
        <time>2014-05-04T09:22:08.000Z</time>
      </trkpt>
      <trkpt lat="44.35537" lon="5.41894">
        <ele>758.20001220703</ele>
        <time>2014-05-04T09:22:24.000Z</time>
      </trkpt>
      <trkpt lat="44.35537" lon="5.41892">
        <ele>758.40002441406</ele>
        <time>2014-05-04T09:22:25.000Z</time>
      </trkpt>
      <trkpt lat="44.35528" lon="5.41894">
        <ele>758.59997558594</ele>
        <time>2014-05-04T09:22:31.000Z</time>
      </trkpt>
      <trkpt lat="44.35503" lon="5.41906">
        <ele>760.79998779297</ele>
        <time>2014-05-04T09:22:43.000Z</time>
      </trkpt>
      <trkpt lat="44.35471" lon="5.41922">
        <ele>763.79998779297</ele>
        <time>2014-05-04T09:22:59.000Z</time>
      </trkpt>
      <trkpt lat="44.35436" lon="5.41935">
        <ele>767.20001220703</ele>
        <time>2014-05-04T09:23:16.000Z</time>
      </trkpt>
      <trkpt lat="44.35417" lon="5.41909">
        <ele>770.20001220703</ele>
        <time>2014-05-04T09:23:30.000Z</time>
      </trkpt>
      <trkpt lat="44.35416" lon="5.41856">
        <ele>773</ele>
        <time>2014-05-04T09:23:46.000Z</time>
      </trkpt>
      <trkpt lat="44.35416" lon="5.418">
        <ele>776</ele>
        <time>2014-05-04T09:24:02.000Z</time>
      </trkpt>
      <trkpt lat="44.35403" lon="5.41755">
        <ele>779.20001220703</ele>
        <time>2014-05-04T09:24:16.000Z</time>
      </trkpt>
      <trkpt lat="44.35384" lon="5.4171">
        <ele>781.40002441406</ele>
        <time>2014-05-04T09:24:31.000Z</time>
      </trkpt>
      <trkpt lat="44.35353" lon="5.41676">
        <ele>785</ele>
        <time>2014-05-04T09:24:48.000Z</time>
      </trkpt>
      <trkpt lat="44.35321" lon="5.41654">
        <ele>788</ele>
        <time>2014-05-04T09:25:03.000Z</time>
      </trkpt>
      <trkpt lat="44.35292" lon="5.41659">
        <ele>790.79998779297</ele>
        <time>2014-05-04T09:25:17.000Z</time>
      </trkpt>
      <trkpt lat="44.35269" lon="5.41696">
        <ele>794</ele>
        <time>2014-05-04T09:25:33.000Z</time>
      </trkpt>
      <trkpt lat="44.35241" lon="5.41698">
        <ele>796.79998779297</ele>
        <time>2014-05-04T09:25:47.000Z</time>
      </trkpt>
      <trkpt lat="44.35198" lon="5.41705">
        <ele>799.79998779297</ele>
        <time>2014-05-04T09:26:04.000Z</time>
      </trkpt>
      <trkpt lat="44.3517" lon="5.4172">
        <ele>802.79998779297</ele>
        <time>2014-05-04T09:26:17.000Z</time>
      </trkpt>
      <trkpt lat="44.3514" lon="5.41754">
        <ele>805.79998779297</ele>
        <time>2014-05-04T09:26:33.000Z</time>
      </trkpt>
      <trkpt lat="44.35128" lon="5.41791">
        <ele>809</ele>
        <time>2014-05-04T09:26:46.000Z</time>
      </trkpt>
      <trkpt lat="44.35115" lon="5.41837">
        <ele>811.79998779297</ele>
        <time>2014-05-04T09:27:01.000Z</time>
      </trkpt>
      <trkpt lat="44.3511" lon="5.41877">
        <ele>812.40002441406</ele>
        <time>2014-05-04T09:27:09.000Z</time>
      </trkpt>
      <trkpt lat="44.35099" lon="5.41886">
        <ele>812.59997558594</ele>
        <time>2014-05-04T09:27:13.000Z</time>
      </trkpt>
      <trkpt lat="44.35072" lon="5.41877">
        <ele>811.20001220703</ele>
        <time>2014-05-04T09:27:18.000Z</time>
      </trkpt>
      <trkpt lat="44.35057" lon="5.41876">
        <ele>810</ele>
        <time>2014-05-04T09:27:21.000Z</time>
      </trkpt>
      <trkpt lat="44.35037" lon="5.41881">
        <ele>809.59997558594</ele>
        <time>2014-05-04T09:27:25.000Z</time>
      </trkpt>
      <trkpt lat="44.35027" lon="5.41883">
        <ele>809.59997558594</ele>
        <time>2014-05-04T09:27:27.000Z</time>
      </trkpt>
      <trkpt lat="44.3495" lon="5.41919">
        <ele>809.59997558594</ele>
        <time>2014-05-04T09:27:42.000Z</time>
      </trkpt>
      <trkpt lat="44.34917" lon="5.4195">
        <ele>808.59997558594</ele>
        <time>2014-05-04T09:27:48.000Z</time>
      </trkpt>
      <trkpt lat="44.34903" lon="5.41958">
        <ele>807.40002441406</ele>
        <time>2014-05-04T09:27:50.000Z</time>
      </trkpt>
      <trkpt lat="44.34863" lon="5.41937">
        <ele>805.59997558594</ele>
        <time>2014-05-04T09:27:56.000Z</time>
      </trkpt>
      <trkpt lat="44.34828" lon="5.41861">
        <ele>809</ele>
        <time>2014-05-04T09:28:06.000Z</time>
      </trkpt>
      <trkpt lat="44.34805" lon="5.41812">
        <ele>812.20001220703</ele>
        <time>2014-05-04T09:28:17.000Z</time>
      </trkpt>
      <trkpt lat="44.34773" lon="5.41763">
        <ele>815.59997558594</ele>
        <time>2014-05-04T09:28:30.000Z</time>
      </trkpt>
      <trkpt lat="44.3475" lon="5.41719">
        <ele>818.59997558594</ele>
        <time>2014-05-04T09:28:41.000Z</time>
      </trkpt>
      <trkpt lat="44.34724" lon="5.41684">
        <ele>821.59997558594</ele>
        <time>2014-05-04T09:28:55.000Z</time>
      </trkpt>
      <trkpt lat="44.34698" lon="5.41655">
        <ele>824.79998779297</ele>
        <time>2014-05-04T09:29:10.000Z</time>
      </trkpt>
      <trkpt lat="44.34671" lon="5.41638">
        <ele>828.20001220703</ele>
        <time>2014-05-04T09:29:23.000Z</time>
      </trkpt>
      <trkpt lat="44.34658" lon="5.41608">
        <ele>831.20001220703</ele>
        <time>2014-05-04T09:29:34.000Z</time>
      </trkpt>
      <trkpt lat="44.34631" lon="5.41571">
        <ele>833</ele>
        <time>2014-05-04T09:29:50.000Z</time>
      </trkpt>
      <trkpt lat="44.34607" lon="5.41537">
        <ele>835.79998779297</ele>
        <time>2014-05-04T09:30:03.000Z</time>
      </trkpt>
      <trkpt lat="44.3459" lon="5.41503">
        <ele>839</ele>
        <time>2014-05-04T09:30:16.000Z</time>
      </trkpt>
      <trkpt lat="44.34568" lon="5.41504">
        <ele>842</ele>
        <time>2014-05-04T09:30:28.000Z</time>
      </trkpt>
      <trkpt lat="44.34545" lon="5.41501">
        <ele>844.40002441406</ele>
        <time>2014-05-04T09:30:41.000Z</time>
      </trkpt>
      <trkpt lat="44.34543" lon="5.41465">
        <ele>847.59997558594</ele>
        <time>2014-05-04T09:30:55.000Z</time>
      </trkpt>
      <trkpt lat="44.34537" lon="5.41429">
        <ele>850.59997558594</ele>
        <time>2014-05-04T09:31:09.000Z</time>
      </trkpt>
      <trkpt lat="44.34533" lon="5.41405">
        <ele>853.40002441406</ele>
        <time>2014-05-04T09:31:21.000Z</time>
      </trkpt>
      <trkpt lat="44.3453" lon="5.41394">
        <ele>854.79998779297</ele>
        <time>2014-05-04T09:31:27.000Z</time>
      </trkpt>
      <trkpt lat="44.34519" lon="5.41375">
        <ele>857.59997558594</ele>
        <time>2014-05-04T09:31:40.000Z</time>
      </trkpt>
      <trkpt lat="44.34507" lon="5.41375">
        <ele>859</ele>
        <time>2014-05-04T09:31:47.000Z</time>
      </trkpt>
      <trkpt lat="44.34473" lon="5.41371">
        <ele>862</ele>
        <time>2014-05-04T09:32:05.000Z</time>
      </trkpt>
      <trkpt lat="44.34441" lon="5.41376">
        <ele>864.59997558594</ele>
        <time>2014-05-04T09:32:21.000Z</time>
      </trkpt>
      <trkpt lat="44.34437" lon="5.41377">
        <ele>865.20001220703</ele>
        <time>2014-05-04T09:32:23.000Z</time>
      </trkpt>
      <trkpt lat="44.34404" lon="5.41406">
        <ele>868.59997558594</ele>
        <time>2014-05-04T09:32:41.000Z</time>
      </trkpt>
      <trkpt lat="44.34379" lon="5.41422">
        <ele>871.79998779297</ele>
        <time>2014-05-04T09:32:54.000Z</time>
      </trkpt>
      <trkpt lat="44.34371" lon="5.41455">
        <ele>873.59997558594</ele>
        <time>2014-05-04T09:33:05.000Z</time>
      </trkpt>
      <trkpt lat="44.34348" lon="5.41482">
        <ele>876.40002441406</ele>
        <time>2014-05-04T09:33:19.000Z</time>
      </trkpt>
      <trkpt lat="44.34325" lon="5.41502">
        <ele>879.20001220703</ele>
        <time>2014-05-04T09:33:32.000Z</time>
      </trkpt>
      <trkpt lat="44.34298" lon="5.4152">
        <ele>882</ele>
        <time>2014-05-04T09:33:46.000Z</time>
      </trkpt>
      <trkpt lat="44.34281" lon="5.41566">
        <ele>884.59997558594</ele>
        <time>2014-05-04T09:34:01.000Z</time>
      </trkpt>
      <trkpt lat="44.34262" lon="5.41612">
        <ele>887.59997558594</ele>
        <time>2014-05-04T09:34:15.000Z</time>
      </trkpt>
      <trkpt lat="44.34255" lon="5.41621">
        <ele>888.59997558594</ele>
        <time>2014-05-04T09:34:19.000Z</time>
      </trkpt>
      <trkpt lat="44.34249" lon="5.41633">
        <ele>888.79998779297</ele>
        <time>2014-05-04T09:34:23.000Z</time>
      </trkpt>
      <trkpt lat="44.34243" lon="5.41666">
        <ele>891</ele>
        <time>2014-05-04T09:34:32.000Z</time>
      </trkpt>
      <trkpt lat="44.34212" lon="5.41682">
        <ele>893.79998779297</ele>
        <time>2014-05-04T09:34:45.000Z</time>
      </trkpt>
      <trkpt lat="44.34187" lon="5.41693">
        <ele>895.59997558594</ele>
        <time>2014-05-04T09:34:56.000Z</time>
      </trkpt>
      <trkpt lat="44.34156" lon="5.41703">
        <ele>897.79998779297</ele>
        <time>2014-05-04T09:35:08.000Z</time>
      </trkpt>
      <trkpt lat="44.34127" lon="5.41714">
        <ele>900.20001220703</ele>
        <time>2014-05-04T09:35:23.000Z</time>
      </trkpt>
      <trkpt lat="44.34095" lon="5.41712">
        <ele>903.40002441406</ele>
        <time>2014-05-04T09:35:38.000Z</time>
      </trkpt>
      <trkpt lat="44.34061" lon="5.41727">
        <ele>906</ele>
        <time>2014-05-04T09:35:54.000Z</time>
      </trkpt>
      <trkpt lat="44.34033" lon="5.41758">
        <ele>908.59997558594</ele>
        <time>2014-05-04T09:36:09.000Z</time>
      </trkpt>
      <trkpt lat="44.34009" lon="5.41766">
        <ele>911</ele>
        <time>2014-05-04T09:36:19.000Z</time>
      </trkpt>
      <trkpt lat="44.3399" lon="5.4175">
        <ele>912.79998779297</ele>
        <time>2014-05-04T09:36:32.000Z</time>
      </trkpt>
      <trkpt lat="44.33985" lon="5.41744">
        <ele>913.59997558594</ele>
        <time>2014-05-04T09:36:37.000Z</time>
      </trkpt>
      <trkpt lat="44.3398" lon="5.41739">
        <ele>915</ele>
        <time>2014-05-04T09:36:41.000Z</time>
      </trkpt>
      <trkpt lat="44.33964" lon="5.41725">
        <ele>918.20001220703</ele>
        <time>2014-05-04T09:36:54.000Z</time>
      </trkpt>
      <trkpt lat="44.33948" lon="5.41717">
        <ele>921.59997558594</ele>
        <time>2014-05-04T09:37:07.000Z</time>
      </trkpt>
      <trkpt lat="44.33934" lon="5.41712">
        <ele>924.40002441406</ele>
        <time>2014-05-04T09:37:19.000Z</time>
      </trkpt>
      <trkpt lat="44.3393" lon="5.41712">
        <ele>925.20001220703</ele>
        <time>2014-05-04T09:37:22.000Z</time>
      </trkpt>
      <trkpt lat="44.33908" lon="5.41705">
        <ele>927</ele>
        <time>2014-05-04T09:37:36.000Z</time>
      </trkpt>
      <trkpt lat="44.33896" lon="5.41689">
        <ele>929.40002441406</ele>
        <time>2014-05-04T09:37:49.000Z</time>
      </trkpt>
      <trkpt lat="44.33891" lon="5.41684">
        <ele>930.20001220703</ele>
        <time>2014-05-04T09:37:54.000Z</time>
      </trkpt>
      <trkpt lat="44.33875" lon="5.41671">
        <ele>933.79998779297</ele>
        <time>2014-05-04T09:38:08.000Z</time>
      </trkpt>
      <trkpt lat="44.33858" lon="5.41654">
        <ele>934.40002441406</ele>
        <time>2014-05-04T09:38:19.000Z</time>
      </trkpt>
      <trkpt lat="44.33853" lon="5.41641">
        <ele>937</ele>
        <time>2014-05-04T09:38:35.000Z</time>
      </trkpt>
      <trkpt lat="44.33849" lon="5.41627">
        <ele>940.20001220703</ele>
        <time>2014-05-04T09:38:53.000Z</time>
      </trkpt>
      <trkpt lat="44.33845" lon="5.41613">
        <ele>943.20001220703</ele>
        <time>2014-05-04T09:39:10.000Z</time>
      </trkpt>
      <trkpt lat="44.33837" lon="5.41598">
        <ele>946.59997558594</ele>
        <time>2014-05-04T09:39:26.000Z</time>
      </trkpt>
      <trkpt lat="44.33825" lon="5.41582">
        <ele>949.59997558594</ele>
        <time>2014-05-04T09:39:46.000Z</time>
      </trkpt>
      <trkpt lat="44.33817" lon="5.41565">
        <ele>952.59997558594</ele>
        <time>2014-05-04T09:40:03.000Z</time>
      </trkpt>
      <trkpt lat="44.33805" lon="5.41549">
        <ele>955.59997558594</ele>
        <time>2014-05-04T09:40:19.000Z</time>
      </trkpt>
      <trkpt lat="44.33798" lon="5.41535">
        <ele>958.20001220703</ele>
        <time>2014-05-04T09:40:35.000Z</time>
      </trkpt>
      <trkpt lat="44.33792" lon="5.41521">
        <ele>959</ele>
        <time>2014-05-04T09:40:41.000Z</time>
      </trkpt>
      <trkpt lat="44.3378" lon="5.41496">
        <ele>959.79998779297</ele>
        <time>2014-05-04T09:40:50.000Z</time>
      </trkpt>
      <trkpt lat="44.33769" lon="5.41494">
        <ele>959.79998779297</ele>
        <time>2014-05-04T09:40:54.000Z</time>
      </trkpt>
      <trkpt lat="44.3374" lon="5.41546">
        <ele>962</ele>
        <time>2014-05-04T09:41:11.000Z</time>
      </trkpt>
      <trkpt lat="44.33717" lon="5.41552">
        <ele>964.79998779297</ele>
        <time>2014-05-04T09:41:22.000Z</time>
      </trkpt>
      <trkpt lat="44.3368" lon="5.41541">
        <ele>967.40002441406</ele>
        <time>2014-05-04T09:41:35.000Z</time>
      </trkpt>
      <trkpt lat="44.33663" lon="5.41545">
        <ele>968</ele>
        <time>2014-05-04T09:41:40.000Z</time>
      </trkpt>
      <trkpt lat="44.33648" lon="5.41566">
        <ele>970.40002441406</ele>
        <time>2014-05-04T09:41:47.000Z</time>
      </trkpt>
      <trkpt lat="44.33637" lon="5.41595">
        <ele>972.40002441406</ele>
        <time>2014-05-04T09:41:57.000Z</time>
      </trkpt>
      <trkpt lat="44.33604" lon="5.41606">
        <ele>974.40002441406</ele>
        <time>2014-05-04T09:42:10.000Z</time>
      </trkpt>
      <trkpt lat="44.33584" lon="5.41614">
        <ele>976</ele>
        <time>2014-05-04T09:42:22.000Z</time>
      </trkpt>
      <trkpt lat="44.33565" lon="5.41601">
        <ele>977</ele>
        <time>2014-05-04T09:42:32.000Z</time>
      </trkpt>
      <trkpt lat="44.33535" lon="5.41583">
        <ele>979.79998779297</ele>
        <time>2014-05-04T09:42:47.000Z</time>
      </trkpt>
      <trkpt lat="44.33506" lon="5.41578">
        <ele>982.20001220703</ele>
        <time>2014-05-04T09:43:01.000Z</time>
      </trkpt>
      <trkpt lat="44.33491" lon="5.41547">
        <ele>985</ele>
        <time>2014-05-04T09:43:15.000Z</time>
      </trkpt>
      <trkpt lat="44.33469" lon="5.4152">
        <ele>987.20001220703</ele>
        <time>2014-05-04T09:43:27.000Z</time>
      </trkpt>
      <trkpt lat="44.33437" lon="5.41509">
        <ele>990</ele>
        <time>2014-05-04T09:43:41.000Z</time>
      </trkpt>
      <trkpt lat="44.33412" lon="5.41492">
        <ele>992</ele>
        <time>2014-05-04T09:43:53.000Z</time>
      </trkpt>
      <trkpt lat="44.33382" lon="5.41484">
        <ele>993.59997558594</ele>
        <time>2014-05-04T09:44:07.000Z</time>
      </trkpt>
      <trkpt lat="44.33359" lon="5.4152">
        <ele>995</ele>
        <time>2014-05-04T09:44:19.000Z</time>
      </trkpt>
      <trkpt lat="44.33342" lon="5.41521">
        <ele>995.40002441406</ele>
        <time>2014-05-04T09:44:24.000Z</time>
      </trkpt>
      <trkpt lat="44.33329" lon="5.41521">
        <ele>996</ele>
        <time>2014-05-04T09:44:27.000Z</time>
      </trkpt>
      <trkpt lat="44.33314" lon="5.41531">
        <ele>996</ele>
        <time>2014-05-04T09:44:31.000Z</time>
      </trkpt>
      <trkpt lat="44.33295" lon="5.41541">
        <ele>996</ele>
        <time>2014-05-04T09:44:35.000Z</time>
      </trkpt>
      <trkpt lat="44.33276" lon="5.41544">
        <ele>997</ele>
        <time>2014-05-04T09:44:39.000Z</time>
      </trkpt>
      <trkpt lat="44.33242" lon="5.41554">
        <ele>997.79998779297</ele>
        <time>2014-05-04T09:44:50.000Z</time>
      </trkpt>
      <trkpt lat="44.33239" lon="5.41555">
        <ele>998.40002441406</ele>
        <time>2014-05-04T09:44:52.000Z</time>
      </trkpt>
      <trkpt lat="44.33236" lon="5.41551">
        <ele>999.20001220703</ele>
        <time>2014-05-04T09:44:56.000Z</time>
      </trkpt>
      <trkpt lat="44.33236" lon="5.41545">
        <ele>999.79998779297</ele>
        <time>2014-05-04T09:44:59.000Z</time>
      </trkpt>
      <trkpt lat="44.33243" lon="5.41535">
        <ele>1001</ele>
        <time>2014-05-04T09:45:05.000Z</time>
      </trkpt>
      <trkpt lat="44.33271" lon="5.4152">
        <ele>1004</ele>
        <time>2014-05-04T09:45:19.000Z</time>
      </trkpt>
      <trkpt lat="44.33294" lon="5.41502">
        <ele>1006.200012207</ele>
        <time>2014-05-04T09:45:32.000Z</time>
      </trkpt>
      <trkpt lat="44.33312" lon="5.41486">
        <ele>1009.200012207</ele>
        <time>2014-05-04T09:45:45.000Z</time>
      </trkpt>
      <trkpt lat="44.33315" lon="5.41484">
        <ele>1009.4000244141</ele>
        <time>2014-05-04T09:45:47.000Z</time>
      </trkpt>
      <trkpt lat="44.33323" lon="5.41466">
        <ele>1011</ele>
        <time>2014-05-04T09:45:56.000Z</time>
      </trkpt>
      <trkpt lat="44.33328" lon="5.41457">
        <ele>1012.200012207</ele>
        <time>2014-05-04T09:46:01.000Z</time>
      </trkpt>
      <trkpt lat="44.33343" lon="5.41435">
        <ele>1015</ele>
        <time>2014-05-04T09:46:15.000Z</time>
      </trkpt>
      <trkpt lat="44.33363" lon="5.4143">
        <ele>1017.799987793</ele>
        <time>2014-05-04T09:46:28.000Z</time>
      </trkpt>
      <trkpt lat="44.33382" lon="5.41415">
        <ele>1020.200012207</ele>
        <time>2014-05-04T09:46:41.000Z</time>
      </trkpt>
      <trkpt lat="44.33404" lon="5.41411">
        <ele>1022.799987793</ele>
        <time>2014-05-04T09:46:54.000Z</time>
      </trkpt>
      <trkpt lat="44.33427" lon="5.41405">
        <ele>1025.1999511719</ele>
        <time>2014-05-04T09:47:07.000Z</time>
      </trkpt>
      <trkpt lat="44.33447" lon="5.41402">
        <ele>1027.5999755859</ele>
        <time>2014-05-04T09:47:20.000Z</time>
      </trkpt>
      <trkpt lat="44.33468" lon="5.41411">
        <ele>1031</ele>
        <time>2014-05-04T09:47:33.000Z</time>
      </trkpt>
      <trkpt lat="44.33494" lon="5.4143">
        <ele>1034.1999511719</ele>
        <time>2014-05-04T09:47:47.000Z</time>
      </trkpt>
      <trkpt lat="44.33515" lon="5.41425">
        <ele>1036.5999755859</ele>
        <time>2014-05-04T09:47:58.000Z</time>
      </trkpt>
      <trkpt lat="44.33532" lon="5.41421">
        <ele>1038.5999755859</ele>
        <time>2014-05-04T09:48:05.000Z</time>
      </trkpt>
      <trkpt lat="44.3353" lon="5.41412">
        <ele>1039.5999755859</ele>
        <time>2014-05-04T09:48:10.000Z</time>
      </trkpt>
      <trkpt lat="44.33498" lon="5.41411">
        <ele>1042.8000488281</ele>
        <time>2014-05-04T09:48:23.000Z</time>
      </trkpt>
      <trkpt lat="44.3349" lon="5.41381">
        <ele>1045.4000244141</ele>
        <time>2014-05-04T09:48:33.000Z</time>
      </trkpt>
      <trkpt lat="44.33478" lon="5.41359">
        <ele>1048.1999511719</ele>
        <time>2014-05-04T09:48:41.000Z</time>
      </trkpt>
      <trkpt lat="44.33447" lon="5.41332">
        <ele>1051</ele>
        <time>2014-05-04T09:48:57.000Z</time>
      </trkpt>
      <trkpt lat="44.33423" lon="5.41318">
        <ele>1054</ele>
        <time>2014-05-04T09:49:08.000Z</time>
      </trkpt>
      <trkpt lat="44.33392" lon="5.41305">
        <ele>1057.1999511719</ele>
        <time>2014-05-04T09:49:22.000Z</time>
      </trkpt>
      <trkpt lat="44.33365" lon="5.41307">
        <ele>1060.1999511719</ele>
        <time>2014-05-04T09:49:34.000Z</time>
      </trkpt>
      <trkpt lat="44.33346" lon="5.41313">
        <ele>1062.5999755859</ele>
        <time>2014-05-04T09:49:44.000Z</time>
      </trkpt>
      <trkpt lat="44.33332" lon="5.41317">
        <ele>1064.1999511719</ele>
        <time>2014-05-04T09:49:53.000Z</time>
      </trkpt>
      <trkpt lat="44.33321" lon="5.4132">
        <ele>1065.4000244141</ele>
        <time>2014-05-04T09:50:01.000Z</time>
      </trkpt>
      <trkpt lat="44.33299" lon="5.41334">
        <ele>1068.8000488281</ele>
        <time>2014-05-04T09:50:16.000Z</time>
      </trkpt>
      <trkpt lat="44.33284" lon="5.41331">
        <ele>1071</ele>
        <time>2014-05-04T09:50:27.000Z</time>
      </trkpt>
      <trkpt lat="44.33257" lon="5.4133">
        <ele>1073.4000244141</ele>
        <time>2014-05-04T09:50:43.000Z</time>
      </trkpt>
      <trkpt lat="44.33254" lon="5.41331">
        <ele>1073.5999755859</ele>
        <time>2014-05-04T09:50:45.000Z</time>
      </trkpt>
      <trkpt lat="44.33234" lon="5.41353">
        <ele>1076.4000244141</ele>
        <time>2014-05-04T09:51:00.000Z</time>
      </trkpt>
      <trkpt lat="44.33212" lon="5.41362">
        <ele>1078.8000488281</ele>
        <time>2014-05-04T09:51:13.000Z</time>
      </trkpt>
      <trkpt lat="44.33201" lon="5.41363">
        <ele>1080</ele>
        <time>2014-05-04T09:51:19.000Z</time>
      </trkpt>
      <trkpt lat="44.33175" lon="5.41384">
        <ele>1082.1999511719</ele>
        <time>2014-05-04T09:51:34.000Z</time>
      </trkpt>
      <trkpt lat="44.33143" lon="5.41414">
        <ele>1085</ele>
        <time>2014-05-04T09:51:49.000Z</time>
      </trkpt>
      <trkpt lat="44.33117" lon="5.41449">
        <ele>1088.1999511719</ele>
        <time>2014-05-04T09:52:03.000Z</time>
      </trkpt>
      <trkpt lat="44.33104" lon="5.41476">
        <ele>1090.4000244141</ele>
        <time>2014-05-04T09:52:15.000Z</time>
      </trkpt>
      <trkpt lat="44.33105" lon="5.4149">
        <ele>1091.4000244141</ele>
        <time>2014-05-04T09:52:20.000Z</time>
      </trkpt>
      <trkpt lat="44.33102" lon="5.41502">
        <ele>1093</ele>
        <time>2014-05-04T09:52:27.000Z</time>
      </trkpt>
      <trkpt lat="44.33074" lon="5.41514">
        <ele>1095.4000244141</ele>
        <time>2014-05-04T09:52:41.000Z</time>
      </trkpt>
      <trkpt lat="44.33045" lon="5.41517">
        <ele>1097.4000244141</ele>
        <time>2014-05-04T09:52:54.000Z</time>
      </trkpt>
      <trkpt lat="44.33022" lon="5.41512">
        <ele>1100.4000244141</ele>
        <time>2014-05-04T09:53:04.000Z</time>
      </trkpt>
      <trkpt lat="44.32994" lon="5.41515">
        <ele>1103</ele>
        <time>2014-05-04T09:53:16.000Z</time>
      </trkpt>
      <trkpt lat="44.3297" lon="5.41516">
        <ele>1106</ele>
        <time>2014-05-04T09:53:28.000Z</time>
      </trkpt>
      <trkpt lat="44.32935" lon="5.41532">
        <ele>1108.5999755859</ele>
        <time>2014-05-04T09:53:43.000Z</time>
      </trkpt>
      <trkpt lat="44.32906" lon="5.41553">
        <ele>1110.1999511719</ele>
        <time>2014-05-04T09:53:56.000Z</time>
      </trkpt>
      <trkpt lat="44.32876" lon="5.41556">
        <ele>1113.5999755859</ele>
        <time>2014-05-04T09:54:08.000Z</time>
      </trkpt>
      <trkpt lat="44.32841" lon="5.41558">
        <ele>1116.8000488281</ele>
        <time>2014-05-04T09:54:21.000Z</time>
      </trkpt>
      <trkpt lat="44.32817" lon="5.41569">
        <ele>1119.4000244141</ele>
        <time>2014-05-04T09:54:34.000Z</time>
      </trkpt>
      <trkpt lat="44.32807" lon="5.41577">
        <ele>1120.5999755859</ele>
        <time>2014-05-04T09:54:39.000Z</time>
      </trkpt>
      <trkpt lat="44.32793" lon="5.41596">
        <ele>1122.1999511719</ele>
        <time>2014-05-04T09:54:48.000Z</time>
      </trkpt>
      <trkpt lat="44.32773" lon="5.4162">
        <ele>1124.8000488281</ele>
        <time>2014-05-04T09:55:01.000Z</time>
      </trkpt>
      <trkpt lat="44.32745" lon="5.41637">
        <ele>1128</ele>
        <time>2014-05-04T09:55:13.000Z</time>
      </trkpt>
      <trkpt lat="44.32744" lon="5.41638">
        <ele>1128.1999511719</ele>
        <time>2014-05-04T09:55:14.000Z</time>
      </trkpt>
      <trkpt lat="44.32727" lon="5.41663">
        <ele>1129.8000488281</ele>
        <time>2014-05-04T09:55:25.000Z</time>
      </trkpt>
      <trkpt lat="44.32724" lon="5.4167">
        <ele>1130.5999755859</ele>
        <time>2014-05-04T09:55:28.000Z</time>
      </trkpt>
      <trkpt lat="44.3272" lon="5.41676">
        <ele>1131.4000244141</ele>
        <time>2014-05-04T09:55:32.000Z</time>
      </trkpt>
      <trkpt lat="44.32711" lon="5.41693">
        <ele>1133</ele>
        <time>2014-05-04T09:55:41.000Z</time>
      </trkpt>
      <trkpt lat="44.32702" lon="5.41707">
        <ele>1134.1999511719</ele>
        <time>2014-05-04T09:55:49.000Z</time>
      </trkpt>
      <trkpt lat="44.32689" lon="5.41728">
        <ele>1136.8000488281</ele>
        <time>2014-05-04T09:56:03.000Z</time>
      </trkpt>
      <trkpt lat="44.32687" lon="5.41734">
        <ele>1137.5999755859</ele>
        <time>2014-05-04T09:56:06.000Z</time>
      </trkpt>
      <trkpt lat="44.32686" lon="5.41738">
        <ele>1138.1999511719</ele>
        <time>2014-05-04T09:56:08.000Z</time>
      </trkpt>
      <trkpt lat="44.32677" lon="5.41752">
        <ele>1139.8000488281</ele>
        <time>2014-05-04T09:56:19.000Z</time>
      </trkpt>
      <trkpt lat="44.32674" lon="5.41759">
        <ele>1140.5999755859</ele>
        <time>2014-05-04T09:56:23.000Z</time>
      </trkpt>
      <trkpt lat="44.3267" lon="5.41766">
        <ele>1141.4000244141</ele>
        <time>2014-05-04T09:56:27.000Z</time>
      </trkpt>
      <trkpt lat="44.32658" lon="5.41792">
        <ele>1144</ele>
        <time>2014-05-04T09:56:42.000Z</time>
      </trkpt>
      <trkpt lat="44.3265" lon="5.41813">
        <ele>1146.8000488281</ele>
        <time>2014-05-04T09:56:55.000Z</time>
      </trkpt>
      <trkpt lat="44.32643" lon="5.41827">
        <ele>1148.5999755859</ele>
        <time>2014-05-04T09:57:04.000Z</time>
      </trkpt>
      <trkpt lat="44.32633" lon="5.41847">
        <ele>1151</ele>
        <time>2014-05-04T09:57:16.000Z</time>
      </trkpt>
      <trkpt lat="44.32617" lon="5.4187">
        <ele>1154</ele>
        <time>2014-05-04T09:57:31.000Z</time>
      </trkpt>
      <trkpt lat="44.32602" lon="5.41877">
        <ele>1154</ele>
        <time>2014-05-04T09:57:37.000Z</time>
      </trkpt>
      <trkpt lat="44.32587" lon="5.41885">
        <ele>1154.5999755859</ele>
        <time>2014-05-04T09:57:49.000Z</time>
      </trkpt>
      <trkpt lat="44.32572" lon="5.41893">
        <ele>1158</ele>
        <time>2014-05-04T09:58:01.000Z</time>
      </trkpt>
      <trkpt lat="44.3255" lon="5.41896">
        <ele>1161</ele>
        <time>2014-05-04T09:58:17.000Z</time>
      </trkpt>
      <trkpt lat="44.32533" lon="5.41904">
        <ele>1164</ele>
        <time>2014-05-04T09:58:32.000Z</time>
      </trkpt>
      <trkpt lat="44.32518" lon="5.41913">
        <ele>1167.1999511719</ele>
        <time>2014-05-04T09:58:46.000Z</time>
      </trkpt>
      <trkpt lat="44.32505" lon="5.41922">
        <ele>1169.8000488281</ele>
        <time>2014-05-04T09:58:58.000Z</time>
      </trkpt>
      <trkpt lat="44.325" lon="5.41927">
        <ele>1170.5999755859</ele>
        <time>2014-05-04T09:59:03.000Z</time>
      </trkpt>
      <trkpt lat="44.32496" lon="5.41929">
        <ele>1171.1999511719</ele>
        <time>2014-05-04T09:59:06.000Z</time>
      </trkpt>
      <trkpt lat="44.32491" lon="5.41932">
        <ele>1172.4000244141</ele>
        <time>2014-05-04T09:59:11.000Z</time>
      </trkpt>
      <trkpt lat="44.32471" lon="5.41937">
        <ele>1175.1999511719</ele>
        <time>2014-05-04T09:59:27.000Z</time>
      </trkpt>
      <trkpt lat="44.32466" lon="5.41941">
        <ele>1176</ele>
        <time>2014-05-04T09:59:31.000Z</time>
      </trkpt>
      <trkpt lat="44.32456" lon="5.4195">
        <ele>1178.5999755859</ele>
        <time>2014-05-04T09:59:42.000Z</time>
      </trkpt>
      <trkpt lat="44.32452" lon="5.41956">
        <ele>1179.4000244141</ele>
        <time>2014-05-04T09:59:46.000Z</time>
      </trkpt>
      <trkpt lat="44.32436" lon="5.41975">
        <ele>1182.1999511719</ele>
        <time>2014-05-04T10:00:02.000Z</time>
      </trkpt>
      <trkpt lat="44.32423" lon="5.41995">
        <ele>1185.4000244141</ele>
        <time>2014-05-04T10:00:16.000Z</time>
      </trkpt>
      <trkpt lat="44.32416" lon="5.42015">
        <ele>1188.5999755859</ele>
        <time>2014-05-04T10:00:29.000Z</time>
      </trkpt>
      <trkpt lat="44.32407" lon="5.42041">
        <ele>1191.1999511719</ele>
        <time>2014-05-04T10:00:42.000Z</time>
      </trkpt>
      <trkpt lat="44.32397" lon="5.42057">
        <ele>1192.1999511719</ele>
        <time>2014-05-04T10:00:49.000Z</time>
      </trkpt>
      <trkpt lat="44.32406" lon="5.42096">
        <ele>1188.1999511719</ele>
        <time>2014-05-04T10:00:54.000Z</time>
      </trkpt>
      <trkpt lat="44.32405" lon="5.42126">
        <ele>1185</ele>
        <time>2014-05-04T10:00:57.000Z</time>
      </trkpt>
      <trkpt lat="44.32403" lon="5.42136">
        <ele>1184</ele>
        <time>2014-05-04T10:00:58.000Z</time>
      </trkpt>
      <trkpt lat="44.32395" lon="5.42167">
        <ele>1181</ele>
        <time>2014-05-04T10:01:01.000Z</time>
      </trkpt>
      <trkpt lat="44.32374" lon="5.42173">
        <ele>1176.8000488281</ele>
        <time>2014-05-04T10:01:07.000Z</time>
      </trkpt>
      <trkpt lat="44.32374" lon="5.42167">
        <ele>1176.4000244141</ele>
        <time>2014-05-04T10:01:08.000Z</time>
      </trkpt>
      <trkpt lat="44.32374" lon="5.4216">
        <ele>1176</ele>
        <time>2014-05-04T10:01:09.000Z</time>
      </trkpt>
      <trkpt lat="44.32369" lon="5.42125">
        <ele>1169</ele>
        <time>2014-05-04T10:01:13.000Z</time>
      </trkpt>
      <trkpt lat="44.32355" lon="5.42113">
        <ele>1165.8000488281</ele>
        <time>2014-05-04T10:01:15.000Z</time>
      </trkpt>
      <trkpt lat="44.32322" lon="5.42081">
        <ele>1158.8000488281</ele>
        <time>2014-05-04T10:01:20.000Z</time>
      </trkpt>
      <trkpt lat="44.32306" lon="5.42064">
        <ele>1156.8000488281</ele>
        <time>2014-05-04T10:01:23.000Z</time>
      </trkpt>
      <trkpt lat="44.3229" lon="5.42045">
        <ele>1153.5999755859</ele>
        <time>2014-05-04T10:01:27.000Z</time>
      </trkpt>
      <trkpt lat="44.32276" lon="5.42018">
        <ele>1148.5999755859</ele>
        <time>2014-05-04T10:01:31.000Z</time>
      </trkpt>
      <trkpt lat="44.32268" lon="5.41993">
        <ele>1144.5999755859</ele>
        <time>2014-05-04T10:01:34.000Z</time>
      </trkpt>
      <trkpt lat="44.3226" lon="5.41966">
        <ele>1141</ele>
        <time>2014-05-04T10:01:37.000Z</time>
      </trkpt>
      <trkpt lat="44.32257" lon="5.41958">
        <ele>1140</ele>
        <time>2014-05-04T10:01:38.000Z</time>
      </trkpt>
      <trkpt lat="44.32245" lon="5.41933">
        <ele>1136.5999755859</ele>
        <time>2014-05-04T10:01:42.000Z</time>
      </trkpt>
      <trkpt lat="44.32234" lon="5.41932">
        <ele>1134.4000244141</ele>
        <time>2014-05-04T10:01:46.000Z</time>
      </trkpt>
      <trkpt lat="44.32212" lon="5.41941">
        <ele>1128.5999755859</ele>
        <time>2014-05-04T10:01:51.000Z</time>
      </trkpt>
      <trkpt lat="44.32208" lon="5.41942">
        <ele>1128.4000244141</ele>
        <time>2014-05-04T10:01:52.000Z</time>
      </trkpt>
      <trkpt lat="44.3218" lon="5.41971">
        <ele>1128.1999511719</ele>
        <time>2014-05-04T10:02:02.000Z</time>
      </trkpt>
      <trkpt lat="44.32155" lon="5.42005">
        <ele>1128.1999511719</ele>
        <time>2014-05-04T10:02:10.000Z</time>
      </trkpt>
      <trkpt lat="44.32138" lon="5.42015">
        <ele>1130.1999511719</ele>
        <time>2014-05-04T10:02:14.000Z</time>
      </trkpt>
      <trkpt lat="44.32127" lon="5.42021">
        <ele>1130.4000244141</ele>
        <time>2014-05-04T10:02:17.000Z</time>
      </trkpt>
      <trkpt lat="44.32109" lon="5.42022">
        <ele>1128.5999755859</ele>
        <time>2014-05-04T10:02:21.000Z</time>
      </trkpt>
      <trkpt lat="44.32099" lon="5.42019">
        <ele>1127.4000244141</ele>
        <time>2014-05-04T10:02:23.000Z</time>
      </trkpt>
      <trkpt lat="44.32084" lon="5.42005">
        <ele>1126.5999755859</ele>
        <time>2014-05-04T10:02:27.000Z</time>
      </trkpt>
      <trkpt lat="44.32076" lon="5.41989">
        <ele>1126.5999755859</ele>
        <time>2014-05-04T10:02:30.000Z</time>
      </trkpt>
      <trkpt lat="44.32072" lon="5.41978">
        <ele>1126.5999755859</ele>
        <time>2014-05-04T10:02:32.000Z</time>
      </trkpt>
      <trkpt lat="44.32047" lon="5.41924">
        <ele>1128.5999755859</ele>
        <time>2014-05-04T10:02:44.000Z</time>
      </trkpt>
      <trkpt lat="44.32031" lon="5.41891">
        <ele>1126.4000244141</ele>
        <time>2014-05-04T10:02:55.000Z</time>
      </trkpt>
      <trkpt lat="44.32025" lon="5.41871">
        <ele>1128.1999511719</ele>
        <time>2014-05-04T10:03:02.000Z</time>
      </trkpt>
      <trkpt lat="44.32017" lon="5.41841">
        <ele>1131.4000244141</ele>
        <time>2014-05-04T10:03:14.000Z</time>
      </trkpt>
      <trkpt lat="44.32008" lon="5.41811">
        <ele>1133.8000488281</ele>
        <time>2014-05-04T10:03:28.000Z</time>
      </trkpt>
      <trkpt lat="44.32006" lon="5.41794">
        <ele>1135.4000244141</ele>
        <time>2014-05-04T10:03:36.000Z</time>
      </trkpt>
      <trkpt lat="44.32003" lon="5.41785">
        <ele>1136.4000244141</ele>
        <time>2014-05-04T10:03:41.000Z</time>
      </trkpt>
      <trkpt lat="44.31993" lon="5.41758">
        <ele>1138.5999755859</ele>
        <time>2014-05-04T10:03:54.000Z</time>
      </trkpt>
      <trkpt lat="44.31988" lon="5.41747">
        <ele>1139.1999511719</ele>
        <time>2014-05-04T10:04:00.000Z</time>
      </trkpt>
      <trkpt lat="44.31986" lon="5.4174">
        <ele>1139.5999755859</ele>
        <time>2014-05-04T10:04:03.000Z</time>
      </trkpt>
      <trkpt lat="44.31982" lon="5.41723">
        <ele>1141.1999511719</ele>
        <time>2014-05-04T10:04:11.000Z</time>
      </trkpt>
      <trkpt lat="44.31982" lon="5.41707">
        <ele>1142.1999511719</ele>
        <time>2014-05-04T10:04:17.000Z</time>
      </trkpt>
      <trkpt lat="44.31982" lon="5.41693">
        <ele>1143.8000488281</ele>
        <time>2014-05-04T10:04:23.000Z</time>
      </trkpt>
      <trkpt lat="44.31985" lon="5.41657">
        <ele>1146.8000488281</ele>
        <time>2014-05-04T10:04:38.000Z</time>
      </trkpt>
      <trkpt lat="44.31985" lon="5.41636">
        <ele>1148.5999755859</ele>
        <time>2014-05-04T10:04:48.000Z</time>
      </trkpt>
      <trkpt lat="44.31987" lon="5.41604">
        <ele>1151.4000244141</ele>
        <time>2014-05-04T10:05:03.000Z</time>
      </trkpt>
      <trkpt lat="44.31986" lon="5.41598">
        <ele>1152.4000244141</ele>
        <time>2014-05-04T10:05:06.000Z</time>
      </trkpt>
      <trkpt lat="44.31981" lon="5.41597">
        <ele>1153.1999511719</ele>
        <time>2014-05-04T10:05:10.000Z</time>
      </trkpt>
      <trkpt lat="44.3195" lon="5.41623">
        <ele>1153.8000488281</ele>
        <time>2014-05-04T10:05:22.000Z</time>
      </trkpt>
      <trkpt lat="44.31925" lon="5.41654">
        <ele>1156.1999511719</ele>
        <time>2014-05-04T10:05:36.000Z</time>
      </trkpt>
      <trkpt lat="44.3191" lon="5.41668">
        <ele>1158.8000488281</ele>
        <time>2014-05-04T10:05:47.000Z</time>
      </trkpt>
      <trkpt lat="44.31905" lon="5.4168">
        <ele>1160.4000244141</ele>
        <time>2014-05-04T10:05:55.000Z</time>
      </trkpt>
      <trkpt lat="44.31895" lon="5.41709">
        <ele>1164.1999511719</ele>
        <time>2014-05-04T10:06:10.000Z</time>
      </trkpt>
      <trkpt lat="44.31889" lon="5.41728">
        <ele>1166.5999755859</ele>
        <time>2014-05-04T10:06:20.000Z</time>
      </trkpt>
      <trkpt lat="44.31886" lon="5.41737">
        <ele>1167.4000244141</ele>
        <time>2014-05-04T10:06:25.000Z</time>
      </trkpt>
      <trkpt lat="44.31881" lon="5.41748">
        <ele>1168.5999755859</ele>
        <time>2014-05-04T10:06:30.000Z</time>
      </trkpt>
      <trkpt lat="44.31871" lon="5.41763">
        <ele>1169.4000244141</ele>
        <time>2014-05-04T10:06:38.000Z</time>
      </trkpt>
      <trkpt lat="44.31836" lon="5.41813">
        <ele>1169.4000244141</ele>
        <time>2014-05-04T10:06:50.000Z</time>
      </trkpt>
      <trkpt lat="44.31829" lon="5.41825">
        <ele>1169.4000244141</ele>
        <time>2014-05-04T10:06:52.000Z</time>
      </trkpt>
      <trkpt lat="44.31798" lon="5.41854">
        <ele>1165</ele>
        <time>2014-05-04T10:06:59.000Z</time>
      </trkpt>
      <trkpt lat="44.31786" lon="5.41854">
        <ele>1163.1999511719</ele>
        <time>2014-05-04T10:07:01.000Z</time>
      </trkpt>
      <trkpt lat="44.31759" lon="5.41853">
        <ele>1157.4000244141</ele>
        <time>2014-05-04T10:07:05.000Z</time>
      </trkpt>
      <trkpt lat="44.31748" lon="5.41851">
        <ele>1156.4000244141</ele>
        <time>2014-05-04T10:07:07.000Z</time>
      </trkpt>
      <trkpt lat="44.31742" lon="5.4185">
        <ele>1156</ele>
        <time>2014-05-04T10:07:09.000Z</time>
      </trkpt>
      <trkpt lat="44.31738" lon="5.4185">
        <ele>1155.8000488281</ele>
        <time>2014-05-04T10:07:24.000Z</time>
      </trkpt>
      <trkpt lat="44.31737" lon="5.4185">
        <ele>1155.8000488281</ele>
        <time>2014-05-04T10:07:46.000Z</time>
      </trkpt>
      <trkpt lat="44.31735" lon="5.4185">
        <ele>1155.8000488281</ele>
        <time>2014-05-04T10:08:05.000Z</time>
      </trkpt>
      <trkpt lat="44.31736" lon="5.41849">
        <ele>1155.1999511719</ele>
        <time>2014-05-04T10:08:34.000Z</time>
      </trkpt>
      <trkpt lat="44.31736" lon="5.41849">
        <ele>1155.1999511719</ele>
        <time>2014-05-04T10:08:55.000Z</time>
      </trkpt>
      <trkpt lat="44.31736" lon="5.41849">
        <ele>1155.1999511719</ele>
        <time>2014-05-04T10:09:22.000Z</time>
      </trkpt>
      <trkpt lat="44.31737" lon="5.41847">
        <ele>1155.1999511719</ele>
        <time>2014-05-04T10:09:43.000Z</time>
      </trkpt>
      <trkpt lat="44.31737" lon="5.41847">
        <ele>1155.1999511719</ele>
        <time>2014-05-04T10:10:09.000Z</time>
      </trkpt>
      <trkpt lat="44.31737" lon="5.41847">
        <ele>1155.1999511719</ele>
        <time>2014-05-04T10:10:31.000Z</time>
      </trkpt>
      <trkpt lat="44.31736" lon="5.41846">
        <ele>1155.1999511719</ele>
        <time>2014-05-04T10:10:56.000Z</time>
      </trkpt>
      <trkpt lat="44.31737" lon="5.41846">
        <ele>1155.1999511719</ele>
        <time>2014-05-04T10:11:21.000Z</time>
      </trkpt>
      <trkpt lat="44.31738" lon="5.41846">
        <ele>1155.1999511719</ele>
        <time>2014-05-04T10:11:48.000Z</time>
      </trkpt>
      <trkpt lat="44.31739" lon="5.41845">
        <ele>1155.1999511719</ele>
        <time>2014-05-04T10:12:13.000Z</time>
      </trkpt>
      <trkpt lat="44.3174" lon="5.41845">
        <ele>1155.1999511719</ele>
        <time>2014-05-04T10:12:41.000Z</time>
      </trkpt>
      <trkpt lat="44.31741" lon="5.4185">
        <ele>1155.1999511719</ele>
        <time>2014-05-04T10:12:59.000Z</time>
      </trkpt>
      <trkpt lat="44.31743" lon="5.41847">
        <ele>1155.1999511719</ele>
        <time>2014-05-04T10:13:09.000Z</time>
      </trkpt>
      <trkpt lat="44.31722" lon="5.41851">
        <ele>1154</ele>
        <time>2014-05-04T10:13:18.000Z</time>
      </trkpt>
      <trkpt lat="44.31713" lon="5.4187">
        <ele>1156.4000244141</ele>
        <time>2014-05-04T10:13:24.000Z</time>
      </trkpt>
      <trkpt lat="44.31711" lon="5.41875">
        <ele>1157.1999511719</ele>
        <time>2014-05-04T10:13:26.000Z</time>
      </trkpt>
      <trkpt lat="44.31701" lon="5.4188">
        <ele>1159.8000488281</ele>
        <time>2014-05-04T10:13:35.000Z</time>
      </trkpt>
      <trkpt lat="44.31699" lon="5.41883">
        <ele>1160</ele>
        <time>2014-05-04T10:13:37.000Z</time>
      </trkpt>
      <trkpt lat="44.3169" lon="5.41918">
        <ele>1161</ele>
        <time>2014-05-04T10:13:48.000Z</time>
      </trkpt>
      <trkpt lat="44.31688" lon="5.41922">
        <ele>1161</ele>
        <time>2014-05-04T10:13:49.000Z</time>
      </trkpt>
      <trkpt lat="44.31674" lon="5.41943">
        <ele>1162.8000488281</ele>
        <time>2014-05-04T10:13:58.000Z</time>
      </trkpt>
      <trkpt lat="44.3167" lon="5.41945">
        <ele>1163.4000244141</ele>
        <time>2014-05-04T10:14:00.000Z</time>
      </trkpt>
      <trkpt lat="44.31663" lon="5.4195">
        <ele>1165.5999755859</ele>
        <time>2014-05-04T10:14:06.000Z</time>
      </trkpt>
      <trkpt lat="44.31651" lon="5.41962">
        <ele>1168.8000488281</ele>
        <time>2014-05-04T10:14:18.000Z</time>
      </trkpt>
      <trkpt lat="44.31646" lon="5.41968">
        <ele>1171.1999511719</ele>
        <time>2014-05-04T10:14:32.000Z</time>
      </trkpt>
      <trkpt lat="44.3164" lon="5.41971">
        <ele>1172.8000488281</ele>
        <time>2014-05-04T10:14:49.000Z</time>
      </trkpt>
      <trkpt lat="44.31638" lon="5.4197">
        <ele>1172.8000488281</ele>
        <time>2014-05-04T10:14:56.000Z</time>
      </trkpt>
      <trkpt lat="44.31626" lon="5.41961">
        <ele>1172.8000488281</ele>
        <time>2014-05-04T10:15:13.000Z</time>
      </trkpt>
      <trkpt lat="44.31614" lon="5.41955">
        <ele>1169.4000244141</ele>
        <time>2014-05-04T10:15:22.000Z</time>
      </trkpt>
      <trkpt lat="44.31602" lon="5.41945">
        <ele>1166.4000244141</ele>
        <time>2014-05-04T10:15:29.000Z</time>
      </trkpt>
      <trkpt lat="44.31597" lon="5.4194">
        <ele>1165.8000488281</ele>
        <time>2014-05-04T10:15:36.000Z</time>
      </trkpt>
      <trkpt lat="44.31581" lon="5.41939">
        <ele>1162.1999511719</ele>
        <time>2014-05-04T10:15:44.000Z</time>
      </trkpt>
      <trkpt lat="44.31577" lon="5.41939">
        <ele>1161.4000244141</ele>
        <time>2014-05-04T10:15:46.000Z</time>
      </trkpt>
      <trkpt lat="44.31569" lon="5.41936">
        <ele>1159.4000244141</ele>
        <time>2014-05-04T10:15:56.000Z</time>
      </trkpt>
      <trkpt lat="44.31556" lon="5.41925">
        <ele>1161.4000244141</ele>
        <time>2014-05-04T10:16:13.000Z</time>
      </trkpt>
      <trkpt lat="44.31553" lon="5.41923">
        <ele>1161.5999755859</ele>
        <time>2014-05-04T10:16:19.000Z</time>
      </trkpt>
      <trkpt lat="44.31537" lon="5.41924">
        <ele>1158.5999755859</ele>
        <time>2014-05-04T10:16:27.000Z</time>
      </trkpt>
      <trkpt lat="44.31533" lon="5.41925">
        <ele>1156.8000488281</ele>
        <time>2014-05-04T10:16:38.000Z</time>
      </trkpt>
      <trkpt lat="44.31531" lon="5.41928">
        <ele>1156</ele>
        <time>2014-05-04T10:16:41.000Z</time>
      </trkpt>
      <trkpt lat="44.31526" lon="5.41923">
        <ele>1152.4000244141</ele>
        <time>2014-05-04T10:16:52.000Z</time>
      </trkpt>
      <trkpt lat="44.31525" lon="5.41927">
        <ele>1151.5999755859</ele>
        <time>2014-05-04T10:16:57.000Z</time>
      </trkpt>
      <trkpt lat="44.31525" lon="5.41939">
        <ele>1149.4000244141</ele>
        <time>2014-05-04T10:17:01.000Z</time>
      </trkpt>
      <trkpt lat="44.31525" lon="5.41943">
        <ele>1148.5999755859</ele>
        <time>2014-05-04T10:17:04.000Z</time>
      </trkpt>
      <trkpt lat="44.31521" lon="5.41958">
        <ele>1146.4000244141</ele>
        <time>2014-05-04T10:17:14.000Z</time>
      </trkpt>
      <trkpt lat="44.31513" lon="5.41968">
        <ele>1143.4000244141</ele>
        <time>2014-05-04T10:17:29.000Z</time>
      </trkpt>
      <trkpt lat="44.31508" lon="5.41967">
        <ele>1141.1999511719</ele>
        <time>2014-05-04T10:17:47.000Z</time>
      </trkpt>
      <trkpt lat="44.31504" lon="5.41969">
        <ele>1139</ele>
        <time>2014-05-04T10:17:56.000Z</time>
      </trkpt>
      <trkpt lat="44.31499" lon="5.41982">
        <ele>1135.5999755859</ele>
        <time>2014-05-04T10:18:11.000Z</time>
      </trkpt>
      <trkpt lat="44.315" lon="5.41966">
        <ele>1133.4000244141</ele>
        <time>2014-05-04T10:18:27.000Z</time>
      </trkpt>
      <trkpt lat="44.31499" lon="5.41954">
        <ele>1130.4000244141</ele>
        <time>2014-05-04T10:18:47.000Z</time>
      </trkpt>
      <trkpt lat="44.31496" lon="5.41937">
        <ele>1127.1999511719</ele>
        <time>2014-05-04T10:19:02.000Z</time>
      </trkpt>
      <trkpt lat="44.31494" lon="5.41928">
        <ele>1124</ele>
        <time>2014-05-04T10:19:14.000Z</time>
      </trkpt>
      <trkpt lat="44.31492" lon="5.41917">
        <ele>1121.5999755859</ele>
        <time>2014-05-04T10:19:29.000Z</time>
      </trkpt>
      <trkpt lat="44.31487" lon="5.41903">
        <ele>1118.5999755859</ele>
        <time>2014-05-04T10:19:44.000Z</time>
      </trkpt>
      <trkpt lat="44.31484" lon="5.41898">
        <ele>1117.1999511719</ele>
        <time>2014-05-04T10:19:49.000Z</time>
      </trkpt>
      <trkpt lat="44.31474" lon="5.41892">
        <ele>1114</ele>
        <time>2014-05-04T10:19:56.000Z</time>
      </trkpt>
      <trkpt lat="44.31469" lon="5.4189">
        <ele>1111</ele>
        <time>2014-05-04T10:20:01.000Z</time>
      </trkpt>
      <trkpt lat="44.31468" lon="5.4189">
        <ele>1110.4000244141</ele>
        <time>2014-05-04T10:20:03.000Z</time>
      </trkpt>
      <trkpt lat="44.31467" lon="5.41888">
        <ele>1110</ele>
        <time>2014-05-04T10:20:12.000Z</time>
      </trkpt>
      <trkpt lat="44.31464" lon="5.41885">
        <ele>1108.4000244141</ele>
        <time>2014-05-04T10:20:16.000Z</time>
      </trkpt>
      <trkpt lat="44.31456" lon="5.41871">
        <ele>1106.5999755859</ele>
        <time>2014-05-04T10:20:29.000Z</time>
      </trkpt>
      <trkpt lat="44.31443" lon="5.41853">
        <ele>1102.8000488281</ele>
        <time>2014-05-04T10:20:37.000Z</time>
      </trkpt>
      <trkpt lat="44.31436" lon="5.41841">
        <ele>1099.5999755859</ele>
        <time>2014-05-04T10:20:43.000Z</time>
      </trkpt>
      <trkpt lat="44.31435" lon="5.41842">
        <ele>1099.4000244141</ele>
        <time>2014-05-04T10:20:44.000Z</time>
      </trkpt>
      <trkpt lat="44.31429" lon="5.4184">
        <ele>1096.1999511719</ele>
        <time>2014-05-04T10:20:49.000Z</time>
      </trkpt>
      <trkpt lat="44.31423" lon="5.41832">
        <ele>1093</ele>
        <time>2014-05-04T10:20:56.000Z</time>
      </trkpt>
      <trkpt lat="44.31418" lon="5.41829">
        <ele>1090.1999511719</ele>
        <time>2014-05-04T10:21:03.000Z</time>
      </trkpt>
      <trkpt lat="44.31407" lon="5.41818">
        <ele>1087</ele>
        <time>2014-05-04T10:21:09.000Z</time>
      </trkpt>
      <trkpt lat="44.31393" lon="5.418">
        <ele>1083.8000488281</ele>
        <time>2014-05-04T10:21:15.000Z</time>
      </trkpt>
      <trkpt lat="44.31391" lon="5.41796">
        <ele>1082.4000244141</ele>
        <time>2014-05-04T10:21:17.000Z</time>
      </trkpt>
      <trkpt lat="44.31383" lon="5.41791">
        <ele>1078.5999755859</ele>
        <time>2014-05-04T10:21:22.000Z</time>
      </trkpt>
      <trkpt lat="44.3138" lon="5.4179">
        <ele>1077.4000244141</ele>
        <time>2014-05-04T10:21:24.000Z</time>
      </trkpt>
      <trkpt lat="44.31374" lon="5.41782">
        <ele>1073.5999755859</ele>
        <time>2014-05-04T10:21:30.000Z</time>
      </trkpt>
      <trkpt lat="44.31368" lon="5.41777">
        <ele>1072.1999511719</ele>
        <time>2014-05-04T10:21:32.000Z</time>
      </trkpt>
      <trkpt lat="44.31357" lon="5.41764">
        <ele>1068</ele>
        <time>2014-05-04T10:21:37.000Z</time>
      </trkpt>
      <trkpt lat="44.31351" lon="5.41745">
        <ele>1064.5999755859</ele>
        <time>2014-05-04T10:21:41.000Z</time>
      </trkpt>
      <trkpt lat="44.31343" lon="5.41729">
        <ele>1061.1999511719</ele>
        <time>2014-05-04T10:21:46.000Z</time>
      </trkpt>
      <trkpt lat="44.31341" lon="5.41724">
        <ele>1060.1999511719</ele>
        <time>2014-05-04T10:21:47.000Z</time>
      </trkpt>
      <trkpt lat="44.31333" lon="5.41716">
        <ele>1055.8000488281</ele>
        <time>2014-05-04T10:21:51.000Z</time>
      </trkpt>
      <trkpt lat="44.31331" lon="5.41714">
        <ele>1054.5999755859</ele>
        <time>2014-05-04T10:21:52.000Z</time>
      </trkpt>
      <trkpt lat="44.31322" lon="5.41706">
        <ele>1050.8000488281</ele>
        <time>2014-05-04T10:21:56.000Z</time>
      </trkpt>
      <trkpt lat="44.31316" lon="5.41701">
        <ele>1047.1999511719</ele>
        <time>2014-05-04T10:21:59.000Z</time>
      </trkpt>
      <trkpt lat="44.31306" lon="5.41694">
        <ele>1044</ele>
        <time>2014-05-04T10:22:03.000Z</time>
      </trkpt>
      <trkpt lat="44.31297" lon="5.41688">
        <ele>1040.8000488281</ele>
        <time>2014-05-04T10:22:06.000Z</time>
      </trkpt>
      <trkpt lat="44.3129" lon="5.41679">
        <ele>1038.1999511719</ele>
        <time>2014-05-04T10:22:09.000Z</time>
      </trkpt>
      <trkpt lat="44.31276" lon="5.41678">
        <ele>1033.1999511719</ele>
        <time>2014-05-04T10:22:14.000Z</time>
      </trkpt>
      <trkpt lat="44.31266" lon="5.41678">
        <ele>1029.4000244141</ele>
        <time>2014-05-04T10:22:17.000Z</time>
      </trkpt>
      <trkpt lat="44.31255" lon="5.41672">
        <ele>1026</ele>
        <time>2014-05-04T10:22:20.000Z</time>
      </trkpt>
      <trkpt lat="44.31249" lon="5.41668">
        <ele>1024.4000244141</ele>
        <time>2014-05-04T10:22:22.000Z</time>
      </trkpt>
      <trkpt lat="44.31239" lon="5.41669">
        <ele>1018.4000244141</ele>
        <time>2014-05-04T10:22:26.000Z</time>
      </trkpt>
      <trkpt lat="44.31233" lon="5.41668">
        <ele>1015.5999755859</ele>
        <time>2014-05-04T10:22:28.000Z</time>
      </trkpt>
      <trkpt lat="44.31214" lon="5.41667">
        <ele>1011</ele>
        <time>2014-05-04T10:22:33.000Z</time>
      </trkpt>
      <trkpt lat="44.31204" lon="5.41666">
        <ele>1008.5999755859</ele>
        <time>2014-05-04T10:22:36.000Z</time>
      </trkpt>
      <trkpt lat="44.31194" lon="5.41657">
        <ele>1006.5999755859</ele>
        <time>2014-05-04T10:22:39.000Z</time>
      </trkpt>
      <trkpt lat="44.31181" lon="5.41642">
        <ele>1004.5999755859</ele>
        <time>2014-05-04T10:22:44.000Z</time>
      </trkpt>
      <trkpt lat="44.31163" lon="5.41617">
        <ele>1007.4000244141</ele>
        <time>2014-05-04T10:22:52.000Z</time>
      </trkpt>
      <trkpt lat="44.31157" lon="5.41608">
        <ele>1007.5999755859</ele>
        <time>2014-05-04T10:22:55.000Z</time>
      </trkpt>
      <trkpt lat="44.31132" lon="5.41601">
        <ele>1007.5999755859</ele>
        <time>2014-05-04T10:23:03.000Z</time>
      </trkpt>
      <trkpt lat="44.31106" lon="5.41608">
        <ele>1005</ele>
        <time>2014-05-04T10:23:11.000Z</time>
      </trkpt>
      <trkpt lat="44.31099" lon="5.41608">
        <ele>1004.4000244141</ele>
        <time>2014-05-04T10:23:13.000Z</time>
      </trkpt>
      <trkpt lat="44.31083" lon="5.41628">
        <ele>1003.5999755859</ele>
        <time>2014-05-04T10:23:20.000Z</time>
      </trkpt>
      <trkpt lat="44.31083" lon="5.41638">
        <ele>1002.799987793</ele>
        <time>2014-05-04T10:23:22.000Z</time>
      </trkpt>
      <trkpt lat="44.31081" lon="5.41666">
        <ele>1000.799987793</ele>
        <time>2014-05-04T10:23:27.000Z</time>
      </trkpt>
      <trkpt lat="44.31072" lon="5.41696">
        <ele>997.40002441406</ele>
        <time>2014-05-04T10:23:32.000Z</time>
      </trkpt>
      <trkpt lat="44.31064" lon="5.41703">
        <ele>995.59997558594</ele>
        <time>2014-05-04T10:23:34.000Z</time>
      </trkpt>
      <trkpt lat="44.31046" lon="5.41707">
        <ele>991.59997558594</ele>
        <time>2014-05-04T10:23:38.000Z</time>
      </trkpt>
      <trkpt lat="44.31036" lon="5.41712">
        <ele>987.40002441406</ele>
        <time>2014-05-04T10:23:42.000Z</time>
      </trkpt>
      <trkpt lat="44.31031" lon="5.4171">
        <ele>985.40002441406</ele>
        <time>2014-05-04T10:23:46.000Z</time>
      </trkpt>
      <trkpt lat="44.31024" lon="5.41713">
        <ele>982.79998779297</ele>
        <time>2014-05-04T10:23:52.000Z</time>
      </trkpt>
      <trkpt lat="44.31021" lon="5.41714">
        <ele>981.20001220703</ele>
        <time>2014-05-04T10:23:55.000Z</time>
      </trkpt>
      <trkpt lat="44.3102" lon="5.41719">
        <ele>980.40002441406</ele>
        <time>2014-05-04T10:23:57.000Z</time>
      </trkpt>
      <trkpt lat="44.31013" lon="5.41718">
        <ele>977.79998779297</ele>
        <time>2014-05-04T10:24:01.000Z</time>
      </trkpt>
      <trkpt lat="44.31008" lon="5.41721">
        <ele>975.40002441406</ele>
        <time>2014-05-04T10:24:06.000Z</time>
      </trkpt>
      <trkpt lat="44.31006" lon="5.41729">
        <ele>972.20001220703</ele>
        <time>2014-05-04T10:24:09.000Z</time>
      </trkpt>
      <trkpt lat="44.31004" lon="5.41731">
        <ele>971.59997558594</ele>
        <time>2014-05-04T10:24:10.000Z</time>
      </trkpt>
      <trkpt lat="44.30995" lon="5.41734">
        <ele>968.20001220703</ele>
        <time>2014-05-04T10:24:15.000Z</time>
      </trkpt>
      <trkpt lat="44.30986" lon="5.41746">
        <ele>964.59997558594</ele>
        <time>2014-05-04T10:24:20.000Z</time>
      </trkpt>
      <trkpt lat="44.30985" lon="5.41749">
        <ele>963.79998779297</ele>
        <time>2014-05-04T10:24:21.000Z</time>
      </trkpt>
      <trkpt lat="44.30976" lon="5.41752">
        <ele>961.40002441406</ele>
        <time>2014-05-04T10:24:24.000Z</time>
      </trkpt>
      <trkpt lat="44.3097" lon="5.41761">
        <ele>957</ele>
        <time>2014-05-04T10:24:27.000Z</time>
      </trkpt>
      <trkpt lat="44.30955" lon="5.41774">
        <ele>953.59997558594</ele>
        <time>2014-05-04T10:24:32.000Z</time>
      </trkpt>
      <trkpt lat="44.30949" lon="5.41773">
        <ele>951.79998779297</ele>
        <time>2014-05-04T10:24:35.000Z</time>
      </trkpt>
      <trkpt lat="44.30943" lon="5.4177">
        <ele>950.20001220703</ele>
        <time>2014-05-04T10:24:38.000Z</time>
      </trkpt>
      <trkpt lat="44.30938" lon="5.41752">
        <ele>946</ele>
        <time>2014-05-04T10:24:43.000Z</time>
      </trkpt>
      <trkpt lat="44.30934" lon="5.41734">
        <ele>940.79998779297</ele>
        <time>2014-05-04T10:24:47.000Z</time>
      </trkpt>
      <trkpt lat="44.30932" lon="5.41734">
        <ele>940</ele>
        <time>2014-05-04T10:24:49.000Z</time>
      </trkpt>
      <trkpt lat="44.30928" lon="5.4174">
        <ele>938.59997558594</ele>
        <time>2014-05-04T10:24:51.000Z</time>
      </trkpt>
      <trkpt lat="44.3092" lon="5.4175">
        <ele>936.40002441406</ele>
        <time>2014-05-04T10:24:54.000Z</time>
      </trkpt>
      <trkpt lat="44.30918" lon="5.41752">
        <ele>935.79998779297</ele>
        <time>2014-05-04T10:24:55.000Z</time>
      </trkpt>
      <trkpt lat="44.30909" lon="5.41764">
        <ele>932</ele>
        <time>2014-05-04T10:25:00.000Z</time>
      </trkpt>
      <trkpt lat="44.30906" lon="5.41769">
        <ele>931.20001220703</ele>
        <time>2014-05-04T10:25:03.000Z</time>
      </trkpt>
      <trkpt lat="44.30902" lon="5.41776">
        <ele>929.20001220703</ele>
        <time>2014-05-04T10:25:07.000Z</time>
      </trkpt>
      <trkpt lat="44.30895" lon="5.41772">
        <ele>925.20001220703</ele>
        <time>2014-05-04T10:25:13.000Z</time>
      </trkpt>
      <trkpt lat="44.30888" lon="5.41783">
        <ele>922.20001220703</ele>
        <time>2014-05-04T10:25:17.000Z</time>
      </trkpt>
      <trkpt lat="44.30881" lon="5.41794">
        <ele>918.20001220703</ele>
        <time>2014-05-04T10:25:20.000Z</time>
      </trkpt>
      <trkpt lat="44.30876" lon="5.41803">
        <ele>915.40002441406</ele>
        <time>2014-05-04T10:25:23.000Z</time>
      </trkpt>
      <trkpt lat="44.30862" lon="5.41821">
        <ele>911.79998779297</ele>
        <time>2014-05-04T10:25:30.000Z</time>
      </trkpt>
      <trkpt lat="44.30858" lon="5.41829">
        <ele>909.59997558594</ele>
        <time>2014-05-04T10:25:32.000Z</time>
      </trkpt>
      <trkpt lat="44.30856" lon="5.41845">
        <ele>907.20001220703</ele>
        <time>2014-05-04T10:25:36.000Z</time>
      </trkpt>
      <trkpt lat="44.30855" lon="5.41854">
        <ele>905.40002441406</ele>
        <time>2014-05-04T10:25:40.000Z</time>
      </trkpt>
      <trkpt lat="44.30855" lon="5.41867">
        <ele>902.20001220703</ele>
        <time>2014-05-04T10:25:46.000Z</time>
      </trkpt>
      <trkpt lat="44.30855" lon="5.4187">
        <ele>901.40002441406</ele>
        <time>2014-05-04T10:25:48.000Z</time>
      </trkpt>
      <trkpt lat="44.30846" lon="5.41894">
        <ele>897</ele>
        <time>2014-05-04T10:25:55.000Z</time>
      </trkpt>
      <trkpt lat="44.30844" lon="5.419">
        <ele>895.40002441406</ele>
        <time>2014-05-04T10:25:57.000Z</time>
      </trkpt>
      <trkpt lat="44.30843" lon="5.41903">
        <ele>893.40002441406</ele>
        <time>2014-05-04T10:26:00.000Z</time>
      </trkpt>
      <trkpt lat="44.30839" lon="5.41912">
        <ele>890</ele>
        <time>2014-05-04T10:26:10.000Z</time>
      </trkpt>
      <trkpt lat="44.30839" lon="5.41912">
        <ele>889.59997558594</ele>
        <time>2014-05-04T10:26:12.000Z</time>
      </trkpt>
      <trkpt lat="44.30834" lon="5.41928">
        <ele>886.20001220703</ele>
        <time>2014-05-04T10:26:18.000Z</time>
      </trkpt>
      <trkpt lat="44.30833" lon="5.41933">
        <ele>884.40002441406</ele>
        <time>2014-05-04T10:26:20.000Z</time>
      </trkpt>
      <trkpt lat="44.30827" lon="5.41945">
        <ele>879.20001220703</ele>
        <time>2014-05-04T10:26:25.000Z</time>
      </trkpt>
      <trkpt lat="44.30821" lon="5.41961">
        <ele>875.59997558594</ele>
        <time>2014-05-04T10:26:30.000Z</time>
      </trkpt>
      <trkpt lat="44.30817" lon="5.41976">
        <ele>872.20001220703</ele>
        <time>2014-05-04T10:26:33.000Z</time>
      </trkpt>
      <trkpt lat="44.30813" lon="5.41985">
        <ele>869.59997558594</ele>
        <time>2014-05-04T10:26:35.000Z</time>
      </trkpt>
      <trkpt lat="44.30804" lon="5.4201">
        <ele>863.40002441406</ele>
        <time>2014-05-04T10:26:39.000Z</time>
      </trkpt>
      <trkpt lat="44.30798" lon="5.42026">
        <ele>860</ele>
        <time>2014-05-04T10:26:42.000Z</time>
      </trkpt>
      <trkpt lat="44.30795" lon="5.42035">
        <ele>857.59997558594</ele>
        <time>2014-05-04T10:26:44.000Z</time>
      </trkpt>
      <trkpt lat="44.30789" lon="5.42055">
        <ele>853</ele>
        <time>2014-05-04T10:26:47.000Z</time>
      </trkpt>
      <trkpt lat="44.30781" lon="5.42079">
        <ele>847.40002441406</ele>
        <time>2014-05-04T10:26:50.000Z</time>
      </trkpt>
      <trkpt lat="44.30778" lon="5.42085">
        <ele>846.59997558594</ele>
        <time>2014-05-04T10:26:51.000Z</time>
      </trkpt>
      <trkpt lat="44.30769" lon="5.42114">
        <ele>839.79998779297</ele>
        <time>2014-05-04T10:26:55.000Z</time>
      </trkpt>
      <trkpt lat="44.30758" lon="5.42143">
        <ele>833.79998779297</ele>
        <time>2014-05-04T10:26:59.000Z</time>
      </trkpt>
      <trkpt lat="44.30754" lon="5.42158">
        <ele>830.79998779297</ele>
        <time>2014-05-04T10:27:02.000Z</time>
      </trkpt>
      <trkpt lat="44.30752" lon="5.42177">
        <ele>827.40002441406</ele>
        <time>2014-05-04T10:27:06.000Z</time>
      </trkpt>
      <trkpt lat="44.30751" lon="5.42184">
        <ele>825.59997558594</ele>
        <time>2014-05-04T10:27:07.000Z</time>
      </trkpt>
      <trkpt lat="44.30746" lon="5.42204">
        <ele>820.40002441406</ele>
        <time>2014-05-04T10:27:10.000Z</time>
      </trkpt>
      <trkpt lat="44.30742" lon="5.42216">
        <ele>817</ele>
        <time>2014-05-04T10:27:12.000Z</time>
      </trkpt>
      <trkpt lat="44.3074" lon="5.42223">
        <ele>815.59997558594</ele>
        <time>2014-05-04T10:27:13.000Z</time>
      </trkpt>
      <trkpt lat="44.30735" lon="5.42234">
        <ele>813.40002441406</ele>
        <time>2014-05-04T10:27:15.000Z</time>
      </trkpt>
      <trkpt lat="44.30725" lon="5.4225">
        <ele>810.20001220703</ele>
        <time>2014-05-04T10:27:18.000Z</time>
      </trkpt>
      <trkpt lat="44.30712" lon="5.42276">
        <ele>806.40002441406</ele>
        <time>2014-05-04T10:27:22.000Z</time>
      </trkpt>
      <trkpt lat="44.30705" lon="5.42286">
        <ele>804.40002441406</ele>
        <time>2014-05-04T10:27:24.000Z</time>
      </trkpt>
      <trkpt lat="44.30697" lon="5.42303">
        <ele>802</ele>
        <time>2014-05-04T10:27:27.000Z</time>
      </trkpt>
      <trkpt lat="44.30682" lon="5.42331">
        <ele>797.40002441406</ele>
        <time>2014-05-04T10:27:31.000Z</time>
      </trkpt>
      <trkpt lat="44.30674" lon="5.4235">
        <ele>793.40002441406</ele>
        <time>2014-05-04T10:27:34.000Z</time>
      </trkpt>
      <trkpt lat="44.30667" lon="5.42365">
        <ele>790.40002441406</ele>
        <time>2014-05-04T10:27:36.000Z</time>
      </trkpt>
      <trkpt lat="44.30664" lon="5.42372">
        <ele>789</ele>
        <time>2014-05-04T10:27:37.000Z</time>
      </trkpt>
      <trkpt lat="44.30656" lon="5.42389">
        <ele>787.40002441406</ele>
        <time>2014-05-04T10:27:40.000Z</time>
      </trkpt>
      <trkpt lat="44.30654" lon="5.42394">
        <ele>787.20001220703</ele>
        <time>2014-05-04T10:27:41.000Z</time>
      </trkpt>
      <trkpt lat="44.30644" lon="5.42416">
        <ele>784.79998779297</ele>
        <time>2014-05-04T10:27:45.000Z</time>
      </trkpt>
      <trkpt lat="44.30632" lon="5.42438">
        <ele>780.40002441406</ele>
        <time>2014-05-04T10:27:49.000Z</time>
      </trkpt>
      <trkpt lat="44.30628" lon="5.4245">
        <ele>777.79998779297</ele>
        <time>2014-05-04T10:27:51.000Z</time>
      </trkpt>
      <trkpt lat="44.30617" lon="5.42469">
        <ele>773</ele>
        <time>2014-05-04T10:27:54.000Z</time>
      </trkpt>
      <trkpt lat="44.30613" lon="5.4248">
        <ele>768.79998779297</ele>
        <time>2014-05-04T10:27:56.000Z</time>
      </trkpt>
      <trkpt lat="44.30605" lon="5.42494">
        <ele>766.59997558594</ele>
        <time>2014-05-04T10:27:59.000Z</time>
      </trkpt>
      <trkpt lat="44.30593" lon="5.42508">
        <ele>762.40002441406</ele>
        <time>2014-05-04T10:28:03.000Z</time>
      </trkpt>
      <trkpt lat="44.30582" lon="5.4252">
        <ele>758.79998779297</ele>
        <time>2014-05-04T10:28:08.000Z</time>
      </trkpt>
      <trkpt lat="44.30569" lon="5.42533">
        <ele>754.20001220703</ele>
        <time>2014-05-04T10:28:12.000Z</time>
      </trkpt>
      <trkpt lat="44.30564" lon="5.4254">
        <ele>750.79998779297</ele>
        <time>2014-05-04T10:28:14.000Z</time>
      </trkpt>
      <trkpt lat="44.3056" lon="5.42543">
        <ele>748.20001220703</ele>
        <time>2014-05-04T10:28:18.000Z</time>
      </trkpt>
      <trkpt lat="44.30561" lon="5.42546">
        <ele>747.79998779297</ele>
        <time>2014-05-04T10:28:34.000Z</time>
      </trkpt>
      <trkpt lat="44.3055" lon="5.42552">
        <ele>746</ele>
        <time>2014-05-04T10:28:39.000Z</time>
      </trkpt>
      <trkpt lat="44.30539" lon="5.42564">
        <ele>743.20001220703</ele>
        <time>2014-05-04T10:28:43.000Z</time>
      </trkpt>
      <trkpt lat="44.30532" lon="5.42567">
        <ele>742.40002441406</ele>
        <time>2014-05-04T10:28:52.000Z</time>
      </trkpt>
      <trkpt lat="44.30526" lon="5.42564">
        <ele>742.40002441406</ele>
        <time>2014-05-04T10:29:10.000Z</time>
      </trkpt>
      <trkpt lat="44.30509" lon="5.42596">
        <ele>742.40002441406</ele>
        <time>2014-05-04T10:29:23.000Z</time>
      </trkpt>
      <trkpt lat="44.30502" lon="5.42624">
        <ele>742.40002441406</ele>
        <time>2014-05-04T10:29:30.000Z</time>
      </trkpt>
      <trkpt lat="44.30477" lon="5.42631">
        <ele>742.40002441406</ele>
        <time>2014-05-04T10:29:40.000Z</time>
      </trkpt>
      <trkpt lat="44.3045" lon="5.42651">
        <ele>742.40002441406</ele>
        <time>2014-05-04T10:29:51.000Z</time>
      </trkpt>
      <trkpt lat="44.30411" lon="5.42672">
        <ele>741.20001220703</ele>
        <time>2014-05-04T10:30:01.000Z</time>
      </trkpt>
      <trkpt lat="44.3038" lon="5.42686">
        <ele>740</ele>
        <time>2014-05-04T10:30:06.000Z</time>
      </trkpt>
      <trkpt lat="44.30335" lon="5.42699">
        <ele>739.40002441406</ele>
        <time>2014-05-04T10:30:18.000Z</time>
      </trkpt>
      <trkpt lat="44.30326" lon="5.42706">
        <ele>739.20001220703</ele>
        <time>2014-05-04T10:30:21.000Z</time>
      </trkpt>
      <trkpt lat="44.30271" lon="5.42741">
        <ele>737.20001220703</ele>
        <time>2014-05-04T10:30:34.000Z</time>
      </trkpt>
      <trkpt lat="44.30265" lon="5.4275">
        <ele>737.20001220703</ele>
        <time>2014-05-04T10:30:36.000Z</time>
      </trkpt>
      <trkpt lat="44.30256" lon="5.42766">
        <ele>737.20001220703</ele>
        <time>2014-05-04T10:30:39.000Z</time>
      </trkpt>
      <trkpt lat="44.3025" lon="5.42785">
        <ele>735.79998779297</ele>
        <time>2014-05-04T10:30:42.000Z</time>
      </trkpt>
      <trkpt lat="44.30248" lon="5.42792">
        <ele>735.59997558594</ele>
        <time>2014-05-04T10:30:43.000Z</time>
      </trkpt>
      <trkpt lat="44.3024" lon="5.42815">
        <ele>734.79998779297</ele>
        <time>2014-05-04T10:30:46.000Z</time>
      </trkpt>
      <trkpt lat="44.3022" lon="5.42822">
        <ele>730.79998779297</ele>
        <time>2014-05-04T10:30:53.000Z</time>
      </trkpt>
      <trkpt lat="44.30205" lon="5.42796">
        <ele>727.20001220703</ele>
        <time>2014-05-04T10:30:58.000Z</time>
      </trkpt>
      <trkpt lat="44.30196" lon="5.42791">
        <ele>726.79998779297</ele>
        <time>2014-05-04T10:31:01.000Z</time>
      </trkpt>
      <trkpt lat="44.30179" lon="5.42785">
        <ele>726.20001220703</ele>
        <time>2014-05-04T10:31:06.000Z</time>
      </trkpt>
      <trkpt lat="44.30151" lon="5.42766">
        <ele>722.40002441406</ele>
        <time>2014-05-04T10:31:11.000Z</time>
      </trkpt>
      <trkpt lat="44.30099" lon="5.42734">
        <ele>717</ele>
        <time>2014-05-04T10:31:17.000Z</time>
      </trkpt>
      <trkpt lat="44.30043" lon="5.42689">
        <ele>713.40002441406</ele>
        <time>2014-05-04T10:31:24.000Z</time>
      </trkpt>
      <trkpt lat="44.30023" lon="5.42676">
        <ele>709.59997558594</ele>
        <time>2014-05-04T10:31:26.000Z</time>
      </trkpt>
      <trkpt lat="44.30003" lon="5.42662">
        <ele>706.59997558594</ele>
        <time>2014-05-04T10:31:28.000Z</time>
      </trkpt>
      <trkpt lat="44.2998" lon="5.42646">
        <ele>701.20001220703</ele>
        <time>2014-05-04T10:31:30.000Z</time>
      </trkpt>
      <trkpt lat="44.29956" lon="5.42627">
        <ele>697.40002441406</ele>
        <time>2014-05-04T10:31:32.000Z</time>
      </trkpt>
      <trkpt lat="44.29932" lon="5.42609">
        <ele>692.20001220703</ele>
        <time>2014-05-04T10:31:34.000Z</time>
      </trkpt>
      <trkpt lat="44.29861" lon="5.42573">
        <ele>686.20001220703</ele>
        <time>2014-05-04T10:31:40.000Z</time>
      </trkpt>
      <trkpt lat="44.29829" lon="5.42556">
        <ele>682.40002441406</ele>
        <time>2014-05-04T10:31:43.000Z</time>
      </trkpt>
      <trkpt lat="44.29797" lon="5.42542">
        <ele>680.59997558594</ele>
        <time>2014-05-04T10:31:46.000Z</time>
      </trkpt>
      <trkpt lat="44.2974" lon="5.42515">
        <ele>678.20001220703</ele>
        <time>2014-05-04T10:31:52.000Z</time>
      </trkpt>
      <trkpt lat="44.29684" lon="5.42487">
        <ele>675.20001220703</ele>
        <time>2014-05-04T10:31:58.000Z</time>
      </trkpt>
      <trkpt lat="44.29656" lon="5.42475">
        <ele>673</ele>
        <time>2014-05-04T10:32:01.000Z</time>
      </trkpt>
      <trkpt lat="44.29586" lon="5.42431">
        <ele>671.59997558594</ele>
        <time>2014-05-04T10:32:10.000Z</time>
      </trkpt>
      <trkpt lat="44.29513" lon="5.42423">
        <ele>667.59997558594</ele>
        <time>2014-05-04T10:32:19.000Z</time>
      </trkpt>
      <trkpt lat="44.29493" lon="5.42422">
        <ele>662.79998779297</ele>
        <time>2014-05-04T10:32:21.000Z</time>
      </trkpt>
      <trkpt lat="44.29471" lon="5.42422">
        <ele>659.20001220703</ele>
        <time>2014-05-04T10:32:23.000Z</time>
      </trkpt>
      <trkpt lat="44.29448" lon="5.4242">
        <ele>655.79998779297</ele>
        <time>2014-05-04T10:32:25.000Z</time>
      </trkpt>
      <trkpt lat="44.29413" lon="5.4241">
        <ele>652.20001220703</ele>
        <time>2014-05-04T10:32:28.000Z</time>
      </trkpt>
      <trkpt lat="44.29391" lon="5.42399">
        <ele>649.20001220703</ele>
        <time>2014-05-04T10:32:30.000Z</time>
      </trkpt>
      <trkpt lat="44.29351" lon="5.42368">
        <ele>645.40002441406</ele>
        <time>2014-05-04T10:32:34.000Z</time>
      </trkpt>
      <trkpt lat="44.29312" lon="5.42321">
        <ele>644.20001220703</ele>
        <time>2014-05-04T10:32:39.000Z</time>
      </trkpt>
      <trkpt lat="44.29288" lon="5.42307">
        <ele>642.59997558594</ele>
        <time>2014-05-04T10:32:42.000Z</time>
      </trkpt>
      <trkpt lat="44.29254" lon="5.42292">
        <ele>639.20001220703</ele>
        <time>2014-05-04T10:32:46.000Z</time>
      </trkpt>
      <trkpt lat="44.29224" lon="5.42283">
        <ele>635</ele>
        <time>2014-05-04T10:32:49.000Z</time>
      </trkpt>
      <trkpt lat="44.29197" lon="5.42272">
        <ele>633.79998779297</ele>
        <time>2014-05-04T10:32:52.000Z</time>
      </trkpt>
      <trkpt lat="44.29172" lon="5.42244">
        <ele>635.59997558594</ele>
        <time>2014-05-04T10:32:57.000Z</time>
      </trkpt>
      <trkpt lat="44.29163" lon="5.42239">
        <ele>636</ele>
        <time>2014-05-04T10:32:59.000Z</time>
      </trkpt>
      <trkpt lat="44.29128" lon="5.42226">
        <ele>633.79998779297</ele>
        <time>2014-05-04T10:33:05.000Z</time>
      </trkpt>
      <trkpt lat="44.29109" lon="5.42234">
        <ele>631.59997558594</ele>
        <time>2014-05-04T10:33:09.000Z</time>
      </trkpt>
      <trkpt lat="44.29079" lon="5.42268">
        <ele>630.79998779297</ele>
        <time>2014-05-04T10:33:15.000Z</time>
      </trkpt>
      <trkpt lat="44.29063" lon="5.42292">
        <ele>628.79998779297</ele>
        <time>2014-05-04T10:33:18.000Z</time>
      </trkpt>
      <trkpt lat="44.29052" lon="5.42304">
        <ele>628</ele>
        <time>2014-05-04T10:33:20.000Z</time>
      </trkpt>
      <trkpt lat="44.29036" lon="5.42297">
        <ele>626.59997558594</ele>
        <time>2014-05-04T10:33:23.000Z</time>
      </trkpt>
      <trkpt lat="44.29001" lon="5.42261">
        <ele>623</ele>
        <time>2014-05-04T10:33:29.000Z</time>
      </trkpt>
      <trkpt lat="44.28981" lon="5.42241">
        <ele>621.59997558594</ele>
        <time>2014-05-04T10:33:32.000Z</time>
      </trkpt>
      <trkpt lat="44.28974" lon="5.42235">
        <ele>621.40002441406</ele>
        <time>2014-05-04T10:33:33.000Z</time>
      </trkpt>
      <trkpt lat="44.28949" lon="5.42226">
        <ele>619.59997558594</ele>
        <time>2014-05-04T10:33:37.000Z</time>
      </trkpt>
      <trkpt lat="44.2894" lon="5.42227">
        <ele>619.40002441406</ele>
        <time>2014-05-04T10:33:44.000Z</time>
      </trkpt>
      <trkpt lat="44.28931" lon="5.42224">
        <ele>619.40002441406</ele>
        <time>2014-05-04T10:33:48.000Z</time>
      </trkpt>
      <trkpt lat="44.28924" lon="5.4222">
        <ele>619.40002441406</ele>
        <time>2014-05-04T10:33:50.000Z</time>
      </trkpt>
      <trkpt lat="44.28916" lon="5.42216">
        <ele>619.40002441406</ele>
        <time>2014-05-04T10:33:52.000Z</time>
      </trkpt>
      <trkpt lat="44.28915" lon="5.42198">
        <ele>618.40002441406</ele>
        <time>2014-05-04T10:33:56.000Z</time>
      </trkpt>
      <trkpt lat="44.28935" lon="5.42168">
        <ele>614.40002441406</ele>
        <time>2014-05-04T10:34:00.000Z</time>
      </trkpt>
      <trkpt lat="44.2894" lon="5.42159">
        <ele>613.79998779297</ele>
        <time>2014-05-04T10:34:01.000Z</time>
      </trkpt>
      <trkpt lat="44.28954" lon="5.42128">
        <ele>613</ele>
        <time>2014-05-04T10:34:04.000Z</time>
      </trkpt>
      <trkpt lat="44.28968" lon="5.42087">
        <ele>611.40002441406</ele>
        <time>2014-05-04T10:34:08.000Z</time>
      </trkpt>
      <trkpt lat="44.28995" lon="5.42025">
        <ele>611</ele>
        <time>2014-05-04T10:34:16.000Z</time>
      </trkpt>
      <trkpt lat="44.2899" lon="5.42016">
        <ele>611</ele>
        <time>2014-05-04T10:34:27.000Z</time>
      </trkpt>
      <trkpt lat="44.28989" lon="5.42016">
        <ele>611</ele>
        <time>2014-05-04T10:34:48.000Z</time>
      </trkpt>
      <trkpt lat="44.28989" lon="5.42014">
        <ele>611</ele>
        <time>2014-05-04T10:34:52.000Z</time>
      </trkpt>
      <trkpt lat="44.28987" lon="5.42003">
        <ele>612.79998779297</ele>
        <time>2014-05-04T10:34:57.000Z</time>
      </trkpt>
      <trkpt lat="44.2898" lon="5.41975">
        <ele>614.79998779297</ele>
        <time>2014-05-04T10:35:09.000Z</time>
      </trkpt>
      <trkpt lat="44.28976" lon="5.41961">
        <ele>615.79998779297</ele>
        <time>2014-05-04T10:35:16.000Z</time>
      </trkpt>
      <trkpt lat="44.2897" lon="5.41936">
        <ele>618</ele>
        <time>2014-05-04T10:35:30.000Z</time>
      </trkpt>
      <trkpt lat="44.28958" lon="5.41909">
        <ele>620.59997558594</ele>
        <time>2014-05-04T10:35:44.000Z</time>
      </trkpt>
      <trkpt lat="44.2895" lon="5.41882">
        <ele>622.40002441406</ele>
        <time>2014-05-04T10:35:57.000Z</time>
      </trkpt>
      <trkpt lat="44.28942" lon="5.41858">
        <ele>625.40002441406</ele>
        <time>2014-05-04T10:36:10.000Z</time>
      </trkpt>
      <trkpt lat="44.2894" lon="5.41855">
        <ele>625.59997558594</ele>
        <time>2014-05-04T10:36:12.000Z</time>
      </trkpt>
      <trkpt lat="44.28936" lon="5.41847">
        <ele>627.20001220703</ele>
        <time>2014-05-04T10:36:17.000Z</time>
      </trkpt>
      <trkpt lat="44.28927" lon="5.41819">
        <ele>630.40002441406</ele>
        <time>2014-05-04T10:36:33.000Z</time>
      </trkpt>
      <trkpt lat="44.28924" lon="5.41814">
        <ele>631.20001220703</ele>
        <time>2014-05-04T10:36:37.000Z</time>
      </trkpt>
      <trkpt lat="44.28916" lon="5.41786">
        <ele>634</ele>
        <time>2014-05-04T10:36:51.000Z</time>
      </trkpt>
      <trkpt lat="44.28916" lon="5.41784">
        <ele>634.20001220703</ele>
        <time>2014-05-04T10:36:52.000Z</time>
      </trkpt>
      <trkpt lat="44.28914" lon="5.41772">
        <ele>636.20001220703</ele>
        <time>2014-05-04T10:36:59.000Z</time>
      </trkpt>
      <trkpt lat="44.28905" lon="5.41749">
        <ele>639.20001220703</ele>
        <time>2014-05-04T10:37:11.000Z</time>
      </trkpt>
      <trkpt lat="44.28904" lon="5.41746">
        <ele>640</ele>
        <time>2014-05-04T10:37:13.000Z</time>
      </trkpt>
      <trkpt lat="44.289" lon="5.41733">
        <ele>642</ele>
        <time>2014-05-04T10:37:22.000Z</time>
      </trkpt>
      <trkpt lat="44.28899" lon="5.41726">
        <ele>643</ele>
        <time>2014-05-04T10:37:26.000Z</time>
      </trkpt>
      <trkpt lat="44.28897" lon="5.41721">
        <ele>643.79998779297</ele>
        <time>2014-05-04T10:37:30.000Z</time>
      </trkpt>
      <trkpt lat="44.28895" lon="5.41715">
        <ele>644.79998779297</ele>
        <time>2014-05-04T10:37:35.000Z</time>
      </trkpt>
      <trkpt lat="44.28901" lon="5.41706">
        <ele>646.20001220703</ele>
        <time>2014-05-04T10:37:40.000Z</time>
      </trkpt>
      <trkpt lat="44.28917" lon="5.41688">
        <ele>642.79998779297</ele>
        <time>2014-05-04T10:37:45.000Z</time>
      </trkpt>
      <trkpt lat="44.28928" lon="5.4166">
        <ele>638.59997558594</ele>
        <time>2014-05-04T10:37:50.000Z</time>
      </trkpt>
      <trkpt lat="44.28929" lon="5.41655">
        <ele>637.79998779297</ele>
        <time>2014-05-04T10:37:51.000Z</time>
      </trkpt>
      <trkpt lat="44.2894" lon="5.41634">
        <ele>634</ele>
        <time>2014-05-04T10:37:56.000Z</time>
      </trkpt>
      <trkpt lat="44.28945" lon="5.41626">
        <ele>632.20001220703</ele>
        <time>2014-05-04T10:37:58.000Z</time>
      </trkpt>
      <trkpt lat="44.28955" lon="5.41602">
        <ele>628.20001220703</ele>
        <time>2014-05-04T10:38:02.000Z</time>
      </trkpt>
      <trkpt lat="44.28966" lon="5.41578">
        <ele>623.59997558594</ele>
        <time>2014-05-04T10:38:05.000Z</time>
      </trkpt>
      <trkpt lat="44.28978" lon="5.41552">
        <ele>619</ele>
        <time>2014-05-04T10:38:08.000Z</time>
      </trkpt>
      <trkpt lat="44.28988" lon="5.41527">
        <ele>616.59997558594</ele>
        <time>2014-05-04T10:38:11.000Z</time>
      </trkpt>
      <trkpt lat="44.29004" lon="5.41498">
        <ele>612</ele>
        <time>2014-05-04T10:38:16.000Z</time>
      </trkpt>
      <trkpt lat="44.29011" lon="5.41487">
        <ele>611</ele>
        <time>2014-05-04T10:38:18.000Z</time>
      </trkpt>
      <trkpt lat="44.29014" lon="5.41481">
        <ele>610.79998779297</ele>
        <time>2014-05-04T10:38:19.000Z</time>
      </trkpt>
      <trkpt lat="44.29031" lon="5.41459">
        <ele>606.40002441406</ele>
        <time>2014-05-04T10:38:23.000Z</time>
      </trkpt>
      <trkpt lat="44.29038" lon="5.41448">
        <ele>605</ele>
        <time>2014-05-04T10:38:26.000Z</time>
      </trkpt>
      <trkpt lat="44.29039" lon="5.4144">
        <ele>606.20001220703</ele>
        <time>2014-05-04T10:38:28.000Z</time>
      </trkpt>
      <trkpt lat="44.29039" lon="5.41405">
        <ele>607</ele>
        <time>2014-05-04T10:38:39.000Z</time>
      </trkpt>
      <trkpt lat="44.29037" lon="5.41398">
        <ele>608.59997558594</ele>
        <time>2014-05-04T10:38:44.000Z</time>
      </trkpt>
      <trkpt lat="44.29032" lon="5.41397">
        <ele>610</ele>
        <time>2014-05-04T10:38:50.000Z</time>
      </trkpt>
      <trkpt lat="44.29019" lon="5.41399">
        <ele>612.40002441406</ele>
        <time>2014-05-04T10:39:04.000Z</time>
      </trkpt>
      <trkpt lat="44.29011" lon="5.4139">
        <ele>615.40002441406</ele>
        <time>2014-05-04T10:39:18.000Z</time>
      </trkpt>
      <trkpt lat="44.28999" lon="5.41388">
        <ele>618.59997558594</ele>
        <time>2014-05-04T10:39:36.000Z</time>
      </trkpt>
      <trkpt lat="44.28991" lon="5.41382">
        <ele>621.59997558594</ele>
        <time>2014-05-04T10:39:51.000Z</time>
      </trkpt>
      <trkpt lat="44.28995" lon="5.41376">
        <ele>623.20001220703</ele>
        <time>2014-05-04T10:40:01.000Z</time>
      </trkpt>
      <trkpt lat="44.29004" lon="5.41356">
        <ele>623.79998779297</ele>
        <time>2014-05-04T10:40:12.000Z</time>
      </trkpt>
      <trkpt lat="44.29006" lon="5.41354">
        <ele>624.20001220703</ele>
        <time>2014-05-04T10:40:14.000Z</time>
      </trkpt>
      <trkpt lat="44.29008" lon="5.4135">
        <ele>625</ele>
        <time>2014-05-04T10:40:17.000Z</time>
      </trkpt>
      <trkpt lat="44.29009" lon="5.41336">
        <ele>627.79998779297</ele>
        <time>2014-05-04T10:40:25.000Z</time>
      </trkpt>
      <trkpt lat="44.2901" lon="5.41334">
        <ele>628.20001220703</ele>
        <time>2014-05-04T10:40:26.000Z</time>
      </trkpt>
      <trkpt lat="44.29021" lon="5.41314">
        <ele>631.59997558594</ele>
        <time>2014-05-04T10:40:40.000Z</time>
      </trkpt>
      <trkpt lat="44.29032" lon="5.41294">
        <ele>634.59997558594</ele>
        <time>2014-05-04T10:40:55.000Z</time>
      </trkpt>
      <trkpt lat="44.29036" lon="5.41276">
        <ele>637.59997558594</ele>
        <time>2014-05-04T10:41:05.000Z</time>
      </trkpt>
      <trkpt lat="44.29041" lon="5.41257">
        <ele>639.79998779297</ele>
        <time>2014-05-04T10:41:15.000Z</time>
      </trkpt>
      <trkpt lat="44.29043" lon="5.4123">
        <ele>642.20001220703</ele>
        <time>2014-05-04T10:41:29.000Z</time>
      </trkpt>
      <trkpt lat="44.29047" lon="5.41198">
        <ele>642.59997558594</ele>
        <time>2014-05-04T10:41:40.000Z</time>
      </trkpt>
      <trkpt lat="44.29055" lon="5.41155">
        <ele>643</ele>
        <time>2014-05-04T10:41:51.000Z</time>
      </trkpt>
      <trkpt lat="44.29066" lon="5.41119">
        <ele>643.79998779297</ele>
        <time>2014-05-04T10:41:57.000Z</time>
      </trkpt>
      <trkpt lat="44.29072" lon="5.41103">
        <ele>643.79998779297</ele>
        <time>2014-05-04T10:41:59.000Z</time>
      </trkpt>
      <trkpt lat="44.2908" lon="5.41079">
        <ele>643.79998779297</ele>
        <time>2014-05-04T10:42:02.000Z</time>
      </trkpt>
      <trkpt lat="44.29086" lon="5.41046">
        <ele>643.79998779297</ele>
        <time>2014-05-04T10:42:06.000Z</time>
      </trkpt>
      <trkpt lat="44.29096" lon="5.4101">
        <ele>644.20001220703</ele>
        <time>2014-05-04T10:42:11.000Z</time>
      </trkpt>
      <trkpt lat="44.291" lon="5.40997">
        <ele>645</ele>
        <time>2014-05-04T10:42:13.000Z</time>
      </trkpt>
      <trkpt lat="44.29112" lon="5.40968">
        <ele>646.40002441406</ele>
        <time>2014-05-04T10:42:17.000Z</time>
      </trkpt>
      <trkpt lat="44.2912" lon="5.40944">
        <ele>644.40002441406</ele>
        <time>2014-05-04T10:42:20.000Z</time>
      </trkpt>
      <trkpt lat="44.29126" lon="5.40917">
        <ele>644</ele>
        <time>2014-05-04T10:42:24.000Z</time>
      </trkpt>
      <trkpt lat="44.29128" lon="5.40902">
        <ele>644</ele>
        <time>2014-05-04T10:42:27.000Z</time>
      </trkpt>
      <trkpt lat="44.29128" lon="5.4088">
        <ele>642.59997558594</ele>
        <time>2014-05-04T10:42:30.000Z</time>
      </trkpt>
      <trkpt lat="44.29138" lon="5.40847">
        <ele>640.59997558594</ele>
        <time>2014-05-04T10:42:35.000Z</time>
      </trkpt>
      <trkpt lat="44.29147" lon="5.40823">
        <ele>640.59997558594</ele>
        <time>2014-05-04T10:42:38.000Z</time>
      </trkpt>
      <trkpt lat="44.29152" lon="5.40801">
        <ele>640.59997558594</ele>
        <time>2014-05-04T10:42:41.000Z</time>
      </trkpt>
      <trkpt lat="44.29144" lon="5.40782">
        <ele>641.40002441406</ele>
        <time>2014-05-04T10:42:46.000Z</time>
      </trkpt>
      <trkpt lat="44.29128" lon="5.40758">
        <ele>645.40002441406</ele>
        <time>2014-05-04T10:42:57.000Z</time>
      </trkpt>
      <trkpt lat="44.29118" lon="5.40744">
        <ele>647.20001220703</ele>
        <time>2014-05-04T10:43:06.000Z</time>
      </trkpt>
      <trkpt lat="44.29116" lon="5.40725">
        <ele>650</ele>
        <time>2014-05-04T10:43:16.000Z</time>
      </trkpt>
      <trkpt lat="44.29118" lon="5.40723">
        <ele>650.20001220703</ele>
        <time>2014-05-04T10:43:17.000Z</time>
      </trkpt>
      <trkpt lat="44.29138" lon="5.40701">
        <ele>647.79998779297</ele>
        <time>2014-05-04T10:43:23.000Z</time>
      </trkpt>
      <trkpt lat="44.29159" lon="5.40691">
        <ele>643</ele>
        <time>2014-05-04T10:43:26.000Z</time>
      </trkpt>
      <trkpt lat="44.29179" lon="5.40664">
        <ele>640.79998779297</ele>
        <time>2014-05-04T10:43:30.000Z</time>
      </trkpt>
      <trkpt lat="44.29192" lon="5.40631">
        <ele>640.59997558594</ele>
        <time>2014-05-04T10:43:34.000Z</time>
      </trkpt>
      <trkpt lat="44.292" lon="5.40598">
        <ele>639.79998779297</ele>
        <time>2014-05-04T10:43:38.000Z</time>
      </trkpt>
      <trkpt lat="44.29204" lon="5.40558">
        <ele>638.79998779297</ele>
        <time>2014-05-04T10:43:43.000Z</time>
      </trkpt>
      <trkpt lat="44.29187" lon="5.40532">
        <ele>637.59997558594</ele>
        <time>2014-05-04T10:43:50.000Z</time>
      </trkpt>
      <trkpt lat="44.29183" lon="5.40532">
        <ele>637.59997558594</ele>
        <time>2014-05-04T10:43:51.000Z</time>
      </trkpt>
      <trkpt lat="44.29173" lon="5.4053">
        <ele>639.59997558594</ele>
        <time>2014-05-04T10:43:54.000Z</time>
      </trkpt>
      <trkpt lat="44.29172" lon="5.40514">
        <ele>639.79998779297</ele>
        <time>2014-05-04T10:43:59.000Z</time>
      </trkpt>
      <trkpt lat="44.29208" lon="5.4048">
        <ele>638.40002441406</ele>
        <time>2014-05-04T10:44:10.000Z</time>
      </trkpt>
      <trkpt lat="44.29214" lon="5.40441">
        <ele>636.40002441406</ele>
        <time>2014-05-04T10:44:16.000Z</time>
      </trkpt>
      <trkpt lat="44.29218" lon="5.40386">
        <ele>631.79998779297</ele>
        <time>2014-05-04T10:44:21.000Z</time>
      </trkpt>
      <trkpt lat="44.29221" lon="5.40374">
        <ele>629.79998779297</ele>
        <time>2014-05-04T10:44:22.000Z</time>
      </trkpt>
      <trkpt lat="44.29237" lon="5.40325">
        <ele>627</ele>
        <time>2014-05-04T10:44:26.000Z</time>
      </trkpt>
      <trkpt lat="44.29242" lon="5.40302">
        <ele>626.79998779297</ele>
        <time>2014-05-04T10:44:28.000Z</time>
      </trkpt>
      <trkpt lat="44.29251" lon="5.40257">
        <ele>627.79998779297</ele>
        <time>2014-05-04T10:44:32.000Z</time>
      </trkpt>
      <trkpt lat="44.29253" lon="5.40219">
        <ele>621.79998779297</ele>
        <time>2014-05-04T10:44:35.000Z</time>
      </trkpt>
      <trkpt lat="44.29271" lon="5.40177">
        <ele>617.59997558594</ele>
        <time>2014-05-04T10:44:39.000Z</time>
      </trkpt>
      <trkpt lat="44.29278" lon="5.40169">
        <ele>616.79998779297</ele>
        <time>2014-05-04T10:44:40.000Z</time>
      </trkpt>
      <trkpt lat="44.29299" lon="5.40148">
        <ele>613</ele>
        <time>2014-05-04T10:44:43.000Z</time>
      </trkpt>
      <trkpt lat="44.29308" lon="5.40137">
        <ele>612.20001220703</ele>
        <time>2014-05-04T10:44:45.000Z</time>
      </trkpt>
      <trkpt lat="44.29315" lon="5.40124">
        <ele>614</ele>
        <time>2014-05-04T10:44:48.000Z</time>
      </trkpt>
      <trkpt lat="44.29319" lon="5.4011">
        <ele>613.59997558594</ele>
        <time>2014-05-04T10:44:53.000Z</time>
      </trkpt>
      <trkpt lat="44.29324" lon="5.40105">
        <ele>611.40002441406</ele>
        <time>2014-05-04T10:44:55.000Z</time>
      </trkpt>
      <trkpt lat="44.29342" lon="5.40075">
        <ele>608.40002441406</ele>
        <time>2014-05-04T10:45:01.000Z</time>
      </trkpt>
      <trkpt lat="44.29357" lon="5.40047">
        <ele>605.40002441406</ele>
        <time>2014-05-04T10:45:08.000Z</time>
      </trkpt>
      <trkpt lat="44.29358" lon="5.40042">
        <ele>604.79998779297</ele>
        <time>2014-05-04T10:45:09.000Z</time>
      </trkpt>
      <trkpt lat="44.29354" lon="5.40025">
        <ele>603</ele>
        <time>2014-05-04T10:45:12.000Z</time>
      </trkpt>
      <trkpt lat="44.29346" lon="5.40014">
        <ele>601.59997558594</ele>
        <time>2014-05-04T10:45:14.000Z</time>
      </trkpt>
      <trkpt lat="44.29338" lon="5.40001">
        <ele>599</ele>
        <time>2014-05-04T10:45:16.000Z</time>
      </trkpt>
      <trkpt lat="44.29322" lon="5.39981">
        <ele>597</ele>
        <time>2014-05-04T10:45:20.000Z</time>
      </trkpt>
      <trkpt lat="44.29307" lon="5.3995">
        <ele>592.59997558594</ele>
        <time>2014-05-04T10:45:25.000Z</time>
      </trkpt>
      <trkpt lat="44.29299" lon="5.39925">
        <ele>589.59997558594</ele>
        <time>2014-05-04T10:45:29.000Z</time>
      </trkpt>
      <trkpt lat="44.29296" lon="5.3991">
        <ele>587.79998779297</ele>
        <time>2014-05-04T10:45:32.000Z</time>
      </trkpt>
      <trkpt lat="44.29281" lon="5.39871">
        <ele>585.79998779297</ele>
        <time>2014-05-04T10:45:42.000Z</time>
      </trkpt>
      <trkpt lat="44.29271" lon="5.39841">
        <ele>585.79998779297</ele>
        <time>2014-05-04T10:45:50.000Z</time>
      </trkpt>
      <trkpt lat="44.29285" lon="5.39819">
        <ele>582.40002441406</ele>
        <time>2014-05-04T10:45:58.000Z</time>
      </trkpt>
      <trkpt lat="44.29284" lon="5.39808">
        <ele>580.79998779297</ele>
        <time>2014-05-04T10:46:00.000Z</time>
      </trkpt>
      <trkpt lat="44.29285" lon="5.39762">
        <ele>580.20001220703</ele>
        <time>2014-05-04T10:46:10.000Z</time>
      </trkpt>
      <trkpt lat="44.29288" lon="5.39754">
        <ele>580.20001220703</ele>
        <time>2014-05-04T10:46:12.000Z</time>
      </trkpt>
      <trkpt lat="44.29297" lon="5.397">
        <ele>579.40002441406</ele>
        <time>2014-05-04T10:46:20.000Z</time>
      </trkpt>
      <trkpt lat="44.29315" lon="5.39642">
        <ele>579</ele>
        <time>2014-05-04T10:46:28.000Z</time>
      </trkpt>
      <trkpt lat="44.29324" lon="5.39612">
        <ele>578.79998779297</ele>
        <time>2014-05-04T10:46:32.000Z</time>
      </trkpt>
      <trkpt lat="44.29343" lon="5.39581">
        <ele>578.20001220703</ele>
        <time>2014-05-04T10:46:37.000Z</time>
      </trkpt>
      <trkpt lat="44.2937" lon="5.39558">
        <ele>578.20001220703</ele>
        <time>2014-05-04T10:46:43.000Z</time>
      </trkpt>
      <trkpt lat="44.29378" lon="5.39555">
        <ele>578.20001220703</ele>
        <time>2014-05-04T10:46:45.000Z</time>
      </trkpt>
      <trkpt lat="44.29403" lon="5.3953">
        <ele>578.20001220703</ele>
        <time>2014-05-04T10:46:51.000Z</time>
      </trkpt>
      <trkpt lat="44.29428" lon="5.39476">
        <ele>577.40002441406</ele>
        <time>2014-05-04T10:46:59.000Z</time>
      </trkpt>
      <trkpt lat="44.29443" lon="5.39413">
        <ele>577.40002441406</ele>
        <time>2014-05-04T10:47:09.000Z</time>
      </trkpt>
      <trkpt lat="44.29427" lon="5.3939">
        <ele>577.40002441406</ele>
        <time>2014-05-04T10:47:15.000Z</time>
      </trkpt>
      <trkpt lat="44.29408" lon="5.39371">
        <ele>580.40002441406</ele>
        <time>2014-05-04T10:47:27.000Z</time>
      </trkpt>
      <trkpt lat="44.29398" lon="5.3937">
        <ele>580.59997558594</ele>
        <time>2014-05-04T10:47:33.000Z</time>
      </trkpt>
      <trkpt lat="44.29376" lon="5.39369">
        <ele>580.59997558594</ele>
        <time>2014-05-04T10:47:44.000Z</time>
      </trkpt>
      <trkpt lat="44.29364" lon="5.39367">
        <ele>580.59997558594</ele>
        <time>2014-05-04T10:47:49.000Z</time>
      </trkpt>
      <trkpt lat="44.29327" lon="5.39359">
        <ele>581.40002441406</ele>
        <time>2014-05-04T10:48:02.000Z</time>
      </trkpt>
      <trkpt lat="44.29308" lon="5.39346">
        <ele>582.20001220703</ele>
        <time>2014-05-04T10:48:09.000Z</time>
      </trkpt>
      <trkpt lat="44.29296" lon="5.39372">
        <ele>583.40002441406</ele>
        <time>2014-05-04T10:48:19.000Z</time>
      </trkpt>
      <trkpt lat="44.29294" lon="5.3938">
        <ele>584</ele>
        <time>2014-05-04T10:48:23.000Z</time>
      </trkpt>
      <trkpt lat="44.2929" lon="5.39387">
        <ele>584.79998779297</ele>
        <time>2014-05-04T10:48:28.000Z</time>
      </trkpt>
      <trkpt lat="44.29275" lon="5.3937">
        <ele>586.59997558594</ele>
        <time>2014-05-04T10:48:38.000Z</time>
      </trkpt>
      <trkpt lat="44.29258" lon="5.39337">
        <ele>586.59997558594</ele>
        <time>2014-05-04T10:48:47.000Z</time>
      </trkpt>
      <trkpt lat="44.29217" lon="5.393">
        <ele>588.20001220703</ele>
        <time>2014-05-04T10:49:00.000Z</time>
      </trkpt>
      <trkpt lat="44.29181" lon="5.39278">
        <ele>590.59997558594</ele>
        <time>2014-05-04T10:49:12.000Z</time>
      </trkpt>
      <trkpt lat="44.29177" lon="5.39273">
        <ele>590.79998779297</ele>
        <time>2014-05-04T10:49:14.000Z</time>
      </trkpt>
      <trkpt lat="44.29152" lon="5.39269">
        <ele>593</ele>
        <time>2014-05-04T10:49:27.000Z</time>
      </trkpt>
      <trkpt lat="44.29127" lon="5.39267">
        <ele>595.20001220703</ele>
        <time>2014-05-04T10:49:40.000Z</time>
      </trkpt>
      <trkpt lat="44.29099" lon="5.39269">
        <ele>596.79998779297</ele>
        <time>2014-05-04T10:49:51.000Z</time>
      </trkpt>
      <trkpt lat="44.29073" lon="5.39268">
        <ele>599</ele>
        <time>2014-05-04T10:50:02.000Z</time>
      </trkpt>
      <trkpt lat="44.29045" lon="5.39257">
        <ele>601</ele>
        <time>2014-05-04T10:50:15.000Z</time>
      </trkpt>
      <trkpt lat="44.29018" lon="5.39232">
        <ele>602.40002441406</ele>
        <time>2014-05-04T10:50:27.000Z</time>
      </trkpt>
      <trkpt lat="44.28988" lon="5.3921">
        <ele>602.40002441406</ele>
        <time>2014-05-04T10:50:38.000Z</time>
      </trkpt>
      <trkpt lat="44.28961" lon="5.39187">
        <ele>602.40002441406</ele>
        <time>2014-05-04T10:50:47.000Z</time>
      </trkpt>
      <trkpt lat="44.28934" lon="5.3918">
        <ele>599.59997558594</ele>
        <time>2014-05-04T10:50:53.000Z</time>
      </trkpt>
      <trkpt lat="44.28929" lon="5.39163">
        <ele>598.59997558594</ele>
        <time>2014-05-04T10:50:57.000Z</time>
      </trkpt>
      <trkpt lat="44.28932" lon="5.39148">
        <ele>596.59997558594</ele>
        <time>2014-05-04T10:51:00.000Z</time>
      </trkpt>
      <trkpt lat="44.28933" lon="5.3913">
        <ele>598</ele>
        <time>2014-05-04T10:51:07.000Z</time>
      </trkpt>
      <trkpt lat="44.28917" lon="5.39117">
        <ele>600.79998779297</ele>
        <time>2014-05-04T10:51:19.000Z</time>
      </trkpt>
      <trkpt lat="44.28903" lon="5.39102">
        <ele>603.59997558594</ele>
        <time>2014-05-04T10:51:32.000Z</time>
      </trkpt>
      <trkpt lat="44.28896" lon="5.39092">
        <ele>605.79998779297</ele>
        <time>2014-05-04T10:51:41.000Z</time>
      </trkpt>
      <trkpt lat="44.2889" lon="5.39082">
        <ele>606.59997558594</ele>
        <time>2014-05-04T10:51:47.000Z</time>
      </trkpt>
      <trkpt lat="44.28872" lon="5.39064">
        <ele>609</ele>
        <time>2014-05-04T10:52:00.000Z</time>
      </trkpt>
      <trkpt lat="44.28858" lon="5.39041">
        <ele>611.59997558594</ele>
        <time>2014-05-04T10:52:13.000Z</time>
      </trkpt>
      <trkpt lat="44.28849" lon="5.39023">
        <ele>613.59997558594</ele>
        <time>2014-05-04T10:52:23.000Z</time>
      </trkpt>
      <trkpt lat="44.28838" lon="5.39017">
        <ele>614</ele>
        <time>2014-05-04T10:52:29.000Z</time>
      </trkpt>
      <trkpt lat="44.2883" lon="5.39008">
        <ele>614.79998779297</ele>
        <time>2014-05-04T10:52:35.000Z</time>
      </trkpt>
      <trkpt lat="44.28826" lon="5.38982">
        <ele>616.79998779297</ele>
        <time>2014-05-04T10:52:49.000Z</time>
      </trkpt>
      <trkpt lat="44.28824" lon="5.38946">
        <ele>619</ele>
        <time>2014-05-04T10:53:04.000Z</time>
      </trkpt>
      <trkpt lat="44.28835" lon="5.38916">
        <ele>620.59997558594</ele>
        <time>2014-05-04T10:53:16.000Z</time>
      </trkpt>
      <trkpt lat="44.28831" lon="5.38906">
        <ele>620.59997558594</ele>
        <time>2014-05-04T10:53:20.000Z</time>
      </trkpt>
      <trkpt lat="44.28819" lon="5.38893">
        <ele>621.40002441406</ele>
        <time>2014-05-04T10:53:28.000Z</time>
      </trkpt>
      <trkpt lat="44.28827" lon="5.38862">
        <ele>624.40002441406</ele>
        <time>2014-05-04T10:53:41.000Z</time>
      </trkpt>
      <trkpt lat="44.28833" lon="5.38832">
        <ele>627</ele>
        <time>2014-05-04T10:53:54.000Z</time>
      </trkpt>
      <trkpt lat="44.28838" lon="5.38813">
        <ele>628.59997558594</ele>
        <time>2014-05-04T10:54:04.000Z</time>
      </trkpt>
      <trkpt lat="44.28836" lon="5.38809">
        <ele>628.79998779297</ele>
        <time>2014-05-04T10:54:06.000Z</time>
      </trkpt>
      <trkpt lat="44.28819" lon="5.38793">
        <ele>629.59997558594</ele>
        <time>2014-05-04T10:54:18.000Z</time>
      </trkpt>
      <trkpt lat="44.28819" lon="5.38757">
        <ele>632.40002441406</ele>
        <time>2014-05-04T10:54:33.000Z</time>
      </trkpt>
      <trkpt lat="44.28813" lon="5.38723">
        <ele>633.40002441406</ele>
        <time>2014-05-04T10:54:46.000Z</time>
      </trkpt>
      <trkpt lat="44.28801" lon="5.38696">
        <ele>635</ele>
        <time>2014-05-04T10:55:00.000Z</time>
      </trkpt>
      <trkpt lat="44.28803" lon="5.38679">
        <ele>636.40002441406</ele>
        <time>2014-05-04T10:55:07.000Z</time>
      </trkpt>
      <trkpt lat="44.28816" lon="5.38673">
        <ele>638.20001220703</ele>
        <time>2014-05-04T10:55:15.000Z</time>
      </trkpt>
      <trkpt lat="44.28821" lon="5.38651">
        <ele>640</ele>
        <time>2014-05-04T10:55:27.000Z</time>
      </trkpt>
      <trkpt lat="44.2881" lon="5.38632">
        <ele>640.79998779297</ele>
        <time>2014-05-04T10:55:33.000Z</time>
      </trkpt>
      <trkpt lat="44.28809" lon="5.38622">
        <ele>640.79998779297</ele>
        <time>2014-05-04T10:55:35.000Z</time>
      </trkpt>
      <trkpt lat="44.28792" lon="5.38608">
        <ele>640.79998779297</ele>
        <time>2014-05-04T10:55:45.000Z</time>
      </trkpt>
      <trkpt lat="44.28786" lon="5.38605">
        <ele>640.79998779297</ele>
        <time>2014-05-04T10:55:49.000Z</time>
      </trkpt>
      <trkpt lat="44.28789" lon="5.38574">
        <ele>643.79998779297</ele>
        <time>2014-05-04T10:56:02.000Z</time>
      </trkpt>
      <trkpt lat="44.28808" lon="5.38545">
        <ele>644.79998779297</ele>
        <time>2014-05-04T10:56:13.000Z</time>
      </trkpt>
      <trkpt lat="44.28792" lon="5.38535">
        <ele>644.79998779297</ele>
        <time>2014-05-04T10:56:23.000Z</time>
      </trkpt>
      <trkpt lat="44.28777" lon="5.38519">
        <ele>646.40002441406</ele>
        <time>2014-05-04T10:56:33.000Z</time>
      </trkpt>
      <trkpt lat="44.28774" lon="5.38493">
        <ele>647.40002441406</ele>
        <time>2014-05-04T10:56:43.000Z</time>
      </trkpt>
      <trkpt lat="44.28772" lon="5.38473">
        <ele>647.40002441406</ele>
        <time>2014-05-04T10:56:50.000Z</time>
      </trkpt>
      <trkpt lat="44.28771" lon="5.38433">
        <ele>648.20001220703</ele>
        <time>2014-05-04T10:57:00.000Z</time>
      </trkpt>
      <trkpt lat="44.28772" lon="5.38407">
        <ele>648.20001220703</ele>
        <time>2014-05-04T10:57:08.000Z</time>
      </trkpt>
      <trkpt lat="44.2876" lon="5.38421">
        <ele>648.20001220703</ele>
        <time>2014-05-04T10:57:17.000Z</time>
      </trkpt>
      <trkpt lat="44.28753" lon="5.38439">
        <ele>649.20001220703</ele>
        <time>2014-05-04T10:57:24.000Z</time>
      </trkpt>
      <trkpt lat="44.28747" lon="5.38459">
        <ele>649.20001220703</ele>
        <time>2014-05-04T10:57:31.000Z</time>
      </trkpt>
      <trkpt lat="44.28739" lon="5.38482">
        <ele>650.79998779297</ele>
        <time>2014-05-04T10:57:43.000Z</time>
      </trkpt>
      <trkpt lat="44.28722" lon="5.38495">
        <ele>652.79998779297</ele>
        <time>2014-05-04T10:57:54.000Z</time>
      </trkpt>
      <trkpt lat="44.28713" lon="5.38497">
        <ele>654</ele>
        <time>2014-05-04T10:57:59.000Z</time>
      </trkpt>
      <trkpt lat="44.28697" lon="5.38499">
        <ele>655.79998779297</ele>
        <time>2014-05-04T10:58:08.000Z</time>
      </trkpt>
      <trkpt lat="44.28693" lon="5.38498">
        <ele>656</ele>
        <time>2014-05-04T10:58:11.000Z</time>
      </trkpt>
      <trkpt lat="44.28686" lon="5.3851">
        <ele>656</ele>
        <time>2014-05-04T10:58:18.000Z</time>
      </trkpt>
      <trkpt lat="44.287" lon="5.38537">
        <ele>658.59997558594</ele>
        <time>2014-05-04T10:58:31.000Z</time>
      </trkpt>
      <trkpt lat="44.28695" lon="5.38572">
        <ele>660.20001220703</ele>
        <time>2014-05-04T10:58:44.000Z</time>
      </trkpt>
      <trkpt lat="44.28691" lon="5.38581">
        <ele>661</ele>
        <time>2014-05-04T10:58:48.000Z</time>
      </trkpt>
      <trkpt lat="44.28679" lon="5.38614">
        <ele>664.40002441406</ele>
        <time>2014-05-04T10:59:02.000Z</time>
      </trkpt>
      <trkpt lat="44.28678" lon="5.38617">
        <ele>664.59997558594</ele>
        <time>2014-05-04T10:59:03.000Z</time>
      </trkpt>
      <trkpt lat="44.28674" lon="5.38646">
        <ele>667</ele>
        <time>2014-05-04T10:59:16.000Z</time>
      </trkpt>
      <trkpt lat="44.28673" lon="5.38651">
        <ele>667.40002441406</ele>
        <time>2014-05-04T10:59:18.000Z</time>
      </trkpt>
      <trkpt lat="44.28661" lon="5.38681">
        <ele>669.59997558594</ele>
        <time>2014-05-04T10:59:31.000Z</time>
      </trkpt>
      <trkpt lat="44.2864" lon="5.38705">
        <ele>672.20001220703</ele>
        <time>2014-05-04T10:59:43.000Z</time>
      </trkpt>
      <trkpt lat="44.2862" lon="5.3871">
        <ele>674.59997558594</ele>
        <time>2014-05-04T10:59:54.000Z</time>
      </trkpt>
      <trkpt lat="44.28604" lon="5.3871">
        <ele>675.40002441406</ele>
        <time>2014-05-04T11:00:02.000Z</time>
      </trkpt>
      <trkpt lat="44.28598" lon="5.38705">
        <ele>677.40002441406</ele>
        <time>2014-05-04T11:00:06.000Z</time>
      </trkpt>
      <trkpt lat="44.28578" lon="5.38701">
        <ele>678.40002441406</ele>
        <time>2014-05-04T11:00:17.000Z</time>
      </trkpt>
      <trkpt lat="44.28565" lon="5.38708">
        <ele>680.59997558594</ele>
        <time>2014-05-04T11:00:26.000Z</time>
      </trkpt>
      <trkpt lat="44.28557" lon="5.38712">
        <ele>681.40002441406</ele>
        <time>2014-05-04T11:00:32.000Z</time>
      </trkpt>
      <trkpt lat="44.28527" lon="5.38717">
        <ele>682.59997558594</ele>
        <time>2014-05-04T11:00:45.000Z</time>
      </trkpt>
      <trkpt lat="44.28524" lon="5.38718">
        <ele>682.59997558594</ele>
        <time>2014-05-04T11:00:46.000Z</time>
      </trkpt>
      <trkpt lat="44.28515" lon="5.38723">
        <ele>683.40002441406</ele>
        <time>2014-05-04T11:00:51.000Z</time>
      </trkpt>
      <trkpt lat="44.28513" lon="5.38731">
        <ele>684.40002441406</ele>
        <time>2014-05-04T11:00:55.000Z</time>
      </trkpt>
      <trkpt lat="44.28515" lon="5.38759">
        <ele>688</ele>
        <time>2014-05-04T11:01:07.000Z</time>
      </trkpt>
      <trkpt lat="44.28519" lon="5.38796">
        <ele>690.79998779297</ele>
        <time>2014-05-04T11:01:20.000Z</time>
      </trkpt>
      <trkpt lat="44.28524" lon="5.38835">
        <ele>692.59997558594</ele>
        <time>2014-05-04T11:01:33.000Z</time>
      </trkpt>
      <trkpt lat="44.28526" lon="5.38855">
        <ele>694.40002441406</ele>
        <time>2014-05-04T11:01:40.000Z</time>
      </trkpt>
      <trkpt lat="44.28537" lon="5.38875">
        <ele>695.79998779297</ele>
        <time>2014-05-04T11:01:47.000Z</time>
      </trkpt>
      <trkpt lat="44.28541" lon="5.38885">
        <ele>696.79998779297</ele>
        <time>2014-05-04T11:01:51.000Z</time>
      </trkpt>
      <trkpt lat="44.28556" lon="5.38917">
        <ele>698.79998779297</ele>
        <time>2014-05-04T11:02:03.000Z</time>
      </trkpt>
      <trkpt lat="44.28552" lon="5.38932">
        <ele>701</ele>
        <time>2014-05-04T11:02:13.000Z</time>
      </trkpt>
      <trkpt lat="44.28544" lon="5.38922">
        <ele>703.40002441406</ele>
        <time>2014-05-04T11:02:21.000Z</time>
      </trkpt>
      <trkpt lat="44.2854" lon="5.38892">
        <ele>705.40002441406</ele>
        <time>2014-05-04T11:02:36.000Z</time>
      </trkpt>
      <trkpt lat="44.2853" lon="5.38868">
        <ele>707.20001220703</ele>
        <time>2014-05-04T11:02:50.000Z</time>
      </trkpt>
      <trkpt lat="44.28519" lon="5.38843">
        <ele>709.40002441406</ele>
        <time>2014-05-04T11:03:03.000Z</time>
      </trkpt>
      <trkpt lat="44.28504" lon="5.38819">
        <ele>711.59997558594</ele>
        <time>2014-05-04T11:03:17.000Z</time>
      </trkpt>
      <trkpt lat="44.28491" lon="5.38791">
        <ele>713.20001220703</ele>
        <time>2014-05-04T11:03:31.000Z</time>
      </trkpt>
      <trkpt lat="44.28477" lon="5.3877">
        <ele>715.79998779297</ele>
        <time>2014-05-04T11:03:44.000Z</time>
      </trkpt>
      <trkpt lat="44.28466" lon="5.38764">
        <ele>716.79998779297</ele>
        <time>2014-05-04T11:03:48.000Z</time>
      </trkpt>
      <trkpt lat="44.28436" lon="5.38753">
        <ele>718.40002441406</ele>
        <time>2014-05-04T11:04:01.000Z</time>
      </trkpt>
      <trkpt lat="44.28416" lon="5.38743">
        <ele>720</ele>
        <time>2014-05-04T11:04:13.000Z</time>
      </trkpt>
      <trkpt lat="44.28395" lon="5.38727">
        <ele>722.40002441406</ele>
        <time>2014-05-04T11:04:26.000Z</time>
      </trkpt>
      <trkpt lat="44.2839" lon="5.38721">
        <ele>723.20001220703</ele>
        <time>2014-05-04T11:04:30.000Z</time>
      </trkpt>
      <trkpt lat="44.28396" lon="5.38699">
        <ele>724.79998779297</ele>
        <time>2014-05-04T11:04:39.000Z</time>
      </trkpt>
      <trkpt lat="44.28418" lon="5.3868">
        <ele>726.40002441406</ele>
        <time>2014-05-04T11:04:50.000Z</time>
      </trkpt>
      <trkpt lat="44.28443" lon="5.38658">
        <ele>729</ele>
        <time>2014-05-04T11:05:02.000Z</time>
      </trkpt>
      <trkpt lat="44.28461" lon="5.38636">
        <ele>731</ele>
        <time>2014-05-04T11:05:13.000Z</time>
      </trkpt>
      <trkpt lat="44.28482" lon="5.38606">
        <ele>733.40002441406</ele>
        <time>2014-05-04T11:05:26.000Z</time>
      </trkpt>
      <trkpt lat="44.28498" lon="5.3858">
        <ele>735.40002441406</ele>
        <time>2014-05-04T11:05:38.000Z</time>
      </trkpt>
      <trkpt lat="44.28486" lon="5.38556">
        <ele>737.20001220703</ele>
        <time>2014-05-04T11:05:51.000Z</time>
      </trkpt>
      <trkpt lat="44.28472" lon="5.38537">
        <ele>739.40002441406</ele>
        <time>2014-05-04T11:06:03.000Z</time>
      </trkpt>
      <trkpt lat="44.28448" lon="5.38507">
        <ele>742</ele>
        <time>2014-05-04T11:06:17.000Z</time>
      </trkpt>
      <trkpt lat="44.2844" lon="5.38471">
        <ele>743.59997558594</ele>
        <time>2014-05-04T11:06:30.000Z</time>
      </trkpt>
      <trkpt lat="44.2844" lon="5.38469">
        <ele>743.59997558594</ele>
        <time>2014-05-04T11:06:31.000Z</time>
      </trkpt>
      <trkpt lat="44.28428" lon="5.38479">
        <ele>746.20001220703</ele>
        <time>2014-05-04T11:06:43.000Z</time>
      </trkpt>
      <trkpt lat="44.28429" lon="5.38481">
        <ele>746.40002441406</ele>
        <time>2014-05-04T11:06:44.000Z</time>
      </trkpt>
      <trkpt lat="44.28438" lon="5.38523">
        <ele>747.20001220703</ele>
        <time>2014-05-04T11:06:54.000Z</time>
      </trkpt>
      <trkpt lat="44.28458" lon="5.38572">
        <ele>747.20001220703</ele>
        <time>2014-05-04T11:07:04.000Z</time>
      </trkpt>
      <trkpt lat="44.28447" lon="5.38586">
        <ele>747.20001220703</ele>
        <time>2014-05-04T11:07:09.000Z</time>
      </trkpt>
      <trkpt lat="44.28408" lon="5.38597">
        <ele>748.59997558594</ele>
        <time>2014-05-04T11:07:21.000Z</time>
      </trkpt>
      <trkpt lat="44.28366" lon="5.38609">
        <ele>749.59997558594</ele>
        <time>2014-05-04T11:07:33.000Z</time>
      </trkpt>
      <trkpt lat="44.28331" lon="5.38602">
        <ele>751.20001220703</ele>
        <time>2014-05-04T11:07:43.000Z</time>
      </trkpt>
      <trkpt lat="44.28277" lon="5.38614">
        <ele>753.40002441406</ele>
        <time>2014-05-04T11:07:59.000Z</time>
      </trkpt>
      <trkpt lat="44.28245" lon="5.38635">
        <ele>755.59997558594</ele>
        <time>2014-05-04T11:08:13.000Z</time>
      </trkpt>
      <trkpt lat="44.28241" lon="5.38663">
        <ele>758.59997558594</ele>
        <time>2014-05-04T11:08:25.000Z</time>
      </trkpt>
      <trkpt lat="44.28246" lon="5.38686">
        <ele>760.59997558594</ele>
        <time>2014-05-04T11:08:37.000Z</time>
      </trkpt>
      <trkpt lat="44.28253" lon="5.38707">
        <ele>763.40002441406</ele>
        <time>2014-05-04T11:08:50.000Z</time>
      </trkpt>
      <trkpt lat="44.2826" lon="5.38725">
        <ele>766.40002441406</ele>
        <time>2014-05-04T11:09:00.000Z</time>
      </trkpt>
      <trkpt lat="44.28263" lon="5.38739">
        <ele>768.40002441406</ele>
        <time>2014-05-04T11:09:07.000Z</time>
      </trkpt>
      <trkpt lat="44.28267" lon="5.38757">
        <ele>772</ele>
        <time>2014-05-04T11:09:16.000Z</time>
      </trkpt>
      <trkpt lat="44.28272" lon="5.38778">
        <ele>775</ele>
        <time>2014-05-04T11:09:27.000Z</time>
      </trkpt>
      <trkpt lat="44.28271" lon="5.38781">
        <ele>775.40002441406</ele>
        <time>2014-05-04T11:09:29.000Z</time>
      </trkpt>
      <trkpt lat="44.28272" lon="5.38785">
        <ele>775.79998779297</ele>
        <time>2014-05-04T11:09:32.000Z</time>
      </trkpt>
      <trkpt lat="44.28279" lon="5.38795">
        <ele>776.59997558594</ele>
        <time>2014-05-04T11:09:37.000Z</time>
      </trkpt>
      <trkpt lat="44.28292" lon="5.38813">
        <ele>775.79998779297</ele>
        <time>2014-05-04T11:09:42.000Z</time>
      </trkpt>
      <trkpt lat="44.28307" lon="5.38824">
        <ele>771.40002441406</ele>
        <time>2014-05-04T11:09:45.000Z</time>
      </trkpt>
      <trkpt lat="44.28313" lon="5.38855">
        <ele>768.20001220703</ele>
        <time>2014-05-04T11:09:50.000Z</time>
      </trkpt>
      <trkpt lat="44.2831" lon="5.38861">
        <ele>767.79998779297</ele>
        <time>2014-05-04T11:09:51.000Z</time>
      </trkpt>
      <trkpt lat="44.28297" lon="5.38893">
        <ele>763.59997558594</ele>
        <time>2014-05-04T11:09:56.000Z</time>
      </trkpt>
      <trkpt lat="44.28281" lon="5.38926">
        <ele>761.20001220703</ele>
        <time>2014-05-04T11:10:01.000Z</time>
      </trkpt>
      <trkpt lat="44.28255" lon="5.38952">
        <ele>762.20001220703</ele>
        <time>2014-05-04T11:10:10.000Z</time>
      </trkpt>
      <trkpt lat="44.28251" lon="5.38958">
        <ele>763</ele>
        <time>2014-05-04T11:10:12.000Z</time>
      </trkpt>
      <trkpt lat="44.28236" lon="5.38951">
        <ele>766</ele>
        <time>2014-05-04T11:10:20.000Z</time>
      </trkpt>
      <trkpt lat="44.28232" lon="5.3895">
        <ele>766.79998779297</ele>
        <time>2014-05-04T11:10:22.000Z</time>
      </trkpt>
      <trkpt lat="44.28219" lon="5.3894">
        <ele>770</ele>
        <time>2014-05-04T11:10:30.000Z</time>
      </trkpt>
      <trkpt lat="44.28208" lon="5.38929">
        <ele>773.20001220703</ele>
        <time>2014-05-04T11:10:41.000Z</time>
      </trkpt>
      <trkpt lat="44.28201" lon="5.38923">
        <ele>776.20001220703</ele>
        <time>2014-05-04T11:10:55.000Z</time>
      </trkpt>
      <trkpt lat="44.28191" lon="5.38913">
        <ele>779.40002441406</ele>
        <time>2014-05-04T11:11:11.000Z</time>
      </trkpt>
      <trkpt lat="44.2818" lon="5.38907">
        <ele>782.59997558594</ele>
        <time>2014-05-04T11:11:25.000Z</time>
      </trkpt>
      <trkpt lat="44.28165" lon="5.38899">
        <ele>785.79998779297</ele>
        <time>2014-05-04T11:11:44.000Z</time>
      </trkpt>
      <trkpt lat="44.28143" lon="5.38885">
        <ele>789</ele>
        <time>2014-05-04T11:12:00.000Z</time>
      </trkpt>
      <trkpt lat="44.28139" lon="5.38879">
        <ele>791.20001220703</ele>
        <time>2014-05-04T11:12:04.000Z</time>
      </trkpt>
      <trkpt lat="44.28135" lon="5.38872">
        <ele>793.20001220703</ele>
        <time>2014-05-04T11:12:16.000Z</time>
      </trkpt>
      <trkpt lat="44.28127" lon="5.38858">
        <ele>796.20001220703</ele>
        <time>2014-05-04T11:12:33.000Z</time>
      </trkpt>
      <trkpt lat="44.28117" lon="5.38851">
        <ele>798</ele>
        <time>2014-05-04T11:12:48.000Z</time>
      </trkpt>
      <trkpt lat="44.28111" lon="5.38852">
        <ele>798</ele>
        <time>2014-05-04T11:12:52.000Z</time>
      </trkpt>
      <trkpt lat="44.28082" lon="5.38848">
        <ele>799.79998779297</ele>
        <time>2014-05-04T11:13:09.000Z</time>
      </trkpt>
      <trkpt lat="44.28065" lon="5.38844">
        <ele>802.79998779297</ele>
        <time>2014-05-04T11:13:22.000Z</time>
      </trkpt>
      <trkpt lat="44.28062" lon="5.38843">
        <ele>803</ele>
        <time>2014-05-04T11:13:25.000Z</time>
      </trkpt>
      <trkpt lat="44.28057" lon="5.38846">
        <ele>804.59997558594</ele>
        <time>2014-05-04T11:13:29.000Z</time>
      </trkpt>
      <trkpt lat="44.28049" lon="5.38857">
        <ele>806</ele>
        <time>2014-05-04T11:13:36.000Z</time>
      </trkpt>
      <trkpt lat="44.2803" lon="5.38873">
        <ele>808.20001220703</ele>
        <time>2014-05-04T11:13:50.000Z</time>
      </trkpt>
      <trkpt lat="44.28007" lon="5.38888">
        <ele>810.59997558594</ele>
        <time>2014-05-04T11:14:05.000Z</time>
      </trkpt>
      <trkpt lat="44.27995" lon="5.38926">
        <ele>813.40002441406</ele>
        <time>2014-05-04T11:14:21.000Z</time>
      </trkpt>
      <trkpt lat="44.27999" lon="5.38962">
        <ele>814.59997558594</ele>
        <time>2014-05-04T11:14:34.000Z</time>
      </trkpt>
      <trkpt lat="44.28009" lon="5.38999">
        <ele>816.79998779297</ele>
        <time>2014-05-04T11:14:47.000Z</time>
      </trkpt>
      <trkpt lat="44.28028" lon="5.39032">
        <ele>818.79998779297</ele>
        <time>2014-05-04T11:15:02.000Z</time>
      </trkpt>
      <trkpt lat="44.28043" lon="5.39065">
        <ele>821</ele>
        <time>2014-05-04T11:15:15.000Z</time>
      </trkpt>
      <trkpt lat="44.28054" lon="5.39106">
        <ele>822.79998779297</ele>
        <time>2014-05-04T11:15:30.000Z</time>
      </trkpt>
      <trkpt lat="44.28052" lon="5.39136">
        <ele>825.20001220703</ele>
        <time>2014-05-04T11:15:41.000Z</time>
      </trkpt>
      <trkpt lat="44.28027" lon="5.39167">
        <ele>826.20001220703</ele>
        <time>2014-05-04T11:15:54.000Z</time>
      </trkpt>
      <trkpt lat="44.27992" lon="5.39205">
        <ele>826.79998779297</ele>
        <time>2014-05-04T11:16:06.000Z</time>
      </trkpt>
      <trkpt lat="44.27959" lon="5.3921">
        <ele>827</ele>
        <time>2014-05-04T11:16:15.000Z</time>
      </trkpt>
      <trkpt lat="44.27939" lon="5.39213">
        <ele>827</ele>
        <time>2014-05-04T11:16:19.000Z</time>
      </trkpt>
      <trkpt lat="44.27887" lon="5.39215">
        <ele>827.79998779297</ele>
        <time>2014-05-04T11:16:30.000Z</time>
      </trkpt>
      <trkpt lat="44.27838" lon="5.3923">
        <ele>828.79998779297</ele>
        <time>2014-05-04T11:16:41.000Z</time>
      </trkpt>
      <trkpt lat="44.27825" lon="5.39237">
        <ele>830</ele>
        <time>2014-05-04T11:16:45.000Z</time>
      </trkpt>
      <trkpt lat="44.27813" lon="5.39279">
        <ele>830</ele>
        <time>2014-05-04T11:16:53.000Z</time>
      </trkpt>
      <trkpt lat="44.27815" lon="5.39297">
        <ele>830</ele>
        <time>2014-05-04T11:16:56.000Z</time>
      </trkpt>
      <trkpt lat="44.27815" lon="5.39332">
        <ele>826.79998779297</ele>
        <time>2014-05-04T11:17:01.000Z</time>
      </trkpt>
      <trkpt lat="44.27818" lon="5.39392">
        <ele>828.40002441406</ele>
        <time>2014-05-04T11:17:13.000Z</time>
      </trkpt>
      <trkpt lat="44.27823" lon="5.39443">
        <ele>830.79998779297</ele>
        <time>2014-05-04T11:17:24.000Z</time>
      </trkpt>
      <trkpt lat="44.27802" lon="5.39471">
        <ele>833.40002441406</ele>
        <time>2014-05-04T11:17:35.000Z</time>
      </trkpt>
      <trkpt lat="44.27773" lon="5.395">
        <ele>835.79998779297</ele>
        <time>2014-05-04T11:17:49.000Z</time>
      </trkpt>
      <trkpt lat="44.27751" lon="5.39522">
        <ele>838.20001220703</ele>
        <time>2014-05-04T11:18:02.000Z</time>
      </trkpt>
      <trkpt lat="44.27725" lon="5.39536">
        <ele>841.40002441406</ele>
        <time>2014-05-04T11:18:16.000Z</time>
      </trkpt>
      <trkpt lat="44.27695" lon="5.39556">
        <ele>842.79998779297</ele>
        <time>2014-05-04T11:18:27.000Z</time>
      </trkpt>
      <trkpt lat="44.277" lon="5.39586">
        <ele>842.79998779297</ele>
        <time>2014-05-04T11:18:33.000Z</time>
      </trkpt>
      <trkpt lat="44.27716" lon="5.39628">
        <ele>842.79998779297</ele>
        <time>2014-05-04T11:18:44.000Z</time>
      </trkpt>
      <trkpt lat="44.27727" lon="5.3966">
        <ele>845.40002441406</ele>
        <time>2014-05-04T11:18:56.000Z</time>
      </trkpt>
      <trkpt lat="44.2773" lon="5.39686">
        <ele>848.40002441406</ele>
        <time>2014-05-04T11:19:09.000Z</time>
      </trkpt>
      <trkpt lat="44.27729" lon="5.397">
        <ele>850.59997558594</ele>
        <time>2014-05-04T11:19:17.000Z</time>
      </trkpt>
      <trkpt lat="44.27723" lon="5.39712">
        <ele>852</ele>
        <time>2014-05-04T11:19:26.000Z</time>
      </trkpt>
      <trkpt lat="44.27701" lon="5.39741">
        <ele>854.20001220703</ele>
        <time>2014-05-04T11:19:41.000Z</time>
      </trkpt>
      <trkpt lat="44.27677" lon="5.39779">
        <ele>854.40002441406</ele>
        <time>2014-05-04T11:19:53.000Z</time>
      </trkpt>
      <trkpt lat="44.27662" lon="5.39812">
        <ele>855</ele>
        <time>2014-05-04T11:20:01.000Z</time>
      </trkpt>
      <trkpt lat="44.27657" lon="5.39829">
        <ele>855</ele>
        <time>2014-05-04T11:20:04.000Z</time>
      </trkpt>
      <trkpt lat="44.27653" lon="5.39852">
        <ele>855</ele>
        <time>2014-05-04T11:20:08.000Z</time>
      </trkpt>
      <trkpt lat="44.27651" lon="5.39882">
        <ele>855</ele>
        <time>2014-05-04T11:20:13.000Z</time>
      </trkpt>
      <trkpt lat="44.27655" lon="5.3991">
        <ele>855.59997558594</ele>
        <time>2014-05-04T11:20:17.000Z</time>
      </trkpt>
      <trkpt lat="44.27656" lon="5.39923">
        <ele>855.79998779297</ele>
        <time>2014-05-04T11:20:19.000Z</time>
      </trkpt>
      <trkpt lat="44.27651" lon="5.39972">
        <ele>858.59997558594</ele>
        <time>2014-05-04T11:20:31.000Z</time>
      </trkpt>
      <trkpt lat="44.27641" lon="5.40008">
        <ele>860.59997558594</ele>
        <time>2014-05-04T11:20:42.000Z</time>
      </trkpt>
      <trkpt lat="44.27635" lon="5.40058">
        <ele>863.59997558594</ele>
        <time>2014-05-04T11:20:54.000Z</time>
      </trkpt>
      <trkpt lat="44.2764" lon="5.40106">
        <ele>865</ele>
        <time>2014-05-04T11:21:07.000Z</time>
      </trkpt>
      <trkpt lat="44.27641" lon="5.40112">
        <ele>865.40002441406</ele>
        <time>2014-05-04T11:21:09.000Z</time>
      </trkpt>
      <trkpt lat="44.27656" lon="5.40128">
        <ele>867.59997558594</ele>
        <time>2014-05-04T11:21:16.000Z</time>
      </trkpt>
      <trkpt lat="44.2765" lon="5.40164">
        <ele>870.59997558594</ele>
        <time>2014-05-04T11:21:26.000Z</time>
      </trkpt>
      <trkpt lat="44.27634" lon="5.40209">
        <ele>873</ele>
        <time>2014-05-04T11:21:37.000Z</time>
      </trkpt>
      <trkpt lat="44.27618" lon="5.40248">
        <ele>873.79998779297</ele>
        <time>2014-05-04T11:21:47.000Z</time>
      </trkpt>
      <trkpt lat="44.27607" lon="5.40304">
        <ele>870.40002441406</ele>
        <time>2014-05-04T11:21:54.000Z</time>
      </trkpt>
      <trkpt lat="44.27587" lon="5.40354">
        <ele>866.40002441406</ele>
        <time>2014-05-04T11:21:59.000Z</time>
      </trkpt>
      <trkpt lat="44.27578" lon="5.40377">
        <ele>863.20001220703</ele>
        <time>2014-05-04T11:22:01.000Z</time>
      </trkpt>
      <trkpt lat="44.27571" lon="5.40397">
        <ele>861</ele>
        <time>2014-05-04T11:22:03.000Z</time>
      </trkpt>
      <trkpt lat="44.27566" lon="5.40429">
        <ele>858.40002441406</ele>
        <time>2014-05-04T11:22:06.000Z</time>
      </trkpt>
      <trkpt lat="44.27553" lon="5.40471">
        <ele>854.40002441406</ele>
        <time>2014-05-04T11:22:10.000Z</time>
      </trkpt>
      <trkpt lat="44.27547" lon="5.40493">
        <ele>850.20001220703</ele>
        <time>2014-05-04T11:22:12.000Z</time>
      </trkpt>
      <trkpt lat="44.27544" lon="5.40504">
        <ele>847.59997558594</ele>
        <time>2014-05-04T11:22:13.000Z</time>
      </trkpt>
      <trkpt lat="44.27538" lon="5.40539">
        <ele>842.20001220703</ele>
        <time>2014-05-04T11:22:16.000Z</time>
      </trkpt>
      <trkpt lat="44.27534" lon="5.40567">
        <ele>838.20001220703</ele>
        <time>2014-05-04T11:22:18.000Z</time>
      </trkpt>
      <trkpt lat="44.2753" lon="5.40601">
        <ele>835</ele>
        <time>2014-05-04T11:22:21.000Z</time>
      </trkpt>
      <trkpt lat="44.27527" lon="5.40621">
        <ele>833.40002441406</ele>
        <time>2014-05-04T11:22:23.000Z</time>
      </trkpt>
      <trkpt lat="44.27504" lon="5.40663">
        <ele>829</ele>
        <time>2014-05-04T11:22:28.000Z</time>
      </trkpt>
      <trkpt lat="44.27499" lon="5.4067">
        <ele>828.79998779297</ele>
        <time>2014-05-04T11:22:29.000Z</time>
      </trkpt>
      <trkpt lat="44.27485" lon="5.4069">
        <ele>828.59997558594</ele>
        <time>2014-05-04T11:22:32.000Z</time>
      </trkpt>
      <trkpt lat="44.27464" lon="5.40744">
        <ele>830.59997558594</ele>
        <time>2014-05-04T11:22:39.000Z</time>
      </trkpt>
      <trkpt lat="44.27456" lon="5.40774">
        <ele>832.40002441406</ele>
        <time>2014-05-04T11:22:44.000Z</time>
      </trkpt>
      <trkpt lat="44.27464" lon="5.408">
        <ele>833.59997558594</ele>
        <time>2014-05-04T11:22:48.000Z</time>
      </trkpt>
      <trkpt lat="44.27469" lon="5.40895">
        <ele>833.79998779297</ele>
        <time>2014-05-04T11:22:58.000Z</time>
      </trkpt>
      <trkpt lat="44.2746" lon="5.4093">
        <ele>833.79998779297</ele>
        <time>2014-05-04T11:23:02.000Z</time>
      </trkpt>
      <trkpt lat="44.2745" lon="5.40946">
        <ele>833.79998779297</ele>
        <time>2014-05-04T11:23:05.000Z</time>
      </trkpt>
      <trkpt lat="44.27424" lon="5.40976">
        <ele>837.20001220703</ele>
        <time>2014-05-04T11:23:13.000Z</time>
      </trkpt>
      <trkpt lat="44.27382" lon="5.41012">
        <ele>840.20001220703</ele>
        <time>2014-05-04T11:23:30.000Z</time>
      </trkpt>
      <trkpt lat="44.27377" lon="5.41014">
        <ele>840.79998779297</ele>
        <time>2014-05-04T11:23:33.000Z</time>
      </trkpt>
      <trkpt lat="44.27366" lon="5.40995">
        <ele>842.20001220703</ele>
        <time>2014-05-04T11:23:44.000Z</time>
      </trkpt>
      <trkpt lat="44.27351" lon="5.40967">
        <ele>844.40002441406</ele>
        <time>2014-05-04T11:24:00.000Z</time>
      </trkpt>
      <trkpt lat="44.27343" lon="5.40939">
        <ele>847</ele>
        <time>2014-05-04T11:24:16.000Z</time>
      </trkpt>
      <trkpt lat="44.27344" lon="5.40927">
        <ele>848</ele>
        <time>2014-05-04T11:24:23.000Z</time>
      </trkpt>
      <trkpt lat="44.27342" lon="5.40916">
        <ele>850</ele>
        <time>2014-05-04T11:24:29.000Z</time>
      </trkpt>
      <trkpt lat="44.27337" lon="5.4089">
        <ele>853.79998779297</ele>
        <time>2014-05-04T11:24:44.000Z</time>
      </trkpt>
      <trkpt lat="44.27336" lon="5.40886">
        <ele>854.40002441406</ele>
        <time>2014-05-04T11:24:47.000Z</time>
      </trkpt>
      <trkpt lat="44.27337" lon="5.40879">
        <ele>854.59997558594</ele>
        <time>2014-05-04T11:24:51.000Z</time>
      </trkpt>
      <trkpt lat="44.27336" lon="5.40863">
        <ele>858</ele>
        <time>2014-05-04T11:25:01.000Z</time>
      </trkpt>
      <trkpt lat="44.27326" lon="5.40843">
        <ele>860.20001220703</ele>
        <time>2014-05-04T11:25:15.000Z</time>
      </trkpt>
      <trkpt lat="44.27323" lon="5.40837">
        <ele>861</ele>
        <time>2014-05-04T11:25:19.000Z</time>
      </trkpt>
      <trkpt lat="44.27321" lon="5.40833">
        <ele>862.79998779297</ele>
        <time>2014-05-04T11:25:36.000Z</time>
      </trkpt>
      <trkpt lat="44.27313" lon="5.40822">
        <ele>865.20001220703</ele>
        <time>2014-05-04T11:25:57.000Z</time>
      </trkpt>
      <trkpt lat="44.27307" lon="5.40814">
        <ele>868.40002441406</ele>
        <time>2014-05-04T11:26:12.000Z</time>
      </trkpt>
      <trkpt lat="44.27304" lon="5.40808">
        <ele>870.79998779297</ele>
        <time>2014-05-04T11:26:28.000Z</time>
      </trkpt>
      <trkpt lat="44.273" lon="5.40812">
        <ele>871.40002441406</ele>
        <time>2014-05-04T11:26:33.000Z</time>
      </trkpt>
      <trkpt lat="44.27282" lon="5.40836">
        <ele>874</ele>
        <time>2014-05-04T11:26:49.000Z</time>
      </trkpt>
      <trkpt lat="44.27278" lon="5.4084">
        <ele>874.59997558594</ele>
        <time>2014-05-04T11:26:52.000Z</time>
      </trkpt>
      <trkpt lat="44.27272" lon="5.4084">
        <ele>875.40002441406</ele>
        <time>2014-05-04T11:26:56.000Z</time>
      </trkpt>
      <trkpt lat="44.2727" lon="5.40839">
        <ele>875.79998779297</ele>
        <time>2014-05-04T11:26:58.000Z</time>
      </trkpt>
      <trkpt lat="44.27267" lon="5.40828">
        <ele>878.20001220703</ele>
        <time>2014-05-04T11:27:05.000Z</time>
      </trkpt>
      <trkpt lat="44.27266" lon="5.40818">
        <ele>879.59997558594</ele>
        <time>2014-05-04T11:27:18.000Z</time>
      </trkpt>
      <trkpt lat="44.2726" lon="5.40803">
        <ele>883</ele>
        <time>2014-05-04T11:27:35.000Z</time>
      </trkpt>
      <trkpt lat="44.27252" lon="5.40787">
        <ele>886.20001220703</ele>
        <time>2014-05-04T11:27:53.000Z</time>
      </trkpt>
      <trkpt lat="44.27244" lon="5.4077">
        <ele>889.40002441406</ele>
        <time>2014-05-04T11:28:11.000Z</time>
      </trkpt>
      <trkpt lat="44.27238" lon="5.40761">
        <ele>892.40002441406</ele>
        <time>2014-05-04T11:28:28.000Z</time>
      </trkpt>
      <trkpt lat="44.27231" lon="5.40751">
        <ele>895.59997558594</ele>
        <time>2014-05-04T11:28:47.000Z</time>
      </trkpt>
      <trkpt lat="44.27225" lon="5.40737">
        <ele>898.59997558594</ele>
        <time>2014-05-04T11:29:07.000Z</time>
      </trkpt>
      <trkpt lat="44.27219" lon="5.40729">
        <ele>901.79998779297</ele>
        <time>2014-05-04T11:29:21.000Z</time>
      </trkpt>
      <trkpt lat="44.27212" lon="5.40715">
        <ele>905</ele>
        <time>2014-05-04T11:29:38.000Z</time>
      </trkpt>
      <trkpt lat="44.27206" lon="5.40703">
        <ele>908</ele>
        <time>2014-05-04T11:29:56.000Z</time>
      </trkpt>
      <trkpt lat="44.272" lon="5.40691">
        <ele>911.20001220703</ele>
        <time>2014-05-04T11:30:14.000Z</time>
      </trkpt>
      <trkpt lat="44.27191" lon="5.40683">
        <ele>914.40002441406</ele>
        <time>2014-05-04T11:30:32.000Z</time>
      </trkpt>
      <trkpt lat="44.27182" lon="5.40679">
        <ele>917.59997558594</ele>
        <time>2014-05-04T11:30:48.000Z</time>
      </trkpt>
      <trkpt lat="44.27179" lon="5.4068">
        <ele>918.59997558594</ele>
        <time>2014-05-04T11:31:10.000Z</time>
      </trkpt>
      <trkpt lat="44.27152" lon="5.40695">
        <ele>920.79998779297</ele>
        <time>2014-05-04T11:31:27.000Z</time>
      </trkpt>
      <trkpt lat="44.27129" lon="5.40708">
        <ele>922.20001220703</ele>
        <time>2014-05-04T11:31:42.000Z</time>
      </trkpt>
      <trkpt lat="44.27126" lon="5.40696">
        <ele>925.40002441406</ele>
        <time>2014-05-04T11:32:03.000Z</time>
      </trkpt>
      <trkpt lat="44.2713" lon="5.40685">
        <ele>926.79998779297</ele>
        <time>2014-05-04T11:32:15.000Z</time>
      </trkpt>
      <trkpt lat="44.27134" lon="5.4067">
        <ele>930</ele>
        <time>2014-05-04T11:32:29.000Z</time>
      </trkpt>
      <trkpt lat="44.27142" lon="5.40654">
        <ele>933.20001220703</ele>
        <time>2014-05-04T11:32:45.000Z</time>
      </trkpt>
      <trkpt lat="44.2715" lon="5.40631">
        <ele>936.40002441406</ele>
        <time>2014-05-04T11:33:07.000Z</time>
      </trkpt>
      <trkpt lat="44.2716" lon="5.4061">
        <ele>939.40002441406</ele>
        <time>2014-05-04T11:33:26.000Z</time>
      </trkpt>
      <trkpt lat="44.27161" lon="5.40609">
        <ele>939.79998779297</ele>
        <time>2014-05-04T11:33:27.000Z</time>
      </trkpt>
      <trkpt lat="44.27166" lon="5.40595">
        <ele>941</ele>
        <time>2014-05-04T11:33:39.000Z</time>
      </trkpt>
      <trkpt lat="44.27186" lon="5.40559">
        <ele>944</ele>
        <time>2014-05-04T11:33:54.000Z</time>
      </trkpt>
      <trkpt lat="44.27202" lon="5.4052">
        <ele>945.40002441406</ele>
        <time>2014-05-04T11:34:06.000Z</time>
      </trkpt>
      <trkpt lat="44.27217" lon="5.40482">
        <ele>946</ele>
        <time>2014-05-04T11:34:17.000Z</time>
      </trkpt>
      <trkpt lat="44.27215" lon="5.40452">
        <ele>947.59997558594</ele>
        <time>2014-05-04T11:34:27.000Z</time>
      </trkpt>
      <trkpt lat="44.27212" lon="5.40444">
        <ele>949</ele>
        <time>2014-05-04T11:34:31.000Z</time>
      </trkpt>
      <trkpt lat="44.27216" lon="5.4041">
        <ele>952.40002441406</ele>
        <time>2014-05-04T11:34:46.000Z</time>
      </trkpt>
      <trkpt lat="44.27223" lon="5.40363">
        <ele>955.40002441406</ele>
        <time>2014-05-04T11:35:01.000Z</time>
      </trkpt>
      <trkpt lat="44.27224" lon="5.40316">
        <ele>957.79998779297</ele>
        <time>2014-05-04T11:35:13.000Z</time>
      </trkpt>
      <trkpt lat="44.2721" lon="5.40264">
        <ele>958</ele>
        <time>2014-05-04T11:35:27.000Z</time>
      </trkpt>
      <trkpt lat="44.27201" lon="5.40224">
        <ele>958</ele>
        <time>2014-05-04T11:35:33.000Z</time>
      </trkpt>
      <trkpt lat="44.27204" lon="5.40187">
        <ele>955.20001220703</ele>
        <time>2014-05-04T11:35:37.000Z</time>
      </trkpt>
      <trkpt lat="44.27215" lon="5.40157">
        <ele>951.20001220703</ele>
        <time>2014-05-04T11:35:40.000Z</time>
      </trkpt>
      <trkpt lat="44.27226" lon="5.40139">
        <ele>949.59997558594</ele>
        <time>2014-05-04T11:35:42.000Z</time>
      </trkpt>
      <trkpt lat="44.27234" lon="5.40122">
        <ele>950</ele>
        <time>2014-05-04T11:35:44.000Z</time>
      </trkpt>
      <trkpt lat="44.2726" lon="5.40076">
        <ele>953.20001220703</ele>
        <time>2014-05-04T11:35:55.000Z</time>
      </trkpt>
      <trkpt lat="44.27278" lon="5.40058">
        <ele>956.20001220703</ele>
        <time>2014-05-04T11:36:06.000Z</time>
      </trkpt>
      <trkpt lat="44.273" lon="5.4005">
        <ele>959.40002441406</ele>
        <time>2014-05-04T11:36:21.000Z</time>
      </trkpt>
      <trkpt lat="44.27313" lon="5.40041">
        <ele>962.40002441406</ele>
        <time>2014-05-04T11:36:32.000Z</time>
      </trkpt>
      <trkpt lat="44.2733" lon="5.40037">
        <ele>965.20001220703</ele>
        <time>2014-05-04T11:36:45.000Z</time>
      </trkpt>
      <trkpt lat="44.27331" lon="5.40035">
        <ele>965.40002441406</ele>
        <time>2014-05-04T11:36:46.000Z</time>
      </trkpt>
      <trkpt lat="44.2735" lon="5.40005">
        <ele>967.40002441406</ele>
        <time>2014-05-04T11:37:01.000Z</time>
      </trkpt>
      <trkpt lat="44.27358" lon="5.39981">
        <ele>970.40002441406</ele>
        <time>2014-05-04T11:37:15.000Z</time>
      </trkpt>
      <trkpt lat="44.27356" lon="5.39959">
        <ele>973.20001220703</ele>
        <time>2014-05-04T11:37:27.000Z</time>
      </trkpt>
      <trkpt lat="44.27355" lon="5.39957">
        <ele>973.20001220703</ele>
        <time>2014-05-04T11:37:28.000Z</time>
      </trkpt>
      <trkpt lat="44.27349" lon="5.39926">
        <ele>976.20001220703</ele>
        <time>2014-05-04T11:37:44.000Z</time>
      </trkpt>
      <trkpt lat="44.2735" lon="5.39885">
        <ele>978.20001220703</ele>
        <time>2014-05-04T11:38:00.000Z</time>
      </trkpt>
      <trkpt lat="44.27346" lon="5.39844">
        <ele>980</ele>
        <time>2014-05-04T11:38:15.000Z</time>
      </trkpt>
      <trkpt lat="44.27345" lon="5.39808">
        <ele>983</ele>
        <time>2014-05-04T11:38:30.000Z</time>
      </trkpt>
      <trkpt lat="44.27335" lon="5.39752">
        <ele>981.20001220703</ele>
        <time>2014-05-04T11:38:40.000Z</time>
      </trkpt>
      <trkpt lat="44.27334" lon="5.39728">
        <ele>980</ele>
        <time>2014-05-04T11:38:44.000Z</time>
      </trkpt>
      <trkpt lat="44.27324" lon="5.39678">
        <ele>978.59997558594</ele>
        <time>2014-05-04T11:38:51.000Z</time>
      </trkpt>
      <trkpt lat="44.27322" lon="5.39654">
        <ele>977</ele>
        <time>2014-05-04T11:38:54.000Z</time>
      </trkpt>
      <trkpt lat="44.27323" lon="5.3964">
        <ele>976.79998779297</ele>
        <time>2014-05-04T11:38:56.000Z</time>
      </trkpt>
      <trkpt lat="44.27325" lon="5.39609">
        <ele>979.79998779297</ele>
        <time>2014-05-04T11:39:04.000Z</time>
      </trkpt>
      <trkpt lat="44.27319" lon="5.39579">
        <ele>982.20001220703</ele>
        <time>2014-05-04T11:39:15.000Z</time>
      </trkpt>
      <trkpt lat="44.27317" lon="5.39573">
        <ele>982.79998779297</ele>
        <time>2014-05-04T11:39:18.000Z</time>
      </trkpt>
      <trkpt lat="44.27317" lon="5.39565">
        <ele>983.40002441406</ele>
        <time>2014-05-04T11:39:22.000Z</time>
      </trkpt>
      <trkpt lat="44.27315" lon="5.39557">
        <ele>984</ele>
        <time>2014-05-04T11:39:26.000Z</time>
      </trkpt>
      <trkpt lat="44.27311" lon="5.39531">
        <ele>985.79998779297</ele>
        <time>2014-05-04T11:39:38.000Z</time>
      </trkpt>
      <trkpt lat="44.2731" lon="5.39526">
        <ele>986.40002441406</ele>
        <time>2014-05-04T11:39:41.000Z</time>
      </trkpt>
      <trkpt lat="44.27308" lon="5.39498">
        <ele>989.40002441406</ele>
        <time>2014-05-04T11:39:54.000Z</time>
      </trkpt>
      <trkpt lat="44.2731" lon="5.39467">
        <ele>991.20001220703</ele>
        <time>2014-05-04T11:40:06.000Z</time>
      </trkpt>
      <trkpt lat="44.27311" lon="5.39426">
        <ele>994</ele>
        <time>2014-05-04T11:40:23.000Z</time>
      </trkpt>
      <trkpt lat="44.27311" lon="5.39418">
        <ele>994.40002441406</ele>
        <time>2014-05-04T11:40:27.000Z</time>
      </trkpt>
      <trkpt lat="44.27311" lon="5.39411">
        <ele>995.79998779297</ele>
        <time>2014-05-04T11:40:31.000Z</time>
      </trkpt>
      <trkpt lat="44.27319" lon="5.39393">
        <ele>998.59997558594</ele>
        <time>2014-05-04T11:40:42.000Z</time>
      </trkpt>
      <trkpt lat="44.27334" lon="5.39365">
        <ele>1001.200012207</ele>
        <time>2014-05-04T11:40:59.000Z</time>
      </trkpt>
      <trkpt lat="44.27338" lon="5.39341">
        <ele>1003</ele>
        <time>2014-05-04T11:41:10.000Z</time>
      </trkpt>
      <trkpt lat="44.2734" lon="5.39325">
        <ele>1004.200012207</ele>
        <time>2014-05-04T11:41:17.000Z</time>
      </trkpt>
      <trkpt lat="44.27327" lon="5.39277">
        <ele>1006.5999755859</ele>
        <time>2014-05-04T11:41:36.000Z</time>
      </trkpt>
      <trkpt lat="44.27304" lon="5.39247">
        <ele>1008.799987793</ele>
        <time>2014-05-04T11:41:52.000Z</time>
      </trkpt>
      <trkpt lat="44.27287" lon="5.39216">
        <ele>1009.4000244141</ele>
        <time>2014-05-04T11:42:05.000Z</time>
      </trkpt>
      <trkpt lat="44.27279" lon="5.39201">
        <ele>1011.4000244141</ele>
        <time>2014-05-04T11:42:11.000Z</time>
      </trkpt>
      <trkpt lat="44.27258" lon="5.39155">
        <ele>1012.4000244141</ele>
        <time>2014-05-04T11:42:27.000Z</time>
      </trkpt>
      <trkpt lat="44.27249" lon="5.39119">
        <ele>1012.799987793</ele>
        <time>2014-05-04T11:42:37.000Z</time>
      </trkpt>
      <trkpt lat="44.27245" lon="5.39074">
        <ele>1013.5999755859</ele>
        <time>2014-05-04T11:42:49.000Z</time>
      </trkpt>
      <trkpt lat="44.27251" lon="5.39036">
        <ele>1015.799987793</ele>
        <time>2014-05-04T11:43:01.000Z</time>
      </trkpt>
      <trkpt lat="44.27244" lon="5.39003">
        <ele>1019</ele>
        <time>2014-05-04T11:43:12.000Z</time>
      </trkpt>
      <trkpt lat="44.27241" lon="5.38967">
        <ele>1020.5999755859</ele>
        <time>2014-05-04T11:43:25.000Z</time>
      </trkpt>
      <trkpt lat="44.27244" lon="5.3893">
        <ele>1022.799987793</ele>
        <time>2014-05-04T11:43:37.000Z</time>
      </trkpt>
      <trkpt lat="44.27251" lon="5.38886">
        <ele>1022.799987793</ele>
        <time>2014-05-04T11:43:47.000Z</time>
      </trkpt>
      <trkpt lat="44.27255" lon="5.38878">
        <ele>1022.799987793</ele>
        <time>2014-05-04T11:43:49.000Z</time>
      </trkpt>
      <trkpt lat="44.27283" lon="5.38831">
        <ele>1023.200012207</ele>
        <time>2014-05-04T11:44:01.000Z</time>
      </trkpt>
      <trkpt lat="44.273" lon="5.38807">
        <ele>1026.4000244141</ele>
        <time>2014-05-04T11:44:11.000Z</time>
      </trkpt>
      <trkpt lat="44.27306" lon="5.38795">
        <ele>1027.4000244141</ele>
        <time>2014-05-04T11:44:15.000Z</time>
      </trkpt>
      <trkpt lat="44.27325" lon="5.3877">
        <ele>1023.5999755859</ele>
        <time>2014-05-04T11:44:19.000Z</time>
      </trkpt>
      <trkpt lat="44.27343" lon="5.38749">
        <ele>1019.5999755859</ele>
        <time>2014-05-04T11:44:22.000Z</time>
      </trkpt>
      <trkpt lat="44.27372" lon="5.38706">
        <ele>1019.5999755859</ele>
        <time>2014-05-04T11:44:30.000Z</time>
      </trkpt>
      <trkpt lat="44.27377" lon="5.38697">
        <ele>1022.799987793</ele>
        <time>2014-05-04T11:44:34.000Z</time>
      </trkpt>
      <trkpt lat="44.27397" lon="5.38666">
        <ele>1024.4000244141</ele>
        <time>2014-05-04T11:44:46.000Z</time>
      </trkpt>
      <trkpt lat="44.27403" lon="5.38645">
        <ele>1024.8000488281</ele>
        <time>2014-05-04T11:44:56.000Z</time>
      </trkpt>
      <trkpt lat="44.27407" lon="5.38642">
        <ele>1025.1999511719</ele>
        <time>2014-05-04T11:45:06.000Z</time>
      </trkpt>
      <trkpt lat="44.27406" lon="5.38641">
        <ele>1025.1999511719</ele>
        <time>2014-05-04T11:45:28.000Z</time>
      </trkpt>
      <trkpt lat="44.27402" lon="5.38642">
        <ele>1025.1999511719</ele>
        <time>2014-05-04T11:45:43.000Z</time>
      </trkpt>
      <trkpt lat="44.27402" lon="5.38639">
        <ele>1026</ele>
        <time>2014-05-04T11:45:51.000Z</time>
      </trkpt>
      <trkpt lat="44.27404" lon="5.38604">
        <ele>1028.8000488281</ele>
        <time>2014-05-04T11:46:08.000Z</time>
      </trkpt>
      <trkpt lat="44.27408" lon="5.38576">
        <ele>1030.8000488281</ele>
        <time>2014-05-04T11:46:20.000Z</time>
      </trkpt>
      <trkpt lat="44.27409" lon="5.38565">
        <ele>1032</ele>
        <time>2014-05-04T11:46:25.000Z</time>
      </trkpt>
      <trkpt lat="44.27406" lon="5.38541">
        <ele>1033.8000488281</ele>
        <time>2014-05-04T11:46:38.000Z</time>
      </trkpt>
      <trkpt lat="44.274" lon="5.38521">
        <ele>1036.8000488281</ele>
        <time>2014-05-04T11:46:58.000Z</time>
      </trkpt>
      <trkpt lat="44.27398" lon="5.38509">
        <ele>1039.8000488281</ele>
        <time>2014-05-04T11:47:13.000Z</time>
      </trkpt>
      <trkpt lat="44.27397" lon="5.38494">
        <ele>1043</ele>
        <time>2014-05-04T11:47:29.000Z</time>
      </trkpt>
      <trkpt lat="44.27391" lon="5.38481">
        <ele>1046.1999511719</ele>
        <time>2014-05-04T11:47:48.000Z</time>
      </trkpt>
      <trkpt lat="44.27392" lon="5.38468">
        <ele>1049.1999511719</ele>
        <time>2014-05-04T11:48:03.000Z</time>
      </trkpt>
      <trkpt lat="44.27394" lon="5.38451">
        <ele>1052.4000244141</ele>
        <time>2014-05-04T11:48:20.000Z</time>
      </trkpt>
      <trkpt lat="44.27396" lon="5.38445">
        <ele>1053.4000244141</ele>
        <time>2014-05-04T11:48:32.000Z</time>
      </trkpt>
      <trkpt lat="44.27407" lon="5.38416">
        <ele>1056.1999511719</ele>
        <time>2014-05-04T11:48:46.000Z</time>
      </trkpt>
      <trkpt lat="44.27409" lon="5.38407">
        <ele>1057.4000244141</ele>
        <time>2014-05-04T11:48:50.000Z</time>
      </trkpt>
      <trkpt lat="44.27414" lon="5.38373">
        <ele>1060.1999511719</ele>
        <time>2014-05-04T11:49:04.000Z</time>
      </trkpt>
      <trkpt lat="44.27409" lon="5.38347">
        <ele>1062.4000244141</ele>
        <time>2014-05-04T11:49:15.000Z</time>
      </trkpt>
      <trkpt lat="44.27392" lon="5.38324">
        <ele>1065.4000244141</ele>
        <time>2014-05-04T11:49:29.000Z</time>
      </trkpt>
      <trkpt lat="44.27382" lon="5.38296">
        <ele>1068.4000244141</ele>
        <time>2014-05-04T11:49:43.000Z</time>
      </trkpt>
      <trkpt lat="44.27376" lon="5.38279">
        <ele>1068.5999755859</ele>
        <time>2014-05-04T11:49:52.000Z</time>
      </trkpt>
      <trkpt lat="44.27372" lon="5.38267">
        <ele>1070</ele>
        <time>2014-05-04T11:49:59.000Z</time>
      </trkpt>
      <trkpt lat="44.27367" lon="5.38247">
        <ele>1074</ele>
        <time>2014-05-04T11:50:12.000Z</time>
      </trkpt>
      <trkpt lat="44.27367" lon="5.38243">
        <ele>1074.1999511719</ele>
        <time>2014-05-04T11:50:14.000Z</time>
      </trkpt>
      <trkpt lat="44.27367" lon="5.38217">
        <ele>1077.1999511719</ele>
        <time>2014-05-04T11:50:30.000Z</time>
      </trkpt>
      <trkpt lat="44.27367" lon="5.38213">
        <ele>1077.4000244141</ele>
        <time>2014-05-04T11:50:32.000Z</time>
      </trkpt>
      <trkpt lat="44.27369" lon="5.38176">
        <ele>1080.4000244141</ele>
        <time>2014-05-04T11:50:45.000Z</time>
      </trkpt>
      <trkpt lat="44.2737" lon="5.38129">
        <ele>1076.5999755859</ele>
        <time>2014-05-04T11:50:54.000Z</time>
      </trkpt>
      <trkpt lat="44.27369" lon="5.38112">
        <ele>1075.4000244141</ele>
        <time>2014-05-04T11:50:57.000Z</time>
      </trkpt>
      <trkpt lat="44.27364" lon="5.38079">
        <ele>1074</ele>
        <time>2014-05-04T11:51:03.000Z</time>
      </trkpt>
      <trkpt lat="44.27361" lon="5.38062">
        <ele>1073.5999755859</ele>
        <time>2014-05-04T11:51:06.000Z</time>
      </trkpt>
      <trkpt lat="44.27357" lon="5.38043">
        <ele>1073</ele>
        <time>2014-05-04T11:51:09.000Z</time>
      </trkpt>
      <trkpt lat="44.27344" lon="5.38013">
        <ele>1074.8000488281</ele>
        <time>2014-05-04T11:51:17.000Z</time>
      </trkpt>
      <trkpt lat="44.27343" lon="5.38009">
        <ele>1075</ele>
        <time>2014-05-04T11:51:18.000Z</time>
      </trkpt>
      <trkpt lat="44.27335" lon="5.37989">
        <ele>1075.1999511719</ele>
        <time>2014-05-04T11:51:23.000Z</time>
      </trkpt>
      <trkpt lat="44.27327" lon="5.37968">
        <ele>1075.1999511719</ele>
        <time>2014-05-04T11:51:27.000Z</time>
      </trkpt>
      <trkpt lat="44.27319" lon="5.37944">
        <ele>1073</ele>
        <time>2014-05-04T11:51:31.000Z</time>
      </trkpt>
      <trkpt lat="44.27315" lon="5.37933">
        <ele>1072.4000244141</ele>
        <time>2014-05-04T11:51:33.000Z</time>
      </trkpt>
      <trkpt lat="44.27301" lon="5.37904">
        <ele>1072</ele>
        <time>2014-05-04T11:51:40.000Z</time>
      </trkpt>
      <trkpt lat="44.27289" lon="5.37877">
        <ele>1073.8000488281</ele>
        <time>2014-05-04T11:51:49.000Z</time>
      </trkpt>
      <trkpt lat="44.27275" lon="5.37845">
        <ele>1076.1999511719</ele>
        <time>2014-05-04T11:52:02.000Z</time>
      </trkpt>
      <trkpt lat="44.2727" lon="5.37832">
        <ele>1078.4000244141</ele>
        <time>2014-05-04T11:52:19.000Z</time>
      </trkpt>
      <trkpt lat="44.27253" lon="5.37819">
        <ele>1081.5999755859</ele>
        <time>2014-05-04T11:52:38.000Z</time>
      </trkpt>
      <trkpt lat="44.27242" lon="5.37799">
        <ele>1083.8000488281</ele>
        <time>2014-05-04T11:52:51.000Z</time>
      </trkpt>
      <trkpt lat="44.27225" lon="5.37777">
        <ele>1086.5999755859</ele>
        <time>2014-05-04T11:53:06.000Z</time>
      </trkpt>
      <trkpt lat="44.27207" lon="5.37757">
        <ele>1089</ele>
        <time>2014-05-04T11:53:19.000Z</time>
      </trkpt>
      <trkpt lat="44.27199" lon="5.37724">
        <ele>1091.5999755859</ele>
        <time>2014-05-04T11:53:33.000Z</time>
      </trkpt>
      <trkpt lat="44.27218" lon="5.37691">
        <ele>1092.4000244141</ele>
        <time>2014-05-04T11:53:45.000Z</time>
      </trkpt>
      <trkpt lat="44.2723" lon="5.37662">
        <ele>1089.1999511719</ele>
        <time>2014-05-04T11:53:50.000Z</time>
      </trkpt>
      <trkpt lat="44.27235" lon="5.37646">
        <ele>1086.5999755859</ele>
        <time>2014-05-04T11:53:52.000Z</time>
      </trkpt>
      <trkpt lat="44.2724" lon="5.37623">
        <ele>1082.1999511719</ele>
        <time>2014-05-04T11:53:55.000Z</time>
      </trkpt>
      <trkpt lat="44.27242" lon="5.37589">
        <ele>1077</ele>
        <time>2014-05-04T11:54:00.000Z</time>
      </trkpt>
      <trkpt lat="44.27248" lon="5.37579">
        <ele>1074.5999755859</ele>
        <time>2014-05-04T11:54:02.000Z</time>
      </trkpt>
      <trkpt lat="44.27259" lon="5.37559">
        <ele>1072</ele>
        <time>2014-05-04T11:54:06.000Z</time>
      </trkpt>
      <trkpt lat="44.27269" lon="5.37557">
        <ele>1071.5999755859</ele>
        <time>2014-05-04T11:54:10.000Z</time>
      </trkpt>
      <trkpt lat="44.27295" lon="5.37556">
        <ele>1068</ele>
        <time>2014-05-04T11:54:16.000Z</time>
      </trkpt>
      <trkpt lat="44.27306" lon="5.37557">
        <ele>1067</ele>
        <time>2014-05-04T11:54:18.000Z</time>
      </trkpt>
      <trkpt lat="44.27326" lon="5.3756">
        <ele>1065.8000488281</ele>
        <time>2014-05-04T11:54:22.000Z</time>
      </trkpt>
      <trkpt lat="44.27344" lon="5.37571">
        <ele>1064.8000488281</ele>
        <time>2014-05-04T11:54:26.000Z</time>
      </trkpt>
      <trkpt lat="44.27362" lon="5.37576">
        <ele>1062</ele>
        <time>2014-05-04T11:54:30.000Z</time>
      </trkpt>
      <trkpt lat="44.27394" lon="5.37582">
        <ele>1061.5999755859</ele>
        <time>2014-05-04T11:54:38.000Z</time>
      </trkpt>
      <trkpt lat="44.274" lon="5.37586">
        <ele>1061.5999755859</ele>
        <time>2014-05-04T11:54:41.000Z</time>
      </trkpt>
      <trkpt lat="44.2742" lon="5.37589">
        <ele>1065.1999511719</ele>
        <time>2014-05-04T11:54:50.000Z</time>
      </trkpt>
      <trkpt lat="44.27427" lon="5.3759">
        <ele>1066.8000488281</ele>
        <time>2014-05-04T11:54:53.000Z</time>
      </trkpt>
      <trkpt lat="44.27435" lon="5.37594">
        <ele>1067.1999511719</ele>
        <time>2014-05-04T11:54:59.000Z</time>
      </trkpt>
      <trkpt lat="44.27447" lon="5.37601">
        <ele>1067.1999511719</ele>
        <time>2014-05-04T11:55:08.000Z</time>
      </trkpt>
      <trkpt lat="44.27454" lon="5.3761">
        <ele>1064.1999511719</ele>
        <time>2014-05-04T11:55:12.000Z</time>
      </trkpt>
      <trkpt lat="44.27463" lon="5.37619">
        <ele>1062.4000244141</ele>
        <time>2014-05-04T11:55:15.000Z</time>
      </trkpt>
      <trkpt lat="44.27476" lon="5.37625">
        <ele>1060.5999755859</ele>
        <time>2014-05-04T11:55:20.000Z</time>
      </trkpt>
      <trkpt lat="44.27487" lon="5.37634">
        <ele>1059.4000244141</ele>
        <time>2014-05-04T11:55:26.000Z</time>
      </trkpt>
      <trkpt lat="44.27508" lon="5.37654">
        <ele>1055.5999755859</ele>
        <time>2014-05-04T11:55:34.000Z</time>
      </trkpt>
      <trkpt lat="44.27527" lon="5.37662">
        <ele>1053.4000244141</ele>
        <time>2014-05-04T11:55:43.000Z</time>
      </trkpt>
      <trkpt lat="44.27533" lon="5.37666">
        <ele>1053.4000244141</ele>
        <time>2014-05-04T11:55:58.000Z</time>
      </trkpt>
      <trkpt lat="44.27538" lon="5.3766">
        <ele>1055.4000244141</ele>
        <time>2014-05-04T11:56:03.000Z</time>
      </trkpt>
      <trkpt lat="44.27552" lon="5.37648">
        <ele>1055.5999755859</ele>
        <time>2014-05-04T11:56:19.000Z</time>
      </trkpt>
      <trkpt lat="44.27554" lon="5.37647">
        <ele>1055.5999755859</ele>
        <time>2014-05-04T11:56:20.000Z</time>
      </trkpt>
      <trkpt lat="44.27567" lon="5.37638">
        <ele>1054</ele>
        <time>2014-05-04T11:56:24.000Z</time>
      </trkpt>
      <trkpt lat="44.27582" lon="5.3763">
        <ele>1051.5999755859</ele>
        <time>2014-05-04T11:56:27.000Z</time>
      </trkpt>
      <trkpt lat="44.27595" lon="5.37625">
        <ele>1049.4000244141</ele>
        <time>2014-05-04T11:56:30.000Z</time>
      </trkpt>
      <trkpt lat="44.2761" lon="5.37612">
        <ele>1048</ele>
        <time>2014-05-04T11:56:34.000Z</time>
      </trkpt>
      <trkpt lat="44.27633" lon="5.37599">
        <ele>1043.8000488281</ele>
        <time>2014-05-04T11:56:38.000Z</time>
      </trkpt>
      <trkpt lat="44.27645" lon="5.37592">
        <ele>1042.1999511719</ele>
        <time>2014-05-04T11:56:40.000Z</time>
      </trkpt>
      <trkpt lat="44.2768" lon="5.37577">
        <ele>1037.5999755859</ele>
        <time>2014-05-04T11:56:45.000Z</time>
      </trkpt>
      <trkpt lat="44.27705" lon="5.37559">
        <ele>1032.4000244141</ele>
        <time>2014-05-04T11:56:48.000Z</time>
      </trkpt>
      <trkpt lat="44.27741" lon="5.37527">
        <ele>1029.8000488281</ele>
        <time>2014-05-04T11:56:53.000Z</time>
      </trkpt>
      <trkpt lat="44.27778" lon="5.37477">
        <ele>1029.5999755859</ele>
        <time>2014-05-04T11:57:00.000Z</time>
      </trkpt>
      <trkpt lat="44.27796" lon="5.37453">
        <ele>1029.4000244141</ele>
        <time>2014-05-04T11:57:04.000Z</time>
      </trkpt>
      <trkpt lat="44.27803" lon="5.37441">
        <ele>1029</ele>
        <time>2014-05-04T11:57:06.000Z</time>
      </trkpt>
      <trkpt lat="44.27819" lon="5.37417">
        <ele>1028.8000488281</ele>
        <time>2014-05-04T11:57:10.000Z</time>
      </trkpt>
      <trkpt lat="44.27832" lon="5.37402">
        <ele>1028.4000244141</ele>
        <time>2014-05-04T11:57:13.000Z</time>
      </trkpt>
      <trkpt lat="44.27862" lon="5.37384">
        <ele>1026</ele>
        <time>2014-05-04T11:57:18.000Z</time>
      </trkpt>
      <trkpt lat="44.27874" lon="5.37373">
        <ele>1024.4000244141</ele>
        <time>2014-05-04T11:57:20.000Z</time>
      </trkpt>
      <trkpt lat="44.27885" lon="5.37365">
        <ele>1023.4000244141</ele>
        <time>2014-05-04T11:57:22.000Z</time>
      </trkpt>
      <trkpt lat="44.27893" lon="5.37358">
        <ele>1023.200012207</ele>
        <time>2014-05-04T11:57:26.000Z</time>
      </trkpt>
      <trkpt lat="44.27894" lon="5.37358">
        <ele>1023.200012207</ele>
        <time>2014-05-04T11:57:39.000Z</time>
      </trkpt>
      <trkpt lat="44.27895" lon="5.37355">
        <ele>1023.200012207</ele>
        <time>2014-05-04T11:57:42.000Z</time>
      </trkpt>
      <trkpt lat="44.27897" lon="5.37339">
        <ele>1023.200012207</ele>
        <time>2014-05-04T11:58:00.000Z</time>
      </trkpt>
      <trkpt lat="44.27902" lon="5.37337">
        <ele>1023.200012207</ele>
        <time>2014-05-04T11:58:22.000Z</time>
      </trkpt>
      <trkpt lat="44.279" lon="5.37342">
        <ele>1023.200012207</ele>
        <time>2014-05-04T11:58:45.000Z</time>
      </trkpt>
      <trkpt lat="44.27898" lon="5.37351">
        <ele>1023.200012207</ele>
        <time>2014-05-04T11:58:59.000Z</time>
      </trkpt>
      <trkpt lat="44.27906" lon="5.37347">
        <ele>1023.200012207</ele>
        <time>2014-05-04T11:59:07.000Z</time>
      </trkpt>
      <trkpt lat="44.27911" lon="5.37343">
        <ele>1023.200012207</ele>
        <time>2014-05-04T11:59:11.000Z</time>
      </trkpt>
      <trkpt lat="44.27928" lon="5.37324">
        <ele>1021.5999755859</ele>
        <time>2014-05-04T11:59:22.000Z</time>
      </trkpt>
      <trkpt lat="44.27939" lon="5.37312">
        <ele>1020.799987793</ele>
        <time>2014-05-04T11:59:26.000Z</time>
      </trkpt>
      <trkpt lat="44.27953" lon="5.3729">
        <ele>1020.5999755859</ele>
        <time>2014-05-04T11:59:30.000Z</time>
      </trkpt>
      <trkpt lat="44.27977" lon="5.37241">
        <ele>1019.5999755859</ele>
        <time>2014-05-04T11:59:41.000Z</time>
      </trkpt>
      <trkpt lat="44.27989" lon="5.37211">
        <ele>1019.5999755859</ele>
        <time>2014-05-04T11:59:48.000Z</time>
      </trkpt>
      <trkpt lat="44.27999" lon="5.37172">
        <ele>1019.5999755859</ele>
        <time>2014-05-04T11:59:56.000Z</time>
      </trkpt>
      <trkpt lat="44.2802" lon="5.37124">
        <ele>1019.5999755859</ele>
        <time>2014-05-04T12:00:07.000Z</time>
      </trkpt>
      <trkpt lat="44.28023" lon="5.37085">
        <ele>1021.799987793</ele>
        <time>2014-05-04T12:00:15.000Z</time>
      </trkpt>
      <trkpt lat="44.28033" lon="5.37043">
        <ele>1022</ele>
        <time>2014-05-04T12:00:24.000Z</time>
      </trkpt>
      <trkpt lat="44.28046" lon="5.36994">
        <ele>1022</ele>
        <time>2014-05-04T12:00:36.000Z</time>
      </trkpt>
      <trkpt lat="44.28057" lon="5.36955">
        <ele>1023.5999755859</ele>
        <time>2014-05-04T12:00:46.000Z</time>
      </trkpt>
      <trkpt lat="44.28059" lon="5.36951">
        <ele>1024</ele>
        <time>2014-05-04T12:00:47.000Z</time>
      </trkpt>
      <trkpt lat="44.28078" lon="5.36909">
        <ele>1026</ele>
        <time>2014-05-04T12:00:59.000Z</time>
      </trkpt>
      <trkpt lat="44.28081" lon="5.36876">
        <ele>1028</ele>
        <time>2014-05-04T12:01:11.000Z</time>
      </trkpt>
      <trkpt lat="44.28078" lon="5.36863">
        <ele>1028.4000244141</ele>
        <time>2014-05-04T12:01:17.000Z</time>
      </trkpt>
      <trkpt lat="44.28074" lon="5.36855">
        <ele>1029</ele>
        <time>2014-05-04T12:01:20.000Z</time>
      </trkpt>
      <trkpt lat="44.28071" lon="5.36847">
        <ele>1030.4000244141</ele>
        <time>2014-05-04T12:01:23.000Z</time>
      </trkpt>
      <trkpt lat="44.28067" lon="5.36834">
        <ele>1031.5999755859</ele>
        <time>2014-05-04T12:01:28.000Z</time>
      </trkpt>
      <trkpt lat="44.28037" lon="5.36794">
        <ele>1030.5999755859</ele>
        <time>2014-05-04T12:01:41.000Z</time>
      </trkpt>
      <trkpt lat="44.28026" lon="5.36772">
        <ele>1032.1999511719</ele>
        <time>2014-05-04T12:01:48.000Z</time>
      </trkpt>
      <trkpt lat="44.28019" lon="5.36734">
        <ele>1032.5999755859</ele>
        <time>2014-05-04T12:01:56.000Z</time>
      </trkpt>
      <trkpt lat="44.28008" lon="5.36704">
        <ele>1035.8000488281</ele>
        <time>2014-05-04T12:02:09.000Z</time>
      </trkpt>
      <trkpt lat="44.28007" lon="5.36676">
        <ele>1036</ele>
        <time>2014-05-04T12:02:17.000Z</time>
      </trkpt>
      <trkpt lat="44.28007" lon="5.36657">
        <ele>1036</ele>
        <time>2014-05-04T12:02:22.000Z</time>
      </trkpt>
      <trkpt lat="44.28002" lon="5.36644">
        <ele>1036</ele>
        <time>2014-05-04T12:02:25.000Z</time>
      </trkpt>
      <trkpt lat="44.27989" lon="5.36625">
        <ele>1036</ele>
        <time>2014-05-04T12:02:30.000Z</time>
      </trkpt>
      <trkpt lat="44.27983" lon="5.36603">
        <ele>1035</ele>
        <time>2014-05-04T12:02:34.000Z</time>
      </trkpt>
      <trkpt lat="44.27967" lon="5.36572">
        <ele>1032</ele>
        <time>2014-05-04T12:02:38.000Z</time>
      </trkpt>
      <trkpt lat="44.27929" lon="5.36512">
        <ele>1034</ele>
        <time>2014-05-04T12:02:49.000Z</time>
      </trkpt>
      <trkpt lat="44.27918" lon="5.36467">
        <ele>1037</ele>
        <time>2014-05-04T12:03:01.000Z</time>
      </trkpt>
      <trkpt lat="44.27911" lon="5.36454">
        <ele>1037</ele>
        <time>2014-05-04T12:03:03.000Z</time>
      </trkpt>
      <trkpt lat="44.27901" lon="5.36429">
        <ele>1040</ele>
        <time>2014-05-04T12:03:08.000Z</time>
      </trkpt>
      <trkpt lat="44.27894" lon="5.36391">
        <ele>1043</ele>
        <time>2014-05-04T12:03:20.000Z</time>
      </trkpt>
      <trkpt lat="44.27887" lon="5.3637">
        <ele>1044.1999511719</ele>
        <time>2014-05-04T12:03:30.000Z</time>
      </trkpt>
      <trkpt lat="44.27885" lon="5.36364">
        <ele>1045</ele>
        <time>2014-05-04T12:03:33.000Z</time>
      </trkpt>
      <trkpt lat="44.27888" lon="5.36356">
        <ele>1045.4000244141</ele>
        <time>2014-05-04T12:03:36.000Z</time>
      </trkpt>
      <trkpt lat="44.27886" lon="5.36329">
        <ele>1048</ele>
        <time>2014-05-04T12:03:47.000Z</time>
      </trkpt>
      <trkpt lat="44.27879" lon="5.36304">
        <ele>1049.4000244141</ele>
        <time>2014-05-04T12:03:59.000Z</time>
      </trkpt>
      <trkpt lat="44.27879" lon="5.36298">
        <ele>1049.4000244141</ele>
        <time>2014-05-04T12:04:01.000Z</time>
      </trkpt>
      <trkpt lat="44.2787" lon="5.36291">
        <ele>1049.4000244141</ele>
        <time>2014-05-04T12:04:06.000Z</time>
      </trkpt>
      <trkpt lat="44.27853" lon="5.36271">
        <ele>1049.4000244141</ele>
        <time>2014-05-04T12:04:15.000Z</time>
      </trkpt>
      <trkpt lat="44.2785" lon="5.36267">
        <ele>1048.8000488281</ele>
        <time>2014-05-04T12:04:16.000Z</time>
      </trkpt>
      <trkpt lat="44.27844" lon="5.36258">
        <ele>1047.4000244141</ele>
        <time>2014-05-04T12:04:18.000Z</time>
      </trkpt>
      <trkpt lat="44.27826" lon="5.36243">
        <ele>1045.4000244141</ele>
        <time>2014-05-04T12:04:22.000Z</time>
      </trkpt>
      <trkpt lat="44.27811" lon="5.36237">
        <ele>1043.4000244141</ele>
        <time>2014-05-04T12:04:25.000Z</time>
      </trkpt>
      <trkpt lat="44.27795" lon="5.36233">
        <ele>1045.1999511719</ele>
        <time>2014-05-04T12:04:30.000Z</time>
      </trkpt>
      <trkpt lat="44.27758" lon="5.36231">
        <ele>1045.4000244141</ele>
        <time>2014-05-04T12:04:43.000Z</time>
      </trkpt>
      <trkpt lat="44.27752" lon="5.36219">
        <ele>1046.1999511719</ele>
        <time>2014-05-04T12:04:47.000Z</time>
      </trkpt>
      <trkpt lat="44.27751" lon="5.36194">
        <ele>1046.1999511719</ele>
        <time>2014-05-04T12:04:55.000Z</time>
      </trkpt>
      <trkpt lat="44.27756" lon="5.36147">
        <ele>1049.5999755859</ele>
        <time>2014-05-04T12:05:06.000Z</time>
      </trkpt>
      <trkpt lat="44.2777" lon="5.36106">
        <ele>1052.4000244141</ele>
        <time>2014-05-04T12:05:22.000Z</time>
      </trkpt>
      <trkpt lat="44.27782" lon="5.3608">
        <ele>1054.8000488281</ele>
        <time>2014-05-04T12:05:32.000Z</time>
      </trkpt>
      <trkpt lat="44.27801" lon="5.36036">
        <ele>1056.8000488281</ele>
        <time>2014-05-04T12:05:43.000Z</time>
      </trkpt>
      <trkpt lat="44.27803" lon="5.36031">
        <ele>1057</ele>
        <time>2014-05-04T12:05:44.000Z</time>
      </trkpt>
      <trkpt lat="44.27814" lon="5.36005">
        <ele>1058.1999511719</ele>
        <time>2014-05-04T12:05:50.000Z</time>
      </trkpt>
      <trkpt lat="44.27841" lon="5.35978">
        <ele>1061.5999755859</ele>
        <time>2014-05-04T12:06:01.000Z</time>
      </trkpt>
      <trkpt lat="44.2786" lon="5.35957">
        <ele>1062.4000244141</ele>
        <time>2014-05-04T12:06:13.000Z</time>
      </trkpt>
      <trkpt lat="44.27873" lon="5.35936">
        <ele>1064.4000244141</ele>
        <time>2014-05-04T12:06:26.000Z</time>
      </trkpt>
      <trkpt lat="44.27887" lon="5.35918">
        <ele>1067</ele>
        <time>2014-05-04T12:06:38.000Z</time>
      </trkpt>
      <trkpt lat="44.27891" lon="5.35913">
        <ele>1069</ele>
        <time>2014-05-04T12:06:49.000Z</time>
      </trkpt>
      <trkpt lat="44.27899" lon="5.35903">
        <ele>1069.5999755859</ele>
        <time>2014-05-04T12:06:55.000Z</time>
      </trkpt>
      <trkpt lat="44.2791" lon="5.35874">
        <ele>1073</ele>
        <time>2014-05-04T12:07:08.000Z</time>
      </trkpt>
      <trkpt lat="44.27916" lon="5.35849">
        <ele>1075</ele>
        <time>2014-05-04T12:07:21.000Z</time>
      </trkpt>
      <trkpt lat="44.27931" lon="5.35809">
        <ele>1077.5999755859</ele>
        <time>2014-05-04T12:07:36.000Z</time>
      </trkpt>
      <trkpt lat="44.27932" lon="5.35796">
        <ele>1077.8000488281</ele>
        <time>2014-05-04T12:07:41.000Z</time>
      </trkpt>
      <trkpt lat="44.27942" lon="5.35766">
        <ele>1080.1999511719</ele>
        <time>2014-05-04T12:07:53.000Z</time>
      </trkpt>
      <trkpt lat="44.27955" lon="5.35728">
        <ele>1082.8000488281</ele>
        <time>2014-05-04T12:08:09.000Z</time>
      </trkpt>
      <trkpt lat="44.27964" lon="5.35696">
        <ele>1085.1999511719</ele>
        <time>2014-05-04T12:08:21.000Z</time>
      </trkpt>
      <trkpt lat="44.27972" lon="5.35662">
        <ele>1086.1999511719</ele>
        <time>2014-05-04T12:08:27.000Z</time>
      </trkpt>
      <trkpt lat="44.27973" lon="5.35649">
        <ele>1085.8000488281</ele>
        <time>2014-05-04T12:08:29.000Z</time>
      </trkpt>
      <trkpt lat="44.27982" lon="5.35608">
        <ele>1082</ele>
        <time>2014-05-04T12:08:35.000Z</time>
      </trkpt>
      <trkpt lat="44.27988" lon="5.35585">
        <ele>1078.8000488281</ele>
        <time>2014-05-04T12:08:38.000Z</time>
      </trkpt>
      <trkpt lat="44.27993" lon="5.35548">
        <ele>1075.1999511719</ele>
        <time>2014-05-04T12:08:42.000Z</time>
      </trkpt>
      <trkpt lat="44.28" lon="5.35497">
        <ele>1071.8000488281</ele>
        <time>2014-05-04T12:08:47.000Z</time>
      </trkpt>
      <trkpt lat="44.28003" lon="5.35459">
        <ele>1071.4000244141</ele>
        <time>2014-05-04T12:08:51.000Z</time>
      </trkpt>
      <trkpt lat="44.28001" lon="5.35434">
        <ele>1069.8000488281</ele>
        <time>2014-05-04T12:08:54.000Z</time>
      </trkpt>
      <trkpt lat="44.28" lon="5.35415">
        <ele>1071</ele>
        <time>2014-05-04T12:08:57.000Z</time>
      </trkpt>
      <trkpt lat="44.27999" lon="5.35408">
        <ele>1071.5999755859</ele>
        <time>2014-05-04T12:08:59.000Z</time>
      </trkpt>
      <trkpt lat="44.27996" lon="5.35372">
        <ele>1073.5999755859</ele>
        <time>2014-05-04T12:09:10.000Z</time>
      </trkpt>
      <trkpt lat="44.27991" lon="5.35333">
        <ele>1075.5999755859</ele>
        <time>2014-05-04T12:09:23.000Z</time>
      </trkpt>
      <trkpt lat="44.27988" lon="5.35292">
        <ele>1078.8000488281</ele>
        <time>2014-05-04T12:09:33.000Z</time>
      </trkpt>
      <trkpt lat="44.27987" lon="5.35268">
        <ele>1079.5999755859</ele>
        <time>2014-05-04T12:09:37.000Z</time>
      </trkpt>
      <trkpt lat="44.27988" lon="5.35242">
        <ele>1081.4000244141</ele>
        <time>2014-05-04T12:09:42.000Z</time>
      </trkpt>
      <trkpt lat="44.27992" lon="5.35209">
        <ele>1084</ele>
        <time>2014-05-04T12:09:55.000Z</time>
      </trkpt>
      <trkpt lat="44.27999" lon="5.35164">
        <ele>1086.5999755859</ele>
        <time>2014-05-04T12:10:10.000Z</time>
      </trkpt>
      <trkpt lat="44.28005" lon="5.35128">
        <ele>1088.4000244141</ele>
        <time>2014-05-04T12:10:23.000Z</time>
      </trkpt>
      <trkpt lat="44.28006" lon="5.35114">
        <ele>1090.1999511719</ele>
        <time>2014-05-04T12:10:28.000Z</time>
      </trkpt>
      <trkpt lat="44.28005" lon="5.35112">
        <ele>1090.4000244141</ele>
        <time>2014-05-04T12:10:36.000Z</time>
      </trkpt>
      <trkpt lat="44.28003" lon="5.35063">
        <ele>1091.5999755859</ele>
        <time>2014-05-04T12:10:47.000Z</time>
      </trkpt>
      <trkpt lat="44.28001" lon="5.35004">
        <ele>1091.5999755859</ele>
        <time>2014-05-04T12:10:59.000Z</time>
      </trkpt>
      <trkpt lat="44.27995" lon="5.34962">
        <ele>1092.5999755859</ele>
        <time>2014-05-04T12:11:05.000Z</time>
      </trkpt>
      <trkpt lat="44.27996" lon="5.34937">
        <ele>1092.1999511719</ele>
        <time>2014-05-04T12:11:09.000Z</time>
      </trkpt>
      <trkpt lat="44.27996" lon="5.34875">
        <ele>1092.8000488281</ele>
        <time>2014-05-04T12:11:18.000Z</time>
      </trkpt>
      <trkpt lat="44.28003" lon="5.3483">
        <ele>1089.8000488281</ele>
        <time>2014-05-04T12:11:23.000Z</time>
      </trkpt>
      <trkpt lat="44.28004" lon="5.34821">
        <ele>1089.4000244141</ele>
        <time>2014-05-04T12:11:24.000Z</time>
      </trkpt>
      <trkpt lat="44.28006" lon="5.348">
        <ele>1091.5999755859</ele>
        <time>2014-05-04T12:11:27.000Z</time>
      </trkpt>
      <trkpt lat="44.28001" lon="5.34759">
        <ele>1091.8000488281</ele>
        <time>2014-05-04T12:11:32.000Z</time>
      </trkpt>
      <trkpt lat="44.28001" lon="5.34723">
        <ele>1087.5999755859</ele>
        <time>2014-05-04T12:11:36.000Z</time>
      </trkpt>
      <trkpt lat="44.28002" lon="5.34695">
        <ele>1087</ele>
        <time>2014-05-04T12:11:39.000Z</time>
      </trkpt>
      <trkpt lat="44.28016" lon="5.34654">
        <ele>1084.8000488281</ele>
        <time>2014-05-04T12:11:47.000Z</time>
      </trkpt>
      <trkpt lat="44.28018" lon="5.34644">
        <ele>1084.8000488281</ele>
        <time>2014-05-04T12:11:49.000Z</time>
      </trkpt>
      <trkpt lat="44.2802" lon="5.3462">
        <ele>1087</ele>
        <time>2014-05-04T12:11:53.000Z</time>
      </trkpt>
      <trkpt lat="44.2802" lon="5.34607">
        <ele>1087.1999511719</ele>
        <time>2014-05-04T12:11:55.000Z</time>
      </trkpt>
      <trkpt lat="44.28017" lon="5.34583">
        <ele>1084.8000488281</ele>
        <time>2014-05-04T12:11:59.000Z</time>
      </trkpt>
      <trkpt lat="44.28017" lon="5.34529">
        <ele>1084</ele>
        <time>2014-05-04T12:12:11.000Z</time>
      </trkpt>
      <trkpt lat="44.28016" lon="5.3449">
        <ele>1085.8000488281</ele>
        <time>2014-05-04T12:12:24.000Z</time>
      </trkpt>
      <trkpt lat="44.28015" lon="5.34457">
        <ele>1088.5999755859</ele>
        <time>2014-05-04T12:12:38.000Z</time>
      </trkpt>
      <trkpt lat="44.28013" lon="5.34405">
        <ele>1091.1999511719</ele>
        <time>2014-05-04T12:12:52.000Z</time>
      </trkpt>
      <trkpt lat="44.28013" lon="5.344">
        <ele>1091.1999511719</ele>
        <time>2014-05-04T12:12:53.000Z</time>
      </trkpt>
      <trkpt lat="44.28017" lon="5.34328">
        <ele>1091.1999511719</ele>
        <time>2014-05-04T12:13:05.000Z</time>
      </trkpt>
      <trkpt lat="44.28014" lon="5.34316">
        <ele>1089.8000488281</ele>
        <time>2014-05-04T12:13:07.000Z</time>
      </trkpt>
      <trkpt lat="44.28018" lon="5.34272">
        <ele>1087.8000488281</ele>
        <time>2014-05-04T12:13:15.000Z</time>
      </trkpt>
      <trkpt lat="44.28018" lon="5.34256">
        <ele>1087.4000244141</ele>
        <time>2014-05-04T12:13:17.000Z</time>
      </trkpt>
      <trkpt lat="44.28017" lon="5.34187">
        <ele>1089.1999511719</ele>
        <time>2014-05-04T12:13:28.000Z</time>
      </trkpt>
      <trkpt lat="44.28025" lon="5.34153">
        <ele>1091.1999511719</ele>
        <time>2014-05-04T12:13:42.000Z</time>
      </trkpt>
      <trkpt lat="44.28028" lon="5.34116">
        <ele>1094.4000244141</ele>
        <time>2014-05-04T12:13:55.000Z</time>
      </trkpt>
      <trkpt lat="44.28023" lon="5.34072">
        <ele>1094.5999755859</ele>
        <time>2014-05-04T12:14:07.000Z</time>
      </trkpt>
      <trkpt lat="44.28024" lon="5.34038">
        <ele>1094.5999755859</ele>
        <time>2014-05-04T12:14:17.000Z</time>
      </trkpt>
      <trkpt lat="44.28035" lon="5.33999">
        <ele>1097.1999511719</ele>
        <time>2014-05-04T12:14:31.000Z</time>
      </trkpt>
      <trkpt lat="44.28053" lon="5.33967">
        <ele>1098.1999511719</ele>
        <time>2014-05-04T12:14:43.000Z</time>
      </trkpt>
      <trkpt lat="44.28066" lon="5.33935">
        <ele>1099.4000244141</ele>
        <time>2014-05-04T12:14:51.000Z</time>
      </trkpt>
      <trkpt lat="44.28085" lon="5.33845">
        <ele>1099.4000244141</ele>
        <time>2014-05-04T12:15:06.000Z</time>
      </trkpt>
      <trkpt lat="44.28094" lon="5.3381">
        <ele>1099.4000244141</ele>
        <time>2014-05-04T12:15:16.000Z</time>
      </trkpt>
      <trkpt lat="44.28095" lon="5.33802">
        <ele>1099.4000244141</ele>
        <time>2014-05-04T12:15:28.000Z</time>
      </trkpt>
      <trkpt lat="44.28096" lon="5.33791">
        <ele>1098.8000488281</ele>
        <time>2014-05-04T12:15:35.000Z</time>
      </trkpt>
      <trkpt lat="44.28096" lon="5.3377">
        <ele>1094.1999511719</ele>
        <time>2014-05-04T12:15:38.000Z</time>
      </trkpt>
      <trkpt lat="44.28095" lon="5.33756">
        <ele>1093.1999511719</ele>
        <time>2014-05-04T12:15:40.000Z</time>
      </trkpt>
      <trkpt lat="44.28094" lon="5.33749">
        <ele>1093</ele>
        <time>2014-05-04T12:15:41.000Z</time>
      </trkpt>
      <trkpt lat="44.28087" lon="5.33718">
        <ele>1087.8000488281</ele>
        <time>2014-05-04T12:15:45.000Z</time>
      </trkpt>
      <trkpt lat="44.28078" lon="5.337">
        <ele>1084.8000488281</ele>
        <time>2014-05-04T12:15:49.000Z</time>
      </trkpt>
      <trkpt lat="44.28073" lon="5.33677">
        <ele>1079.5999755859</ele>
        <time>2014-05-04T12:15:53.000Z</time>
      </trkpt>
      <trkpt lat="44.28074" lon="5.33666">
        <ele>1078.8000488281</ele>
        <time>2014-05-04T12:15:55.000Z</time>
      </trkpt>
      <trkpt lat="44.28078" lon="5.33655">
        <ele>1078.5999755859</ele>
        <time>2014-05-04T12:15:57.000Z</time>
      </trkpt>
      <trkpt lat="44.28081" lon="5.33644">
        <ele>1079.8000488281</ele>
        <time>2014-05-04T12:15:59.000Z</time>
      </trkpt>
      <trkpt lat="44.28084" lon="5.33632">
        <ele>1080.5999755859</ele>
        <time>2014-05-04T12:16:01.000Z</time>
      </trkpt>
      <trkpt lat="44.28093" lon="5.33595">
        <ele>1082.1999511719</ele>
        <time>2014-05-04T12:16:11.000Z</time>
      </trkpt>
      <trkpt lat="44.28097" lon="5.3358">
        <ele>1083.8000488281</ele>
        <time>2014-05-04T12:16:21.000Z</time>
      </trkpt>
      <trkpt lat="44.28101" lon="5.33552">
        <ele>1083.8000488281</ele>
        <time>2014-05-04T12:16:36.000Z</time>
      </trkpt>
      <trkpt lat="44.28118" lon="5.33536">
        <ele>1087</ele>
        <time>2014-05-04T12:16:51.000Z</time>
      </trkpt>
      <trkpt lat="44.28127" lon="5.33527">
        <ele>1089.4000244141</ele>
        <time>2014-05-04T12:17:03.000Z</time>
      </trkpt>
      <trkpt lat="44.28137" lon="5.3351">
        <ele>1089.5999755859</ele>
        <time>2014-05-04T12:17:10.000Z</time>
      </trkpt>
      <trkpt lat="44.28142" lon="5.33489">
        <ele>1089.5999755859</ele>
        <time>2014-05-04T12:17:13.000Z</time>
      </trkpt>
      <trkpt lat="44.28145" lon="5.33457">
        <ele>1087</ele>
        <time>2014-05-04T12:17:17.000Z</time>
      </trkpt>
      <trkpt lat="44.28146" lon="5.33449">
        <ele>1086.8000488281</ele>
        <time>2014-05-04T12:17:18.000Z</time>
      </trkpt>
      <trkpt lat="44.28147" lon="5.33388">
        <ele>1083.5999755859</ele>
        <time>2014-05-04T12:17:27.000Z</time>
      </trkpt>
      <trkpt lat="44.28148" lon="5.33366">
        <ele>1078.5999755859</ele>
        <time>2014-05-04T12:17:32.000Z</time>
      </trkpt>
      <trkpt lat="44.28149" lon="5.33359">
        <ele>1076.8000488281</ele>
        <time>2014-05-04T12:17:34.000Z</time>
      </trkpt>
      <trkpt lat="44.28154" lon="5.3335">
        <ele>1075.1999511719</ele>
        <time>2014-05-04T12:17:37.000Z</time>
      </trkpt>
      <trkpt lat="44.28179" lon="5.33305">
        <ele>1072.1999511719</ele>
        <time>2014-05-04T12:17:46.000Z</time>
      </trkpt>
      <trkpt lat="44.28188" lon="5.33273">
        <ele>1068.4000244141</ele>
        <time>2014-05-04T12:17:50.000Z</time>
      </trkpt>
      <trkpt lat="44.28191" lon="5.33265">
        <ele>1067.5999755859</ele>
        <time>2014-05-04T12:17:51.000Z</time>
      </trkpt>
      <trkpt lat="44.28198" lon="5.33254">
        <ele>1067</ele>
        <time>2014-05-04T12:17:53.000Z</time>
      </trkpt>
      <trkpt lat="44.28219" lon="5.33237">
        <ele>1065.4000244141</ele>
        <time>2014-05-04T12:17:58.000Z</time>
      </trkpt>
      <trkpt lat="44.2823" lon="5.33193">
        <ele>1059.1999511719</ele>
        <time>2014-05-04T12:18:03.000Z</time>
      </trkpt>
      <trkpt lat="44.28236" lon="5.3316">
        <ele>1053.8000488281</ele>
        <time>2014-05-04T12:18:06.000Z</time>
      </trkpt>
      <trkpt lat="44.28243" lon="5.33125">
        <ele>1048.8000488281</ele>
        <time>2014-05-04T12:18:09.000Z</time>
      </trkpt>
      <trkpt lat="44.28245" lon="5.33114">
        <ele>1047.8000488281</ele>
        <time>2014-05-04T12:18:10.000Z</time>
      </trkpt>
      <trkpt lat="44.2825" lon="5.33084">
        <ele>1046.1999511719</ele>
        <time>2014-05-04T12:18:13.000Z</time>
      </trkpt>
      <trkpt lat="44.28255" lon="5.33045">
        <ele>1042.1999511719</ele>
        <time>2014-05-04T12:18:17.000Z</time>
      </trkpt>
      <trkpt lat="44.28257" lon="5.33036">
        <ele>1041.4000244141</ele>
        <time>2014-05-04T12:18:18.000Z</time>
      </trkpt>
      <trkpt lat="44.28269" lon="5.33003">
        <ele>1039.1999511719</ele>
        <time>2014-05-04T12:18:22.000Z</time>
      </trkpt>
      <trkpt lat="44.28271" lon="5.32993">
        <ele>1038.5999755859</ele>
        <time>2014-05-04T12:18:23.000Z</time>
      </trkpt>
      <trkpt lat="44.28281" lon="5.32959">
        <ele>1035.4000244141</ele>
        <time>2014-05-04T12:18:26.000Z</time>
      </trkpt>
      <trkpt lat="44.28289" lon="5.32938">
        <ele>1032</ele>
        <time>2014-05-04T12:18:28.000Z</time>
      </trkpt>
      <trkpt lat="44.28302" lon="5.32908">
        <ele>1027.8000488281</ele>
        <time>2014-05-04T12:18:31.000Z</time>
      </trkpt>
      <trkpt lat="44.28316" lon="5.32876">
        <ele>1023.5999755859</ele>
        <time>2014-05-04T12:18:34.000Z</time>
      </trkpt>
      <trkpt lat="44.28328" lon="5.32842">
        <ele>1020.200012207</ele>
        <time>2014-05-04T12:18:37.000Z</time>
      </trkpt>
      <trkpt lat="44.28336" lon="5.32813">
        <ele>1019</ele>
        <time>2014-05-04T12:18:40.000Z</time>
      </trkpt>
      <trkpt lat="44.2835" lon="5.32767">
        <ele>1016.200012207</ele>
        <time>2014-05-04T12:18:45.000Z</time>
      </trkpt>
      <trkpt lat="44.28363" lon="5.32738">
        <ele>1011.200012207</ele>
        <time>2014-05-04T12:18:48.000Z</time>
      </trkpt>
      <trkpt lat="44.28386" lon="5.32695">
        <ele>1012</ele>
        <time>2014-05-04T12:18:53.000Z</time>
      </trkpt>
      <trkpt lat="44.28417" lon="5.3262">
        <ele>1010.4000244141</ele>
        <time>2014-05-04T12:19:02.000Z</time>
      </trkpt>
      <trkpt lat="44.28425" lon="5.32586">
        <ele>1010.200012207</ele>
        <time>2014-05-04T12:19:07.000Z</time>
      </trkpt>
      <trkpt lat="44.28441" lon="5.32532">
        <ele>1013.200012207</ele>
        <time>2014-05-04T12:19:17.000Z</time>
      </trkpt>
      <trkpt lat="44.28444" lon="5.32477">
        <ele>1014.4000244141</ele>
        <time>2014-05-04T12:19:27.000Z</time>
      </trkpt>
      <trkpt lat="44.28452" lon="5.32431">
        <ele>1015.5999755859</ele>
        <time>2014-05-04T12:19:36.000Z</time>
      </trkpt>
      <trkpt lat="44.28447" lon="5.32401">
        <ele>1011.799987793</ele>
        <time>2014-05-04T12:19:40.000Z</time>
      </trkpt>
      <trkpt lat="44.28442" lon="5.32382">
        <ele>1009</ele>
        <time>2014-05-04T12:19:42.000Z</time>
      </trkpt>
      <trkpt lat="44.28436" lon="5.32351">
        <ele>1004.200012207</ele>
        <time>2014-05-04T12:19:45.000Z</time>
      </trkpt>
      <trkpt lat="44.28434" lon="5.32341">
        <ele>1002.799987793</ele>
        <time>2014-05-04T12:19:46.000Z</time>
      </trkpt>
      <trkpt lat="44.28431" lon="5.32309">
        <ele>996.79998779297</ele>
        <time>2014-05-04T12:19:49.000Z</time>
      </trkpt>
      <trkpt lat="44.28429" lon="5.32297">
        <ele>995.40002441406</ele>
        <time>2014-05-04T12:19:50.000Z</time>
      </trkpt>
      <trkpt lat="44.28421" lon="5.32264">
        <ele>990.59997558594</ele>
        <time>2014-05-04T12:19:53.000Z</time>
      </trkpt>
      <trkpt lat="44.28414" lon="5.32235">
        <ele>987.20001220703</ele>
        <time>2014-05-04T12:19:56.000Z</time>
      </trkpt>
      <trkpt lat="44.28395" lon="5.32198">
        <ele>982.40002441406</ele>
        <time>2014-05-04T12:20:00.000Z</time>
      </trkpt>
      <trkpt lat="44.28385" lon="5.3218">
        <ele>979.59997558594</ele>
        <time>2014-05-04T12:20:02.000Z</time>
      </trkpt>
      <trkpt lat="44.2837" lon="5.32149">
        <ele>974.20001220703</ele>
        <time>2014-05-04T12:20:05.000Z</time>
      </trkpt>
      <trkpt lat="44.28359" lon="5.32128">
        <ele>971</ele>
        <time>2014-05-04T12:20:07.000Z</time>
      </trkpt>
      <trkpt lat="44.28347" lon="5.32105">
        <ele>966.40002441406</ele>
        <time>2014-05-04T12:20:09.000Z</time>
      </trkpt>
      <trkpt lat="44.28333" lon="5.32072">
        <ele>962.40002441406</ele>
        <time>2014-05-04T12:20:12.000Z</time>
      </trkpt>
      <trkpt lat="44.28323" lon="5.32045">
        <ele>961</ele>
        <time>2014-05-04T12:20:15.000Z</time>
      </trkpt>
      <trkpt lat="44.28336" lon="5.32027">
        <ele>959.79998779297</ele>
        <time>2014-05-04T12:20:19.000Z</time>
      </trkpt>
      <trkpt lat="44.28347" lon="5.32022">
        <ele>959</ele>
        <time>2014-05-04T12:20:21.000Z</time>
      </trkpt>
      <trkpt lat="44.28361" lon="5.32018">
        <ele>956.79998779297</ele>
        <time>2014-05-04T12:20:23.000Z</time>
      </trkpt>
      <trkpt lat="44.28383" lon="5.32008">
        <ele>950</ele>
        <time>2014-05-04T12:20:26.000Z</time>
      </trkpt>
      <trkpt lat="44.28416" lon="5.31996">
        <ele>949.20001220703</ele>
        <time>2014-05-04T12:20:31.000Z</time>
      </trkpt>
      <trkpt lat="44.28445" lon="5.31978">
        <ele>946.79998779297</ele>
        <time>2014-05-04T12:20:35.000Z</time>
      </trkpt>
      <trkpt lat="44.28474" lon="5.31938">
        <ele>946.59997558594</ele>
        <time>2014-05-04T12:20:41.000Z</time>
      </trkpt>
      <trkpt lat="44.28478" lon="5.31933">
        <ele>947</ele>
        <time>2014-05-04T12:20:42.000Z</time>
      </trkpt>
      <trkpt lat="44.2849" lon="5.3191">
        <ele>946.40002441406</ele>
        <time>2014-05-04T12:20:45.000Z</time>
      </trkpt>
      <trkpt lat="44.28501" lon="5.31874">
        <ele>940.40002441406</ele>
        <time>2014-05-04T12:20:48.000Z</time>
      </trkpt>
      <trkpt lat="44.28503" lon="5.3186">
        <ele>937.79998779297</ele>
        <time>2014-05-04T12:20:49.000Z</time>
      </trkpt>
      <trkpt lat="44.28507" lon="5.31789">
        <ele>930.59997558594</ele>
        <time>2014-05-04T12:20:54.000Z</time>
      </trkpt>
      <trkpt lat="44.28507" lon="5.31762">
        <ele>927.40002441406</ele>
        <time>2014-05-04T12:20:56.000Z</time>
      </trkpt>
      <trkpt lat="44.28507" lon="5.31738">
        <ele>924</ele>
        <time>2014-05-04T12:20:58.000Z</time>
      </trkpt>
      <trkpt lat="44.28507" lon="5.31715">
        <ele>920.20001220703</ele>
        <time>2014-05-04T12:21:00.000Z</time>
      </trkpt>
      <trkpt lat="44.28509" lon="5.31697">
        <ele>917.59997558594</ele>
        <time>2014-05-04T12:21:02.000Z</time>
      </trkpt>
      <trkpt lat="44.28514" lon="5.31669">
        <ele>913.79998779297</ele>
        <time>2014-05-04T12:21:06.000Z</time>
      </trkpt>
      <trkpt lat="44.28524" lon="5.31641">
        <ele>907.20001220703</ele>
        <time>2014-05-04T12:21:09.000Z</time>
      </trkpt>
      <trkpt lat="44.28531" lon="5.31623">
        <ele>910.20001220703</ele>
        <time>2014-05-04T12:21:13.000Z</time>
      </trkpt>
      <trkpt lat="44.28536" lon="5.31609">
        <ele>913.40002441406</ele>
        <time>2014-05-04T12:21:17.000Z</time>
      </trkpt>
      <trkpt lat="44.28541" lon="5.3157">
        <ele>912.79998779297</ele>
        <time>2014-05-04T12:21:23.000Z</time>
      </trkpt>
      <trkpt lat="44.28536" lon="5.31532">
        <ele>908.40002441406</ele>
        <time>2014-05-04T12:21:27.000Z</time>
      </trkpt>
      <trkpt lat="44.28538" lon="5.31492">
        <ele>901.59997558594</ele>
        <time>2014-05-04T12:21:30.000Z</time>
      </trkpt>
      <trkpt lat="44.28539" lon="5.31477">
        <ele>896.40002441406</ele>
        <time>2014-05-04T12:21:31.000Z</time>
      </trkpt>
      <trkpt lat="44.28541" lon="5.31461">
        <ele>892</ele>
        <time>2014-05-04T12:21:32.000Z</time>
      </trkpt>
      <trkpt lat="44.28545" lon="5.31429">
        <ele>886.79998779297</ele>
        <time>2014-05-04T12:21:34.000Z</time>
      </trkpt>
      <trkpt lat="44.2855" lon="5.31397">
        <ele>882.79998779297</ele>
        <time>2014-05-04T12:21:36.000Z</time>
      </trkpt>
      <trkpt lat="44.28555" lon="5.31365">
        <ele>880.59997558594</ele>
        <time>2014-05-04T12:21:38.000Z</time>
      </trkpt>
      <trkpt lat="44.28575" lon="5.31309">
        <ele>877.79998779297</ele>
        <time>2014-05-04T12:21:42.000Z</time>
      </trkpt>
      <trkpt lat="44.28586" lon="5.31287">
        <ele>878.79998779297</ele>
        <time>2014-05-04T12:21:44.000Z</time>
      </trkpt>
      <trkpt lat="44.28594" lon="5.31236">
        <ele>875.59997558594</ele>
        <time>2014-05-04T12:21:48.000Z</time>
      </trkpt>
      <trkpt lat="44.28597" lon="5.31194">
        <ele>874.40002441406</ele>
        <time>2014-05-04T12:21:51.000Z</time>
      </trkpt>
      <trkpt lat="44.28598" lon="5.31181">
        <ele>874.20001220703</ele>
        <time>2014-05-04T12:21:52.000Z</time>
      </trkpt>
      <trkpt lat="44.28602" lon="5.31127">
        <ele>877.79998779297</ele>
        <time>2014-05-04T12:21:57.000Z</time>
      </trkpt>
      <trkpt lat="44.28603" lon="5.31105">
        <ele>879.20001220703</ele>
        <time>2014-05-04T12:22:00.000Z</time>
      </trkpt>
      <trkpt lat="44.28608" lon="5.31067">
        <ele>882.40002441406</ele>
        <time>2014-05-04T12:22:07.000Z</time>
      </trkpt>
      <trkpt lat="44.28623" lon="5.30981">
        <ele>882</ele>
        <time>2014-05-04T12:22:20.000Z</time>
      </trkpt>
      <trkpt lat="44.28635" lon="5.30929">
        <ele>880.79998779297</ele>
        <time>2014-05-04T12:22:26.000Z</time>
      </trkpt>
      <trkpt lat="44.28646" lon="5.30898">
        <ele>879.59997558594</ele>
        <time>2014-05-04T12:22:30.000Z</time>
      </trkpt>
      <trkpt lat="44.2866" lon="5.30862">
        <ele>875.20001220703</ele>
        <time>2014-05-04T12:22:34.000Z</time>
      </trkpt>
      <trkpt lat="44.28669" lon="5.3084">
        <ele>871.59997558594</ele>
        <time>2014-05-04T12:22:36.000Z</time>
      </trkpt>
      <trkpt lat="44.28676" lon="5.30816">
        <ele>868.20001220703</ele>
        <time>2014-05-04T12:22:38.000Z</time>
      </trkpt>
      <trkpt lat="44.28683" lon="5.3079">
        <ele>864.40002441406</ele>
        <time>2014-05-04T12:22:40.000Z</time>
      </trkpt>
      <trkpt lat="44.28689" lon="5.30752">
        <ele>862.20001220703</ele>
        <time>2014-05-04T12:22:43.000Z</time>
      </trkpt>
      <trkpt lat="44.28692" lon="5.30716">
        <ele>857.79998779297</ele>
        <time>2014-05-04T12:22:46.000Z</time>
      </trkpt>
      <trkpt lat="44.28705" lon="5.30667">
        <ele>857.40002441406</ele>
        <time>2014-05-04T12:22:52.000Z</time>
      </trkpt>
      <trkpt lat="44.28703" lon="5.30642">
        <ele>857</ele>
        <time>2014-05-04T12:22:55.000Z</time>
      </trkpt>
      <trkpt lat="44.28713" lon="5.30613">
        <ele>857.79998779297</ele>
        <time>2014-05-04T12:23:01.000Z</time>
      </trkpt>
      <trkpt lat="44.28722" lon="5.30592">
        <ele>858.59997558594</ele>
        <time>2014-05-04T12:23:05.000Z</time>
      </trkpt>
      <trkpt lat="44.28725" lon="5.30531">
        <ele>861.59997558594</ele>
        <time>2014-05-04T12:23:17.000Z</time>
      </trkpt>
      <trkpt lat="44.2873" lon="5.30529">
        <ele>862.59997558594</ele>
        <time>2014-05-04T12:23:19.000Z</time>
      </trkpt>
      <trkpt lat="44.28755" lon="5.30521">
        <ele>865</ele>
        <time>2014-05-04T12:23:31.000Z</time>
      </trkpt>
      <trkpt lat="44.28779" lon="5.30492">
        <ele>865</ele>
        <time>2014-05-04T12:23:41.000Z</time>
      </trkpt>
      <trkpt lat="44.2879" lon="5.30494">
        <ele>862</ele>
        <time>2014-05-04T12:23:46.000Z</time>
      </trkpt>
      <trkpt lat="44.28801" lon="5.30503">
        <ele>858.59997558594</ele>
        <time>2014-05-04T12:23:50.000Z</time>
      </trkpt>
      <trkpt lat="44.28806" lon="5.30505">
        <ele>856.20001220703</ele>
        <time>2014-05-04T12:23:52.000Z</time>
      </trkpt>
      <trkpt lat="44.28808" lon="5.30502">
        <ele>855.59997558594</ele>
        <time>2014-05-04T12:23:54.000Z</time>
      </trkpt>
      <trkpt lat="44.2882" lon="5.30483">
        <ele>854.79998779297</ele>
        <time>2014-05-04T12:24:00.000Z</time>
      </trkpt>
      <trkpt lat="44.28831" lon="5.3047">
        <ele>852.20001220703</ele>
        <time>2014-05-04T12:24:03.000Z</time>
      </trkpt>
      <trkpt lat="44.2886" lon="5.30433">
        <ele>847.59997558594</ele>
        <time>2014-05-04T12:24:11.000Z</time>
      </trkpt>
      <trkpt lat="44.2886" lon="5.30422">
        <ele>847</ele>
        <time>2014-05-04T12:24:13.000Z</time>
      </trkpt>
      <trkpt lat="44.28859" lon="5.30405">
        <ele>844.79998779297</ele>
        <time>2014-05-04T12:24:16.000Z</time>
      </trkpt>
      <trkpt lat="44.2886" lon="5.30386">
        <ele>840.79998779297</ele>
        <time>2014-05-04T12:24:19.000Z</time>
      </trkpt>
      <trkpt lat="44.28864" lon="5.3036">
        <ele>836</ele>
        <time>2014-05-04T12:24:23.000Z</time>
      </trkpt>
      <trkpt lat="44.28861" lon="5.30343">
        <ele>834.59997558594</ele>
        <time>2014-05-04T12:24:29.000Z</time>
      </trkpt>
      <trkpt lat="44.28864" lon="5.30324">
        <ele>831.20001220703</ele>
        <time>2014-05-04T12:24:34.000Z</time>
      </trkpt>
      <trkpt lat="44.28867" lon="5.30314">
        <ele>827.59997558594</ele>
        <time>2014-05-04T12:24:36.000Z</time>
      </trkpt>
      <trkpt lat="44.2887" lon="5.30303">
        <ele>823.79998779297</ele>
        <time>2014-05-04T12:24:38.000Z</time>
      </trkpt>
      <trkpt lat="44.28873" lon="5.30292">
        <ele>820.79998779297</ele>
        <time>2014-05-04T12:24:40.000Z</time>
      </trkpt>
      <trkpt lat="44.28875" lon="5.30277">
        <ele>817</ele>
        <time>2014-05-04T12:24:43.000Z</time>
      </trkpt>
      <trkpt lat="44.28874" lon="5.30264">
        <ele>815</ele>
        <time>2014-05-04T12:24:45.000Z</time>
      </trkpt>
      <trkpt lat="44.28874" lon="5.30233">
        <ele>810.79998779297</ele>
        <time>2014-05-04T12:24:49.000Z</time>
      </trkpt>
      <trkpt lat="44.28876" lon="5.30211">
        <ele>807.20001220703</ele>
        <time>2014-05-04T12:24:53.000Z</time>
      </trkpt>
      <trkpt lat="44.28877" lon="5.30195">
        <ele>803.20001220703</ele>
        <time>2014-05-04T12:24:56.000Z</time>
      </trkpt>
      <trkpt lat="44.28877" lon="5.3019">
        <ele>801.79998779297</ele>
        <time>2014-05-04T12:24:57.000Z</time>
      </trkpt>
      <trkpt lat="44.28879" lon="5.30164">
        <ele>796.79998779297</ele>
        <time>2014-05-04T12:25:01.000Z</time>
      </trkpt>
      <trkpt lat="44.28871" lon="5.30141">
        <ele>793.20001220703</ele>
        <time>2014-05-04T12:25:04.000Z</time>
      </trkpt>
      <trkpt lat="44.28851" lon="5.30115">
        <ele>789.59997558594</ele>
        <time>2014-05-04T12:25:07.000Z</time>
      </trkpt>
      <trkpt lat="44.28846" lon="5.30109">
        <ele>789.20001220703</ele>
        <time>2014-05-04T12:25:08.000Z</time>
      </trkpt>
      <trkpt lat="44.28838" lon="5.30082">
        <ele>784.59997558594</ele>
        <time>2014-05-04T12:25:14.000Z</time>
      </trkpt>
      <trkpt lat="44.28841" lon="5.30073">
        <ele>781</ele>
        <time>2014-05-04T12:25:16.000Z</time>
      </trkpt>
      <trkpt lat="44.28843" lon="5.30064">
        <ele>777.40002441406</ele>
        <time>2014-05-04T12:25:19.000Z</time>
      </trkpt>
      <trkpt lat="44.28844" lon="5.30054">
        <ele>773.79998779297</ele>
        <time>2014-05-04T12:25:22.000Z</time>
      </trkpt>
      <trkpt lat="44.28844" lon="5.30043">
        <ele>771.20001220703</ele>
        <time>2014-05-04T12:25:24.000Z</time>
      </trkpt>
      <trkpt lat="44.28842" lon="5.30028">
        <ele>766.20001220703</ele>
        <time>2014-05-04T12:25:27.000Z</time>
      </trkpt>
      <trkpt lat="44.28841" lon="5.3001">
        <ele>762.59997558594</ele>
        <time>2014-05-04T12:25:32.000Z</time>
      </trkpt>
      <trkpt lat="44.28843" lon="5.30001">
        <ele>758.40002441406</ele>
        <time>2014-05-04T12:25:35.000Z</time>
      </trkpt>
      <trkpt lat="44.28841" lon="5.29993">
        <ele>755.40002441406</ele>
        <time>2014-05-04T12:25:40.000Z</time>
      </trkpt>
      <trkpt lat="44.28841" lon="5.29993">
        <ele>755.20001220703</ele>
        <time>2014-05-04T12:25:42.000Z</time>
      </trkpt>
      <trkpt lat="44.2884" lon="5.29968">
        <ele>751.40002441406</ele>
        <time>2014-05-04T12:25:47.000Z</time>
      </trkpt>
      <trkpt lat="44.28835" lon="5.29944">
        <ele>747.20001220703</ele>
        <time>2014-05-04T12:25:51.000Z</time>
      </trkpt>
      <trkpt lat="44.28836" lon="5.29927">
        <ele>743.40002441406</ele>
        <time>2014-05-04T12:25:54.000Z</time>
      </trkpt>
      <trkpt lat="44.28828" lon="5.29909">
        <ele>738.59997558594</ele>
        <time>2014-05-04T12:25:58.000Z</time>
      </trkpt>
      <trkpt lat="44.28825" lon="5.299">
        <ele>736.40002441406</ele>
        <time>2014-05-04T12:26:00.000Z</time>
      </trkpt>
      <trkpt lat="44.28821" lon="5.29873">
        <ele>731.59997558594</ele>
        <time>2014-05-04T12:26:05.000Z</time>
      </trkpt>
      <trkpt lat="44.28819" lon="5.29866">
        <ele>730.40002441406</ele>
        <time>2014-05-04T12:26:07.000Z</time>
      </trkpt>
      <trkpt lat="44.28816" lon="5.29849">
        <ele>727</ele>
        <time>2014-05-04T12:26:12.000Z</time>
      </trkpt>
      <trkpt lat="44.28813" lon="5.29838">
        <ele>724.20001220703</ele>
        <time>2014-05-04T12:26:16.000Z</time>
      </trkpt>
      <trkpt lat="44.28805" lon="5.29814">
        <ele>720</ele>
        <time>2014-05-04T12:26:22.000Z</time>
      </trkpt>
      <trkpt lat="44.28803" lon="5.29809">
        <ele>719.20001220703</ele>
        <time>2014-05-04T12:26:23.000Z</time>
      </trkpt>
      <trkpt lat="44.28792" lon="5.29765">
        <ele>717.20001220703</ele>
        <time>2014-05-04T12:26:31.000Z</time>
      </trkpt>
      <trkpt lat="44.28796" lon="5.29772">
        <ele>714.40002441406</ele>
        <time>2014-05-04T12:26:39.000Z</time>
      </trkpt>
      <trkpt lat="44.28794" lon="5.2977">
        <ele>714.40002441406</ele>
        <time>2014-05-04T12:26:47.000Z</time>
      </trkpt>
      <trkpt lat="44.28796" lon="5.29758">
        <ele>712.20001220703</ele>
        <time>2014-05-04T12:26:54.000Z</time>
      </trkpt>
      <trkpt lat="44.28802" lon="5.29768">
        <ele>711</ele>
        <time>2014-05-04T12:27:01.000Z</time>
      </trkpt>
      <trkpt lat="44.28802" lon="5.29765">
        <ele>710.40002441406</ele>
        <time>2014-05-04T12:27:03.000Z</time>
      </trkpt>
      <trkpt lat="44.28809" lon="5.2975">
        <ele>706.79998779297</ele>
        <time>2014-05-04T12:27:10.000Z</time>
      </trkpt>
      <trkpt lat="44.28811" lon="5.29739">
        <ele>703.59997558594</ele>
        <time>2014-05-04T12:27:12.000Z</time>
      </trkpt>
      <trkpt lat="44.28813" lon="5.29733">
        <ele>702</ele>
        <time>2014-05-04T12:27:13.000Z</time>
      </trkpt>
      <trkpt lat="44.28815" lon="5.29709">
        <ele>697</ele>
        <time>2014-05-04T12:27:17.000Z</time>
      </trkpt>
      <trkpt lat="44.28816" lon="5.29689">
        <ele>693.40002441406</ele>
        <time>2014-05-04T12:27:22.000Z</time>
      </trkpt>
      <trkpt lat="44.28812" lon="5.29685">
        <ele>692.20001220703</ele>
        <time>2014-05-04T12:27:27.000Z</time>
      </trkpt>
      <trkpt lat="44.28818" lon="5.29702">
        <ele>690.79998779297</ele>
        <time>2014-05-04T12:27:32.000Z</time>
      </trkpt>
      <trkpt lat="44.28828" lon="5.29717">
        <ele>687.20001220703</ele>
        <time>2014-05-04T12:27:36.000Z</time>
      </trkpt>
      <trkpt lat="44.28831" lon="5.29719">
        <ele>685.79998779297</ele>
        <time>2014-05-04T12:27:38.000Z</time>
      </trkpt>
      <trkpt lat="44.28834" lon="5.29718">
        <ele>684.40002441406</ele>
        <time>2014-05-04T12:27:41.000Z</time>
      </trkpt>
      <trkpt lat="44.28828" lon="5.29695">
        <ele>680.79998779297</ele>
        <time>2014-05-04T12:27:47.000Z</time>
      </trkpt>
      <trkpt lat="44.28832" lon="5.29694">
        <ele>678.20001220703</ele>
        <time>2014-05-04T12:27:51.000Z</time>
      </trkpt>
      <trkpt lat="44.28834" lon="5.29694">
        <ele>677</ele>
        <time>2014-05-04T12:27:53.000Z</time>
      </trkpt>
      <trkpt lat="44.28831" lon="5.29682">
        <ele>672.59997558594</ele>
        <time>2014-05-04T12:27:58.000Z</time>
      </trkpt>
      <trkpt lat="44.28837" lon="5.29675">
        <ele>669.59997558594</ele>
        <time>2014-05-04T12:28:05.000Z</time>
      </trkpt>
      <trkpt lat="44.28829" lon="5.29658">
        <ele>666.79998779297</ele>
        <time>2014-05-04T12:28:11.000Z</time>
      </trkpt>
      <trkpt lat="44.28832" lon="5.29648">
        <ele>664.40002441406</ele>
        <time>2014-05-04T12:28:15.000Z</time>
      </trkpt>
      <trkpt lat="44.28839" lon="5.29645">
        <ele>661.40002441406</ele>
        <time>2014-05-04T12:28:19.000Z</time>
      </trkpt>
      <trkpt lat="44.28828" lon="5.29632">
        <ele>658</ele>
        <time>2014-05-04T12:28:25.000Z</time>
      </trkpt>
      <trkpt lat="44.28826" lon="5.29624">
        <ele>655</ele>
        <time>2014-05-04T12:28:30.000Z</time>
      </trkpt>
      <trkpt lat="44.28829" lon="5.29623">
        <ele>653.59997558594</ele>
        <time>2014-05-04T12:28:36.000Z</time>
      </trkpt>
      <trkpt lat="44.28829" lon="5.29607">
        <ele>651.40002441406</ele>
        <time>2014-05-04T12:28:48.000Z</time>
      </trkpt>
      <trkpt lat="44.28841" lon="5.29586">
        <ele>651.40002441406</ele>
        <time>2014-05-04T12:29:00.000Z</time>
      </trkpt>
      <trkpt lat="44.28847" lon="5.29579">
        <ele>654.79998779297</ele>
        <time>2014-05-04T12:29:06.000Z</time>
      </trkpt>
      <trkpt lat="44.28847" lon="5.29575">
        <ele>655.79998779297</ele>
        <time>2014-05-04T12:29:09.000Z</time>
      </trkpt>
      <trkpt lat="44.28862" lon="5.29567">
        <ele>656.20001220703</ele>
        <time>2014-05-04T12:29:19.000Z</time>
      </trkpt>
      <trkpt lat="44.28893" lon="5.29526">
        <ele>656.20001220703</ele>
        <time>2014-05-04T12:29:30.000Z</time>
      </trkpt>
      <trkpt lat="44.28898" lon="5.29506">
        <ele>652.20001220703</ele>
        <time>2014-05-04T12:29:34.000Z</time>
      </trkpt>
      <trkpt lat="44.28899" lon="5.29499">
        <ele>650.79998779297</ele>
        <time>2014-05-04T12:29:35.000Z</time>
      </trkpt>
      <trkpt lat="44.28902" lon="5.29482">
        <ele>647.79998779297</ele>
        <time>2014-05-04T12:29:37.000Z</time>
      </trkpt>
      <trkpt lat="44.28914" lon="5.29439">
        <ele>644.20001220703</ele>
        <time>2014-05-04T12:29:44.000Z</time>
      </trkpt>
      <trkpt lat="44.28921" lon="5.29427">
        <ele>642.20001220703</ele>
        <time>2014-05-04T12:29:46.000Z</time>
      </trkpt>
      <trkpt lat="44.28933" lon="5.29421">
        <ele>640.59997558594</ele>
        <time>2014-05-04T12:29:49.000Z</time>
      </trkpt>
      <trkpt lat="44.28937" lon="5.29419">
        <ele>640.59997558594</ele>
        <time>2014-05-04T12:29:50.000Z</time>
      </trkpt>
      <trkpt lat="44.28953" lon="5.29411">
        <ele>642.20001220703</ele>
        <time>2014-05-04T12:29:56.000Z</time>
      </trkpt>
      <trkpt lat="44.28937" lon="5.29384">
        <ele>638.59997558594</ele>
        <time>2014-05-04T12:30:04.000Z</time>
      </trkpt>
      <trkpt lat="44.28929" lon="5.29374">
        <ele>635.40002441406</ele>
        <time>2014-05-04T12:30:07.000Z</time>
      </trkpt>
      <trkpt lat="44.28923" lon="5.29357">
        <ele>631.79998779297</ele>
        <time>2014-05-04T12:30:10.000Z</time>
      </trkpt>
      <trkpt lat="44.2892" lon="5.29344">
        <ele>628.20001220703</ele>
        <time>2014-05-04T12:30:13.000Z</time>
      </trkpt>
      <trkpt lat="44.28916" lon="5.29333">
        <ele>625.20001220703</ele>
        <time>2014-05-04T12:30:18.000Z</time>
      </trkpt>
      <trkpt lat="44.28922" lon="5.29325">
        <ele>621.59997558594</ele>
        <time>2014-05-04T12:30:22.000Z</time>
      </trkpt>
      <trkpt lat="44.28928" lon="5.29322">
        <ele>618.40002441406</ele>
        <time>2014-05-04T12:30:26.000Z</time>
      </trkpt>
      <trkpt lat="44.28934" lon="5.29312">
        <ele>616</ele>
        <time>2014-05-04T12:30:30.000Z</time>
      </trkpt>
      <trkpt lat="44.28934" lon="5.29307">
        <ele>615.20001220703</ele>
        <time>2014-05-04T12:30:32.000Z</time>
      </trkpt>
      <trkpt lat="44.28939" lon="5.29295">
        <ele>614.59997558594</ele>
        <time>2014-05-04T12:30:36.000Z</time>
      </trkpt>
      <trkpt lat="44.28943" lon="5.29289">
        <ele>614.20001220703</ele>
        <time>2014-05-04T12:30:38.000Z</time>
      </trkpt>
      <trkpt lat="44.28952" lon="5.29271">
        <ele>612.20001220703</ele>
        <time>2014-05-04T12:30:47.000Z</time>
      </trkpt>
      <trkpt lat="44.28939" lon="5.29259">
        <ele>608.59997558594</ele>
        <time>2014-05-04T12:30:55.000Z</time>
      </trkpt>
      <trkpt lat="44.28938" lon="5.29257">
        <ele>608.40002441406</ele>
        <time>2014-05-04T12:30:56.000Z</time>
      </trkpt>
      <trkpt lat="44.28926" lon="5.2924">
        <ele>604.40002441406</ele>
        <time>2014-05-04T12:31:02.000Z</time>
      </trkpt>
      <trkpt lat="44.2892" lon="5.29229">
        <ele>602</ele>
        <time>2014-05-04T12:31:06.000Z</time>
      </trkpt>
      <trkpt lat="44.28917" lon="5.29224">
        <ele>601</ele>
        <time>2014-05-04T12:31:08.000Z</time>
      </trkpt>
      <trkpt lat="44.28919" lon="5.29184">
        <ele>598.59997558594</ele>
        <time>2014-05-04T12:31:16.000Z</time>
      </trkpt>
      <trkpt lat="44.28918" lon="5.29177">
        <ele>598.59997558594</ele>
        <time>2014-05-04T12:31:18.000Z</time>
      </trkpt>
      <trkpt lat="44.28899" lon="5.29165">
        <ele>598.40002441406</ele>
        <time>2014-05-04T12:31:24.000Z</time>
      </trkpt>
      <trkpt lat="44.28888" lon="5.29162">
        <ele>597.40002441406</ele>
        <time>2014-05-04T12:31:28.000Z</time>
      </trkpt>
      <trkpt lat="44.28882" lon="5.29164">
        <ele>596.79998779297</ele>
        <time>2014-05-04T12:31:30.000Z</time>
      </trkpt>
      <trkpt lat="44.28878" lon="5.29145">
        <ele>592.79998779297</ele>
        <time>2014-05-04T12:31:37.000Z</time>
      </trkpt>
      <trkpt lat="44.28885" lon="5.2912">
        <ele>589</ele>
        <time>2014-05-04T12:31:41.000Z</time>
      </trkpt>
      <trkpt lat="44.28889" lon="5.29105">
        <ele>588.20001220703</ele>
        <time>2014-05-04T12:31:43.000Z</time>
      </trkpt>
      <trkpt lat="44.28895" lon="5.29086">
        <ele>587.40002441406</ele>
        <time>2014-05-04T12:31:47.000Z</time>
      </trkpt>
      <trkpt lat="44.28896" lon="5.29063">
        <ele>583.40002441406</ele>
        <time>2014-05-04T12:31:51.000Z</time>
      </trkpt>
      <trkpt lat="44.28896" lon="5.29037">
        <ele>580.20001220703</ele>
        <time>2014-05-04T12:31:56.000Z</time>
      </trkpt>
      <trkpt lat="44.28895" lon="5.29033">
        <ele>577.20001220703</ele>
        <time>2014-05-04T12:32:01.000Z</time>
      </trkpt>
      <trkpt lat="44.28884" lon="5.29036">
        <ele>573.79998779297</ele>
        <time>2014-05-04T12:32:05.000Z</time>
      </trkpt>
      <trkpt lat="44.28868" lon="5.29036">
        <ele>570.59997558594</ele>
        <time>2014-05-04T12:32:09.000Z</time>
      </trkpt>
      <trkpt lat="44.2887" lon="5.29023">
        <ele>568.59997558594</ele>
        <time>2014-05-04T12:32:12.000Z</time>
      </trkpt>
      <trkpt lat="44.28875" lon="5.29003">
        <ele>564.79998779297</ele>
        <time>2014-05-04T12:32:15.000Z</time>
      </trkpt>
      <trkpt lat="44.28871" lon="5.28983">
        <ele>561</ele>
        <time>2014-05-04T12:32:19.000Z</time>
      </trkpt>
      <trkpt lat="44.28869" lon="5.28968">
        <ele>557.59997558594</ele>
        <time>2014-05-04T12:32:24.000Z</time>
      </trkpt>
      <trkpt lat="44.28866" lon="5.28957">
        <ele>553</ele>
        <time>2014-05-04T12:32:26.000Z</time>
      </trkpt>
      <trkpt lat="44.28865" lon="5.28944">
        <ele>550</ele>
        <time>2014-05-04T12:32:28.000Z</time>
      </trkpt>
      <trkpt lat="44.28862" lon="5.28933">
        <ele>548.59997558594</ele>
        <time>2014-05-04T12:32:35.000Z</time>
      </trkpt>
      <trkpt lat="44.28863" lon="5.28934">
        <ele>548.59997558594</ele>
        <time>2014-05-04T12:32:37.000Z</time>
      </trkpt>
      <trkpt lat="44.28856" lon="5.28935">
        <ele>546.40002441406</ele>
        <time>2014-05-04T12:32:44.000Z</time>
      </trkpt>
      <trkpt lat="44.28852" lon="5.28929">
        <ele>543.79998779297</ele>
        <time>2014-05-04T12:32:48.000Z</time>
      </trkpt>
      <trkpt lat="44.28837" lon="5.28943">
        <ele>539.79998779297</ele>
        <time>2014-05-04T12:32:53.000Z</time>
      </trkpt>
      <trkpt lat="44.2881" lon="5.28939">
        <ele>534.20001220703</ele>
        <time>2014-05-04T12:33:00.000Z</time>
      </trkpt>
      <trkpt lat="44.28796" lon="5.2894">
        <ele>531.40002441406</ele>
        <time>2014-05-04T12:33:03.000Z</time>
      </trkpt>
      <trkpt lat="44.28781" lon="5.28958">
        <ele>526.40002441406</ele>
        <time>2014-05-04T12:33:07.000Z</time>
      </trkpt>
      <trkpt lat="44.28774" lon="5.28969">
        <ele>524.79998779297</ele>
        <time>2014-05-04T12:33:11.000Z</time>
      </trkpt>
      <trkpt lat="44.28764" lon="5.28944">
        <ele>521.59997558594</ele>
        <time>2014-05-04T12:33:20.000Z</time>
      </trkpt>
      <trkpt lat="44.28757" lon="5.28936">
        <ele>522.20001220703</ele>
        <time>2014-05-04T12:33:23.000Z</time>
      </trkpt>
      <trkpt lat="44.28751" lon="5.28922">
        <ele>525</ele>
        <time>2014-05-04T12:33:27.000Z</time>
      </trkpt>
      <trkpt lat="44.28753" lon="5.28903">
        <ele>527.59997558594</ele>
        <time>2014-05-04T12:33:31.000Z</time>
      </trkpt>
      <trkpt lat="44.28767" lon="5.28868">
        <ele>524</ele>
        <time>2014-05-04T12:33:36.000Z</time>
      </trkpt>
      <trkpt lat="44.28775" lon="5.28849">
        <ele>520</ele>
        <time>2014-05-04T12:33:38.000Z</time>
      </trkpt>
      <trkpt lat="44.28777" lon="5.28842">
        <ele>518.59997558594</ele>
        <time>2014-05-04T12:33:39.000Z</time>
      </trkpt>
      <trkpt lat="44.28777" lon="5.28814">
        <ele>513.79998779297</ele>
        <time>2014-05-04T12:33:42.000Z</time>
      </trkpt>
      <trkpt lat="44.28768" lon="5.28786">
        <ele>510.60000610352</ele>
        <time>2014-05-04T12:33:45.000Z</time>
      </trkpt>
      <trkpt lat="44.2876" lon="5.28778">
        <ele>509.79998779297</ele>
        <time>2014-05-04T12:33:47.000Z</time>
      </trkpt>
      <trkpt lat="44.28739" lon="5.28773">
        <ele>506.79998779297</ele>
        <time>2014-05-04T12:33:52.000Z</time>
      </trkpt>
      <trkpt lat="44.28729" lon="5.28762">
        <ele>503.79998779297</ele>
        <time>2014-05-04T12:33:54.000Z</time>
      </trkpt>
      <trkpt lat="44.28695" lon="5.28738">
        <ele>497.39999389648</ele>
        <time>2014-05-04T12:34:02.000Z</time>
      </trkpt>
      <trkpt lat="44.28689" lon="5.28734">
        <ele>496</ele>
        <time>2014-05-04T12:34:03.000Z</time>
      </trkpt>
      <trkpt lat="44.28668" lon="5.28718">
        <ele>488.39999389648</ele>
        <time>2014-05-04T12:34:06.000Z</time>
      </trkpt>
      <trkpt lat="44.28652" lon="5.28704">
        <ele>483.60000610352</ele>
        <time>2014-05-04T12:34:08.000Z</time>
      </trkpt>
      <trkpt lat="44.28638" lon="5.28688">
        <ele>479.79998779297</ele>
        <time>2014-05-04T12:34:10.000Z</time>
      </trkpt>
      <trkpt lat="44.28631" lon="5.28681">
        <ele>478.60000610352</ele>
        <time>2014-05-04T12:34:11.000Z</time>
      </trkpt>
      <trkpt lat="44.28597" lon="5.2866">
        <ele>474</ele>
        <time>2014-05-04T12:34:15.000Z</time>
      </trkpt>
      <trkpt lat="44.28559" lon="5.28657">
        <ele>467.79998779297</ele>
        <time>2014-05-04T12:34:20.000Z</time>
      </trkpt>
      <trkpt lat="44.28542" lon="5.28653">
        <ele>463.60000610352</ele>
        <time>2014-05-04T12:34:27.000Z</time>
      </trkpt>
      <trkpt lat="44.28558" lon="5.28629">
        <ele>458</ele>
        <time>2014-05-04T12:34:31.000Z</time>
      </trkpt>
      <trkpt lat="44.28576" lon="5.28604">
        <ele>452.79998779297</ele>
        <time>2014-05-04T12:34:34.000Z</time>
      </trkpt>
      <trkpt lat="44.28581" lon="5.28596">
        <ele>451.60000610352</ele>
        <time>2014-05-04T12:34:35.000Z</time>
      </trkpt>
      <trkpt lat="44.28593" lon="5.28587">
        <ele>450</ele>
        <time>2014-05-04T12:34:38.000Z</time>
      </trkpt>
      <trkpt lat="44.28589" lon="5.2858">
        <ele>449</ele>
        <time>2014-05-04T12:34:43.000Z</time>
      </trkpt>
      <trkpt lat="44.28561" lon="5.28581">
        <ele>444.60000610352</ele>
        <time>2014-05-04T12:34:48.000Z</time>
      </trkpt>
      <trkpt lat="44.28539" lon="5.28578">
        <ele>440</ele>
        <time>2014-05-04T12:34:51.000Z</time>
      </trkpt>
      <trkpt lat="44.28519" lon="5.28583">
        <ele>433.39999389648</ele>
        <time>2014-05-04T12:34:54.000Z</time>
      </trkpt>
      <trkpt lat="44.28498" lon="5.28597">
        <ele>428.20001220703</ele>
        <time>2014-05-04T12:34:57.000Z</time>
      </trkpt>
      <trkpt lat="44.2847" lon="5.28588">
        <ele>425.20001220703</ele>
        <time>2014-05-04T12:35:01.000Z</time>
      </trkpt>
      <trkpt lat="44.28444" lon="5.28553">
        <ele>428.20001220703</ele>
        <time>2014-05-04T12:35:07.000Z</time>
      </trkpt>
      <trkpt lat="44.28436" lon="5.28543">
        <ele>429.60000610352</ele>
        <time>2014-05-04T12:35:09.000Z</time>
      </trkpt>
      <trkpt lat="44.28427" lon="5.28533">
        <ele>430.79998779297</ele>
        <time>2014-05-04T12:35:11.000Z</time>
      </trkpt>
      <trkpt lat="44.28367" lon="5.28495">
        <ele>433</ele>
        <time>2014-05-04T12:35:23.000Z</time>
      </trkpt>
      <trkpt lat="44.28343" lon="5.28482">
        <ele>434.79998779297</ele>
        <time>2014-05-04T12:35:29.000Z</time>
      </trkpt>
      <trkpt lat="44.2828" lon="5.28461">
        <ele>434.79998779297</ele>
        <time>2014-05-04T12:35:41.000Z</time>
      </trkpt>
      <trkpt lat="44.28243" lon="5.2843">
        <ele>436.60000610352</ele>
        <time>2014-05-04T12:35:50.000Z</time>
      </trkpt>
      <trkpt lat="44.28225" lon="5.28425">
        <ele>438.39999389648</ele>
        <time>2014-05-04T12:35:54.000Z</time>
      </trkpt>
      <trkpt lat="44.28199" lon="5.28433">
        <ele>439</ele>
        <time>2014-05-04T12:35:59.000Z</time>
      </trkpt>
      <trkpt lat="44.28179" lon="5.28454">
        <ele>439</ele>
        <time>2014-05-04T12:36:04.000Z</time>
      </trkpt>
      <trkpt lat="44.28172" lon="5.28469">
        <ele>437.20001220703</ele>
        <time>2014-05-04T12:36:06.000Z</time>
      </trkpt>
      <trkpt lat="44.28146" lon="5.28492">
        <ele>432.39999389648</ele>
        <time>2014-05-04T12:36:10.000Z</time>
      </trkpt>
      <trkpt lat="44.28114" lon="5.28482">
        <ele>429.20001220703</ele>
        <time>2014-05-04T12:36:14.000Z</time>
      </trkpt>
      <trkpt lat="44.28083" lon="5.28501">
        <ele>426</ele>
        <time>2014-05-04T12:36:19.000Z</time>
      </trkpt>
      <trkpt lat="44.28081" lon="5.28511">
        <ele>425.60000610352</ele>
        <time>2014-05-04T12:36:20.000Z</time>
      </trkpt>
      <trkpt lat="44.28083" lon="5.28529">
        <ele>425.39999389648</ele>
        <time>2014-05-04T12:36:22.000Z</time>
      </trkpt>
      <trkpt lat="44.28085" lon="5.28554">
        <ele>427.60000610352</ele>
        <time>2014-05-04T12:36:25.000Z</time>
      </trkpt>
      <trkpt lat="44.28071" lon="5.28585">
        <ele>428</ele>
        <time>2014-05-04T12:36:30.000Z</time>
      </trkpt>
      <trkpt lat="44.28006" lon="5.28654">
        <ele>428.39999389648</ele>
        <time>2014-05-04T12:36:43.000Z</time>
      </trkpt>
      <trkpt lat="44.27981" lon="5.28682">
        <ele>425.20001220703</ele>
        <time>2014-05-04T12:36:47.000Z</time>
      </trkpt>
      <trkpt lat="44.27924" lon="5.28712">
        <ele>421.60000610352</ele>
        <time>2014-05-04T12:36:56.000Z</time>
      </trkpt>
      <trkpt lat="44.27918" lon="5.28717">
        <ele>421.39999389648</ele>
        <time>2014-05-04T12:36:59.000Z</time>
      </trkpt>
      <trkpt lat="44.27908" lon="5.28743">
        <ele>423.39999389648</ele>
        <time>2014-05-04T12:37:06.000Z</time>
      </trkpt>
      <trkpt lat="44.27892" lon="5.28812">
        <ele>426.39999389648</ele>
        <time>2014-05-04T12:37:19.000Z</time>
      </trkpt>
      <trkpt lat="44.27879" lon="5.2886">
        <ele>427.79998779297</ele>
        <time>2014-05-04T12:37:30.000Z</time>
      </trkpt>
      <trkpt lat="44.27872" lon="5.28848">
        <ele>427</ele>
        <time>2014-05-04T12:37:34.000Z</time>
      </trkpt>
      <trkpt lat="44.27867" lon="5.28824">
        <ele>423</ele>
        <time>2014-05-04T12:37:38.000Z</time>
      </trkpt>
      <trkpt lat="44.27867" lon="5.28816">
        <ele>421.39999389648</ele>
        <time>2014-05-04T12:37:39.000Z</time>
      </trkpt>
      <trkpt lat="44.27866" lon="5.28802">
        <ele>419.39999389648</ele>
        <time>2014-05-04T12:37:41.000Z</time>
      </trkpt>
      <trkpt lat="44.27862" lon="5.28773">
        <ele>416</ele>
        <time>2014-05-04T12:37:46.000Z</time>
      </trkpt>
      <trkpt lat="44.27855" lon="5.28762">
        <ele>415</ele>
        <time>2014-05-04T12:37:48.000Z</time>
      </trkpt>
      <trkpt lat="44.27831" lon="5.28728">
        <ele>410.39999389648</ele>
        <time>2014-05-04T12:37:53.000Z</time>
      </trkpt>
      <trkpt lat="44.27822" lon="5.28713">
        <ele>408.20001220703</ele>
        <time>2014-05-04T12:37:55.000Z</time>
      </trkpt>
      <trkpt lat="44.27812" lon="5.28661">
        <ele>405</ele>
        <time>2014-05-04T12:38:01.000Z</time>
      </trkpt>
      <trkpt lat="44.27823" lon="5.28604">
        <ele>404.60000610352</ele>
        <time>2014-05-04T12:38:07.000Z</time>
      </trkpt>
      <trkpt lat="44.27839" lon="5.28523">
        <ele>402.20001220703</ele>
        <time>2014-05-04T12:38:15.000Z</time>
      </trkpt>
      <trkpt lat="44.27853" lon="5.28491">
        <ele>401.20001220703</ele>
        <time>2014-05-04T12:38:18.000Z</time>
      </trkpt>
      <trkpt lat="44.27866" lon="5.28457">
        <ele>399.60000610352</ele>
        <time>2014-05-04T12:38:21.000Z</time>
      </trkpt>
      <trkpt lat="44.27872" lon="5.28447">
        <ele>399.60000610352</ele>
        <time>2014-05-04T12:38:22.000Z</time>
      </trkpt>
      <trkpt lat="44.27896" lon="5.28409">
        <ele>398.60000610352</ele>
        <time>2014-05-04T12:38:26.000Z</time>
      </trkpt>
      <trkpt lat="44.27913" lon="5.28362">
        <ele>397.20001220703</ele>
        <time>2014-05-04T12:38:30.000Z</time>
      </trkpt>
      <trkpt lat="44.27918" lon="5.28326">
        <ele>395.79998779297</ele>
        <time>2014-05-04T12:38:33.000Z</time>
      </trkpt>
      <trkpt lat="44.2792" lon="5.28205">
        <ele>394.79998779297</ele>
        <time>2014-05-04T12:38:44.000Z</time>
      </trkpt>
      <trkpt lat="44.27919" lon="5.28145">
        <ele>393.39999389648</ele>
        <time>2014-05-04T12:38:49.000Z</time>
      </trkpt>
      <trkpt lat="44.2792" lon="5.28126">
        <ele>395.79998779297</ele>
        <time>2014-05-04T12:38:55.000Z</time>
      </trkpt>
      <trkpt lat="44.27921" lon="5.28129">
        <ele>396</ele>
        <time>2014-05-04T12:39:09.000Z</time>
      </trkpt>
      <trkpt lat="44.27956" lon="5.28146">
        <ele>396</ele>
        <time>2014-05-04T12:39:20.000Z</time>
      </trkpt>
      <trkpt lat="44.28037" lon="5.28181">
        <ele>396</ele>
        <time>2014-05-04T12:39:33.000Z</time>
      </trkpt>
      <trkpt lat="44.28046" lon="5.28184">
        <ele>395.20001220703</ele>
        <time>2014-05-04T12:39:35.000Z</time>
      </trkpt>
      <trkpt lat="44.28054" lon="5.28187">
        <ele>396.60000610352</ele>
        <time>2014-05-04T12:39:40.000Z</time>
      </trkpt>
      <trkpt lat="44.28045" lon="5.28171">
        <ele>397</ele>
        <time>2014-05-04T12:39:46.000Z</time>
      </trkpt>
      <trkpt lat="44.2805" lon="5.28132">
        <ele>395</ele>
        <time>2014-05-04T12:39:52.000Z</time>
      </trkpt>
      <trkpt lat="44.28055" lon="5.28077">
        <ele>396</ele>
        <time>2014-05-04T12:40:03.000Z</time>
      </trkpt>
      <trkpt lat="44.28036" lon="5.28017">
        <ele>396</ele>
        <time>2014-05-04T12:40:13.000Z</time>
      </trkpt>
      <trkpt lat="44.28017" lon="5.27977">
        <ele>396</ele>
        <time>2014-05-04T12:40:18.000Z</time>
      </trkpt>
      <trkpt lat="44.27991" lon="5.27931">
        <ele>396</ele>
        <time>2014-05-04T12:40:24.000Z</time>
      </trkpt>
      <trkpt lat="44.27965" lon="5.27908">
        <ele>396</ele>
        <time>2014-05-04T12:40:28.000Z</time>
      </trkpt>
      <trkpt lat="44.27941" lon="5.27899">
        <ele>393.79998779297</ele>
        <time>2014-05-04T12:40:31.000Z</time>
      </trkpt>
      <trkpt lat="44.27925" lon="5.27889">
        <ele>393</ele>
        <time>2014-05-04T12:40:33.000Z</time>
      </trkpt>
      <trkpt lat="44.2787" lon="5.27836">
        <ele>390.20001220703</ele>
        <time>2014-05-04T12:40:39.000Z</time>
      </trkpt>
      <trkpt lat="44.27808" lon="5.27775">
        <ele>387.20001220703</ele>
        <time>2014-05-04T12:40:45.000Z</time>
      </trkpt>
      <trkpt lat="44.27758" lon="5.27724">
        <ele>389</ele>
        <time>2014-05-04T12:40:51.000Z</time>
      </trkpt>
      <trkpt lat="44.27742" lon="5.2771">
        <ele>387.79998779297</ele>
        <time>2014-05-04T12:40:53.000Z</time>
      </trkpt>
      <trkpt lat="44.27692" lon="5.27657">
        <ele>387.39999389648</ele>
        <time>2014-05-04T12:41:01.000Z</time>
      </trkpt>
      <trkpt lat="44.27682" lon="5.27653">
        <ele>387.39999389648</ele>
        <time>2014-05-04T12:41:06.000Z</time>
      </trkpt>
      <trkpt lat="44.27681" lon="5.27658">
        <ele>387.39999389648</ele>
        <time>2014-05-04T12:41:08.000Z</time>
      </trkpt>
      <trkpt lat="44.27668" lon="5.27648">
        <ele>387.39999389648</ele>
        <time>2014-05-04T12:41:18.000Z</time>
      </trkpt>
      <trkpt lat="44.27656" lon="5.27637">
        <ele>387.39999389648</ele>
        <time>2014-05-04T12:41:28.000Z</time>
      </trkpt>
      <trkpt lat="44.27645" lon="5.27631">
        <ele>387.39999389648</ele>
        <time>2014-05-04T12:41:32.000Z</time>
      </trkpt>
      <trkpt lat="44.2763" lon="5.27621">
        <ele>387.39999389648</ele>
        <time>2014-05-04T12:41:38.000Z</time>
      </trkpt>
      <trkpt lat="44.27627" lon="5.2762">
        <ele>387.39999389648</ele>
        <time>2014-05-04T12:41:40.000Z</time>
      </trkpt>
      <trkpt lat="44.27621" lon="5.27611">
        <ele>387.39999389648</ele>
        <time>2014-05-04T12:41:46.000Z</time>
      </trkpt>
      <trkpt lat="44.27615" lon="5.27608">
        <ele>387.39999389648</ele>
        <time>2014-05-04T12:41:59.000Z</time>
      </trkpt>
      <trkpt lat="44.27613" lon="5.27619">
        <ele>387.39999389648</ele>
        <time>2014-05-04T12:42:18.000Z</time>
      </trkpt>
      <trkpt lat="44.27611" lon="5.27626">
        <ele>387.39999389648</ele>
        <time>2014-05-04T12:42:37.000Z</time>
      </trkpt>
    </trkseg>
  </trk>
</gpx>